<?xml version='1.0' encoding='UTF-8'?><gpx version="1.1" creator="JPX - https://github.com/jenetics/jpx" xmlns="http://www.topografix.com/GPX/1/1"><trk><trkseg><trkpt lat="44.0435568" lon="12.5987881"><ele>3.0</ele><time>2026-04-04T04:56:09.375Z</time></trkpt><trkpt lat="44.0435989" lon="12.5987202"><ele>3.0</ele><time>2026-04-04T04:58:01.449Z</time></trkpt></trkseg><trkseg><trkpt lat="44.04359" lon="12.5986217"><ele>2.1666666666666665</ele><time>2026-04-04T06:31:33.377Z</time></trkpt><trkpt lat="44.0435367" lon="12.5986817"><ele>2.333333333333333</ele><time>2026-04-04T06:31:38.376Z</time></trkpt><trkpt lat="44.0434783" lon="12.5987333"><ele>2.5</ele><time>2026-04-04T06:31:40.376Z</time></trkpt><trkpt lat="44.0435217" lon="12.5988367"><ele>2.6666666666666665</ele><time>2026-04-04T06:32:19.377Z</time></trkpt><trkpt lat="44.043585" lon="12.598895"><ele>2.8333333333333335</ele><time>2026-04-04T06:32:23.377Z</time></trkpt><trkpt lat="44.04366" lon="12.59888"><ele>3.0</ele><time>2026-04-04T06:32:27.376Z</time></trkpt><trkpt lat="44.0437183" lon="12.5987983"><ele>2.9999999999999996</ele><time>2026-04-04T06:32:36.377Z</time></trkpt><trkpt lat="44.0437817" lon="12.5987333"><ele>3.0</ele><time>2026-04-04T06:32:39.376Z</time></trkpt><trkpt lat="44.0438433" lon="12.5986783"><ele>3.0</ele><time>2026-04-04T06:32:42.376Z</time></trkpt><trkpt lat="44.0438617" lon="12.5985817"><ele>3.0</ele><time>2026-04-04T06:32:46.376Z</time></trkpt><trkpt lat="44.04382" lon="12.5984783"><ele>3.0</ele><time>2026-04-04T06:32:48.376Z</time></trkpt><trkpt lat="44.0437733" lon="12.598415"><ele>2.9999999999999996</ele><time>2026-04-04T06:32:49.376Z</time></trkpt><trkpt lat="44.043725" lon="12.59835"><ele>3.0</ele><time>2026-04-04T06:32:50.377Z</time></trkpt><trkpt lat="44.04368" lon="12.5982883"><ele>3.0</ele><time>2026-04-04T06:32:51.376Z</time></trkpt><trkpt lat="44.043595" lon="12.5981833"><ele>3.0</ele><time>2026-04-04T06:32:53.376Z</time></trkpt><trkpt lat="44.0435033" lon="12.598165"><ele>3.0</ele><time>2026-04-04T06:32:55.377Z</time></trkpt><trkpt lat="44.04345" lon="12.598215"><ele>3.0</ele><time>2026-04-04T06:32:56.376Z</time></trkpt><trkpt lat="44.0433717" lon="12.59831"><ele>3.0</ele><time>2026-04-04T06:32:57.376Z</time></trkpt><trkpt lat="44.0432867" lon="12.59843"><ele>3.0</ele><time>2026-04-04T06:32:58.376Z</time></trkpt><trkpt lat="44.0431983" lon="12.5985633"><ele>3.0</ele><time>2026-04-04T06:32:59.376Z</time></trkpt><trkpt lat="44.04311" lon="12.5986717"><ele>3.0</ele><time>2026-04-04T06:33:00.376Z</time></trkpt><trkpt lat="44.04303" lon="12.5987767"><ele>3.0</ele><time>2026-04-04T06:33:01.377Z</time></trkpt><trkpt lat="44.0429467" lon="12.59886"><ele>2.5</ele><time>2026-04-04T06:33:02.376Z</time></trkpt><trkpt lat="44.0428667" lon="12.5989483"><ele>2.0</ele><time>2026-04-04T06:33:03.376Z</time></trkpt><trkpt lat="44.0427733" lon="12.5990383"><ele>1.5</ele><time>2026-04-04T06:33:04.377Z</time></trkpt><trkpt lat="44.0426867" lon="12.5991433"><ele>1.0</ele><time>2026-04-04T06:33:05.376Z</time></trkpt><trkpt lat="44.0425883" lon="12.5992367"><ele>1.0</ele><time>2026-04-04T06:33:06.377Z</time></trkpt><trkpt lat="44.0424867" lon="12.5993283"><ele>1.0</ele><time>2026-04-04T06:33:07.376Z</time></trkpt><trkpt lat="44.0423883" lon="12.59943"><ele>1.0</ele><time>2026-04-04T06:33:08.377Z</time></trkpt><trkpt lat="44.0422883" lon="12.5995317"><ele>1.0</ele><time>2026-04-04T06:33:09.377Z</time></trkpt><trkpt lat="44.04219" lon="12.5996183"><ele>1.5</ele><time>2026-04-04T06:33:10.376Z</time></trkpt><trkpt lat="44.0420933" lon="12.5997183"><ele>2.0</ele><time>2026-04-04T06:33:11.376Z</time></trkpt><trkpt lat="44.041995" lon="12.59981"><ele>2.5</ele><time>2026-04-04T06:33:12.376Z</time></trkpt><trkpt lat="44.0418933" lon="12.5998933"><ele>3.0</ele><time>2026-04-04T06:33:13.376Z</time></trkpt><trkpt lat="44.04179" lon="12.599975"><ele>3.0</ele><time>2026-04-04T06:33:14.376Z</time></trkpt><trkpt lat="44.0416933" lon="12.6000617"><ele>3.0</ele><time>2026-04-04T06:33:15.377Z</time></trkpt><trkpt lat="44.0415883" lon="12.6001483"><ele>3.0</ele><time>2026-04-04T06:33:16.377Z</time></trkpt><trkpt lat="44.04149" lon="12.6002483"><ele>3.0</ele><time>2026-04-04T06:33:17.377Z</time></trkpt><trkpt lat="44.0413783" lon="12.6003283"><ele>2.5</ele><time>2026-04-04T06:33:18.376Z</time></trkpt><trkpt lat="44.0412717" lon="12.6004083"><ele>2.0</ele><time>2026-04-04T06:33:19.377Z</time></trkpt><trkpt lat="44.04117" lon="12.6004967"><ele>1.5</ele><time>2026-04-04T06:33:20.377Z</time></trkpt><trkpt lat="44.0410817" lon="12.6005767"><ele>1.0</ele><time>2026-04-04T06:33:21.376Z</time></trkpt><trkpt lat="44.0409917" lon="12.60065"><ele>0.9999999999999999</ele><time>2026-04-04T06:33:22.377Z</time></trkpt><trkpt lat="44.0409133" lon="12.6007133"><ele>1.0</ele><time>2026-04-04T06:33:23.376Z</time></trkpt><trkpt lat="44.0408533" lon="12.600785"><ele>1.0</ele><time>2026-04-04T06:33:24.376Z</time></trkpt><trkpt lat="44.0407967" lon="12.60083"><ele>1.0</ele><time>2026-04-04T06:33:25.376Z</time></trkpt><trkpt lat="44.04072" lon="12.6009017"><ele>0.9999999999999999</ele><time>2026-04-04T06:33:27.377Z</time></trkpt><trkpt lat="44.0406533" lon="12.6009683"><ele>1.0</ele><time>2026-04-04T06:33:29.376Z</time></trkpt><trkpt lat="44.0405883" lon="12.6010367"><ele>1.4</ele><time>2026-04-04T06:33:32.376Z</time></trkpt><trkpt lat="44.0405317" lon="12.6010833"><ele>1.8</ele><time>2026-04-04T06:33:53.376Z</time></trkpt><trkpt lat="44.04044" lon="12.601035"><ele>2.1999999999999997</ele><time>2026-04-04T06:33:55.377Z</time></trkpt><trkpt lat="44.04038" lon="12.6009417"><ele>2.6</ele><time>2026-04-04T06:33:56.376Z</time></trkpt><trkpt lat="44.0403117" lon="12.6008283"><ele>3.0</ele><time>2026-04-04T06:33:57.376Z</time></trkpt><trkpt lat="44.0402433" lon="12.600715"><ele>3.0</ele><time>2026-04-04T06:33:58.377Z</time></trkpt><trkpt lat="44.040175" lon="12.6006"><ele>3.0</ele><time>2026-04-04T06:33:59.376Z</time></trkpt><trkpt lat="44.0401117" lon="12.6004833"><ele>3.0</ele><time>2026-04-04T06:34:00.376Z</time></trkpt><trkpt lat="44.040055" lon="12.6003817"><ele>3.0</ele><time>2026-04-04T06:34:01.376Z</time></trkpt><trkpt lat="44.0400083" lon="12.600295"><ele>3.0</ele><time>2026-04-04T06:34:02.377Z</time></trkpt><trkpt lat="44.03997" lon="12.6001733"><ele>2.8</ele><time>2026-04-04T06:34:04.376Z</time></trkpt><trkpt lat="44.0399717" lon="12.6000667"><ele>2.5999999999999996</ele><time>2026-04-04T06:34:06.377Z</time></trkpt><trkpt lat="44.0399633" lon="12.59993"><ele>2.4000000000000004</ele><time>2026-04-04T06:34:08.376Z</time></trkpt><trkpt lat="44.0399117" lon="12.5998117"><ele>2.2</ele><time>2026-04-04T06:34:10.376Z</time></trkpt><trkpt lat="44.0398317" lon="12.59976"><ele>2.0</ele><time>2026-04-04T06:34:12.377Z</time></trkpt><trkpt lat="44.0397383" lon="12.5997933"><ele>1.8</ele><time>2026-04-04T06:34:14.376Z</time></trkpt><trkpt lat="44.0396483" lon="12.5999167"><ele>1.6</ele><time>2026-04-04T06:34:16.376Z</time></trkpt><trkpt lat="44.039605" lon="12.6"><ele>1.4000000000000001</ele><time>2026-04-04T06:34:17.376Z</time></trkpt><trkpt lat="44.03956" lon="12.6000917"><ele>1.2000000000000002</ele><time>2026-04-04T06:34:18.377Z</time></trkpt><trkpt lat="44.0394917" lon="12.60019"><ele>1.0</ele><time>2026-04-04T06:34:19.376Z</time></trkpt><trkpt lat="44.0393983" lon="12.600285"><ele>1.2000000000000002</ele><time>2026-04-04T06:34:20.376Z</time></trkpt><trkpt lat="44.0393083" lon="12.60036"><ele>1.4000000000000001</ele><time>2026-04-04T06:34:21.376Z</time></trkpt><trkpt lat="44.03923" lon="12.6004117"><ele>1.6</ele><time>2026-04-04T06:34:23.376Z</time></trkpt><trkpt lat="44.0391517" lon="12.6003967"><ele>1.8</ele><time>2026-04-04T06:34:27.376Z</time></trkpt><trkpt lat="44.039075" lon="12.6003567"><ele>2.0</ele><time>2026-04-04T06:34:29.376Z</time></trkpt><trkpt lat="44.03897" lon="12.6002317"><ele>2.8</ele><time>2026-04-04T06:34:31.376Z</time></trkpt><trkpt lat="44.0389083" lon="12.6001467"><ele>3.6</ele><time>2026-04-04T06:34:32.377Z</time></trkpt><trkpt lat="44.0388433" lon="12.6000383"><ele>4.3999999999999995</ele><time>2026-04-04T06:34:33.377Z</time></trkpt><trkpt lat="44.038765" lon="12.5999117"><ele>5.2</ele><time>2026-04-04T06:34:34.377Z</time></trkpt><trkpt lat="44.0386917" lon="12.59977"><ele>6.0</ele><time>2026-04-04T06:34:35.377Z</time></trkpt><trkpt lat="44.03861" lon="12.599625"><ele>6.0</ele><time>2026-04-04T06:34:36.376Z</time></trkpt><trkpt lat="44.0385283" lon="12.5994817"><ele>6.0</ele><time>2026-04-04T06:34:37.376Z</time></trkpt><trkpt lat="44.0384483" lon="12.599345"><ele>6.0</ele><time>2026-04-04T06:34:38.376Z</time></trkpt><trkpt lat="44.0383733" lon="12.5992217"><ele>6.0</ele><time>2026-04-04T06:34:39.377Z</time></trkpt><trkpt lat="44.03831" lon="12.599115"><ele>5.833333333333333</ele><time>2026-04-04T06:34:40.376Z</time></trkpt><trkpt lat="44.0382583" lon="12.599025"><ele>5.666666666666667</ele><time>2026-04-04T06:34:41.376Z</time></trkpt><trkpt lat="44.0382167" lon="12.598945"><ele>5.5</ele><time>2026-04-04T06:34:42.376Z</time></trkpt><trkpt lat="44.0381733" lon="12.5988683"><ele>5.333333333333334</ele><time>2026-04-04T06:34:43.377Z</time></trkpt><trkpt lat="44.0381233" lon="12.5987833"><ele>5.166666666666667</ele><time>2026-04-04T06:34:44.376Z</time></trkpt><trkpt lat="44.03806" lon="12.598685"><ele>5.0</ele><time>2026-04-04T06:34:45.376Z</time></trkpt><trkpt lat="44.037985" lon="12.59856"><ele>4.5</ele><time>2026-04-04T06:34:46.376Z</time></trkpt><trkpt lat="44.0379083" lon="12.5984167"><ele>4.0</ele><time>2026-04-04T06:34:47.376Z</time></trkpt><trkpt lat="44.0378283" lon="12.5982717"><ele>3.5</ele><time>2026-04-04T06:34:48.376Z</time></trkpt><trkpt lat="44.0377417" lon="12.598145"><ele>3.0</ele><time>2026-04-04T06:34:49.377Z</time></trkpt><trkpt lat="44.0376483" lon="12.5980483"><ele>3.0</ele><time>2026-04-04T06:34:50.376Z</time></trkpt><trkpt lat="44.037565" lon="12.597975"><ele>3.0</ele><time>2026-04-04T06:34:51.376Z</time></trkpt><trkpt lat="44.0375033" lon="12.5979283"><ele>3.0</ele><time>2026-04-04T06:34:52.377Z</time></trkpt><trkpt lat="44.0374333" lon="12.597835"><ele>3.0</ele><time>2026-04-04T06:34:54.376Z</time></trkpt><trkpt lat="44.0373433" lon="12.5976967"><ele>3.0</ele><time>2026-04-04T06:34:56.376Z</time></trkpt><trkpt lat="44.0372767" lon="12.5976067"><ele>3.0</ele><time>2026-04-04T06:34:57.377Z</time></trkpt><trkpt lat="44.03719" lon="12.59754"><ele>3.0</ele><time>2026-04-04T06:34:58.377Z</time></trkpt><trkpt lat="44.0370917" lon="12.59751"><ele>3.0</ele><time>2026-04-04T06:34:59.377Z</time></trkpt><trkpt lat="44.0369967" lon="12.5975067"><ele>3.0</ele><time>2026-04-04T06:35:00.377Z</time></trkpt><trkpt lat="44.036895" lon="12.5974983"><ele>3.0</ele><time>2026-04-04T06:35:01.376Z</time></trkpt><trkpt lat="44.0368" lon="12.5974483"><ele>3.0</ele><time>2026-04-04T06:35:02.377Z</time></trkpt><trkpt lat="44.0367183" lon="12.59735"><ele>3.0</ele><time>2026-04-04T06:35:03.377Z</time></trkpt><trkpt lat="44.03665" lon="12.59722"><ele>3.0</ele><time>2026-04-04T06:35:04.376Z</time></trkpt><trkpt lat="44.0365933" lon="12.597075"><ele>3.0</ele><time>2026-04-04T06:35:05.376Z</time></trkpt><trkpt lat="44.0365383" lon="12.5969267"><ele>3.25</ele><time>2026-04-04T06:35:06.376Z</time></trkpt><trkpt lat="44.0364783" lon="12.59677"><ele>3.5</ele><time>2026-04-04T06:35:07.377Z</time></trkpt><trkpt lat="44.0364133" lon="12.5966117"><ele>3.75</ele><time>2026-04-04T06:35:08.377Z</time></trkpt><trkpt lat="44.0363483" lon="12.5964533"><ele>4.0</ele><time>2026-04-04T06:35:09.377Z</time></trkpt><trkpt lat="44.03629" lon="12.5963133"><ele>3.75</ele><time>2026-04-04T06:35:10.376Z</time></trkpt><trkpt lat="44.0362133" lon="12.59616"><ele>3.5</ele><time>2026-04-04T06:35:11.377Z</time></trkpt><trkpt lat="44.03613" lon="12.5959883"><ele>3.25</ele><time>2026-04-04T06:35:12.376Z</time></trkpt><trkpt lat="44.0360433" lon="12.5958183"><ele>3.0</ele><time>2026-04-04T06:35:13.377Z</time></trkpt><trkpt lat="44.0359633" lon="12.5956417"><ele>3.0</ele><time>2026-04-04T06:35:14.377Z</time></trkpt><trkpt lat="44.0358867" lon="12.5954667"><ele>3.0</ele><time>2026-04-04T06:35:15.376Z</time></trkpt><trkpt lat="44.0358117" lon="12.59531"><ele>3.0</ele><time>2026-04-04T06:35:16.376Z</time></trkpt><trkpt lat="44.0357467" lon="12.5951683"><ele>3.0</ele><time>2026-04-04T06:35:17.376Z</time></trkpt><trkpt lat="44.0356883" lon="12.5950383"><ele>3.0</ele><time>2026-04-04T06:35:18.377Z</time></trkpt><trkpt lat="44.0356317" lon="12.59491"><ele>3.0</ele><time>2026-04-04T06:35:19.377Z</time></trkpt><trkpt lat="44.0355733" lon="12.5947833"><ele>3.0</ele><time>2026-04-04T06:35:20.377Z</time></trkpt><trkpt lat="44.0355167" lon="12.5946533"><ele>3.0</ele><time>2026-04-04T06:35:21.376Z</time></trkpt><trkpt lat="44.035445" lon="12.59452"><ele>3.0</ele><time>2026-04-04T06:35:22.376Z</time></trkpt><trkpt lat="44.0353683" lon="12.5943733"><ele>3.333333333333333</ele><time>2026-04-04T06:35:23.377Z</time></trkpt><trkpt lat="44.0352817" lon="12.5942083"><ele>3.6666666666666665</ele><time>2026-04-04T06:35:24.376Z</time></trkpt><trkpt lat="44.0351917" lon="12.594025"><ele>4.0</ele><time>2026-04-04T06:35:25.376Z</time></trkpt><trkpt lat="44.0351033" lon="12.5938367"><ele>4.333333333333333</ele><time>2026-04-04T06:35:26.376Z</time></trkpt><trkpt lat="44.0350167" lon="12.5936483"><ele>4.666666666666667</ele><time>2026-04-04T06:35:27.376Z</time></trkpt><trkpt lat="44.0349317" lon="12.5934633"><ele>5.0</ele><time>2026-04-04T06:35:28.376Z</time></trkpt><trkpt lat="44.03485" lon="12.59328"><ele>5.0</ele><time>2026-04-04T06:35:29.377Z</time></trkpt><trkpt lat="44.0347667" lon="12.5931133"><ele>5.0</ele><time>2026-04-04T06:35:30.376Z</time></trkpt><trkpt lat="44.0346883" lon="12.5929467"><ele>5.0</ele><time>2026-04-04T06:35:31.377Z</time></trkpt><trkpt lat="44.0346083" lon="12.592795"><ele>5.0</ele><time>2026-04-04T06:35:32.376Z</time></trkpt><trkpt lat="44.03454" lon="12.5926533"><ele>4.8</ele><time>2026-04-04T06:35:33.377Z</time></trkpt><trkpt lat="44.0344767" lon="12.59253"><ele>4.6</ele><time>2026-04-04T06:35:34.376Z</time></trkpt><trkpt lat="44.03442" lon="12.5924133"><ele>4.4</ele><time>2026-04-04T06:35:35.376Z</time></trkpt><trkpt lat="44.034365" lon="12.5923117"><ele>4.2</ele><time>2026-04-04T06:35:36.376Z</time></trkpt><trkpt lat="44.0343217" lon="12.5922333"><ele>4.0</ele><time>2026-04-04T06:35:37.377Z</time></trkpt><trkpt lat="44.0342533" lon="12.5921483"><ele>3.8000000000000003</ele><time>2026-04-04T06:35:39.376Z</time></trkpt><trkpt lat="44.034115" lon="12.592165"><ele>3.6000000000000005</ele><time>2026-04-04T06:35:41.377Z</time></trkpt><trkpt lat="44.0340233" lon="12.5922033"><ele>3.4</ele><time>2026-04-04T06:35:42.377Z</time></trkpt><trkpt lat="44.03392" lon="12.5922417"><ele>3.2</ele><time>2026-04-04T06:35:43.376Z</time></trkpt><trkpt lat="44.033825" lon="12.592275"><ele>3.0</ele><time>2026-04-04T06:35:44.377Z</time></trkpt><trkpt lat="44.033755" lon="12.592305"><ele>3.0</ele><time>2026-04-04T06:35:45.376Z</time></trkpt><trkpt lat="44.0336883" lon="12.5923117"><ele>3.0</ele><time>2026-04-04T06:35:47.376Z</time></trkpt><trkpt lat="44.0336217" lon="12.5922233"><ele>3.0</ele><time>2026-04-04T06:35:49.376Z</time></trkpt><trkpt lat="44.0335633" lon="12.592145"><ele>3.0</ele><time>2026-04-04T06:35:50.377Z</time></trkpt><trkpt lat="44.033495" lon="12.5920583"><ele>3.0</ele><time>2026-04-04T06:35:51.376Z</time></trkpt><trkpt lat="44.0334167" lon="12.5919633"><ele>3.0</ele><time>2026-04-04T06:35:52.376Z</time></trkpt><trkpt lat="44.03334" lon="12.59186"><ele>3.5999999999999996</ele><time>2026-04-04T06:35:53.376Z</time></trkpt><trkpt lat="44.0332633" lon="12.59175"><ele>4.199999999999999</ele><time>2026-04-04T06:35:54.376Z</time></trkpt><trkpt lat="44.033185" lon="12.5916383"><ele>4.8</ele><time>2026-04-04T06:35:55.377Z</time></trkpt><trkpt lat="44.0331067" lon="12.5915283"><ele>5.3999999999999995</ele><time>2026-04-04T06:35:56.376Z</time></trkpt><trkpt lat="44.033035" lon="12.5914267"><ele>6.0</ele><time>2026-04-04T06:35:57.376Z</time></trkpt><trkpt lat="44.0329717" lon="12.5913283"><ele>6.0</ele><time>2026-04-04T06:35:58.377Z</time></trkpt><trkpt lat="44.032925" lon="12.59123"><ele>6.0</ele><time>2026-04-04T06:35:59.376Z</time></trkpt><trkpt lat="44.0328983" lon="12.5911217"><ele>6.0</ele><time>2026-04-04T06:36:00.376Z</time></trkpt><trkpt lat="44.032885" lon="12.590985"><ele>6.0</ele><time>2026-04-04T06:36:01.376Z</time></trkpt><trkpt lat="44.03288" lon="12.5908283"><ele>6.0</ele><time>2026-04-04T06:36:02.376Z</time></trkpt><trkpt lat="44.03288" lon="12.5906617"><ele>5.5</ele><time>2026-04-04T06:36:03.376Z</time></trkpt><trkpt lat="44.0328767" lon="12.59049"><ele>5.0</ele><time>2026-04-04T06:36:04.376Z</time></trkpt><trkpt lat="44.0328633" lon="12.5903217"><ele>4.5</ele><time>2026-04-04T06:36:05.376Z</time></trkpt><trkpt lat="44.0328383" lon="12.5901517"><ele>4.0</ele><time>2026-04-04T06:36:06.376Z</time></trkpt><trkpt lat="44.0328" lon="12.58998"><ele>4.0</ele><time>2026-04-04T06:36:07.376Z</time></trkpt><trkpt lat="44.032755" lon="12.589805"><ele>4.0</ele><time>2026-04-04T06:36:08.376Z</time></trkpt><trkpt lat="44.0327083" lon="12.5896333"><ele>4.0</ele><time>2026-04-04T06:36:09.377Z</time></trkpt><trkpt lat="44.03267" lon="12.589465"><ele>4.0</ele><time>2026-04-04T06:36:10.377Z</time></trkpt><trkpt lat="44.0326267" lon="12.589315"><ele>4.2</ele><time>2026-04-04T06:36:11.376Z</time></trkpt><trkpt lat="44.0325883" lon="12.5891733"><ele>4.4</ele><time>2026-04-04T06:36:12.376Z</time></trkpt><trkpt lat="44.03255" lon="12.58905"><ele>4.6</ele><time>2026-04-04T06:36:13.376Z</time></trkpt><trkpt lat="44.0325217" lon="12.5889383"><ele>4.8</ele><time>2026-04-04T06:36:14.376Z</time></trkpt><trkpt lat="44.0325" lon="12.588845"><ele>5.0</ele><time>2026-04-04T06:36:15.377Z</time></trkpt><trkpt lat="44.0324867" lon="12.5887233"><ele>5.2</ele><time>2026-04-04T06:36:17.377Z</time></trkpt><trkpt lat="44.0324533" lon="12.5886233"><ele>5.4</ele><time>2026-04-04T06:36:20.376Z</time></trkpt><trkpt lat="44.0323267" lon="12.5885767"><ele>5.6</ele><time>2026-04-04T06:36:22.377Z</time></trkpt><trkpt lat="44.0322217" lon="12.5885883"><ele>5.8</ele><time>2026-04-04T06:36:23.376Z</time></trkpt><trkpt lat="44.0321033" lon="12.5885983"><ele>6.0</ele><time>2026-04-04T06:36:24.376Z</time></trkpt><trkpt lat="44.0319783" lon="12.5886167"><ele>6.0</ele><time>2026-04-04T06:36:25.377Z</time></trkpt><trkpt lat="44.03185" lon="12.5886467"><ele>6.0</ele><time>2026-04-04T06:36:26.376Z</time></trkpt><trkpt lat="44.0317183" lon="12.58869"><ele>6.0</ele><time>2026-04-04T06:36:27.376Z</time></trkpt><trkpt lat="44.031585" lon="12.5887433"><ele>6.0</ele><time>2026-04-04T06:36:28.376Z</time></trkpt><trkpt lat="44.0314517" lon="12.5887933"><ele>6.25</ele><time>2026-04-04T06:36:29.377Z</time></trkpt><trkpt lat="44.0313133" lon="12.588845"><ele>6.5</ele><time>2026-04-04T06:36:30.376Z</time></trkpt><trkpt lat="44.0311767" lon="12.5888917"><ele>6.75</ele><time>2026-04-04T06:36:31.377Z</time></trkpt><trkpt lat="44.031035" lon="12.5889317"><ele>7.0</ele><time>2026-04-04T06:36:32.376Z</time></trkpt><trkpt lat="44.03089" lon="12.5889633"><ele>7.5</ele><time>2026-04-04T06:36:33.377Z</time></trkpt><trkpt lat="44.030745" lon="12.58899"><ele>8.0</ele><time>2026-04-04T06:36:34.376Z</time></trkpt><trkpt lat="44.0306" lon="12.5890117"><ele>8.5</ele><time>2026-04-04T06:36:35.376Z</time></trkpt><trkpt lat="44.030455" lon="12.5890333"><ele>9.0</ele><time>2026-04-04T06:36:36.376Z</time></trkpt><trkpt lat="44.030305" lon="12.58906"><ele>9.0</ele><time>2026-04-04T06:36:37.376Z</time></trkpt><trkpt lat="44.03016" lon="12.5890933"><ele>9.0</ele><time>2026-04-04T06:36:38.376Z</time></trkpt><trkpt lat="44.03003" lon="12.5891333"><ele>9.0</ele><time>2026-04-04T06:36:39.376Z</time></trkpt><trkpt lat="44.0299083" lon="12.5891683"><ele>9.0</ele><time>2026-04-04T06:36:40.377Z</time></trkpt><trkpt lat="44.029795" lon="12.5892033"><ele>8.833333333333334</ele><time>2026-04-04T06:36:41.376Z</time></trkpt><trkpt lat="44.0297067" lon="12.5892317"><ele>8.666666666666666</ele><time>2026-04-04T06:36:42.377Z</time></trkpt><trkpt lat="44.0296367" lon="12.589265"><ele>8.5</ele><time>2026-04-04T06:36:43.376Z</time></trkpt><trkpt lat="44.02957" lon="12.5892833"><ele>8.333333333333332</ele><time>2026-04-04T06:36:44.376Z</time></trkpt><trkpt lat="44.0294583" lon="12.5892383"><ele>8.166666666666666</ele><time>2026-04-04T06:36:46.376Z</time></trkpt><trkpt lat="44.02941" lon="12.589135"><ele>8.0</ele><time>2026-04-04T06:36:47.377Z</time></trkpt><trkpt lat="44.0293567" lon="12.588975"><ele>8.0</ele><time>2026-04-04T06:36:48.376Z</time></trkpt><trkpt lat="44.0293067" lon="12.588815"><ele>8.0</ele><time>2026-04-04T06:36:49.377Z</time></trkpt><trkpt lat="44.0292517" lon="12.588655"><ele>8.0</ele><time>2026-04-04T06:36:50.377Z</time></trkpt><trkpt lat="44.0291967" lon="12.5884933"><ele>8.0</ele><time>2026-04-04T06:36:51.376Z</time></trkpt><trkpt lat="44.02914" lon="12.5883317"><ele>8.0</ele><time>2026-04-04T06:36:52.377Z</time></trkpt><trkpt lat="44.02909" lon="12.5881583"><ele>8.0</ele><time>2026-04-04T06:36:53.376Z</time></trkpt><trkpt lat="44.029035" lon="12.58798"><ele>8.0</ele><time>2026-04-04T06:36:54.376Z</time></trkpt><trkpt lat="44.028965" lon="12.58781"><ele>8.0</ele><time>2026-04-04T06:36:55.377Z</time></trkpt><trkpt lat="44.028885" lon="12.58763"><ele>8.0</ele><time>2026-04-04T06:36:56.376Z</time></trkpt><trkpt lat="44.0288033" lon="12.5874583"><ele>8.0</ele><time>2026-04-04T06:36:57.377Z</time></trkpt><trkpt lat="44.02872" lon="12.5872967"><ele>8.0</ele><time>2026-04-04T06:36:58.376Z</time></trkpt><trkpt lat="44.0286333" lon="12.5871233"><ele>8.0</ele><time>2026-04-04T06:36:59.376Z</time></trkpt><trkpt lat="44.028545" lon="12.5869533"><ele>7.666666666666666</ele><time>2026-04-04T06:37:00.376Z</time></trkpt><trkpt lat="44.028445" lon="12.5867867"><ele>7.333333333333334</ele><time>2026-04-04T06:37:01.377Z</time></trkpt><trkpt lat="44.028345" lon="12.5866283"><ele>7.0</ele><time>2026-04-04T06:37:02.376Z</time></trkpt><trkpt lat="44.0282417" lon="12.5864867"><ele>7.75</ele><time>2026-04-04T06:37:03.376Z</time></trkpt><trkpt lat="44.0281383" lon="12.5863467"><ele>8.5</ele><time>2026-04-04T06:37:04.377Z</time></trkpt><trkpt lat="44.028045" lon="12.5862017"><ele>9.25</ele><time>2026-04-04T06:37:05.377Z</time></trkpt><trkpt lat="44.0279417" lon="12.58606"><ele>10.0</ele><time>2026-04-04T06:37:06.376Z</time></trkpt><trkpt lat="44.0278533" lon="12.5858967"><ele>10.333333333333334</ele><time>2026-04-04T06:37:07.376Z</time></trkpt><trkpt lat="44.0277733" lon="12.5857217"><ele>10.666666666666666</ele><time>2026-04-04T06:37:08.376Z</time></trkpt><trkpt lat="44.0277067" lon="12.5855333"><ele>11.0</ele><time>2026-04-04T06:37:09.377Z</time></trkpt><trkpt lat="44.0276483" lon="12.5853383"><ele>11.0</ele><time>2026-04-04T06:37:10.376Z</time></trkpt><trkpt lat="44.0275833" lon="12.5851433"><ele>11.0</ele><time>2026-04-04T06:37:11.377Z</time></trkpt><trkpt lat="44.0275033" lon="12.5849633"><ele>11.0</ele><time>2026-04-04T06:37:12.376Z</time></trkpt><trkpt lat="44.02741" lon="12.5847967"><ele>11.0</ele><time>2026-04-04T06:37:13.376Z</time></trkpt><trkpt lat="44.0273067" lon="12.584645"><ele>11.0</ele><time>2026-04-04T06:37:14.376Z</time></trkpt><trkpt lat="44.0272067" lon="12.584505"><ele>11.0</ele><time>2026-04-04T06:37:15.377Z</time></trkpt><trkpt lat="44.0271117" lon="12.58437"><ele>11.0</ele><time>2026-04-04T06:37:16.376Z</time></trkpt><trkpt lat="44.0270167" lon="12.58423"><ele>11.0</ele><time>2026-04-04T06:37:17.376Z</time></trkpt><trkpt lat="44.0269133" lon="12.584085"><ele>11.0</ele><time>2026-04-04T06:37:18.377Z</time></trkpt><trkpt lat="44.0268117" lon="12.5839433"><ele>11.0</ele><time>2026-04-04T06:37:19.377Z</time></trkpt><trkpt lat="44.02671" lon="12.5837933"><ele>11.0</ele><time>2026-04-04T06:37:20.377Z</time></trkpt><trkpt lat="44.026605" lon="12.583645"><ele>11.0</ele><time>2026-04-04T06:37:21.377Z</time></trkpt><trkpt lat="44.0264983" lon="12.583505"><ele>11.0</ele><time>2026-04-04T06:37:22.377Z</time></trkpt><trkpt lat="44.0264" lon="12.5833617"><ele>11.0</ele><time>2026-04-04T06:37:23.377Z</time></trkpt><trkpt lat="44.0263067" lon="12.5832317"><ele>11.0</ele><time>2026-04-04T06:37:24.377Z</time></trkpt><trkpt lat="44.0262233" lon="12.5831117"><ele>11.0</ele><time>2026-04-04T06:37:25.377Z</time></trkpt><trkpt lat="44.026145" lon="12.5829983"><ele>11.0</ele><time>2026-04-04T06:37:26.376Z</time></trkpt><trkpt lat="44.0260783" lon="12.5829033"><ele>11.0</ele><time>2026-04-04T06:37:27.376Z</time></trkpt><trkpt lat="44.026025" lon="12.58283"><ele>11.0</ele><time>2026-04-04T06:37:28.377Z</time></trkpt><trkpt lat="44.0259733" lon="12.5827117"><ele>11.0</ele><time>2026-04-04T06:37:30.376Z</time></trkpt><trkpt lat="44.0259933" lon="12.582615"><ele>11.0</ele><time>2026-04-04T06:37:32.376Z</time></trkpt><trkpt lat="44.0260433" lon="12.582545"><ele>11.0</ele><time>2026-04-04T06:37:33.376Z</time></trkpt><trkpt lat="44.0261167" lon="12.58246"><ele>11.0</ele><time>2026-04-04T06:37:34.376Z</time></trkpt><trkpt lat="44.026205" lon="12.5823783"><ele>11.0</ele><time>2026-04-04T06:37:35.377Z</time></trkpt><trkpt lat="44.026285" lon="12.582305"><ele>11.0</ele><time>2026-04-04T06:37:36.376Z</time></trkpt><trkpt lat="44.026345" lon="12.58225"><ele>11.0</ele><time>2026-04-04T06:37:37.376Z</time></trkpt><trkpt lat="44.0264083" lon="12.5821867"><ele>11.0</ele><time>2026-04-04T06:37:39.376Z</time></trkpt><trkpt lat="44.02647" lon="12.582095"><ele>11.0</ele><time>2026-04-04T06:37:42.376Z</time></trkpt><trkpt lat="44.0264567" lon="12.58196"><ele>11.0</ele><time>2026-04-04T06:37:44.376Z</time></trkpt><trkpt lat="44.0264067" lon="12.581875"><ele>11.0</ele><time>2026-04-04T06:37:45.376Z</time></trkpt><trkpt lat="44.0263417" lon="12.5817817"><ele>11.0</ele><time>2026-04-04T06:37:46.376Z</time></trkpt><trkpt lat="44.02628" lon="12.5816667"><ele>11.5</ele><time>2026-04-04T06:37:47.376Z</time></trkpt><trkpt lat="44.0262167" lon="12.5815417"><ele>12.0</ele><time>2026-04-04T06:37:48.377Z</time></trkpt><trkpt lat="44.0261467" lon="12.58141"><ele>12.5</ele><time>2026-04-04T06:37:49.376Z</time></trkpt><trkpt lat="44.0260733" lon="12.5812617"><ele>13.0</ele><time>2026-04-04T06:37:50.376Z</time></trkpt><trkpt lat="44.0260033" lon="12.5811083"><ele>13.0</ele><time>2026-04-04T06:37:51.376Z</time></trkpt><trkpt lat="44.02593" lon="12.5809567"><ele>13.0</ele><time>2026-04-04T06:37:52.376Z</time></trkpt><trkpt lat="44.0258517" lon="12.580795"><ele>13.0</ele><time>2026-04-04T06:37:53.376Z</time></trkpt><trkpt lat="44.0257567" lon="12.5806533"><ele>13.0</ele><time>2026-04-04T06:37:54.376Z</time></trkpt><trkpt lat="44.025685" lon="12.580495"><ele>15.5</ele><time>2026-04-04T06:37:55.377Z</time></trkpt><trkpt lat="44.0256167" lon="12.5803283"><ele>18.0</ele><time>2026-04-04T06:37:56.377Z</time></trkpt><trkpt lat="44.02553" lon="12.5801733"><ele>20.5</ele><time>2026-04-04T06:37:57.377Z</time></trkpt><trkpt lat="44.0254467" lon="12.580015"><ele>23.0</ele><time>2026-04-04T06:37:58.376Z</time></trkpt><trkpt lat="44.0253667" lon="12.5798683"><ele>23.0</ele><time>2026-04-04T06:37:59.376Z</time></trkpt><trkpt lat="44.0252917" lon="12.5797117"><ele>23.0</ele><time>2026-04-04T06:38:00.376Z</time></trkpt><trkpt lat="44.02523" lon="12.57955"><ele>23.0</ele><time>2026-04-04T06:38:01.377Z</time></trkpt><trkpt lat="44.0251883" lon="12.5793883"><ele>23.0</ele><time>2026-04-04T06:38:02.377Z</time></trkpt><trkpt lat="44.02514" lon="12.579245"><ele>23.0</ele><time>2026-04-04T06:38:03.376Z</time></trkpt><trkpt lat="44.0250733" lon="12.5791333"><ele>23.0</ele><time>2026-04-04T06:38:04.377Z</time></trkpt><trkpt lat="44.0249867" lon="12.5790483"><ele>23.0</ele><time>2026-04-04T06:38:05.377Z</time></trkpt><trkpt lat="44.024885" lon="12.579005"><ele>23.0</ele><time>2026-04-04T06:38:06.376Z</time></trkpt><trkpt lat="44.0247767" lon="12.5790033"><ele>23.0</ele><time>2026-04-04T06:38:07.376Z</time></trkpt><trkpt lat="44.02467" lon="12.5790183"><ele>26.25</ele><time>2026-04-04T06:38:08.376Z</time></trkpt><trkpt lat="44.024555" lon="12.5790433"><ele>29.5</ele><time>2026-04-04T06:38:09.376Z</time></trkpt><trkpt lat="44.024435" lon="12.5790667"><ele>32.75</ele><time>2026-04-04T06:38:10.377Z</time></trkpt><trkpt lat="44.0243033" lon="12.57909"><ele>36.0</ele><time>2026-04-04T06:38:11.376Z</time></trkpt><trkpt lat="44.0241667" lon="12.5791133"><ele>38.0</ele><time>2026-04-04T06:38:12.376Z</time></trkpt><trkpt lat="44.0240283" lon="12.5791317"><ele>40.0</ele><time>2026-04-04T06:38:13.376Z</time></trkpt><trkpt lat="44.0238933" lon="12.5791317"><ele>42.0</ele><time>2026-04-04T06:38:14.377Z</time></trkpt><trkpt lat="44.0237517" lon="12.5791617"><ele>44.0</ele><time>2026-04-04T06:38:15.377Z</time></trkpt><trkpt lat="44.0236083" lon="12.5791833"><ele>44.0</ele><time>2026-04-04T06:38:16.376Z</time></trkpt><trkpt lat="44.023465" lon="12.5792067"><ele>44.0</ele><time>2026-04-04T06:38:17.377Z</time></trkpt><trkpt lat="44.0233317" lon="12.579225"><ele>44.0</ele><time>2026-04-04T06:38:18.376Z</time></trkpt><trkpt lat="44.0231933" lon="12.5792367"><ele>44.0</ele><time>2026-04-04T06:38:19.377Z</time></trkpt><trkpt lat="44.0230533" lon="12.5792317"><ele>46.5</ele><time>2026-04-04T06:38:20.377Z</time></trkpt><trkpt lat="44.022915" lon="12.5792033"><ele>49.0</ele><time>2026-04-04T06:38:21.377Z</time></trkpt><trkpt lat="44.022775" lon="12.5791567"><ele>51.5</ele><time>2026-04-04T06:38:22.376Z</time></trkpt><trkpt lat="44.02264" lon="12.5791067"><ele>54.0</ele><time>2026-04-04T06:38:23.376Z</time></trkpt><trkpt lat="44.02252" lon="12.5790733"><ele>54.833333333333336</ele><time>2026-04-04T06:38:24.377Z</time></trkpt><trkpt lat="44.022415" lon="12.5790533"><ele>55.66666666666667</ele><time>2026-04-04T06:38:25.376Z</time></trkpt><trkpt lat="44.0223183" lon="12.5790367"><ele>56.5</ele><time>2026-04-04T06:38:26.376Z</time></trkpt><trkpt lat="44.02223" lon="12.5790367"><ele>57.333333333333336</ele><time>2026-04-04T06:38:27.377Z</time></trkpt><trkpt lat="44.0221583" lon="12.5790133"><ele>58.16666666666667</ele><time>2026-04-04T06:38:28.377Z</time></trkpt><trkpt lat="44.0220883" lon="12.5789567"><ele>59.0</ele><time>2026-04-04T06:38:29.376Z</time></trkpt><trkpt lat="44.0220233" lon="12.578865"><ele>59.0</ele><time>2026-04-04T06:38:30.377Z</time></trkpt><trkpt lat="44.0219667" lon="12.5787533"><ele>59.00000000000001</ele><time>2026-04-04T06:38:31.376Z</time></trkpt><trkpt lat="44.02192" lon="12.5786217"><ele>59.00000000000001</ele><time>2026-04-04T06:38:32.377Z</time></trkpt><trkpt lat="44.0218783" lon="12.5784967"><ele>59.0</ele><time>2026-04-04T06:38:33.377Z</time></trkpt><trkpt lat="44.0218483" lon="12.57841"><ele>59.0</ele><time>2026-04-04T06:38:34.376Z</time></trkpt><trkpt lat="44.0217967" lon="12.5782767"><ele>58.6</ele><time>2026-04-04T06:38:36.376Z</time></trkpt><trkpt lat="44.0217483" lon="12.5781767"><ele>58.2</ele><time>2026-04-04T06:38:38.376Z</time></trkpt><trkpt lat="44.021685" lon="12.57816"><ele>57.800000000000004</ele><time>2026-04-04T06:38:40.376Z</time></trkpt><trkpt lat="44.021545" lon="12.5782167"><ele>57.400000000000006</ele><time>2026-04-04T06:38:42.376Z</time></trkpt><trkpt lat="44.021455" lon="12.5782767"><ele>57.0</ele><time>2026-04-04T06:38:43.377Z</time></trkpt><trkpt lat="44.0213583" lon="12.57833"><ele>55.400000000000006</ele><time>2026-04-04T06:38:44.377Z</time></trkpt><trkpt lat="44.021265" lon="12.5783867"><ele>53.800000000000004</ele><time>2026-04-04T06:38:45.377Z</time></trkpt><trkpt lat="44.02116" lon="12.5784433"><ele>52.2</ele><time>2026-04-04T06:38:46.377Z</time></trkpt><trkpt lat="44.0210517" lon="12.5784983"><ele>50.6</ele><time>2026-04-04T06:38:47.376Z</time></trkpt><trkpt lat="44.0209383" lon="12.57855"><ele>49.0</ele><time>2026-04-04T06:38:48.377Z</time></trkpt><trkpt lat="44.0208267" lon="12.5785933"><ele>48.6</ele><time>2026-04-04T06:38:49.376Z</time></trkpt><trkpt lat="44.0207217" lon="12.5786433"><ele>48.2</ele><time>2026-04-04T06:38:50.377Z</time></trkpt><trkpt lat="44.0206183" lon="12.578695"><ele>47.800000000000004</ele><time>2026-04-04T06:38:51.376Z</time></trkpt><trkpt lat="44.020525" lon="12.57875"><ele>47.400000000000006</ele><time>2026-04-04T06:38:52.376Z</time></trkpt><trkpt lat="44.0204367" lon="12.5788067"><ele>47.0</ele><time>2026-04-04T06:38:53.376Z</time></trkpt><trkpt lat="44.020365" lon="12.5788517"><ele>48.2</ele><time>2026-04-04T06:38:54.377Z</time></trkpt><trkpt lat="44.020295" lon="12.5788833"><ele>49.400000000000006</ele><time>2026-04-04T06:38:55.376Z</time></trkpt><trkpt lat="44.0201683" lon="12.5788933"><ele>50.599999999999994</ele><time>2026-04-04T06:38:57.377Z</time></trkpt><trkpt lat="44.02005" lon="12.578805"><ele>51.8</ele><time>2026-04-04T06:38:59.376Z</time></trkpt><trkpt lat="44.0199833" lon="12.578725"><ele>53.0</ele><time>2026-04-04T06:39:00.376Z</time></trkpt><trkpt lat="44.01991" lon="12.57863"><ele>53.25</ele><time>2026-04-04T06:39:01.376Z</time></trkpt><trkpt lat="44.019825" lon="12.5785267"><ele>53.5</ele><time>2026-04-04T06:39:02.377Z</time></trkpt><trkpt lat="44.01973" lon="12.57843"><ele>53.75</ele><time>2026-04-04T06:39:03.377Z</time></trkpt><trkpt lat="44.0196333" lon="12.5783433"><ele>54.0</ele><time>2026-04-04T06:39:04.377Z</time></trkpt><trkpt lat="44.0195417" lon="12.57825"><ele>54.0</ele><time>2026-04-04T06:39:05.377Z</time></trkpt><trkpt lat="44.019455" lon="12.5781733"><ele>54.00000000000001</ele><time>2026-04-04T06:39:06.377Z</time></trkpt><trkpt lat="44.0193733" lon="12.5781067"><ele>54.00000000000001</ele><time>2026-04-04T06:39:07.376Z</time></trkpt><trkpt lat="44.0192967" lon="12.5780433"><ele>54.0</ele><time>2026-04-04T06:39:08.376Z</time></trkpt><trkpt lat="44.0192367" lon="12.5779883"><ele>54.0</ele><time>2026-04-04T06:39:09.376Z</time></trkpt><trkpt lat="44.0191517" lon="12.57787"><ele>54.2</ele><time>2026-04-04T06:39:11.377Z</time></trkpt><trkpt lat="44.0191233" lon="12.5777783"><ele>54.400000000000006</ele><time>2026-04-04T06:39:12.377Z</time></trkpt><trkpt lat="44.019095" lon="12.5776633"><ele>54.6</ele><time>2026-04-04T06:39:13.376Z</time></trkpt><trkpt lat="44.019055" lon="12.5775183"><ele>54.8</ele><time>2026-04-04T06:39:14.376Z</time></trkpt><trkpt lat="44.0190067" lon="12.5773633"><ele>55.0</ele><time>2026-04-04T06:39:15.376Z</time></trkpt><trkpt lat="44.0189583" lon="12.5772167"><ele>55.0</ele><time>2026-04-04T06:39:16.377Z</time></trkpt><trkpt lat="44.0189167" lon="12.5770717"><ele>55.0</ele><time>2026-04-04T06:39:17.376Z</time></trkpt><trkpt lat="44.018885" lon="12.5769383"><ele>55.0</ele><time>2026-04-04T06:39:18.376Z</time></trkpt><trkpt lat="44.0188583" lon="12.5768167"><ele>55.0</ele><time>2026-04-04T06:39:19.376Z</time></trkpt><trkpt lat="44.0188267" lon="12.576715"><ele>55.0</ele><time>2026-04-04T06:39:20.377Z</time></trkpt><trkpt lat="44.0187717" lon="12.5766083"><ele>53.4</ele><time>2026-04-04T06:39:21.377Z</time></trkpt><trkpt lat="44.0187083" lon="12.5764883"><ele>51.8</ele><time>2026-04-04T06:39:22.376Z</time></trkpt><trkpt lat="44.018645" lon="12.5763517"><ele>50.2</ele><time>2026-04-04T06:39:23.376Z</time></trkpt><trkpt lat="44.0185867" lon="12.5762267"><ele>48.6</ele><time>2026-04-04T06:39:24.377Z</time></trkpt><trkpt lat="44.018535" lon="12.5761167"><ele>47.0</ele><time>2026-04-04T06:39:25.376Z</time></trkpt><trkpt lat="44.018485" lon="12.576015"><ele>46.83333333333333</ele><time>2026-04-04T06:39:26.377Z</time></trkpt><trkpt lat="44.0184433" lon="12.5759183"><ele>46.666666666666664</ele><time>2026-04-04T06:39:27.377Z</time></trkpt><trkpt lat="44.0184033" lon="12.575845"><ele>46.5</ele><time>2026-04-04T06:39:28.376Z</time></trkpt><trkpt lat="44.01834" lon="12.5757367"><ele>46.333333333333336</ele><time>2026-04-04T06:39:30.377Z</time></trkpt><trkpt lat="44.0183017" lon="12.5756417"><ele>46.16666666666667</ele><time>2026-04-04T06:39:31.376Z</time></trkpt><trkpt lat="44.0182567" lon="12.5755133"><ele>46.0</ele><time>2026-04-04T06:39:32.376Z</time></trkpt><trkpt lat="44.0182033" lon="12.5753667"><ele>45.5</ele><time>2026-04-04T06:39:33.377Z</time></trkpt><trkpt lat="44.0181433" lon="12.5752"><ele>45.0</ele><time>2026-04-04T06:39:34.376Z</time></trkpt><trkpt lat="44.0180783" lon="12.5750333"><ele>44.5</ele><time>2026-04-04T06:39:35.376Z</time></trkpt><trkpt lat="44.0180117" lon="12.5748717"><ele>44.0</ele><time>2026-04-04T06:39:36.376Z</time></trkpt><trkpt lat="44.0179533" lon="12.5747283"><ele>44.0</ele><time>2026-04-04T06:39:37.376Z</time></trkpt><trkpt lat="44.0178917" lon="12.5746167"><ele>44.0</ele><time>2026-04-04T06:39:38.376Z</time></trkpt><trkpt lat="44.0178083" lon="12.5745183"><ele>44.0</ele><time>2026-04-04T06:39:39.377Z</time></trkpt><trkpt lat="44.0177" lon="12.5744333"><ele>44.0</ele><time>2026-04-04T06:39:40.376Z</time></trkpt><trkpt lat="44.0175767" lon="12.5743617"><ele>44.5</ele><time>2026-04-04T06:39:41.376Z</time></trkpt><trkpt lat="44.0174483" lon="12.5742867"><ele>45.0</ele><time>2026-04-04T06:39:42.376Z</time></trkpt><trkpt lat="44.017315" lon="12.5742117"><ele>45.5</ele><time>2026-04-04T06:39:43.376Z</time></trkpt><trkpt lat="44.0171867" lon="12.57415"><ele>46.0</ele><time>2026-04-04T06:39:44.376Z</time></trkpt><trkpt lat="44.0170567" lon="12.5740833"><ele>46.0</ele><time>2026-04-04T06:39:45.377Z</time></trkpt><trkpt lat="44.0169317" lon="12.5740383"><ele>46.0</ele><time>2026-04-04T06:39:46.377Z</time></trkpt><trkpt lat="44.0168083" lon="12.5740017"><ele>46.0</ele><time>2026-04-04T06:39:47.376Z</time></trkpt><trkpt lat="44.0167067" lon="12.5739683"><ele>46.0</ele><time>2026-04-04T06:39:48.376Z</time></trkpt><trkpt lat="44.016615" lon="12.5739333"><ele>46.0</ele><time>2026-04-04T06:39:49.376Z</time></trkpt><trkpt lat="44.0165267" lon="12.57388"><ele>46.0</ele><time>2026-04-04T06:39:50.376Z</time></trkpt><trkpt lat="44.0164433" lon="12.57381"><ele>46.0</ele><time>2026-04-04T06:39:51.376Z</time></trkpt><trkpt lat="44.0163683" lon="12.5737317"><ele>46.0</ele><time>2026-04-04T06:39:52.376Z</time></trkpt><trkpt lat="44.016295" lon="12.5736433"><ele>46.0</ele><time>2026-04-04T06:39:53.376Z</time></trkpt><trkpt lat="44.0162183" lon="12.5735367"><ele>46.5</ele><time>2026-04-04T06:39:54.377Z</time></trkpt><trkpt lat="44.0161367" lon="12.573415"><ele>47.0</ele><time>2026-04-04T06:39:55.377Z</time></trkpt><trkpt lat="44.0160517" lon="12.5732833"><ele>47.5</ele><time>2026-04-04T06:39:56.377Z</time></trkpt><trkpt lat="44.01596" lon="12.57316"><ele>48.0</ele><time>2026-04-04T06:39:57.377Z</time></trkpt><trkpt lat="44.0158617" lon="12.5730317"><ele>46.25</ele><time>2026-04-04T06:39:58.377Z</time></trkpt><trkpt lat="44.0157567" lon="12.5729017"><ele>44.5</ele><time>2026-04-04T06:39:59.376Z</time></trkpt><trkpt lat="44.0156517" lon="12.5727633"><ele>42.75</ele><time>2026-04-04T06:40:00.377Z</time></trkpt><trkpt lat="44.0155517" lon="12.57263"><ele>41.0</ele><time>2026-04-04T06:40:01.376Z</time></trkpt><trkpt lat="44.0154433" lon="12.572495"><ele>41.0</ele><time>2026-04-04T06:40:02.377Z</time></trkpt><trkpt lat="44.0153333" lon="12.5723617"><ele>41.0</ele><time>2026-04-04T06:40:03.376Z</time></trkpt><trkpt lat="44.015225" lon="12.5722283"><ele>41.0</ele><time>2026-04-04T06:40:04.377Z</time></trkpt><trkpt lat="44.01512" lon="12.5720917"><ele>41.0</ele><time>2026-04-04T06:40:05.377Z</time></trkpt><trkpt lat="44.0150117" lon="12.5719633"><ele>39.25</ele><time>2026-04-04T06:40:06.376Z</time></trkpt><trkpt lat="44.014895" lon="12.57183"><ele>37.5</ele><time>2026-04-04T06:40:07.376Z</time></trkpt><trkpt lat="44.0147867" lon="12.5717"><ele>35.75</ele><time>2026-04-04T06:40:08.376Z</time></trkpt><trkpt lat="44.0146783" lon="12.5715683"><ele>34.0</ele><time>2026-04-04T06:40:09.377Z</time></trkpt><trkpt lat="44.0145733" lon="12.5714433"><ele>34.0</ele><time>2026-04-04T06:40:10.376Z</time></trkpt><trkpt lat="44.014475" lon="12.5713217"><ele>34.0</ele><time>2026-04-04T06:40:11.377Z</time></trkpt><trkpt lat="44.0143833" lon="12.5712117"><ele>34.0</ele><time>2026-04-04T06:40:12.376Z</time></trkpt><trkpt lat="44.0143033" lon="12.5711183"><ele>34.0</ele><time>2026-04-04T06:40:13.376Z</time></trkpt><trkpt lat="44.0142367" lon="12.5710317"><ele>34.0</ele><time>2026-04-04T06:40:14.376Z</time></trkpt><trkpt lat="44.01419" lon="12.5709583"><ele>33.0</ele><time>2026-04-04T06:40:15.376Z</time></trkpt><trkpt lat="44.0141867" lon="12.57077"><ele>32.0</ele><time>2026-04-04T06:40:17.377Z</time></trkpt><trkpt lat="44.0142233" lon="12.570655"><ele>31.0</ele><time>2026-04-04T06:40:18.377Z</time></trkpt><trkpt lat="44.0142667" lon="12.5705467"><ele>30.0</ele><time>2026-04-04T06:40:19.376Z</time></trkpt><trkpt lat="44.0143" lon="12.570465"><ele>29.0</ele><time>2026-04-04T06:40:20.377Z</time></trkpt><trkpt lat="44.0143383" lon="12.5703617"><ele>28.4</ele><time>2026-04-04T06:40:22.376Z</time></trkpt><trkpt lat="44.0143333" lon="12.57026"><ele>27.799999999999997</ele><time>2026-04-04T06:40:26.377Z</time></trkpt><trkpt lat="44.0142217" lon="12.570215"><ele>27.200000000000003</ele><time>2026-04-04T06:40:28.377Z</time></trkpt><trkpt lat="44.014125" lon="12.5701983"><ele>26.6</ele><time>2026-04-04T06:40:29.376Z</time></trkpt><trkpt lat="44.0140133" lon="12.5701733"><ele>26.0</ele><time>2026-04-04T06:40:30.376Z</time></trkpt><trkpt lat="44.01389" lon="12.5701433"><ele>25.5</ele><time>2026-04-04T06:40:31.376Z</time></trkpt><trkpt lat="44.0137567" lon="12.5701083"><ele>25.0</ele><time>2026-04-04T06:40:32.377Z</time></trkpt><trkpt lat="44.013615" lon="12.5700733"><ele>24.5</ele><time>2026-04-04T06:40:33.377Z</time></trkpt><trkpt lat="44.013465" lon="12.5700383"><ele>24.0</ele><time>2026-04-04T06:40:34.376Z</time></trkpt><trkpt lat="44.0133117" lon="12.5699983"><ele>24.0</ele><time>2026-04-04T06:40:35.377Z</time></trkpt><trkpt lat="44.0131517" lon="12.5699683"><ele>24.0</ele><time>2026-04-04T06:40:36.376Z</time></trkpt><trkpt lat="44.013" lon="12.5699383"><ele>24.0</ele><time>2026-04-04T06:40:37.377Z</time></trkpt><trkpt lat="44.012845" lon="12.5699017"><ele>24.0</ele><time>2026-04-04T06:40:38.376Z</time></trkpt><trkpt lat="44.0126917" lon="12.5698633"><ele>24.0</ele><time>2026-04-04T06:40:39.376Z</time></trkpt><trkpt lat="44.0125367" lon="12.5698383"><ele>24.0</ele><time>2026-04-04T06:40:40.376Z</time></trkpt><trkpt lat="44.01238" lon="12.5698267"><ele>24.333333333333336</ele><time>2026-04-04T06:40:41.376Z</time></trkpt><trkpt lat="44.0122183" lon="12.5698167"><ele>24.666666666666668</ele><time>2026-04-04T06:40:42.377Z</time></trkpt><trkpt lat="44.0120617" lon="12.5698283"><ele>25.0</ele><time>2026-04-04T06:40:43.376Z</time></trkpt><trkpt lat="44.0119" lon="12.5698467"><ele>25.0</ele><time>2026-04-04T06:40:44.376Z</time></trkpt><trkpt lat="44.01174" lon="12.569865"><ele>25.0</ele><time>2026-04-04T06:40:45.377Z</time></trkpt><trkpt lat="44.0115783" lon="12.5698883"><ele>25.0</ele><time>2026-04-04T06:40:46.376Z</time></trkpt><trkpt lat="44.011415" lon="12.56991"><ele>24.666666666666668</ele><time>2026-04-04T06:40:47.377Z</time></trkpt><trkpt lat="44.011255" lon="12.5699283"><ele>24.333333333333336</ele><time>2026-04-04T06:40:48.377Z</time></trkpt><trkpt lat="44.0110933" lon="12.5699483"><ele>24.0</ele><time>2026-04-04T06:40:49.377Z</time></trkpt><trkpt lat="44.01093" lon="12.56997"><ele>24.0</ele><time>2026-04-04T06:40:50.376Z</time></trkpt><trkpt lat="44.0107667" lon="12.5699933"><ele>24.0</ele><time>2026-04-04T06:40:51.376Z</time></trkpt><trkpt lat="44.0106067" lon="12.5700167"><ele>24.0</ele><time>2026-04-04T06:40:52.376Z</time></trkpt><trkpt lat="44.0104417" lon="12.5700433"><ele>24.0</ele><time>2026-04-04T06:40:53.377Z</time></trkpt><trkpt lat="44.0102767" lon="12.57007"><ele>24.0</ele><time>2026-04-04T06:40:54.376Z</time></trkpt><trkpt lat="44.0101083" lon="12.5700883"><ele>24.0</ele><time>2026-04-04T06:40:55.376Z</time></trkpt><trkpt lat="44.0099383" lon="12.5701033"><ele>24.333333333333336</ele><time>2026-04-04T06:40:56.376Z</time></trkpt><trkpt lat="44.0097683" lon="12.5701167"><ele>24.666666666666668</ele><time>2026-04-04T06:40:57.377Z</time></trkpt><trkpt lat="44.0095967" lon="12.5701283"><ele>25.0</ele><time>2026-04-04T06:40:58.376Z</time></trkpt><trkpt lat="44.0094233" lon="12.5701367"><ele>25.0</ele><time>2026-04-04T06:40:59.376Z</time></trkpt><trkpt lat="44.0092517" lon="12.5701483"><ele>25.0</ele><time>2026-04-04T06:41:00.377Z</time></trkpt><trkpt lat="44.0090783" lon="12.5701617"><ele>25.0</ele><time>2026-04-04T06:41:01.376Z</time></trkpt><trkpt lat="44.0089067" lon="12.570175"><ele>25.333333333333336</ele><time>2026-04-04T06:41:02.376Z</time></trkpt><trkpt lat="44.0087317" lon="12.5701867"><ele>25.666666666666664</ele><time>2026-04-04T06:41:03.377Z</time></trkpt><trkpt lat="44.00856" lon="12.5702017"><ele>26.0</ele><time>2026-04-04T06:41:04.376Z</time></trkpt><trkpt lat="44.008385" lon="12.5702133"><ele>26.333333333333332</ele><time>2026-04-04T06:41:05.376Z</time></trkpt><trkpt lat="44.0082083" lon="12.5702267"><ele>26.666666666666664</ele><time>2026-04-04T06:41:06.377Z</time></trkpt><trkpt lat="44.0080367" lon="12.57024"><ele>27.0</ele><time>2026-04-04T06:41:07.376Z</time></trkpt><trkpt lat="44.0078667" lon="12.5702567"><ele>27.0</ele><time>2026-04-04T06:41:08.376Z</time></trkpt><trkpt lat="44.0077017" lon="12.5702733"><ele>27.0</ele><time>2026-04-04T06:41:09.377Z</time></trkpt><trkpt lat="44.00755" lon="12.57029"><ele>27.0</ele><time>2026-04-04T06:41:10.376Z</time></trkpt><trkpt lat="44.0073983" lon="12.5703033"><ele>27.0</ele><time>2026-04-04T06:41:11.377Z</time></trkpt><trkpt lat="44.0072417" lon="12.5703183"><ele>27.0</ele><time>2026-04-04T06:41:12.377Z</time></trkpt><trkpt lat="44.00708" lon="12.57034"><ele>27.0</ele><time>2026-04-04T06:41:13.376Z</time></trkpt><trkpt lat="44.006915" lon="12.5703667"><ele>27.0</ele><time>2026-04-04T06:41:14.376Z</time></trkpt><trkpt lat="44.0067567" lon="12.5703933"><ele>27.0</ele><time>2026-04-04T06:41:15.377Z</time></trkpt><trkpt lat="44.0066033" lon="12.570415"><ele>27.0</ele><time>2026-04-04T06:41:16.376Z</time></trkpt><trkpt lat="44.0064583" lon="12.5704383"><ele>27.0</ele><time>2026-04-04T06:41:17.377Z</time></trkpt><trkpt lat="44.0063133" lon="12.5704617"><ele>27.0</ele><time>2026-04-04T06:41:18.376Z</time></trkpt><trkpt lat="44.0061717" lon="12.5704833"><ele>27.0</ele><time>2026-04-04T06:41:19.377Z</time></trkpt><trkpt lat="44.00603" lon="12.5705083"><ele>27.0</ele><time>2026-04-04T06:41:20.376Z</time></trkpt><trkpt lat="44.005895" lon="12.5705267"><ele>27.5</ele><time>2026-04-04T06:41:21.377Z</time></trkpt><trkpt lat="44.0057733" lon="12.5705467"><ele>28.0</ele><time>2026-04-04T06:41:22.376Z</time></trkpt><trkpt lat="44.005655" lon="12.5705667"><ele>28.5</ele><time>2026-04-04T06:41:23.377Z</time></trkpt><trkpt lat="44.00555" lon="12.5705933"><ele>29.0</ele><time>2026-04-04T06:41:24.376Z</time></trkpt><trkpt lat="44.0054483" lon="12.5706233"><ele>29.0</ele><time>2026-04-04T06:41:25.377Z</time></trkpt><trkpt lat="44.0053567" lon="12.5706617"><ele>29.0</ele><time>2026-04-04T06:41:26.376Z</time></trkpt><trkpt lat="44.005275" lon="12.5707067"><ele>29.0</ele><time>2026-04-04T06:41:27.377Z</time></trkpt><trkpt lat="44.0052" lon="12.5707633"><ele>29.0</ele><time>2026-04-04T06:41:28.376Z</time></trkpt><trkpt lat="44.00512" lon="12.5708433"><ele>29.0</ele><time>2026-04-04T06:41:29.376Z</time></trkpt><trkpt lat="44.0050383" lon="12.5709417"><ele>28.799999999999997</ele><time>2026-04-04T06:41:30.376Z</time></trkpt><trkpt lat="44.0049467" lon="12.5710433"><ele>28.599999999999998</ele><time>2026-04-04T06:41:31.376Z</time></trkpt><trkpt lat="44.0048533" lon="12.5711417"><ele>28.4</ele><time>2026-04-04T06:41:32.376Z</time></trkpt><trkpt lat="44.0047683" lon="12.5712333"><ele>28.2</ele><time>2026-04-04T06:41:33.376Z</time></trkpt><trkpt lat="44.0046767" lon="12.571295"><ele>28.0</ele><time>2026-04-04T06:41:34.377Z</time></trkpt><trkpt lat="44.0046283" lon="12.57137"><ele>28.0</ele><time>2026-04-04T06:41:35.377Z</time></trkpt><trkpt lat="44.0045767" lon="12.57143"><ele>27.999999999999996</ele><time>2026-04-04T06:41:36.377Z</time></trkpt><trkpt lat="44.004515" lon="12.57149"><ele>27.999999999999996</ele><time>2026-04-04T06:41:37.377Z</time></trkpt><trkpt lat="44.0044517" lon="12.5715783"><ele>28.0</ele><time>2026-04-04T06:41:38.377Z</time></trkpt><trkpt lat="44.00437" lon="12.571675"><ele>28.0</ele><time>2026-04-04T06:41:39.377Z</time></trkpt><trkpt lat="44.0042633" lon="12.5717683"><ele>28.0</ele><time>2026-04-04T06:41:40.376Z</time></trkpt><trkpt lat="44.004145" lon="12.5718483"><ele>28.0</ele><time>2026-04-04T06:41:41.377Z</time></trkpt><trkpt lat="44.0040117" lon="12.5719217"><ele>28.0</ele><time>2026-04-04T06:41:42.376Z</time></trkpt><trkpt lat="44.0038683" lon="12.5719883"><ele>28.0</ele><time>2026-04-04T06:41:43.377Z</time></trkpt><trkpt lat="44.0037217" lon="12.5720283"><ele>28.0</ele><time>2026-04-04T06:41:44.377Z</time></trkpt><trkpt lat="44.0035683" lon="12.5720583"><ele>28.0</ele><time>2026-04-04T06:41:45.376Z</time></trkpt><trkpt lat="44.00341" lon="12.5720733"><ele>28.0</ele><time>2026-04-04T06:41:46.376Z</time></trkpt><trkpt lat="44.00325" lon="12.5720733"><ele>28.0</ele><time>2026-04-04T06:41:47.376Z</time></trkpt><trkpt lat="44.0030883" lon="12.5720683"><ele>28.0</ele><time>2026-04-04T06:41:48.377Z</time></trkpt><trkpt lat="44.002925" lon="12.5720617"><ele>28.0</ele><time>2026-04-04T06:41:49.377Z</time></trkpt><trkpt lat="44.0027633" lon="12.57205"><ele>28.0</ele><time>2026-04-04T06:41:50.377Z</time></trkpt><trkpt lat="44.0025983" lon="12.57204"><ele>28.0</ele><time>2026-04-04T06:41:51.376Z</time></trkpt><trkpt lat="44.0024367" lon="12.57203"><ele>28.0</ele><time>2026-04-04T06:41:52.376Z</time></trkpt><trkpt lat="44.0022767" lon="12.57202"><ele>28.333333333333336</ele><time>2026-04-04T06:41:53.376Z</time></trkpt><trkpt lat="44.0021133" lon="12.5720167"><ele>28.666666666666664</ele><time>2026-04-04T06:41:54.377Z</time></trkpt><trkpt lat="44.0019533" lon="12.5720117"><ele>29.0</ele><time>2026-04-04T06:41:55.376Z</time></trkpt><trkpt lat="44.0017917" lon="12.5720083"><ele>29.333333333333332</ele><time>2026-04-04T06:41:56.376Z</time></trkpt><trkpt lat="44.0016317" lon="12.5720083"><ele>29.666666666666664</ele><time>2026-04-04T06:41:57.376Z</time></trkpt><trkpt lat="44.0014717" lon="12.57202"><ele>30.0</ele><time>2026-04-04T06:41:58.376Z</time></trkpt><trkpt lat="44.0013083" lon="12.57204"><ele>30.0</ele><time>2026-04-04T06:41:59.377Z</time></trkpt><trkpt lat="44.0011433" lon="12.5720583"><ele>30.0</ele><time>2026-04-04T06:42:00.377Z</time></trkpt><trkpt lat="44.0009833" lon="12.572085"><ele>30.0</ele><time>2026-04-04T06:42:01.376Z</time></trkpt><trkpt lat="44.0008217" lon="12.5721117"><ele>31.0</ele><time>2026-04-04T06:42:02.376Z</time></trkpt><trkpt lat="44.0006567" lon="12.5721367"><ele>32.0</ele><time>2026-04-04T06:42:03.377Z</time></trkpt><trkpt lat="44.00049" lon="12.5721633"><ele>33.0</ele><time>2026-04-04T06:42:04.377Z</time></trkpt><trkpt lat="44.0003317" lon="12.5721917"><ele>33.0</ele><time>2026-04-04T06:42:05.377Z</time></trkpt><trkpt lat="44.00017" lon="12.5722217"><ele>33.0</ele><time>2026-04-04T06:42:06.376Z</time></trkpt><trkpt lat="44.0000083" lon="12.5722483"><ele>33.0</ele><time>2026-04-04T06:42:07.376Z</time></trkpt><trkpt lat="43.9998417" lon="12.5722817"><ele>33.0</ele><time>2026-04-04T06:42:08.376Z</time></trkpt><trkpt lat="43.9996833" lon="12.5723183"><ele>33.0</ele><time>2026-04-04T06:42:09.377Z</time></trkpt><trkpt lat="43.9995233" lon="12.57236"><ele>33.0</ele><time>2026-04-04T06:42:10.377Z</time></trkpt><trkpt lat="43.9993667" lon="12.5724117"><ele>33.0</ele><time>2026-04-04T06:42:11.377Z</time></trkpt><trkpt lat="43.9992067" lon="12.5724633"><ele>33.0</ele><time>2026-04-04T06:42:12.377Z</time></trkpt><trkpt lat="43.9990483" lon="12.57252"><ele>33.0</ele><time>2026-04-04T06:42:13.376Z</time></trkpt><trkpt lat="43.9988867" lon="12.5725833"><ele>33.0</ele><time>2026-04-04T06:42:14.377Z</time></trkpt><trkpt lat="43.99873" lon="12.5726333"><ele>33.0</ele><time>2026-04-04T06:42:15.376Z</time></trkpt><trkpt lat="43.99857" lon="12.5726767"><ele>33.0</ele><time>2026-04-04T06:42:16.376Z</time></trkpt><trkpt lat="43.9984033" lon="12.5727033"><ele>33.333333333333336</ele><time>2026-04-04T06:42:17.377Z</time></trkpt><trkpt lat="43.9982383" lon="12.5727267"><ele>33.66666666666667</ele><time>2026-04-04T06:42:18.376Z</time></trkpt><trkpt lat="43.9980767" lon="12.572745"><ele>34.0</ele><time>2026-04-04T06:42:19.376Z</time></trkpt><trkpt lat="43.99791" lon="12.5727567"><ele>34.0</ele><time>2026-04-04T06:42:20.377Z</time></trkpt><trkpt lat="43.9977467" lon="12.57277"><ele>34.0</ele><time>2026-04-04T06:42:21.376Z</time></trkpt><trkpt lat="43.9975833" lon="12.5727817"><ele>34.0</ele><time>2026-04-04T06:42:22.376Z</time></trkpt><trkpt lat="43.9974217" lon="12.572795"><ele>33.66666666666667</ele><time>2026-04-04T06:42:23.376Z</time></trkpt><trkpt lat="43.9972633" lon="12.5728117"><ele>33.333333333333336</ele><time>2026-04-04T06:42:24.377Z</time></trkpt><trkpt lat="43.997105" lon="12.5728183"><ele>33.0</ele><time>2026-04-04T06:42:25.377Z</time></trkpt><trkpt lat="43.996945" lon="12.5728067"><ele>33.0</ele><time>2026-04-04T06:42:26.377Z</time></trkpt><trkpt lat="43.996785" lon="12.5727733"><ele>33.0</ele><time>2026-04-04T06:42:27.376Z</time></trkpt><trkpt lat="43.9966283" lon="12.5727167"><ele>33.0</ele><time>2026-04-04T06:42:28.376Z</time></trkpt><trkpt lat="43.9964783" lon="12.5726333"><ele>33.666666666666664</ele><time>2026-04-04T06:42:29.376Z</time></trkpt><trkpt lat="43.9963283" lon="12.5725317"><ele>34.33333333333333</ele><time>2026-04-04T06:42:30.376Z</time></trkpt><trkpt lat="43.9961817" lon="12.5724217"><ele>35.0</ele><time>2026-04-04T06:42:31.376Z</time></trkpt><trkpt lat="43.9960367" lon="12.572305"><ele>35.0</ele><time>2026-04-04T06:42:32.376Z</time></trkpt><trkpt lat="43.9958967" lon="12.572185"><ele>35.0</ele><time>2026-04-04T06:42:33.376Z</time></trkpt><trkpt lat="43.9957567" lon="12.57207"><ele>35.0</ele><time>2026-04-04T06:42:34.376Z</time></trkpt><trkpt lat="43.99562" lon="12.5719633"><ele>34.666666666666664</ele><time>2026-04-04T06:42:35.377Z</time></trkpt><trkpt lat="43.9954833" lon="12.571865"><ele>34.333333333333336</ele><time>2026-04-04T06:42:36.377Z</time></trkpt><trkpt lat="43.9953417" lon="12.57178"><ele>34.0</ele><time>2026-04-04T06:42:37.377Z</time></trkpt><trkpt lat="43.99519" lon="12.57172"><ele>34.0</ele><time>2026-04-04T06:42:38.377Z</time></trkpt><trkpt lat="43.99503" lon="12.57169"><ele>34.0</ele><time>2026-04-04T06:42:39.377Z</time></trkpt><trkpt lat="43.9948583" lon="12.5716767"><ele>34.0</ele><time>2026-04-04T06:42:40.377Z</time></trkpt><trkpt lat="43.9946967" lon="12.5716833"><ele>34.333333333333336</ele><time>2026-04-04T06:42:41.376Z</time></trkpt><trkpt lat="43.9945367" lon="12.5716983"><ele>34.666666666666664</ele><time>2026-04-04T06:42:42.377Z</time></trkpt><trkpt lat="43.99437" lon="12.571715"><ele>35.0</ele><time>2026-04-04T06:42:43.377Z</time></trkpt><trkpt lat="43.9942133" lon="12.5717383"><ele>35.33333333333333</ele><time>2026-04-04T06:42:44.377Z</time></trkpt><trkpt lat="43.9940567" lon="12.57176"><ele>35.666666666666664</ele><time>2026-04-04T06:42:45.377Z</time></trkpt><trkpt lat="43.9938983" lon="12.57178"><ele>36.0</ele><time>2026-04-04T06:42:46.377Z</time></trkpt><trkpt lat="43.993735" lon="12.5717933"><ele>36.0</ele><time>2026-04-04T06:42:47.377Z</time></trkpt><trkpt lat="43.99357" lon="12.5718083"><ele>36.0</ele><time>2026-04-04T06:42:48.377Z</time></trkpt><trkpt lat="43.9934017" lon="12.5718283"><ele>36.0</ele><time>2026-04-04T06:42:49.376Z</time></trkpt><trkpt lat="43.993225" lon="12.571835"><ele>36.333333333333336</ele><time>2026-04-04T06:42:50.376Z</time></trkpt><trkpt lat="43.9930567" lon="12.5718467"><ele>36.66666666666667</ele><time>2026-04-04T06:42:51.377Z</time></trkpt><trkpt lat="43.9928817" lon="12.57186"><ele>37.0</ele><time>2026-04-04T06:42:52.377Z</time></trkpt><trkpt lat="43.9927133" lon="12.5718767"><ele>37.0</ele><time>2026-04-04T06:42:53.377Z</time></trkpt><trkpt lat="43.992545" lon="12.571895"><ele>37.0</ele><time>2026-04-04T06:42:54.377Z</time></trkpt><trkpt lat="43.9923833" lon="12.5719133"><ele>37.0</ele><time>2026-04-04T06:42:55.376Z</time></trkpt><trkpt lat="43.9922217" lon="12.5719283"><ele>37.5</ele><time>2026-04-04T06:42:56.376Z</time></trkpt><trkpt lat="43.9920617" lon="12.571945"><ele>38.0</ele><time>2026-04-04T06:42:57.376Z</time></trkpt><trkpt lat="43.991915" lon="12.5719583"><ele>38.5</ele><time>2026-04-04T06:42:58.376Z</time></trkpt><trkpt lat="43.991775" lon="12.5719667"><ele>39.0</ele><time>2026-04-04T06:42:59.377Z</time></trkpt><trkpt lat="43.9916333" lon="12.5719733"><ele>39.25</ele><time>2026-04-04T06:43:00.377Z</time></trkpt><trkpt lat="43.9914967" lon="12.5719867"><ele>39.5</ele><time>2026-04-04T06:43:01.376Z</time></trkpt><trkpt lat="43.99137" lon="12.5719983"><ele>39.75</ele><time>2026-04-04T06:43:02.376Z</time></trkpt><trkpt lat="43.9912467" lon="12.5720117"><ele>40.0</ele><time>2026-04-04T06:43:03.376Z</time></trkpt><trkpt lat="43.9911217" lon="12.57202"><ele>40.0</ele><time>2026-04-04T06:43:04.376Z</time></trkpt><trkpt lat="43.9909967" lon="12.5720317"><ele>40.0</ele><time>2026-04-04T06:43:05.377Z</time></trkpt><trkpt lat="43.990875" lon="12.572045"><ele>40.0</ele><time>2026-04-04T06:43:06.376Z</time></trkpt><trkpt lat="43.99075" lon="12.572055"><ele>40.0</ele><time>2026-04-04T06:43:07.377Z</time></trkpt><trkpt lat="43.9906233" lon="12.5720683"><ele>40.0</ele><time>2026-04-04T06:43:08.376Z</time></trkpt><trkpt lat="43.9904933" lon="12.57208"><ele>40.0</ele><time>2026-04-04T06:43:09.377Z</time></trkpt><trkpt lat="43.9903633" lon="12.5720867"><ele>40.0</ele><time>2026-04-04T06:43:10.377Z</time></trkpt><trkpt lat="43.9902417" lon="12.5720917"><ele>40.0</ele><time>2026-04-04T06:43:11.376Z</time></trkpt><trkpt lat="43.9901233" lon="12.5720967"><ele>40.0</ele><time>2026-04-04T06:43:12.376Z</time></trkpt><trkpt lat="43.99001" lon="12.5721067"><ele>40.0</ele><time>2026-04-04T06:43:13.376Z</time></trkpt><trkpt lat="43.9898883" lon="12.5721183"><ele>40.0</ele><time>2026-04-04T06:43:14.376Z</time></trkpt><trkpt lat="43.9897583" lon="12.5721233"><ele>40.0</ele><time>2026-04-04T06:43:15.376Z</time></trkpt><trkpt lat="43.9896333" lon="12.5721267"><ele>40.25</ele><time>2026-04-04T06:43:16.376Z</time></trkpt><trkpt lat="43.989515" lon="12.5721283"><ele>40.5</ele><time>2026-04-04T06:43:17.376Z</time></trkpt><trkpt lat="43.989395" lon="12.5721283"><ele>40.75</ele><time>2026-04-04T06:43:18.377Z</time></trkpt><trkpt lat="43.989275" lon="12.5721233"><ele>41.0</ele><time>2026-04-04T06:43:19.377Z</time></trkpt><trkpt lat="43.98915" lon="12.5721183"><ele>41.0</ele><time>2026-04-04T06:43:20.377Z</time></trkpt><trkpt lat="43.9890217" lon="12.572105"><ele>41.0</ele><time>2026-04-04T06:43:21.377Z</time></trkpt><trkpt lat="43.9888967" lon="12.5720883"><ele>41.0</ele><time>2026-04-04T06:43:22.376Z</time></trkpt><trkpt lat="43.98877" lon="12.572065"><ele>41.0</ele><time>2026-04-04T06:43:23.376Z</time></trkpt><trkpt lat="43.9886533" lon="12.5720417"><ele>41.0</ele><time>2026-04-04T06:43:24.377Z</time></trkpt><trkpt lat="43.9885483" lon="12.5720167"><ele>41.0</ele><time>2026-04-04T06:43:25.376Z</time></trkpt><trkpt lat="43.9884517" lon="12.5719867"><ele>41.0</ele><time>2026-04-04T06:43:26.377Z</time></trkpt><trkpt lat="43.9883533" lon="12.57195"><ele>41.0</ele><time>2026-04-04T06:43:27.376Z</time></trkpt><trkpt lat="43.988245" lon="12.5719"><ele>41.0</ele><time>2026-04-04T06:43:28.377Z</time></trkpt><trkpt lat="43.988145" lon="12.571845"><ele>41.0</ele><time>2026-04-04T06:43:29.376Z</time></trkpt><trkpt lat="43.9880533" lon="12.5717883"><ele>41.0</ele><time>2026-04-04T06:43:30.376Z</time></trkpt><trkpt lat="43.98796" lon="12.5717283"><ele>41.0</ele><time>2026-04-04T06:43:31.376Z</time></trkpt><trkpt lat="43.9878667" lon="12.571655"><ele>41.0</ele><time>2026-04-04T06:43:32.377Z</time></trkpt><trkpt lat="43.987765" lon="12.57157"><ele>41.0</ele><time>2026-04-04T06:43:33.377Z</time></trkpt><trkpt lat="43.987655" lon="12.571485"><ele>41.0</ele><time>2026-04-04T06:43:34.377Z</time></trkpt><trkpt lat="43.9875467" lon="12.5713833"><ele>41.0</ele><time>2026-04-04T06:43:35.376Z</time></trkpt><trkpt lat="43.9874433" lon="12.5712733"><ele>41.0</ele><time>2026-04-04T06:43:36.377Z</time></trkpt><trkpt lat="43.9873433" lon="12.5711833"><ele>41.0</ele><time>2026-04-04T06:43:37.376Z</time></trkpt><trkpt lat="43.9872567" lon="12.5711017"><ele>41.33333333333333</ele><time>2026-04-04T06:43:38.376Z</time></trkpt><trkpt lat="43.9871833" lon="12.57104"><ele>41.666666666666664</ele><time>2026-04-04T06:43:39.377Z</time></trkpt><trkpt lat="43.9871167" lon="12.57099"><ele>42.0</ele><time>2026-04-04T06:43:40.377Z</time></trkpt><trkpt lat="43.987055" lon="12.5709483"><ele>42.333333333333336</ele><time>2026-04-04T06:43:41.376Z</time></trkpt><trkpt lat="43.98699" lon="12.5709"><ele>42.66666666666667</ele><time>2026-04-04T06:43:42.376Z</time></trkpt><trkpt lat="43.9869167" lon="12.5708467"><ele>43.0</ele><time>2026-04-04T06:43:43.377Z</time></trkpt><trkpt lat="43.9868333" lon="12.570795"><ele>43.0</ele><time>2026-04-04T06:43:44.376Z</time></trkpt><trkpt lat="43.986745" lon="12.5707333"><ele>43.0</ele><time>2026-04-04T06:43:45.376Z</time></trkpt><trkpt lat="43.9866467" lon="12.570665"><ele>43.0</ele><time>2026-04-04T06:43:46.377Z</time></trkpt><trkpt lat="43.9865433" lon="12.5705983"><ele>43.0</ele><time>2026-04-04T06:43:47.377Z</time></trkpt><trkpt lat="43.98644" lon="12.570535"><ele>43.0</ele><time>2026-04-04T06:43:48.376Z</time></trkpt><trkpt lat="43.9863317" lon="12.5704717"><ele>43.25</ele><time>2026-04-04T06:43:49.377Z</time></trkpt><trkpt lat="43.9862267" lon="12.5704217"><ele>43.5</ele><time>2026-04-04T06:43:50.377Z</time></trkpt><trkpt lat="43.98611" lon="12.570365"><ele>43.75</ele><time>2026-04-04T06:43:51.377Z</time></trkpt><trkpt lat="43.9859933" lon="12.5703183"><ele>44.0</ele><time>2026-04-04T06:43:52.376Z</time></trkpt><trkpt lat="43.985875" lon="12.5702817"><ele>44.2</ele><time>2026-04-04T06:43:53.377Z</time></trkpt><trkpt lat="43.9857633" lon="12.57024"><ele>44.400000000000006</ele><time>2026-04-04T06:43:54.376Z</time></trkpt><trkpt lat="43.98566" lon="12.5702083"><ele>44.6</ele><time>2026-04-04T06:43:55.376Z</time></trkpt><trkpt lat="43.9855667" lon="12.5701833"><ele>44.8</ele><time>2026-04-04T06:43:56.377Z</time></trkpt><trkpt lat="43.985485" lon="12.570165"><ele>45.0</ele><time>2026-04-04T06:43:57.376Z</time></trkpt><trkpt lat="43.9854117" lon="12.5701517"><ele>45.0</ele><time>2026-04-04T06:43:58.376Z</time></trkpt><trkpt lat="43.985345" lon="12.5701433"><ele>45.0</ele><time>2026-04-04T06:43:59.376Z</time></trkpt><trkpt lat="43.9852783" lon="12.570145"><ele>45.0</ele><time>2026-04-04T06:44:00.377Z</time></trkpt><trkpt lat="43.9852117" lon="12.5701333"><ele>45.0</ele><time>2026-04-04T06:44:01.376Z</time></trkpt><trkpt lat="43.985145" lon="12.5701217"><ele>45.0</ele><time>2026-04-04T06:44:02.376Z</time></trkpt><trkpt lat="43.9850767" lon="12.5701167"><ele>45.0</ele><time>2026-04-04T06:44:03.376Z</time></trkpt><trkpt lat="43.9850067" lon="12.5701233"><ele>45.0</ele><time>2026-04-04T06:44:04.377Z</time></trkpt><trkpt lat="43.9849317" lon="12.5701183"><ele>45.2</ele><time>2026-04-04T06:44:05.376Z</time></trkpt><trkpt lat="43.984855" lon="12.5701183"><ele>45.4</ele><time>2026-04-04T06:44:06.376Z</time></trkpt><trkpt lat="43.9847783" lon="12.5701167"><ele>45.599999999999994</ele><time>2026-04-04T06:44:07.377Z</time></trkpt><trkpt lat="43.98471" lon="12.5701133"><ele>45.8</ele><time>2026-04-04T06:44:08.376Z</time></trkpt><trkpt lat="43.98459" lon="12.57011"><ele>46.0</ele><time>2026-04-04T06:44:10.376Z</time></trkpt><trkpt lat="43.984475" lon="12.5701183"><ele>46.0</ele><time>2026-04-04T06:44:12.376Z</time></trkpt><trkpt lat="43.984375" lon="12.5701133"><ele>46.0</ele><time>2026-04-04T06:44:14.376Z</time></trkpt><trkpt lat="43.98428" lon="12.5701133"><ele>46.0</ele><time>2026-04-04T06:44:16.376Z</time></trkpt><trkpt lat="43.9841583" lon="12.5701083"><ele>46.0</ele><time>2026-04-04T06:44:18.377Z</time></trkpt><trkpt lat="43.9840833" lon="12.5701033"><ele>46.0</ele><time>2026-04-04T06:44:19.376Z</time></trkpt><trkpt lat="43.9840133" lon="12.5700933"><ele>45.8</ele><time>2026-04-04T06:44:20.376Z</time></trkpt><trkpt lat="43.98395" lon="12.5700817"><ele>45.599999999999994</ele><time>2026-04-04T06:44:21.376Z</time></trkpt><trkpt lat="43.983845" lon="12.5700267"><ele>45.4</ele><time>2026-04-04T06:44:23.376Z</time></trkpt><trkpt lat="43.983745" lon="12.5699833"><ele>45.2</ele><time>2026-04-04T06:44:25.376Z</time></trkpt><trkpt lat="43.983655" lon="12.5700383"><ele>45.0</ele><time>2026-04-04T06:44:27.376Z</time></trkpt><trkpt lat="43.9836083" lon="12.5701867"><ele>45.0</ele><time>2026-04-04T06:44:29.376Z</time></trkpt><trkpt lat="43.983525" lon="12.5703183"><ele>45.0</ele><time>2026-04-04T06:44:31.376Z</time></trkpt><trkpt lat="43.983455" lon="12.570365"><ele>45.0</ele><time>2026-04-04T06:44:32.376Z</time></trkpt><trkpt lat="43.98337" lon="12.5704033"><ele>45.0</ele><time>2026-04-04T06:44:33.376Z</time></trkpt><trkpt lat="43.9832667" lon="12.5704367"><ele>45.0</ele><time>2026-04-04T06:44:34.377Z</time></trkpt><trkpt lat="43.9831417" lon="12.57046"><ele>44.5</ele><time>2026-04-04T06:44:35.376Z</time></trkpt><trkpt lat="43.9830017" lon="12.5704733"><ele>44.0</ele><time>2026-04-04T06:44:36.376Z</time></trkpt><trkpt lat="43.9828583" lon="12.5704733"><ele>43.5</ele><time>2026-04-04T06:44:37.377Z</time></trkpt><trkpt lat="43.9827183" lon="12.570475"><ele>43.0</ele><time>2026-04-04T06:44:38.376Z</time></trkpt><trkpt lat="43.98259" lon="12.5704767"><ele>42.599999999999994</ele><time>2026-04-04T06:44:39.376Z</time></trkpt><trkpt lat="43.98248" lon="12.5704767"><ele>42.199999999999996</ele><time>2026-04-04T06:44:40.377Z</time></trkpt><trkpt lat="43.9823783" lon="12.57047"><ele>41.8</ele><time>2026-04-04T06:44:41.376Z</time></trkpt><trkpt lat="43.982285" lon="12.570475"><ele>41.4</ele><time>2026-04-04T06:44:42.376Z</time></trkpt><trkpt lat="43.9822083" lon="12.570485"><ele>41.0</ele><time>2026-04-04T06:44:43.376Z</time></trkpt><trkpt lat="43.9821117" lon="12.57052"><ele>41.0</ele><time>2026-04-04T06:44:45.376Z</time></trkpt><trkpt lat="43.9820317" lon="12.5705433"><ele>41.0</ele><time>2026-04-04T06:46:02.377Z</time></trkpt><trkpt lat="43.9819683" lon="12.5705683"><ele>41.0</ele><time>2026-04-04T06:46:03.378Z</time></trkpt><trkpt lat="43.9818817" lon="12.5705983"><ele>41.0</ele><time>2026-04-04T06:46:04.377Z</time></trkpt><trkpt lat="43.981775" lon="12.5706483"><ele>41.0</ele><time>2026-04-04T06:46:05.377Z</time></trkpt><trkpt lat="43.9816617" lon="12.5706967"><ele>40.0</ele><time>2026-04-04T06:46:06.377Z</time></trkpt><trkpt lat="43.981545" lon="12.5707483"><ele>39.0</ele><time>2026-04-04T06:46:07.377Z</time></trkpt><trkpt lat="43.9814217" lon="12.5708017"><ele>38.0</ele><time>2026-04-04T06:46:08.377Z</time></trkpt><trkpt lat="43.9813017" lon="12.5708533"><ele>37.0</ele><time>2026-04-04T06:46:09.378Z</time></trkpt><trkpt lat="43.9811833" lon="12.570905"><ele>37.0</ele><time>2026-04-04T06:46:10.377Z</time></trkpt><trkpt lat="43.98107" lon="12.57097"><ele>37.0</ele><time>2026-04-04T06:46:11.377Z</time></trkpt><trkpt lat="43.9809617" lon="12.571055"><ele>37.0</ele><time>2026-04-04T06:46:12.377Z</time></trkpt><trkpt lat="43.98086" lon="12.5711583"><ele>37.0</ele><time>2026-04-04T06:46:13.377Z</time></trkpt><trkpt lat="43.9807667" lon="12.57127"><ele>36.75</ele><time>2026-04-04T06:46:14.378Z</time></trkpt><trkpt lat="43.9806717" lon="12.5713933"><ele>36.5</ele><time>2026-04-04T06:46:15.378Z</time></trkpt><trkpt lat="43.9805783" lon="12.5715217"><ele>36.25</ele><time>2026-04-04T06:46:16.377Z</time></trkpt><trkpt lat="43.9804783" lon="12.5716517"><ele>36.0</ele><time>2026-04-04T06:46:17.377Z</time></trkpt><trkpt lat="43.9803767" lon="12.5717833"><ele>36.0</ele><time>2026-04-04T06:46:18.377Z</time></trkpt><trkpt lat="43.9802733" lon="12.57192"><ele>36.0</ele><time>2026-04-04T06:46:19.378Z</time></trkpt><trkpt lat="43.9801683" lon="12.5720567"><ele>36.0</ele><time>2026-04-04T06:46:20.377Z</time></trkpt><trkpt lat="43.9800633" lon="12.572195"><ele>36.0</ele><time>2026-04-04T06:46:21.378Z</time></trkpt><trkpt lat="43.9799533" lon="12.5723367"><ele>37.0</ele><time>2026-04-04T06:46:22.377Z</time></trkpt><trkpt lat="43.9798417" lon="12.5724817"><ele>38.0</ele><time>2026-04-04T06:46:23.378Z</time></trkpt><trkpt lat="43.979725" lon="12.5726283"><ele>39.0</ele><time>2026-04-04T06:46:24.377Z</time></trkpt><trkpt lat="43.9796083" lon="12.572775"><ele>40.0</ele><time>2026-04-04T06:46:25.378Z</time></trkpt><trkpt lat="43.9794883" lon="12.5729233"><ele>41.0</ele><time>2026-04-04T06:46:26.377Z</time></trkpt><trkpt lat="43.9793667" lon="12.5730733"><ele>42.0</ele><time>2026-04-04T06:46:27.378Z</time></trkpt><trkpt lat="43.979245" lon="12.5732333"><ele>43.333333333333336</ele><time>2026-04-04T06:46:28.377Z</time></trkpt><trkpt lat="43.979125" lon="12.573385"><ele>44.66666666666667</ele><time>2026-04-04T06:46:29.378Z</time></trkpt><trkpt lat="43.97901" lon="12.5735367"><ele>46.0</ele><time>2026-04-04T06:46:30.378Z</time></trkpt><trkpt lat="43.9788933" lon="12.573685"><ele>46.0</ele><time>2026-04-04T06:46:31.377Z</time></trkpt><trkpt lat="43.9787767" lon="12.573835"><ele>46.0</ele><time>2026-04-04T06:46:32.377Z</time></trkpt><trkpt lat="43.97866" lon="12.5739867"><ele>46.0</ele><time>2026-04-04T06:46:33.377Z</time></trkpt><trkpt lat="43.978545" lon="12.5741417"><ele>46.0</ele><time>2026-04-04T06:46:34.377Z</time></trkpt><trkpt lat="43.9784283" lon="12.5743"><ele>46.0</ele><time>2026-04-04T06:46:35.377Z</time></trkpt><trkpt lat="43.9783117" lon="12.5744567"><ele>46.0</ele><time>2026-04-04T06:46:36.378Z</time></trkpt><trkpt lat="43.9781917" lon="12.57461"><ele>46.66666666666667</ele><time>2026-04-04T06:46:37.377Z</time></trkpt><trkpt lat="43.9780683" lon="12.57476"><ele>47.333333333333336</ele><time>2026-04-04T06:46:38.377Z</time></trkpt><trkpt lat="43.9779417" lon="12.5749033"><ele>48.0</ele><time>2026-04-04T06:46:39.377Z</time></trkpt><trkpt lat="43.9778117" lon="12.5750333"><ele>48.0</ele><time>2026-04-04T06:46:40.377Z</time></trkpt><trkpt lat="43.97767" lon="12.5751583"><ele>48.0</ele><time>2026-04-04T06:46:41.377Z</time></trkpt><trkpt lat="43.9775233" lon="12.5752767"><ele>48.0</ele><time>2026-04-04T06:46:42.378Z</time></trkpt><trkpt lat="43.97737" lon="12.5753833"><ele>48.66666666666667</ele><time>2026-04-04T06:46:43.377Z</time></trkpt><trkpt lat="43.977215" lon="12.5754817"><ele>49.333333333333336</ele><time>2026-04-04T06:46:44.377Z</time></trkpt><trkpt lat="43.9770583" lon="12.5755733"><ele>50.0</ele><time>2026-04-04T06:46:45.378Z</time></trkpt><trkpt lat="43.9769" lon="12.5756483"><ele>50.0</ele><time>2026-04-04T06:46:46.377Z</time></trkpt><trkpt lat="43.9767417" lon="12.57571"><ele>50.0</ele><time>2026-04-04T06:46:47.378Z</time></trkpt><trkpt lat="43.976585" lon="12.5757583"><ele>50.0</ele><time>2026-04-04T06:46:48.378Z</time></trkpt><trkpt lat="43.97643" lon="12.575805"><ele>50.333333333333336</ele><time>2026-04-04T06:46:49.377Z</time></trkpt><trkpt lat="43.9762717" lon="12.5758467"><ele>50.66666666666667</ele><time>2026-04-04T06:46:50.377Z</time></trkpt><trkpt lat="43.9761167" lon="12.5758833"><ele>51.0</ele><time>2026-04-04T06:46:51.377Z</time></trkpt><trkpt lat="43.9759667" lon="12.5759167"><ele>51.25</ele><time>2026-04-04T06:46:52.377Z</time></trkpt><trkpt lat="43.9758217" lon="12.57595"><ele>51.5</ele><time>2026-04-04T06:46:53.378Z</time></trkpt><trkpt lat="43.97568" lon="12.5759867"><ele>51.75</ele><time>2026-04-04T06:46:54.378Z</time></trkpt><trkpt lat="43.9755317" lon="12.5760267"><ele>52.0</ele><time>2026-04-04T06:46:55.377Z</time></trkpt><trkpt lat="43.9753867" lon="12.5760717"><ele>52.0</ele><time>2026-04-04T06:46:56.377Z</time></trkpt><trkpt lat="43.9752417" lon="12.5761117"><ele>52.0</ele><time>2026-04-04T06:46:57.378Z</time></trkpt><trkpt lat="43.9750933" lon="12.5761483"><ele>52.0</ele><time>2026-04-04T06:46:58.378Z</time></trkpt><trkpt lat="43.9749417" lon="12.5761833"><ele>52.666666666666664</ele><time>2026-04-04T06:46:59.377Z</time></trkpt><trkpt lat="43.974795" lon="12.5762317"><ele>53.33333333333333</ele><time>2026-04-04T06:47:00.378Z</time></trkpt><trkpt lat="43.9746433" lon="12.5762733"><ele>54.0</ele><time>2026-04-04T06:47:01.378Z</time></trkpt><trkpt lat="43.9744917" lon="12.5763083"><ele>54.0</ele><time>2026-04-04T06:47:02.378Z</time></trkpt><trkpt lat="43.9743433" lon="12.5763533"><ele>54.0</ele><time>2026-04-04T06:47:03.378Z</time></trkpt><trkpt lat="43.9741933" lon="12.57639"><ele>54.0</ele><time>2026-04-04T06:47:04.378Z</time></trkpt><trkpt lat="43.97404" lon="12.57642"><ele>54.33333333333333</ele><time>2026-04-04T06:47:05.377Z</time></trkpt><trkpt lat="43.9738933" lon="12.5764483"><ele>54.666666666666664</ele><time>2026-04-04T06:47:06.377Z</time></trkpt><trkpt lat="43.9737417" lon="12.576465"><ele>55.0</ele><time>2026-04-04T06:47:07.377Z</time></trkpt><trkpt lat="43.97359" lon="12.5764833"><ele>55.0</ele><time>2026-04-04T06:47:08.378Z</time></trkpt><trkpt lat="43.97344" lon="12.5764967"><ele>55.0</ele><time>2026-04-04T06:47:09.378Z</time></trkpt><trkpt lat="43.9732967" lon="12.5765083"><ele>55.0</ele><time>2026-04-04T06:47:10.377Z</time></trkpt><trkpt lat="43.97317" lon="12.5765167"><ele>55.0</ele><time>2026-04-04T06:47:11.377Z</time></trkpt><trkpt lat="43.973055" lon="12.57652"><ele>54.83333333333333</ele><time>2026-04-04T06:47:12.378Z</time></trkpt><trkpt lat="43.97295" lon="12.5765133"><ele>54.666666666666664</ele><time>2026-04-04T06:47:13.378Z</time></trkpt><trkpt lat="43.9728583" lon="12.57648"><ele>54.5</ele><time>2026-04-04T06:47:14.377Z</time></trkpt><trkpt lat="43.9727783" lon="12.5764317"><ele>54.33333333333333</ele><time>2026-04-04T06:47:15.378Z</time></trkpt><trkpt lat="43.9727033" lon="12.576395"><ele>54.166666666666664</ele><time>2026-04-04T06:47:16.377Z</time></trkpt><trkpt lat="43.97263" lon="12.5763967"><ele>54.0</ele><time>2026-04-04T06:47:17.378Z</time></trkpt><trkpt lat="43.9725617" lon="12.5764217"><ele>54.400000000000006</ele><time>2026-04-04T06:47:18.378Z</time></trkpt><trkpt lat="43.9724967" lon="12.57648"><ele>54.800000000000004</ele><time>2026-04-04T06:47:19.378Z</time></trkpt><trkpt lat="43.97243" lon="12.5765433"><ele>55.199999999999996</ele><time>2026-04-04T06:47:20.377Z</time></trkpt><trkpt lat="43.9723483" lon="12.5765933"><ele>55.599999999999994</ele><time>2026-04-04T06:47:21.377Z</time></trkpt><trkpt lat="43.9722467" lon="12.57662"><ele>56.0</ele><time>2026-04-04T06:47:22.378Z</time></trkpt><trkpt lat="43.972135" lon="12.5766333"><ele>56.0</ele><time>2026-04-04T06:47:23.378Z</time></trkpt><trkpt lat="43.9720117" lon="12.5766417"><ele>56.0</ele><time>2026-04-04T06:47:24.377Z</time></trkpt><trkpt lat="43.9718733" lon="12.57663"><ele>56.0</ele><time>2026-04-04T06:47:25.377Z</time></trkpt><trkpt lat="43.9717317" lon="12.576605"><ele>56.0</ele><time>2026-04-04T06:47:26.378Z</time></trkpt><trkpt lat="43.9715917" lon="12.57657"><ele>55.75</ele><time>2026-04-04T06:47:27.377Z</time></trkpt><trkpt lat="43.971455" lon="12.57652"><ele>55.5</ele><time>2026-04-04T06:47:28.377Z</time></trkpt><trkpt lat="43.9713117" lon="12.5764667"><ele>55.25</ele><time>2026-04-04T06:47:29.377Z</time></trkpt><trkpt lat="43.97117" lon="12.57641"><ele>55.0</ele><time>2026-04-04T06:47:30.377Z</time></trkpt><trkpt lat="43.9710183" lon="12.57636"><ele>55.0</ele><time>2026-04-04T06:47:31.378Z</time></trkpt><trkpt lat="43.970865" lon="12.5763017"><ele>55.0</ele><time>2026-04-04T06:47:32.377Z</time></trkpt><trkpt lat="43.9707217" lon="12.5762417"><ele>55.0</ele><time>2026-04-04T06:47:33.377Z</time></trkpt><trkpt lat="43.9705733" lon="12.5761867"><ele>55.666666666666664</ele><time>2026-04-04T06:47:34.377Z</time></trkpt><trkpt lat="43.9704283" lon="12.5761267"><ele>56.33333333333333</ele><time>2026-04-04T06:47:35.378Z</time></trkpt><trkpt lat="43.97028" lon="12.5760733"><ele>57.0</ele><time>2026-04-04T06:47:36.377Z</time></trkpt><trkpt lat="43.9701267" lon="12.576015"><ele>58.33333333333333</ele><time>2026-04-04T06:47:37.377Z</time></trkpt><trkpt lat="43.9699767" lon="12.5759533"><ele>59.666666666666664</ele><time>2026-04-04T06:47:38.378Z</time></trkpt><trkpt lat="43.9698367" lon="12.57589"><ele>61.0</ele><time>2026-04-04T06:47:39.377Z</time></trkpt><trkpt lat="43.9696867" lon="12.575825"><ele>61.0</ele><time>2026-04-04T06:47:40.377Z</time></trkpt><trkpt lat="43.9695383" lon="12.5757517"><ele>61.0</ele><time>2026-04-04T06:47:41.378Z</time></trkpt><trkpt lat="43.9693917" lon="12.5756633"><ele>61.0</ele><time>2026-04-04T06:47:42.378Z</time></trkpt><trkpt lat="43.96925" lon="12.5755683"><ele>60.33333333333333</ele><time>2026-04-04T06:47:43.377Z</time></trkpt><trkpt lat="43.9691067" lon="12.5754683"><ele>59.66666666666667</ele><time>2026-04-04T06:47:44.378Z</time></trkpt><trkpt lat="43.9689667" lon="12.5753717"><ele>59.0</ele><time>2026-04-04T06:47:45.377Z</time></trkpt><trkpt lat="43.968825" lon="12.5752967"><ele>59.0</ele><time>2026-04-04T06:47:46.377Z</time></trkpt><trkpt lat="43.9686767" lon="12.5752533"><ele>59.0</ele><time>2026-04-04T06:47:47.377Z</time></trkpt><trkpt lat="43.9685183" lon="12.575235"><ele>59.0</ele><time>2026-04-04T06:47:48.377Z</time></trkpt><trkpt lat="43.96836" lon="12.575235"><ele>61.333333333333336</ele><time>2026-04-04T06:47:49.377Z</time></trkpt><trkpt lat="43.968205" lon="12.5752383"><ele>63.66666666666667</ele><time>2026-04-04T06:47:50.377Z</time></trkpt><trkpt lat="43.9680433" lon="12.5752433"><ele>66.0</ele><time>2026-04-04T06:47:51.377Z</time></trkpt><trkpt lat="43.9678767" lon="12.5752517"><ele>66.0</ele><time>2026-04-04T06:47:52.377Z</time></trkpt><trkpt lat="43.96772" lon="12.5752517"><ele>66.0</ele><time>2026-04-04T06:47:53.378Z</time></trkpt><trkpt lat="43.96756" lon="12.5752517"><ele>66.0</ele><time>2026-04-04T06:47:54.377Z</time></trkpt><trkpt lat="43.9674017" lon="12.5752533"><ele>68.33333333333333</ele><time>2026-04-04T06:47:55.377Z</time></trkpt><trkpt lat="43.9672433" lon="12.5752483"><ele>70.66666666666666</ele><time>2026-04-04T06:47:56.378Z</time></trkpt><trkpt lat="43.9670883" lon="12.5752217"><ele>73.0</ele><time>2026-04-04T06:47:57.377Z</time></trkpt><trkpt lat="43.9669283" lon="12.5751817"><ele>73.0</ele><time>2026-04-04T06:47:58.377Z</time></trkpt><trkpt lat="43.9667817" lon="12.57511"><ele>73.0</ele><time>2026-04-04T06:47:59.377Z</time></trkpt><trkpt lat="43.96664" lon="12.57503"><ele>73.0</ele><time>2026-04-04T06:48:00.377Z</time></trkpt><trkpt lat="43.966495" lon="12.57495"><ele>74.66666666666666</ele><time>2026-04-04T06:48:01.378Z</time></trkpt><trkpt lat="43.966355" lon="12.5748717"><ele>76.33333333333333</ele><time>2026-04-04T06:48:02.377Z</time></trkpt><trkpt lat="43.96621" lon="12.5748183"><ele>78.0</ele><time>2026-04-04T06:48:03.377Z</time></trkpt><trkpt lat="43.9660617" lon="12.5747867"><ele>78.0</ele><time>2026-04-04T06:48:04.377Z</time></trkpt><trkpt lat="43.9659017" lon="12.5747683"><ele>78.0</ele><time>2026-04-04T06:48:05.377Z</time></trkpt><trkpt lat="43.9657467" lon="12.5747667"><ele>78.0</ele><time>2026-04-04T06:48:06.378Z</time></trkpt><trkpt lat="43.9656017" lon="12.5747933"><ele>80.75</ele><time>2026-04-04T06:48:07.377Z</time></trkpt><trkpt lat="43.9654633" lon="12.5748167"><ele>83.5</ele><time>2026-04-04T06:48:08.377Z</time></trkpt><trkpt lat="43.9653217" lon="12.574845"><ele>86.25</ele><time>2026-04-04T06:48:09.378Z</time></trkpt><trkpt lat="43.9651817" lon="12.5748617"><ele>89.0</ele><time>2026-04-04T06:48:10.378Z</time></trkpt><trkpt lat="43.9650383" lon="12.5748567"><ele>90.33333333333334</ele><time>2026-04-04T06:48:11.378Z</time></trkpt><trkpt lat="43.964885" lon="12.57483"><ele>91.66666666666667</ele><time>2026-04-04T06:48:12.378Z</time></trkpt><trkpt lat="43.96473" lon="12.5747733"><ele>93.0</ele><time>2026-04-04T06:48:13.377Z</time></trkpt><trkpt lat="43.9645783" lon="12.5747067"><ele>93.0</ele><time>2026-04-04T06:48:14.377Z</time></trkpt><trkpt lat="43.9644267" lon="12.5746233"><ele>93.0</ele><time>2026-04-04T06:48:15.377Z</time></trkpt><trkpt lat="43.96427" lon="12.5745467"><ele>93.0</ele><time>2026-04-04T06:48:16.377Z</time></trkpt><trkpt lat="43.96412" lon="12.5744517"><ele>94.0</ele><time>2026-04-04T06:48:17.378Z</time></trkpt><trkpt lat="43.963975" lon="12.57436"><ele>95.0</ele><time>2026-04-04T06:48:18.377Z</time></trkpt><trkpt lat="43.9638283" lon="12.5742717"><ele>96.0</ele><time>2026-04-04T06:48:19.378Z</time></trkpt><trkpt lat="43.9636883" lon="12.574185"><ele>96.0</ele><time>2026-04-04T06:48:20.377Z</time></trkpt><trkpt lat="43.9635417" lon="12.5741033"><ele>96.0</ele><time>2026-04-04T06:48:21.377Z</time></trkpt><trkpt lat="43.9633917" lon="12.5740333"><ele>96.0</ele><time>2026-04-04T06:48:22.378Z</time></trkpt><trkpt lat="43.963235" lon="12.5739767"><ele>97.33333333333334</ele><time>2026-04-04T06:48:23.378Z</time></trkpt><trkpt lat="43.9630767" lon="12.5739567"><ele>98.66666666666667</ele><time>2026-04-04T06:48:24.377Z</time></trkpt><trkpt lat="43.9629167" lon="12.5739617"><ele>100.0</ele><time>2026-04-04T06:48:25.377Z</time></trkpt><trkpt lat="43.9627633" lon="12.5739683"><ele>100.0</ele><time>2026-04-04T06:48:26.378Z</time></trkpt><trkpt lat="43.9626117" lon="12.5739733"><ele>100.0</ele><time>2026-04-04T06:48:27.377Z</time></trkpt><trkpt lat="43.9624667" lon="12.573965"><ele>100.0</ele><time>2026-04-04T06:48:28.378Z</time></trkpt><trkpt lat="43.962325" lon="12.573935"><ele>100.0</ele><time>2026-04-04T06:48:29.378Z</time></trkpt><trkpt lat="43.9621833" lon="12.57387"><ele>100.66666666666667</ele><time>2026-04-04T06:48:30.378Z</time></trkpt><trkpt lat="43.9620517" lon="12.5737733"><ele>101.33333333333334</ele><time>2026-04-04T06:48:31.377Z</time></trkpt><trkpt lat="43.9619233" lon="12.5736517"><ele>102.0</ele><time>2026-04-04T06:48:32.378Z</time></trkpt><trkpt lat="43.961795" lon="12.5735167"><ele>101.66666666666666</ele><time>2026-04-04T06:48:33.377Z</time></trkpt><trkpt lat="43.961665" lon="12.5733833"><ele>101.33333333333333</ele><time>2026-04-04T06:48:34.377Z</time></trkpt><trkpt lat="43.96154" lon="12.573255"><ele>101.0</ele><time>2026-04-04T06:48:35.377Z</time></trkpt><trkpt lat="43.9614133" lon="12.5731217"><ele>101.0</ele><time>2026-04-04T06:48:36.377Z</time></trkpt><trkpt lat="43.96129" lon="12.5729967"><ele>101.0</ele><time>2026-04-04T06:48:37.377Z</time></trkpt><trkpt lat="43.961155" lon="12.5728833"><ele>101.0</ele><time>2026-04-04T06:48:38.378Z</time></trkpt><trkpt lat="43.961015" lon="12.5727717"><ele>101.0</ele><time>2026-04-04T06:48:39.377Z</time></trkpt><trkpt lat="43.9608717" lon="12.5726683"><ele>101.0</ele><time>2026-04-04T06:48:40.378Z</time></trkpt><trkpt lat="43.9607267" lon="12.5725683"><ele>101.0</ele><time>2026-04-04T06:48:41.377Z</time></trkpt><trkpt lat="43.960585" lon="12.5724683"><ele>101.0</ele><time>2026-04-04T06:48:42.377Z</time></trkpt><trkpt lat="43.96044" lon="12.572375"><ele>101.0</ele><time>2026-04-04T06:48:43.378Z</time></trkpt><trkpt lat="43.9602967" lon="12.572285"><ele>101.0</ele><time>2026-04-04T06:48:44.378Z</time></trkpt><trkpt lat="43.9601483" lon="12.5722083"><ele>99.33333333333333</ele><time>2026-04-04T06:48:45.378Z</time></trkpt><trkpt lat="43.959995" lon="12.57215"><ele>97.66666666666666</ele><time>2026-04-04T06:48:46.377Z</time></trkpt><trkpt lat="43.95983" lon="12.5721167"><ele>96.0</ele><time>2026-04-04T06:48:47.378Z</time></trkpt><trkpt lat="43.9596717" lon="12.5721017"><ele>96.0</ele><time>2026-04-04T06:48:48.377Z</time></trkpt><trkpt lat="43.9595133" lon="12.5721217"><ele>96.0</ele><time>2026-04-04T06:48:49.377Z</time></trkpt><trkpt lat="43.9593533" lon="12.5721567"><ele>96.0</ele><time>2026-04-04T06:48:50.377Z</time></trkpt><trkpt lat="43.9591933" lon="12.572175"><ele>95.33333333333333</ele><time>2026-04-04T06:48:51.377Z</time></trkpt><trkpt lat="43.95903" lon="12.5721767"><ele>94.66666666666666</ele><time>2026-04-04T06:48:52.377Z</time></trkpt><trkpt lat="43.958865" lon="12.5721583"><ele>94.0</ele><time>2026-04-04T06:48:53.378Z</time></trkpt><trkpt lat="43.9587067" lon="12.5721267"><ele>94.0</ele><time>2026-04-04T06:48:54.378Z</time></trkpt><trkpt lat="43.9585417" lon="12.5720767"><ele>94.0</ele><time>2026-04-04T06:48:55.378Z</time></trkpt><trkpt lat="43.9583833" lon="12.572025"><ele>94.0</ele><time>2026-04-04T06:48:56.378Z</time></trkpt><trkpt lat="43.9582217" lon="12.5719733"><ele>97.66666666666666</ele><time>2026-04-04T06:48:57.377Z</time></trkpt><trkpt lat="43.9580683" lon="12.5719067"><ele>101.33333333333333</ele><time>2026-04-04T06:48:58.378Z</time></trkpt><trkpt lat="43.9579117" lon="12.571825"><ele>105.0</ele><time>2026-04-04T06:48:59.378Z</time></trkpt><trkpt lat="43.9577617" lon="12.57173"><ele>105.0</ele><time>2026-04-04T06:49:00.378Z</time></trkpt><trkpt lat="43.957615" lon="12.5716167"><ele>105.0</ele><time>2026-04-04T06:49:01.377Z</time></trkpt><trkpt lat="43.9574717" lon="12.5714983"><ele>105.0</ele><time>2026-04-04T06:49:02.378Z</time></trkpt><trkpt lat="43.95734" lon="12.57137"><ele>105.0</ele><time>2026-04-04T06:49:03.377Z</time></trkpt><trkpt lat="43.9572083" lon="12.571245"><ele>105.0</ele><time>2026-04-04T06:49:04.378Z</time></trkpt><trkpt lat="43.95708" lon="12.5711183"><ele>105.0</ele><time>2026-04-04T06:49:05.377Z</time></trkpt><trkpt lat="43.9569517" lon="12.5709933"><ele>107.33333333333334</ele><time>2026-04-04T06:49:06.377Z</time></trkpt><trkpt lat="43.9568117" lon="12.5708917"><ele>109.66666666666667</ele><time>2026-04-04T06:49:07.378Z</time></trkpt><trkpt lat="43.9566683" lon="12.57079"><ele>112.0</ele><time>2026-04-04T06:49:08.378Z</time></trkpt><trkpt lat="43.9565317" lon="12.57069"><ele>112.33333333333334</ele><time>2026-04-04T06:49:09.377Z</time></trkpt><trkpt lat="43.956385" lon="12.5706033"><ele>112.66666666666666</ele><time>2026-04-04T06:49:10.378Z</time></trkpt><trkpt lat="43.95624" lon="12.5705283"><ele>113.0</ele><time>2026-04-04T06:49:11.377Z</time></trkpt><trkpt lat="43.9560883" lon="12.5704633"><ele>113.0</ele><time>2026-04-04T06:49:12.377Z</time></trkpt><trkpt lat="43.9559333" lon="12.5704"><ele>113.0</ele><time>2026-04-04T06:49:13.378Z</time></trkpt><trkpt lat="43.9557783" lon="12.5703367"><ele>113.0</ele><time>2026-04-04T06:49:14.377Z</time></trkpt><trkpt lat="43.9556217" lon="12.5702633"><ele>113.33333333333333</ele><time>2026-04-04T06:49:15.377Z</time></trkpt><trkpt lat="43.9554633" lon="12.5701883"><ele>113.66666666666666</ele><time>2026-04-04T06:49:16.378Z</time></trkpt><trkpt lat="43.9553117" lon="12.5701183"><ele>114.0</ele><time>2026-04-04T06:49:17.377Z</time></trkpt><trkpt lat="43.9551633" lon="12.5700417"><ele>115.0</ele><time>2026-04-04T06:49:18.377Z</time></trkpt><trkpt lat="43.955015" lon="12.569965"><ele>116.0</ele><time>2026-04-04T06:49:19.377Z</time></trkpt><trkpt lat="43.9548667" lon="12.56989"><ele>117.0</ele><time>2026-04-04T06:49:20.378Z</time></trkpt><trkpt lat="43.9547167" lon="12.5698117"><ele>117.0</ele><time>2026-04-04T06:49:21.377Z</time></trkpt><trkpt lat="43.9545667" lon="12.5697367"><ele>117.0</ele><time>2026-04-04T06:49:22.378Z</time></trkpt><trkpt lat="43.9544217" lon="12.569655"><ele>117.0</ele><time>2026-04-04T06:49:23.377Z</time></trkpt><trkpt lat="43.954285" lon="12.5695783"><ele>118.25</ele><time>2026-04-04T06:49:24.377Z</time></trkpt><trkpt lat="43.954155" lon="12.5694933"><ele>119.5</ele><time>2026-04-04T06:49:25.378Z</time></trkpt><trkpt lat="43.9540383" lon="12.5693883"><ele>120.75</ele><time>2026-04-04T06:49:26.377Z</time></trkpt><trkpt lat="43.9539217" lon="12.56928"><ele>122.0</ele><time>2026-04-04T06:49:27.377Z</time></trkpt><trkpt lat="43.9538217" lon="12.5691517"><ele>122.0</ele><time>2026-04-04T06:49:28.377Z</time></trkpt><trkpt lat="43.95373" lon="12.5690017"><ele>122.0</ele><time>2026-04-04T06:49:29.377Z</time></trkpt><trkpt lat="43.9536417" lon="12.568825"><ele>122.0</ele><time>2026-04-04T06:49:30.377Z</time></trkpt><trkpt lat="43.953555" lon="12.5686417"><ele>123.0</ele><time>2026-04-04T06:49:31.377Z</time></trkpt><trkpt lat="43.9534733" lon="12.5684533"><ele>124.0</ele><time>2026-04-04T06:49:32.378Z</time></trkpt><trkpt lat="43.9533917" lon="12.5682633"><ele>125.0</ele><time>2026-04-04T06:49:33.378Z</time></trkpt><trkpt lat="43.95331" lon="12.568065"><ele>125.0</ele><time>2026-04-04T06:49:34.377Z</time></trkpt><trkpt lat="43.9532217" lon="12.5678683"><ele>125.0</ele><time>2026-04-04T06:49:35.378Z</time></trkpt><trkpt lat="43.9531367" lon="12.5676833"><ele>125.0</ele><time>2026-04-04T06:49:36.377Z</time></trkpt><trkpt lat="43.9530517" lon="12.5674917"><ele>122.66666666666666</ele><time>2026-04-04T06:49:37.378Z</time></trkpt><trkpt lat="43.9529683" lon="12.5672933"><ele>120.33333333333334</ele><time>2026-04-04T06:49:38.377Z</time></trkpt><trkpt lat="43.9528783" lon="12.5671"><ele>118.0</ele><time>2026-04-04T06:49:39.377Z</time></trkpt><trkpt lat="43.9527917" lon="12.566905"><ele>116.33333333333334</ele><time>2026-04-04T06:49:40.377Z</time></trkpt><trkpt lat="43.9527117" lon="12.5667083"><ele>114.66666666666666</ele><time>2026-04-04T06:49:41.377Z</time></trkpt><trkpt lat="43.9526283" lon="12.5665083"><ele>113.0</ele><time>2026-04-04T06:49:42.377Z</time></trkpt><trkpt lat="43.9525433" lon="12.5663167"><ele>114.66666666666666</ele><time>2026-04-04T06:49:43.377Z</time></trkpt><trkpt lat="43.9524533" lon="12.56613"><ele>116.33333333333334</ele><time>2026-04-04T06:49:44.377Z</time></trkpt><trkpt lat="43.952365" lon="12.5659467"><ele>118.0</ele><time>2026-04-04T06:49:45.378Z</time></trkpt><trkpt lat="43.9522683" lon="12.56578"><ele>118.0</ele><time>2026-04-04T06:49:46.377Z</time></trkpt><trkpt lat="43.9521617" lon="12.5656317"><ele>118.0</ele><time>2026-04-04T06:49:47.377Z</time></trkpt><trkpt lat="43.9520517" lon="12.5654967"><ele>118.0</ele><time>2026-04-04T06:49:48.378Z</time></trkpt><trkpt lat="43.9519333" lon="12.5653683"><ele>118.0</ele><time>2026-04-04T06:49:49.377Z</time></trkpt><trkpt lat="43.9518" lon="12.5652583"><ele>117.33333333333334</ele><time>2026-04-04T06:49:50.377Z</time></trkpt><trkpt lat="43.951655" lon="12.5651683"><ele>116.66666666666666</ele><time>2026-04-04T06:49:51.377Z</time></trkpt><trkpt lat="43.9515067" lon="12.565075"><ele>116.0</ele><time>2026-04-04T06:49:52.377Z</time></trkpt><trkpt lat="43.9513567" lon="12.5649833"><ele>116.0</ele><time>2026-04-04T06:49:53.378Z</time></trkpt><trkpt lat="43.9512083" lon="12.5648883"><ele>116.0</ele><time>2026-04-04T06:49:54.378Z</time></trkpt><trkpt lat="43.9510683" lon="12.564785"><ele>116.0</ele><time>2026-04-04T06:49:55.378Z</time></trkpt><trkpt lat="43.9509367" lon="12.5646717"><ele>116.0</ele><time>2026-04-04T06:49:56.377Z</time></trkpt><trkpt lat="43.9508083" lon="12.56454"><ele>116.0</ele><time>2026-04-04T06:49:57.377Z</time></trkpt><trkpt lat="43.9506817" lon="12.5644033"><ele>116.0</ele><time>2026-04-04T06:49:58.378Z</time></trkpt><trkpt lat="43.9505517" lon="12.564275"><ele>116.0</ele><time>2026-04-04T06:49:59.377Z</time></trkpt><trkpt lat="43.9504267" lon="12.5641517"><ele>116.0</ele><time>2026-04-04T06:50:00.377Z</time></trkpt><trkpt lat="43.950315" lon="12.5640367"><ele>116.0</ele><time>2026-04-04T06:50:01.378Z</time></trkpt><trkpt lat="43.9502033" lon="12.56392"><ele>116.0</ele><time>2026-04-04T06:50:02.378Z</time></trkpt><trkpt lat="43.9500817" lon="12.5638117"><ele>117.0</ele><time>2026-04-04T06:50:03.377Z</time></trkpt><trkpt lat="43.9499583" lon="12.563695"><ele>118.0</ele><time>2026-04-04T06:50:04.378Z</time></trkpt><trkpt lat="43.94983" lon="12.5635717"><ele>119.0</ele><time>2026-04-04T06:50:05.377Z</time></trkpt><trkpt lat="43.9496983" lon="12.5634583"><ele>119.0</ele><time>2026-04-04T06:50:06.378Z</time></trkpt><trkpt lat="43.94956" lon="12.5633433"><ele>119.0</ele><time>2026-04-04T06:50:07.378Z</time></trkpt><trkpt lat="43.9494233" lon="12.56323"><ele>119.0</ele><time>2026-04-04T06:50:08.378Z</time></trkpt><trkpt lat="43.9492833" lon="12.5631183"><ele>119.66666666666666</ele><time>2026-04-04T06:50:09.377Z</time></trkpt><trkpt lat="43.9491417" lon="12.5630167"><ele>120.33333333333334</ele><time>2026-04-04T06:50:10.377Z</time></trkpt><trkpt lat="43.9489917" lon="12.56291"><ele>121.0</ele><time>2026-04-04T06:50:11.377Z</time></trkpt><trkpt lat="43.94885" lon="12.5627867"><ele>121.0</ele><time>2026-04-04T06:50:12.377Z</time></trkpt><trkpt lat="43.9487167" lon="12.562645"><ele>121.0</ele><time>2026-04-04T06:50:13.378Z</time></trkpt><trkpt lat="43.948595" lon="12.5624917"><ele>121.0</ele><time>2026-04-04T06:50:14.378Z</time></trkpt><trkpt lat="43.9484833" lon="12.5623233"><ele>122.33333333333334</ele><time>2026-04-04T06:50:15.377Z</time></trkpt><trkpt lat="43.948375" lon="12.562145"><ele>123.66666666666666</ele><time>2026-04-04T06:50:16.377Z</time></trkpt><trkpt lat="43.94827" lon="12.56197"><ele>125.0</ele><time>2026-04-04T06:50:17.377Z</time></trkpt><trkpt lat="43.94816" lon="12.5617983"><ele>125.0</ele><time>2026-04-04T06:50:18.377Z</time></trkpt><trkpt lat="43.9480483" lon="12.5616267"><ele>125.0</ele><time>2026-04-04T06:50:19.378Z</time></trkpt><trkpt lat="43.9479433" lon="12.5614567"><ele>125.0</ele><time>2026-04-04T06:50:20.378Z</time></trkpt><trkpt lat="43.9478333" lon="12.561295"><ele>122.66666666666666</ele><time>2026-04-04T06:50:21.378Z</time></trkpt><trkpt lat="43.947725" lon="12.5611233"><ele>120.33333333333334</ele><time>2026-04-04T06:50:22.377Z</time></trkpt><trkpt lat="43.9476183" lon="12.5609533"><ele>118.0</ele><time>2026-04-04T06:50:23.378Z</time></trkpt><trkpt lat="43.9475117" lon="12.5607783"><ele>122.0</ele><time>2026-04-04T06:50:24.378Z</time></trkpt><trkpt lat="43.947405" lon="12.560605"><ele>126.0</ele><time>2026-04-04T06:50:25.377Z</time></trkpt><trkpt lat="43.9472983" lon="12.5604333"><ele>130.0</ele><time>2026-04-04T06:50:26.377Z</time></trkpt><trkpt lat="43.94719" lon="12.5602667"><ele>130.0</ele><time>2026-04-04T06:50:27.377Z</time></trkpt><trkpt lat="43.9470767" lon="12.560095"><ele>130.0</ele><time>2026-04-04T06:50:28.377Z</time></trkpt><trkpt lat="43.9469583" lon="12.5599267"><ele>130.0</ele><time>2026-04-04T06:50:29.377Z</time></trkpt><trkpt lat="43.9468367" lon="12.559765"><ele>130.0</ele><time>2026-04-04T06:50:30.378Z</time></trkpt><trkpt lat="43.9467183" lon="12.5596017"><ele>130.0</ele><time>2026-04-04T06:50:31.377Z</time></trkpt><trkpt lat="43.9465983" lon="12.5594467"><ele>130.0</ele><time>2026-04-04T06:50:32.378Z</time></trkpt><trkpt lat="43.9464767" lon="12.5592833"><ele>135.66666666666669</ele><time>2026-04-04T06:50:33.378Z</time></trkpt><trkpt lat="43.9463533" lon="12.5591217"><ele>141.33333333333334</ele><time>2026-04-04T06:50:34.378Z</time></trkpt><trkpt lat="43.94623" lon="12.5589533"><ele>147.0</ele><time>2026-04-04T06:50:35.378Z</time></trkpt><trkpt lat="43.946105" lon="12.5587917"><ele>149.0</ele><time>2026-04-04T06:50:36.378Z</time></trkpt><trkpt lat="43.9459867" lon="12.5586233"><ele>151.0</ele><time>2026-04-04T06:50:37.378Z</time></trkpt><trkpt lat="43.9458667" lon="12.5584583"><ele>153.0</ele><time>2026-04-04T06:50:38.378Z</time></trkpt><trkpt lat="43.945755" lon="12.558295"><ele>153.0</ele><time>2026-04-04T06:50:39.377Z</time></trkpt><trkpt lat="43.9456467" lon="12.558125"><ele>153.0</ele><time>2026-04-04T06:50:40.377Z</time></trkpt><trkpt lat="43.94554" lon="12.5579383"><ele>153.0</ele><time>2026-04-04T06:50:41.377Z</time></trkpt><trkpt lat="43.94544" lon="12.5577617"><ele>151.66666666666666</ele><time>2026-04-04T06:50:42.377Z</time></trkpt><trkpt lat="43.9453467" lon="12.5575917"><ele>150.33333333333331</ele><time>2026-04-04T06:50:43.377Z</time></trkpt><trkpt lat="43.9452633" lon="12.5574183"><ele>149.0</ele><time>2026-04-04T06:50:44.378Z</time></trkpt><trkpt lat="43.9451767" lon="12.5572367"><ele>149.0</ele><time>2026-04-04T06:50:45.377Z</time></trkpt><trkpt lat="43.945095" lon="12.5570433"><ele>149.0</ele><time>2026-04-04T06:50:46.378Z</time></trkpt><trkpt lat="43.9450083" lon="12.5568667"><ele>149.0</ele><time>2026-04-04T06:50:47.378Z</time></trkpt><trkpt lat="43.9449117" lon="12.5566917"><ele>151.33333333333331</ele><time>2026-04-04T06:50:48.378Z</time></trkpt><trkpt lat="43.9448017" lon="12.5565333"><ele>153.66666666666666</ele><time>2026-04-04T06:50:49.377Z</time></trkpt><trkpt lat="43.9446917" lon="12.5563833"><ele>156.0</ele><time>2026-04-04T06:50:50.378Z</time></trkpt><trkpt lat="43.944585" lon="12.556225"><ele>153.0</ele><time>2026-04-04T06:50:51.377Z</time></trkpt><trkpt lat="43.944495" lon="12.556055"><ele>150.0</ele><time>2026-04-04T06:50:52.377Z</time></trkpt><trkpt lat="43.9444267" lon="12.5558617"><ele>147.0</ele><time>2026-04-04T06:50:53.378Z</time></trkpt><trkpt lat="43.9443633" lon="12.5556617"><ele>147.0</ele><time>2026-04-04T06:50:54.378Z</time></trkpt><trkpt lat="43.94431" lon="12.5554433"><ele>147.0</ele><time>2026-04-04T06:50:55.377Z</time></trkpt><trkpt lat="43.9442683" lon="12.5552117"><ele>147.0</ele><time>2026-04-04T06:50:56.378Z</time></trkpt><trkpt lat="43.9442233" lon="12.5549867"><ele>148.0</ele><time>2026-04-04T06:50:57.377Z</time></trkpt><trkpt lat="43.9441733" lon="12.554775"><ele>149.0</ele><time>2026-04-04T06:50:58.377Z</time></trkpt><trkpt lat="43.9441167" lon="12.5545633"><ele>150.0</ele><time>2026-04-04T06:50:59.377Z</time></trkpt><trkpt lat="43.9440517" lon="12.5543567"><ele>150.0</ele><time>2026-04-04T06:51:00.377Z</time></trkpt><trkpt lat="43.94398" lon="12.5541617"><ele>150.0</ele><time>2026-04-04T06:51:01.377Z</time></trkpt><trkpt lat="43.9439017" lon="12.5539733"><ele>150.0</ele><time>2026-04-04T06:51:02.377Z</time></trkpt><trkpt lat="43.943825" lon="12.5537767"><ele>148.66666666666666</ele><time>2026-04-04T06:51:03.378Z</time></trkpt><trkpt lat="43.94375" lon="12.5535783"><ele>147.33333333333331</ele><time>2026-04-04T06:51:04.377Z</time></trkpt><trkpt lat="43.9436683" lon="12.5533833"><ele>146.0</ele><time>2026-04-04T06:51:05.378Z</time></trkpt><trkpt lat="43.9435817" lon="12.5531883"><ele>146.0</ele><time>2026-04-04T06:51:06.377Z</time></trkpt><trkpt lat="43.9435017" lon="12.55299"><ele>146.0</ele><time>2026-04-04T06:51:07.377Z</time></trkpt><trkpt lat="43.943415" lon="12.5527967"><ele>146.0</ele><time>2026-04-04T06:51:08.377Z</time></trkpt><trkpt lat="43.9433267" lon="12.552605"><ele>149.33333333333331</ele><time>2026-04-04T06:51:09.378Z</time></trkpt><trkpt lat="43.9432383" lon="12.55241"><ele>152.66666666666666</ele><time>2026-04-04T06:51:10.377Z</time></trkpt><trkpt lat="43.9431533" lon="12.5522133"><ele>156.0</ele><time>2026-04-04T06:51:11.378Z</time></trkpt><trkpt lat="43.9430683" lon="12.552015"><ele>156.33333333333334</ele><time>2026-04-04T06:51:12.378Z</time></trkpt><trkpt lat="43.9429917" lon="12.551815"><ele>156.66666666666669</ele><time>2026-04-04T06:51:13.377Z</time></trkpt><trkpt lat="43.94292" lon="12.5516117"><ele>157.0</ele><time>2026-04-04T06:51:14.377Z</time></trkpt><trkpt lat="43.94286" lon="12.5514067"><ele>156.66666666666669</ele><time>2026-04-04T06:51:15.377Z</time></trkpt><trkpt lat="43.9428033" lon="12.5512"><ele>156.33333333333334</ele><time>2026-04-04T06:51:16.378Z</time></trkpt><trkpt lat="43.9427467" lon="12.5509917"><ele>156.0</ele><time>2026-04-04T06:51:17.377Z</time></trkpt><trkpt lat="43.9426867" lon="12.5507817"><ele>156.0</ele><time>2026-04-04T06:51:18.377Z</time></trkpt><trkpt lat="43.9426117" lon="12.5505817"><ele>156.0</ele><time>2026-04-04T06:51:19.377Z</time></trkpt><trkpt lat="43.9425183" lon="12.550395"><ele>156.0</ele><time>2026-04-04T06:51:20.377Z</time></trkpt><trkpt lat="43.942425" lon="12.5502267"><ele>159.33333333333334</ele><time>2026-04-04T06:51:21.378Z</time></trkpt><trkpt lat="43.9423183" lon="12.5500733"><ele>162.66666666666669</ele><time>2026-04-04T06:51:22.378Z</time></trkpt><trkpt lat="43.9422067" lon="12.549935"><ele>166.0</ele><time>2026-04-04T06:51:23.378Z</time></trkpt><trkpt lat="43.9420867" lon="12.5498167"><ele>166.0</ele><time>2026-04-04T06:51:24.377Z</time></trkpt><trkpt lat="43.9419467" lon="12.54974"><ele>166.0</ele><time>2026-04-04T06:51:25.378Z</time></trkpt><trkpt lat="43.9417967" lon="12.5496883"><ele>166.0</ele><time>2026-04-04T06:51:26.377Z</time></trkpt><trkpt lat="43.9416417" lon="12.5496817"><ele>168.66666666666669</ele><time>2026-04-04T06:51:27.378Z</time></trkpt><trkpt lat="43.94148" lon="12.54967"><ele>171.33333333333334</ele><time>2026-04-04T06:51:28.378Z</time></trkpt><trkpt lat="43.9413233" lon="12.5496517"><ele>174.0</ele><time>2026-04-04T06:51:29.378Z</time></trkpt><trkpt lat="43.9411583" lon="12.5496267"><ele>174.0</ele><time>2026-04-04T06:51:30.377Z</time></trkpt><trkpt lat="43.9409983" lon="12.5496033"><ele>174.0</ele><time>2026-04-04T06:51:31.378Z</time></trkpt><trkpt lat="43.9408617" lon="12.549565"><ele>174.0</ele><time>2026-04-04T06:51:32.378Z</time></trkpt><trkpt lat="43.940755" lon="12.549515"><ele>174.0</ele><time>2026-04-04T06:51:33.378Z</time></trkpt><trkpt lat="43.9406633" lon="12.5494417"><ele>176.6</ele><time>2026-04-04T06:51:34.378Z</time></trkpt><trkpt lat="43.9405967" lon="12.549335"><ele>179.2</ele><time>2026-04-04T06:51:35.377Z</time></trkpt><trkpt lat="43.9405683" lon="12.54921"><ele>181.79999999999998</ele><time>2026-04-04T06:51:36.378Z</time></trkpt><trkpt lat="43.940585" lon="12.5490733"><ele>184.39999999999998</ele><time>2026-04-04T06:51:37.377Z</time></trkpt><trkpt lat="43.9406383" lon="12.54894"><ele>187.0</ele><time>2026-04-04T06:51:38.377Z</time></trkpt><trkpt lat="43.9407267" lon="12.5488183"><ele>187.0</ele><time>2026-04-04T06:51:39.377Z</time></trkpt><trkpt lat="43.9408283" lon="12.54872"><ele>187.0</ele><time>2026-04-04T06:51:40.377Z</time></trkpt><trkpt lat="43.9409217" lon="12.5486317"><ele>187.0</ele><time>2026-04-04T06:51:41.378Z</time></trkpt><trkpt lat="43.9409968" lon="12.5485231"><ele>187.0</ele><time>2026-04-04T06:51:42.378Z</time></trkpt><trkpt lat="43.9410463" lon="12.5483934"><ele>186.0</ele><time>2026-04-04T06:51:43.378Z</time></trkpt><trkpt lat="43.9410676" lon="12.5482398"><ele>185.0</ele><time>2026-04-04T06:51:44.377Z</time></trkpt><trkpt lat="43.9410498" lon="12.5480738"><ele>184.0</ele><time>2026-04-04T06:51:45.377Z</time></trkpt><trkpt lat="43.9409839" lon="12.5479186"><ele>183.0</ele><time>2026-04-04T06:51:46.377Z</time></trkpt><trkpt lat="43.9408879" lon="12.5477859"><ele>186.5</ele><time>2026-04-04T06:51:47.377Z</time></trkpt><trkpt lat="43.9407795" lon="12.5476731"><ele>190.0</ele><time>2026-04-04T06:51:48.377Z</time></trkpt><trkpt lat="43.9406779" lon="12.5475774"><ele>193.5</ele><time>2026-04-04T06:51:49.378Z</time></trkpt><trkpt lat="43.9405809" lon="12.547486"><ele>197.0</ele><time>2026-04-04T06:51:50.378Z</time></trkpt><trkpt lat="43.9404792" lon="12.547377"><ele>197.0</ele><time>2026-04-04T06:51:51.377Z</time></trkpt><trkpt lat="43.9403761" lon="12.5472552"><ele>197.0</ele><time>2026-04-04T06:51:52.378Z</time></trkpt><trkpt lat="43.9402779" lon="12.5471236"><ele>197.0</ele><time>2026-04-04T06:51:53.377Z</time></trkpt><trkpt lat="43.9401761" lon="12.5469902"><ele>197.0</ele><time>2026-04-04T06:51:54.377Z</time></trkpt><trkpt lat="43.9400724" lon="12.5468488"><ele>198.75</ele><time>2026-04-04T06:51:55.377Z</time></trkpt><trkpt lat="43.9399629" lon="12.5467032"><ele>200.5</ele><time>2026-04-04T06:51:56.377Z</time></trkpt><trkpt lat="43.9398582" lon="12.5465596"><ele>202.25</ele><time>2026-04-04T06:51:57.378Z</time></trkpt><trkpt lat="43.9397564" lon="12.5464156"><ele>204.0</ele><time>2026-04-04T06:51:58.377Z</time></trkpt><trkpt lat="43.9396594" lon="12.5462653"><ele>204.0</ele><time>2026-04-04T06:51:59.377Z</time></trkpt><trkpt lat="43.9395656" lon="12.5461156"><ele>204.0</ele><time>2026-04-04T06:52:00.378Z</time></trkpt><trkpt lat="43.9394781" lon="12.5459709"><ele>204.0</ele><time>2026-04-04T06:52:01.377Z</time></trkpt><trkpt lat="43.9393897" lon="12.5458161"><ele>204.0</ele><time>2026-04-04T06:52:02.377Z</time></trkpt><trkpt lat="43.9392967" lon="12.5456534"><ele>204.0</ele><time>2026-04-04T06:52:03.378Z</time></trkpt><trkpt lat="43.9392162" lon="12.5454857"><ele>204.0</ele><time>2026-04-04T06:52:04.377Z</time></trkpt><trkpt lat="43.939134" lon="12.5453143"><ele>204.0</ele><time>2026-04-04T06:52:05.378Z</time></trkpt><trkpt lat="43.9390513" lon="12.5451423"><ele>204.0</ele><time>2026-04-04T06:52:06.377Z</time></trkpt><trkpt lat="43.9389755" lon="12.544966"><ele>205.0</ele><time>2026-04-04T06:52:07.378Z</time></trkpt><trkpt lat="43.9389034" lon="12.5447916"><ele>206.0</ele><time>2026-04-04T06:52:08.378Z</time></trkpt><trkpt lat="43.9388302" lon="12.5446185"><ele>207.0</ele><time>2026-04-04T06:52:09.377Z</time></trkpt><trkpt lat="43.9387563" lon="12.5444502"><ele>208.0</ele><time>2026-04-04T06:52:10.377Z</time></trkpt><trkpt lat="43.938675" lon="12.5442911"><ele>208.25</ele><time>2026-04-04T06:52:11.378Z</time></trkpt><trkpt lat="43.9385833" lon="12.5441467"><ele>208.5</ele><time>2026-04-04T06:52:12.377Z</time></trkpt><trkpt lat="43.9384853" lon="12.5440185"><ele>208.75</ele><time>2026-04-04T06:52:13.377Z</time></trkpt><trkpt lat="43.9383837" lon="12.5439125"><ele>209.0</ele><time>2026-04-04T06:52:14.377Z</time></trkpt><trkpt lat="43.93828" lon="12.5438083"><ele>210.0</ele><time>2026-04-04T06:52:15.377Z</time></trkpt><trkpt lat="43.93818" lon="12.5437067"><ele>211.0</ele><time>2026-04-04T06:52:16.377Z</time></trkpt><trkpt lat="43.9380767" lon="12.5436117"><ele>212.0</ele><time>2026-04-04T06:52:17.378Z</time></trkpt><trkpt lat="43.9379783" lon="12.5435367"><ele>213.0</ele><time>2026-04-04T06:52:18.377Z</time></trkpt><trkpt lat="43.9378933" lon="12.5434733"><ele>213.0</ele><time>2026-04-04T06:52:19.378Z</time></trkpt><trkpt lat="43.93782" lon="12.5434017"><ele>213.0</ele><time>2026-04-04T06:52:20.377Z</time></trkpt><trkpt lat="43.9377467" lon="12.5433167"><ele>213.0</ele><time>2026-04-04T06:52:21.377Z</time></trkpt><trkpt lat="43.93766" lon="12.543225"><ele>213.0</ele><time>2026-04-04T06:52:22.377Z</time></trkpt><trkpt lat="43.9375583" lon="12.5431417"><ele>213.0</ele><time>2026-04-04T06:52:23.377Z</time></trkpt><trkpt lat="43.937445" lon="12.5430633"><ele>213.5</ele><time>2026-04-04T06:52:24.377Z</time></trkpt><trkpt lat="43.93733" lon="12.542995"><ele>214.0</ele><time>2026-04-04T06:52:25.377Z</time></trkpt><trkpt lat="43.9372117" lon="12.542925"><ele>214.5</ele><time>2026-04-04T06:52:26.378Z</time></trkpt><trkpt lat="43.9370967" lon="12.5428633"><ele>215.0</ele><time>2026-04-04T06:52:27.377Z</time></trkpt><trkpt lat="43.936985" lon="12.5428067"><ele>215.5</ele><time>2026-04-04T06:52:28.378Z</time></trkpt><trkpt lat="43.9368733" lon="12.5427533"><ele>216.0</ele><time>2026-04-04T06:52:29.377Z</time></trkpt><trkpt lat="43.9367633" lon="12.5427033"><ele>216.5</ele><time>2026-04-04T06:52:30.377Z</time></trkpt><trkpt lat="43.9366583" lon="12.5426567"><ele>217.0</ele><time>2026-04-04T06:52:31.378Z</time></trkpt><trkpt lat="43.9365517" lon="12.5426183"><ele>218.2</ele><time>2026-04-04T06:52:32.378Z</time></trkpt><trkpt lat="43.93645" lon="12.5425817"><ele>219.39999999999998</ele><time>2026-04-04T06:52:33.377Z</time></trkpt><trkpt lat="43.9363617" lon="12.5425417"><ele>220.60000000000002</ele><time>2026-04-04T06:52:34.377Z</time></trkpt><trkpt lat="43.9362783" lon="12.542505"><ele>221.8</ele><time>2026-04-04T06:52:35.377Z</time></trkpt><trkpt lat="43.936185" lon="12.5424633"><ele>223.0</ele><time>2026-04-04T06:52:36.377Z</time></trkpt><trkpt lat="43.9360883" lon="12.5424183"><ele>223.0</ele><time>2026-04-04T06:52:37.377Z</time></trkpt><trkpt lat="43.935985" lon="12.54237"><ele>223.0</ele><time>2026-04-04T06:52:38.378Z</time></trkpt><trkpt lat="43.9358767" lon="12.542315"><ele>223.0</ele><time>2026-04-04T06:52:39.378Z</time></trkpt><trkpt lat="43.9357617" lon="12.542265"><ele>223.0</ele><time>2026-04-04T06:52:40.378Z</time></trkpt><trkpt lat="43.9356483" lon="12.54221"><ele>223.75</ele><time>2026-04-04T06:52:41.377Z</time></trkpt><trkpt lat="43.935535" lon="12.5421517"><ele>224.5</ele><time>2026-04-04T06:52:42.378Z</time></trkpt><trkpt lat="43.93542" lon="12.5420933"><ele>225.25</ele><time>2026-04-04T06:52:43.378Z</time></trkpt><trkpt lat="43.9352983" lon="12.54206"><ele>226.0</ele><time>2026-04-04T06:52:44.377Z</time></trkpt><trkpt lat="43.9351817" lon="12.5420367"><ele>226.0</ele><time>2026-04-04T06:52:45.378Z</time></trkpt><trkpt lat="43.9350767" lon="12.54204"><ele>226.00000000000003</ele><time>2026-04-04T06:52:46.377Z</time></trkpt><trkpt lat="43.934975" lon="12.5420417"><ele>226.00000000000003</ele><time>2026-04-04T06:52:47.377Z</time></trkpt><trkpt lat="43.9348833" lon="12.542045"><ele>226.0</ele><time>2026-04-04T06:52:48.377Z</time></trkpt><trkpt lat="43.934795" lon="12.5420417"><ele>226.0</ele><time>2026-04-04T06:52:49.377Z</time></trkpt><trkpt lat="43.9347133" lon="12.5420433"><ele>226.8</ele><time>2026-04-04T06:52:50.378Z</time></trkpt><trkpt lat="43.93463" lon="12.542045"><ele>227.60000000000002</ele><time>2026-04-04T06:52:51.377Z</time></trkpt><trkpt lat="43.93453" lon="12.5420383"><ele>228.4</ele><time>2026-04-04T06:52:52.378Z</time></trkpt><trkpt lat="43.9344117" lon="12.54203"><ele>229.2</ele><time>2026-04-04T06:52:53.378Z</time></trkpt><trkpt lat="43.934295" lon="12.5420267"><ele>230.0</ele><time>2026-04-04T06:52:54.378Z</time></trkpt><trkpt lat="43.9341683" lon="12.542005"><ele>231.75</ele><time>2026-04-04T06:52:55.377Z</time></trkpt><trkpt lat="43.9340333" lon="12.5419767"><ele>233.5</ele><time>2026-04-04T06:52:56.377Z</time></trkpt><trkpt lat="43.9338917" lon="12.5419517"><ele>235.25</ele><time>2026-04-04T06:52:57.377Z</time></trkpt><trkpt lat="43.9337533" lon="12.541925"><ele>237.0</ele><time>2026-04-04T06:52:58.377Z</time></trkpt><trkpt lat="43.93362" lon="12.5419017"><ele>237.0</ele><time>2026-04-04T06:52:59.378Z</time></trkpt><trkpt lat="43.9334817" lon="12.5418733"><ele>237.0</ele><time>2026-04-04T06:53:00.378Z</time></trkpt><trkpt lat="43.9333433" lon="12.5418483"><ele>237.0</ele><time>2026-04-04T06:53:01.377Z</time></trkpt><trkpt lat="43.93321" lon="12.5418267"><ele>237.0</ele><time>2026-04-04T06:53:02.378Z</time></trkpt><trkpt lat="43.9330883" lon="12.5417967"><ele>238.75</ele><time>2026-04-04T06:53:03.377Z</time></trkpt><trkpt lat="43.9329683" lon="12.5417717"><ele>240.5</ele><time>2026-04-04T06:53:04.378Z</time></trkpt><trkpt lat="43.93284" lon="12.54173"><ele>242.25</ele><time>2026-04-04T06:53:05.377Z</time></trkpt><trkpt lat="43.9327167" lon="12.541675"><ele>244.0</ele><time>2026-04-04T06:53:06.377Z</time></trkpt><trkpt lat="43.9325883" lon="12.5416317"><ele>243.5</ele><time>2026-04-04T06:53:07.378Z</time></trkpt><trkpt lat="43.932465" lon="12.5415967"><ele>243.0</ele><time>2026-04-04T06:53:08.378Z</time></trkpt><trkpt lat="43.9323333" lon="12.541585"><ele>242.5</ele><time>2026-04-04T06:53:09.377Z</time></trkpt><trkpt lat="43.9322067" lon="12.54159"><ele>242.0</ele><time>2026-04-04T06:53:10.377Z</time></trkpt><trkpt lat="43.9320833" lon="12.541605"><ele>242.0</ele><time>2026-04-04T06:53:11.377Z</time></trkpt><trkpt lat="43.9319717" lon="12.5416483"><ele>242.0</ele><time>2026-04-04T06:53:12.378Z</time></trkpt><trkpt lat="43.9318583" lon="12.5417133"><ele>242.0</ele><time>2026-04-04T06:53:13.378Z</time></trkpt><trkpt lat="43.9317383" lon="12.5417817"><ele>242.0</ele><time>2026-04-04T06:53:14.377Z</time></trkpt><trkpt lat="43.9316167" lon="12.5418517"><ele>241.0</ele><time>2026-04-04T06:53:15.377Z</time></trkpt><trkpt lat="43.9315017" lon="12.541915"><ele>240.0</ele><time>2026-04-04T06:53:16.377Z</time></trkpt><trkpt lat="43.9313917" lon="12.541955"><ele>239.0</ele><time>2026-04-04T06:53:17.378Z</time></trkpt><trkpt lat="43.9312833" lon="12.541965"><ele>238.0</ele><time>2026-04-04T06:53:18.378Z</time></trkpt><trkpt lat="43.931165" lon="12.5419233"><ele>238.0</ele><time>2026-04-04T06:53:19.377Z</time></trkpt><trkpt lat="43.9310583" lon="12.5418317"><ele>238.0</ele><time>2026-04-04T06:53:20.377Z</time></trkpt><trkpt lat="43.9309583" lon="12.541715"><ele>238.0</ele><time>2026-04-04T06:53:21.377Z</time></trkpt><trkpt lat="43.9308617" lon="12.5415917"><ele>238.0</ele><time>2026-04-04T06:53:22.377Z</time></trkpt><trkpt lat="43.9307633" lon="12.5414683"><ele>237.25</ele><time>2026-04-04T06:53:23.377Z</time></trkpt><trkpt lat="43.930655" lon="12.5413567"><ele>236.5</ele><time>2026-04-04T06:53:24.378Z</time></trkpt><trkpt lat="43.9305467" lon="12.5412667"><ele>235.75</ele><time>2026-04-04T06:53:25.377Z</time></trkpt><trkpt lat="43.9304217" lon="12.5411983"><ele>235.0</ele><time>2026-04-04T06:53:26.377Z</time></trkpt><trkpt lat="43.9302883" lon="12.5411633"><ele>235.0</ele><time>2026-04-04T06:53:27.378Z</time></trkpt><trkpt lat="43.930145" lon="12.5411733"><ele>235.0</ele><time>2026-04-04T06:53:28.377Z</time></trkpt><trkpt lat="43.9300033" lon="12.5412067"><ele>235.0</ele><time>2026-04-04T06:53:29.377Z</time></trkpt><trkpt lat="43.929865" lon="12.5412533"><ele>235.0</ele><time>2026-04-04T06:53:30.377Z</time></trkpt><trkpt lat="43.9297283" lon="12.5413067"><ele>238.5</ele><time>2026-04-04T06:53:31.377Z</time></trkpt><trkpt lat="43.929585" lon="12.54135"><ele>242.0</ele><time>2026-04-04T06:53:32.377Z</time></trkpt><trkpt lat="43.9294383" lon="12.5413867"><ele>245.5</ele><time>2026-04-04T06:53:33.377Z</time></trkpt><trkpt lat="43.9292917" lon="12.5414333"><ele>249.0</ele><time>2026-04-04T06:53:34.378Z</time></trkpt><trkpt lat="43.92915" lon="12.5414933"><ele>249.0</ele><time>2026-04-04T06:53:35.378Z</time></trkpt><trkpt lat="43.9290133" lon="12.54159"><ele>249.0</ele><time>2026-04-04T06:53:36.378Z</time></trkpt><trkpt lat="43.9288917" lon="12.5417067"><ele>249.0</ele><time>2026-04-04T06:53:37.377Z</time></trkpt><trkpt lat="43.928775" lon="12.5418417"><ele>249.0</ele><time>2026-04-04T06:53:38.378Z</time></trkpt><trkpt lat="43.92866" lon="12.5419583"><ele>249.0</ele><time>2026-04-04T06:53:39.377Z</time></trkpt><trkpt lat="43.928535" lon="12.5420517"><ele>249.0</ele><time>2026-04-04T06:53:40.377Z</time></trkpt><trkpt lat="43.928395" lon="12.5421167"><ele>249.0</ele><time>2026-04-04T06:53:41.378Z</time></trkpt><trkpt lat="43.9282417" lon="12.5421583"><ele>252.0</ele><time>2026-04-04T06:53:42.377Z</time></trkpt><trkpt lat="43.9280867" lon="12.5421867"><ele>255.0</ele><time>2026-04-04T06:53:43.377Z</time></trkpt><trkpt lat="43.9279333" lon="12.5422233"><ele>258.0</ele><time>2026-04-04T06:53:44.377Z</time></trkpt><trkpt lat="43.9277833" lon="12.5422733"><ele>258.0</ele><time>2026-04-04T06:53:45.377Z</time></trkpt><trkpt lat="43.9276433" lon="12.5423333"><ele>258.0</ele><time>2026-04-04T06:53:46.377Z</time></trkpt><trkpt lat="43.9275067" lon="12.542415"><ele>258.0</ele><time>2026-04-04T06:53:47.377Z</time></trkpt><trkpt lat="43.927375" lon="12.54252"><ele>258.0</ele><time>2026-04-04T06:53:48.378Z</time></trkpt><trkpt lat="43.9272533" lon="12.5426517"><ele>259.6666666666667</ele><time>2026-04-04T06:53:49.377Z</time></trkpt><trkpt lat="43.9271333" lon="12.5427883"><ele>261.33333333333337</ele><time>2026-04-04T06:53:50.378Z</time></trkpt><trkpt lat="43.9270167" lon="12.5429233"><ele>263.0</ele><time>2026-04-04T06:53:51.377Z</time></trkpt><trkpt lat="43.9269017" lon="12.5430533"><ele>263.0</ele><time>2026-04-04T06:53:52.377Z</time></trkpt><trkpt lat="43.92678" lon="12.5431733"><ele>263.0</ele><time>2026-04-04T06:53:53.378Z</time></trkpt><trkpt lat="43.9266433" lon="12.54327"><ele>263.0</ele><time>2026-04-04T06:53:54.377Z</time></trkpt><trkpt lat="43.9264983" lon="12.54334"><ele>268.33333333333337</ele><time>2026-04-04T06:53:55.378Z</time></trkpt><trkpt lat="43.926335" lon="12.5433867"><ele>273.6666666666667</ele><time>2026-04-04T06:53:56.378Z</time></trkpt><trkpt lat="43.92617" lon="12.543425"><ele>279.0</ele><time>2026-04-04T06:53:57.378Z</time></trkpt><trkpt lat="43.9260117" lon="12.54345"><ele>279.6666666666667</ele><time>2026-04-04T06:53:58.377Z</time></trkpt><trkpt lat="43.9258567" lon="12.543465"><ele>280.33333333333337</ele><time>2026-04-04T06:53:59.378Z</time></trkpt><trkpt lat="43.9257083" lon="12.54347"><ele>281.0</ele><time>2026-04-04T06:54:00.377Z</time></trkpt><trkpt lat="43.9255567" lon="12.543465"><ele>281.0</ele><time>2026-04-04T06:54:01.378Z</time></trkpt><trkpt lat="43.9254017" lon="12.543435"><ele>281.0</ele><time>2026-04-04T06:54:02.378Z</time></trkpt><trkpt lat="43.9252517" lon="12.5433683"><ele>281.0</ele><time>2026-04-04T06:54:03.377Z</time></trkpt><trkpt lat="43.9251117" lon="12.5432783"><ele>281.0</ele><time>2026-04-04T06:54:04.377Z</time></trkpt><trkpt lat="43.92498" lon="12.5431617"><ele>281.0</ele><time>2026-04-04T06:54:05.378Z</time></trkpt><trkpt lat="43.9248617" lon="12.5430317"><ele>281.0</ele><time>2026-04-04T06:54:06.378Z</time></trkpt><trkpt lat="43.9247483" lon="12.54289"><ele>280.75</ele><time>2026-04-04T06:54:07.378Z</time></trkpt><trkpt lat="43.9246417" lon="12.542755"><ele>280.5</ele><time>2026-04-04T06:54:08.377Z</time></trkpt><trkpt lat="43.92455" lon="12.5426367"><ele>280.25</ele><time>2026-04-04T06:54:09.377Z</time></trkpt><trkpt lat="43.92447" lon="12.5425317"><ele>280.0</ele><time>2026-04-04T06:54:10.377Z</time></trkpt><trkpt lat="43.9243983" lon="12.5424283"><ele>280.0</ele><time>2026-04-04T06:54:11.377Z</time></trkpt><trkpt lat="43.9243283" lon="12.542345"><ele>280.0</ele><time>2026-04-04T06:54:12.377Z</time></trkpt><trkpt lat="43.92426" lon="12.5422567"><ele>280.0</ele><time>2026-04-04T06:54:13.378Z</time></trkpt><trkpt lat="43.924185" lon="12.5421633"><ele>280.0</ele><time>2026-04-04T06:54:14.377Z</time></trkpt><trkpt lat="43.9241017" lon="12.542055"><ele>280.0</ele><time>2026-04-04T06:54:15.378Z</time></trkpt><trkpt lat="43.9240117" lon="12.5419317"><ele>283.25</ele><time>2026-04-04T06:54:16.378Z</time></trkpt><trkpt lat="43.9239133" lon="12.5417967"><ele>286.5</ele><time>2026-04-04T06:54:17.378Z</time></trkpt><trkpt lat="43.923815" lon="12.5416633"><ele>289.75</ele><time>2026-04-04T06:54:18.377Z</time></trkpt><trkpt lat="43.9237217" lon="12.5415317"><ele>293.0</ele><time>2026-04-04T06:54:19.377Z</time></trkpt><trkpt lat="43.9236233" lon="12.541395"><ele>293.0</ele><time>2026-04-04T06:54:20.377Z</time></trkpt><trkpt lat="43.9235217" lon="12.5412667"><ele>293.0</ele><time>2026-04-04T06:54:21.378Z</time></trkpt><trkpt lat="43.923415" lon="12.5411333"><ele>293.0</ele><time>2026-04-04T06:54:22.378Z</time></trkpt><trkpt lat="43.92332" lon="12.5410033"><ele>293.0</ele><time>2026-04-04T06:54:23.377Z</time></trkpt><trkpt lat="43.92321" lon="12.540875"><ele>298.0</ele><time>2026-04-04T06:54:24.377Z</time></trkpt><trkpt lat="43.9230933" lon="12.54076"><ele>303.0</ele><time>2026-04-04T06:54:25.377Z</time></trkpt><trkpt lat="43.9229767" lon="12.5406633"><ele>308.0</ele><time>2026-04-04T06:54:26.378Z</time></trkpt><trkpt lat="43.9228717" lon="12.540585"><ele>313.0</ele><time>2026-04-04T06:54:27.378Z</time></trkpt><trkpt lat="43.9227817" lon="12.54052"><ele>313.0</ele><time>2026-04-04T06:54:28.378Z</time></trkpt><trkpt lat="43.9226917" lon="12.5404867"><ele>313.0</ele><time>2026-04-04T06:54:29.378Z</time></trkpt><trkpt lat="43.9226083" lon="12.5404833"><ele>313.0</ele><time>2026-04-04T06:54:30.377Z</time></trkpt><trkpt lat="43.922535" lon="12.54054"><ele>313.0</ele><time>2026-04-04T06:54:31.378Z</time></trkpt><trkpt lat="43.9224783" lon="12.5406517"><ele>313.0</ele><time>2026-04-04T06:54:32.377Z</time></trkpt><trkpt lat="43.9224517" lon="12.54077"><ele>313.0</ele><time>2026-04-04T06:54:33.377Z</time></trkpt><trkpt lat="43.9224633" lon="12.5408967"><ele>313.0</ele><time>2026-04-04T06:54:34.377Z</time></trkpt><trkpt lat="43.9225133" lon="12.5410267"><ele>313.0</ele><time>2026-04-04T06:54:35.377Z</time></trkpt><trkpt lat="43.922585" lon="12.5411283"><ele>313.0</ele><time>2026-04-04T06:54:36.377Z</time></trkpt><trkpt lat="43.9226783" lon="12.5412133"><ele>313.0</ele><time>2026-04-04T06:54:37.377Z</time></trkpt><trkpt lat="43.922775" lon="12.54131"><ele>313.0</ele><time>2026-04-04T06:54:38.378Z</time></trkpt><trkpt lat="43.9228567" lon="12.541435"><ele>313.5</ele><time>2026-04-04T06:54:39.377Z</time></trkpt><trkpt lat="43.9229183" lon="12.541575"><ele>314.0</ele><time>2026-04-04T06:54:40.377Z</time></trkpt><trkpt lat="43.9229517" lon="12.54173"><ele>314.5</ele><time>2026-04-04T06:54:41.377Z</time></trkpt><trkpt lat="43.922955" lon="12.5418933"><ele>315.0</ele><time>2026-04-04T06:54:42.378Z</time></trkpt><trkpt lat="43.922925" lon="12.542055"><ele>315.0</ele><time>2026-04-04T06:54:43.377Z</time></trkpt><trkpt lat="43.9228667" lon="12.5422083"><ele>315.0</ele><time>2026-04-04T06:54:44.377Z</time></trkpt><trkpt lat="43.9227917" lon="12.5423483"><ele>315.0</ele><time>2026-04-04T06:54:45.377Z</time></trkpt><trkpt lat="43.9227067" lon="12.54248"><ele>315.0</ele><time>2026-04-04T06:54:46.377Z</time></trkpt><trkpt lat="43.922625" lon="12.5426133"><ele>318.2</ele><time>2026-04-04T06:54:47.377Z</time></trkpt><trkpt lat="43.9225533" lon="12.54274"><ele>321.4</ele><time>2026-04-04T06:54:48.377Z</time></trkpt><trkpt lat="43.9224817" lon="12.542855"><ele>324.6</ele><time>2026-04-04T06:54:49.377Z</time></trkpt><trkpt lat="43.9224017" lon="12.5429467"><ele>327.8</ele><time>2026-04-04T06:54:50.378Z</time></trkpt><trkpt lat="43.92231" lon="12.5430317"><ele>331.0</ele><time>2026-04-04T06:54:51.378Z</time></trkpt><trkpt lat="43.92221" lon="12.5430883"><ele>331.0</ele><time>2026-04-04T06:54:52.378Z</time></trkpt><trkpt lat="43.922095" lon="12.5431167"><ele>331.0</ele><time>2026-04-04T06:54:53.378Z</time></trkpt><trkpt lat="43.921975" lon="12.5431267"><ele>331.0</ele><time>2026-04-04T06:54:54.377Z</time></trkpt><trkpt lat="43.92185" lon="12.5431233"><ele>331.0</ele><time>2026-04-04T06:54:55.377Z</time></trkpt><trkpt lat="43.9217183" lon="12.5431167"><ele>335.0</ele><time>2026-04-04T06:54:56.377Z</time></trkpt><trkpt lat="43.9215833" lon="12.543115"><ele>339.0</ele><time>2026-04-04T06:54:57.377Z</time></trkpt><trkpt lat="43.92145" lon="12.5431067"><ele>343.0</ele><time>2026-04-04T06:54:58.377Z</time></trkpt><trkpt lat="43.921315" lon="12.5431017"><ele>347.0</ele><time>2026-04-04T06:54:59.378Z</time></trkpt><trkpt lat="43.9211967" lon="12.5431167"><ele>347.0</ele><time>2026-04-04T06:55:00.378Z</time></trkpt><trkpt lat="43.9211367" lon="12.54309"><ele>347.0</ele><time>2026-04-04T06:55:01.377Z</time></trkpt><trkpt lat="43.9211567" lon="12.542975"><ele>347.0</ele><time>2026-04-04T06:55:06.377Z</time></trkpt><trkpt lat="43.92118" lon="12.54286"><ele>347.0</ele><time>2026-04-04T06:55:08.377Z</time></trkpt><trkpt lat="43.9210967" lon="12.5428033"><ele>347.0</ele><time>2026-04-04T06:55:10.378Z</time></trkpt><trkpt lat="43.92102" lon="12.542795"><ele>347.0</ele><time>2026-04-04T06:55:11.378Z</time></trkpt><trkpt lat="43.9209167" lon="12.54279"><ele>348.8</ele><time>2026-04-04T06:55:12.377Z</time></trkpt><trkpt lat="43.920815" lon="12.54278"><ele>350.6</ele><time>2026-04-04T06:55:13.378Z</time></trkpt><trkpt lat="43.9207267" lon="12.542765"><ele>352.40000000000003</ele><time>2026-04-04T06:55:14.377Z</time></trkpt><trkpt lat="43.92064" lon="12.542735"><ele>354.20000000000005</ele><time>2026-04-04T06:55:15.377Z</time></trkpt><trkpt lat="43.9205517" lon="12.5426767"><ele>356.0</ele><time>2026-04-04T06:55:16.377Z</time></trkpt><trkpt lat="43.9204667" lon="12.5426017"><ele>356.0</ele><time>2026-04-04T06:55:17.377Z</time></trkpt><trkpt lat="43.9203717" lon="12.5424983"><ele>356.0</ele><time>2026-04-04T06:55:18.377Z</time></trkpt><trkpt lat="43.9202717" lon="12.5423833"><ele>356.0</ele><time>2026-04-04T06:55:19.377Z</time></trkpt><trkpt lat="43.920175" lon="12.5422633"><ele>356.0</ele><time>2026-04-04T06:55:20.377Z</time></trkpt><trkpt lat="43.9200833" lon="12.5421267"><ele>356.75</ele><time>2026-04-04T06:55:21.378Z</time></trkpt><trkpt lat="43.9199883" lon="12.5419817"><ele>357.5</ele><time>2026-04-04T06:55:22.378Z</time></trkpt><trkpt lat="43.9199" lon="12.54185"><ele>358.25</ele><time>2026-04-04T06:55:23.377Z</time></trkpt><trkpt lat="43.9198267" lon="12.541735"><ele>359.0</ele><time>2026-04-04T06:55:24.378Z</time></trkpt><trkpt lat="43.9197583" lon="12.5416417"><ele>359.0</ele><time>2026-04-04T06:55:25.377Z</time></trkpt><trkpt lat="43.919695" lon="12.5415733"><ele>359.0</ele><time>2026-04-04T06:55:26.378Z</time></trkpt><trkpt lat="43.9196317" lon="12.5415217"><ele>359.0</ele><time>2026-04-04T06:55:27.377Z</time></trkpt><trkpt lat="43.919545" lon="12.5414383"><ele>359.0</ele><time>2026-04-04T06:55:29.377Z</time></trkpt><trkpt lat="43.9194617" lon="12.5413983"><ele>359.0</ele><time>2026-04-04T06:55:31.377Z</time></trkpt><trkpt lat="43.9193833" lon="12.541445"><ele>359.0</ele><time>2026-04-04T06:55:33.377Z</time></trkpt><trkpt lat="43.9193" lon="12.54155"><ele>359.0</ele><time>2026-04-04T06:55:35.378Z</time></trkpt><trkpt lat="43.9192517" lon="12.5416217"><ele>359.0</ele><time>2026-04-04T06:55:37.378Z</time></trkpt><trkpt lat="43.9191583" lon="12.5416017"><ele>359.0</ele><time>2026-04-04T06:55:41.377Z</time></trkpt><trkpt lat="43.9190567" lon="12.541475"><ele>359.0</ele><time>2026-04-04T06:55:43.377Z</time></trkpt><trkpt lat="43.9189917" lon="12.54139"><ele>359.0</ele><time>2026-04-04T06:55:44.377Z</time></trkpt><trkpt lat="43.9189267" lon="12.5413033"><ele>361.2</ele><time>2026-04-04T06:55:45.378Z</time></trkpt><trkpt lat="43.9188717" lon="12.5412233"><ele>363.4</ele><time>2026-04-04T06:55:46.378Z</time></trkpt><trkpt lat="43.918815" lon="12.5411367"><ele>365.6</ele><time>2026-04-04T06:55:47.377Z</time></trkpt><trkpt lat="43.9187517" lon="12.5410483"><ele>367.8</ele><time>2026-04-04T06:55:48.377Z</time></trkpt><trkpt lat="43.9186783" lon="12.540955"><ele>370.0</ele><time>2026-04-04T06:55:49.378Z</time></trkpt><trkpt lat="43.9186033" lon="12.5408617"><ele>370.4</ele><time>2026-04-04T06:55:50.378Z</time></trkpt><trkpt lat="43.9185333" lon="12.54078"><ele>370.8</ele><time>2026-04-04T06:55:51.378Z</time></trkpt><trkpt lat="43.91848" lon="12.5407"><ele>371.20000000000005</ele><time>2026-04-04T06:55:52.378Z</time></trkpt><trkpt lat="43.91846" lon="12.5405783"><ele>371.6</ele><time>2026-04-04T06:55:54.377Z</time></trkpt><trkpt lat="43.9184417" lon="12.5404617"><ele>372.0</ele><time>2026-04-04T06:55:56.377Z</time></trkpt><trkpt lat="43.9183783" lon="12.5403"><ele>372.20000000000005</ele><time>2026-04-04T06:55:58.377Z</time></trkpt><trkpt lat="43.9183467" lon="12.5401767"><ele>372.4</ele><time>2026-04-04T06:55:59.377Z</time></trkpt><trkpt lat="43.91833" lon="12.5400317"><ele>372.6</ele><time>2026-04-04T06:56:00.378Z</time></trkpt><trkpt lat="43.918315" lon="12.5398733"><ele>372.79999999999995</ele><time>2026-04-04T06:56:01.378Z</time></trkpt><trkpt lat="43.9182883" lon="12.5397133"><ele>373.0</ele><time>2026-04-04T06:56:02.378Z</time></trkpt><trkpt lat="43.9182483" lon="12.539555"><ele>374.25</ele><time>2026-04-04T06:56:03.378Z</time></trkpt><trkpt lat="43.918195" lon="12.5393933"><ele>375.5</ele><time>2026-04-04T06:56:04.377Z</time></trkpt><trkpt lat="43.9181167" lon="12.5392617"><ele>376.75</ele><time>2026-04-04T06:56:05.378Z</time></trkpt><trkpt lat="43.9180217" lon="12.53914"><ele>378.0</ele><time>2026-04-04T06:56:06.378Z</time></trkpt><trkpt lat="43.9179217" lon="12.53903"><ele>378.0</ele><time>2026-04-04T06:56:07.377Z</time></trkpt><trkpt lat="43.9178133" lon="12.538925"><ele>378.0</ele><time>2026-04-04T06:56:08.378Z</time></trkpt><trkpt lat="43.9177117" lon="12.538815"><ele>378.0</ele><time>2026-04-04T06:56:09.377Z</time></trkpt><trkpt lat="43.9176133" lon="12.53871"><ele>378.0</ele><time>2026-04-04T06:56:10.377Z</time></trkpt><trkpt lat="43.9175083" lon="12.5386217"><ele>376.5</ele><time>2026-04-04T06:56:11.378Z</time></trkpt><trkpt lat="43.9173933" lon="12.5385567"><ele>375.0</ele><time>2026-04-04T06:56:12.378Z</time></trkpt><trkpt lat="43.9172717" lon="12.53854"><ele>373.5</ele><time>2026-04-04T06:56:13.378Z</time></trkpt><trkpt lat="43.9171517" lon="12.53855"><ele>372.0</ele><time>2026-04-04T06:56:14.378Z</time></trkpt><trkpt lat="43.9170267" lon="12.5385683"><ele>372.0</ele><time>2026-04-04T06:56:15.378Z</time></trkpt><trkpt lat="43.9168983" lon="12.5385933"><ele>372.0</ele><time>2026-04-04T06:56:16.377Z</time></trkpt><trkpt lat="43.9167683" lon="12.53861"><ele>372.0</ele><time>2026-04-04T06:56:17.377Z</time></trkpt><trkpt lat="43.9166367" lon="12.5386167"><ele>372.0</ele><time>2026-04-04T06:56:18.377Z</time></trkpt><trkpt lat="43.9165017" lon="12.5386017"><ele>370.75</ele><time>2026-04-04T06:56:19.378Z</time></trkpt><trkpt lat="43.9163667" lon="12.5385667"><ele>369.5</ele><time>2026-04-04T06:56:20.378Z</time></trkpt><trkpt lat="43.9162317" lon="12.538525"><ele>368.25</ele><time>2026-04-04T06:56:21.377Z</time></trkpt><trkpt lat="43.9160933" lon="12.538495"><ele>367.0</ele><time>2026-04-04T06:56:22.378Z</time></trkpt><trkpt lat="43.9159683" lon="12.5384617"><ele>365.25</ele><time>2026-04-04T06:56:23.377Z</time></trkpt><trkpt lat="43.9158517" lon="12.5384483"><ele>363.5</ele><time>2026-04-04T06:56:24.378Z</time></trkpt><trkpt lat="43.915735" lon="12.53847"><ele>361.75</ele><time>2026-04-04T06:56:25.378Z</time></trkpt><trkpt lat="43.915615" lon="12.5385283"><ele>360.0</ele><time>2026-04-04T06:56:26.378Z</time></trkpt><trkpt lat="43.9155117" lon="12.5385967"><ele>360.0</ele><time>2026-04-04T06:56:27.378Z</time></trkpt><trkpt lat="43.9154317" lon="12.5386933"><ele>360.0</ele><time>2026-04-04T06:56:28.377Z</time></trkpt><trkpt lat="43.91537" lon="12.53878"><ele>360.0</ele><time>2026-04-04T06:56:29.377Z</time></trkpt><trkpt lat="43.9153083" lon="12.5388683"><ele>360.0</ele><time>2026-04-04T06:56:30.378Z</time></trkpt><trkpt lat="43.9152467" lon="12.5389533"><ele>360.0</ele><time>2026-04-04T06:56:31.377Z</time></trkpt><trkpt lat="43.9151833" lon="12.539025"><ele>358.6666666666667</ele><time>2026-04-04T06:56:32.378Z</time></trkpt><trkpt lat="43.91512" lon="12.5391017"><ele>357.3333333333333</ele><time>2026-04-04T06:56:33.377Z</time></trkpt><trkpt lat="43.915065" lon="12.5391783"><ele>356.0</ele><time>2026-04-04T06:56:34.377Z</time></trkpt><trkpt lat="43.9150133" lon="12.5392367"><ele>354.66666666666663</ele><time>2026-04-04T06:56:35.378Z</time></trkpt><trkpt lat="43.9148917" lon="12.5392483"><ele>353.3333333333333</ele><time>2026-04-04T06:56:37.378Z</time></trkpt><trkpt lat="43.91482" lon="12.5391967"><ele>352.0</ele><time>2026-04-04T06:56:38.377Z</time></trkpt><trkpt lat="43.914745" lon="12.53913"><ele>352.0</ele><time>2026-04-04T06:56:39.378Z</time></trkpt><trkpt lat="43.9146817" lon="12.5390367"><ele>352.0</ele><time>2026-04-04T06:56:40.377Z</time></trkpt><trkpt lat="43.91461" lon="12.538945"><ele>352.0</ele><time>2026-04-04T06:56:41.378Z</time></trkpt><trkpt lat="43.914535" lon="12.53885"><ele>352.0</ele><time>2026-04-04T06:56:42.377Z</time></trkpt><trkpt lat="43.914455" lon="12.53876"><ele>352.0</ele><time>2026-04-04T06:56:43.377Z</time></trkpt><trkpt lat="43.9143617" lon="12.5386717"><ele>353.5</ele><time>2026-04-04T06:56:44.377Z</time></trkpt><trkpt lat="43.91426" lon="12.538585"><ele>355.0</ele><time>2026-04-04T06:56:45.378Z</time></trkpt><trkpt lat="43.91415" lon="12.53851"><ele>356.5</ele><time>2026-04-04T06:56:46.377Z</time></trkpt><trkpt lat="43.914035" lon="12.53845"><ele>358.0</ele><time>2026-04-04T06:56:47.377Z</time></trkpt><trkpt lat="43.9139217" lon="12.53841"><ele>358.0</ele><time>2026-04-04T06:56:48.377Z</time></trkpt><trkpt lat="43.9138133" lon="12.5383867"><ele>358.0</ele><time>2026-04-04T06:56:49.377Z</time></trkpt><trkpt lat="43.9137117" lon="12.5383733"><ele>358.0</ele><time>2026-04-04T06:56:50.377Z</time></trkpt><trkpt lat="43.9136133" lon="12.53833"><ele>358.0</ele><time>2026-04-04T06:56:51.377Z</time></trkpt><trkpt lat="43.9135133" lon="12.5382633"><ele>358.0</ele><time>2026-04-04T06:56:52.378Z</time></trkpt><trkpt lat="43.9134117" lon="12.5382033"><ele>358.79999999999995</ele><time>2026-04-04T06:56:53.377Z</time></trkpt><trkpt lat="43.9133183" lon="12.5381583"><ele>359.6</ele><time>2026-04-04T06:56:54.377Z</time></trkpt><trkpt lat="43.9132267" lon="12.53812"><ele>360.4</ele><time>2026-04-04T06:56:55.378Z</time></trkpt><trkpt lat="43.9131433" lon="12.5380733"><ele>361.20000000000005</ele><time>2026-04-04T06:56:56.378Z</time></trkpt><trkpt lat="43.9130667" lon="12.5380217"><ele>362.0</ele><time>2026-04-04T06:56:57.377Z</time></trkpt><trkpt lat="43.9129833" lon="12.5379467"><ele>365.1666666666667</ele><time>2026-04-04T06:56:58.378Z</time></trkpt><trkpt lat="43.9129" lon="12.5378667"><ele>368.33333333333337</ele><time>2026-04-04T06:56:59.377Z</time></trkpt><trkpt lat="43.9128217" lon="12.5377717"><ele>371.5</ele><time>2026-04-04T06:57:00.378Z</time></trkpt><trkpt lat="43.9127617" lon="12.5376833"><ele>374.6666666666667</ele><time>2026-04-04T06:57:01.377Z</time></trkpt><trkpt lat="43.9127183" lon="12.5376083"><ele>377.8333333333333</ele><time>2026-04-04T06:57:02.377Z</time></trkpt><trkpt lat="43.912675" lon="12.537535"><ele>381.0</ele><time>2026-04-04T06:57:04.378Z</time></trkpt><trkpt lat="43.91262" lon="12.5374317"><ele>381.0</ele><time>2026-04-04T06:57:07.377Z</time></trkpt><trkpt lat="43.912575" lon="12.5373683"><ele>381.0</ele><time>2026-04-04T06:57:09.377Z</time></trkpt><trkpt lat="43.9126467" lon="12.53745"><ele>381.0</ele><time>2026-04-04T06:57:18.378Z</time></trkpt><trkpt lat="43.9127133" lon="12.53746"><ele>381.0</ele><time>2026-04-04T06:57:20.378Z</time></trkpt><trkpt lat="43.9128083" lon="12.53736"><ele>381.0</ele><time>2026-04-04T06:57:22.377Z</time></trkpt><trkpt lat="43.9128617" lon="12.5373"><ele>381.0</ele><time>2026-04-04T06:57:23.377Z</time></trkpt><trkpt lat="43.91294" lon="12.5371983"><ele>381.0</ele><time>2026-04-04T06:57:25.377Z</time></trkpt><trkpt lat="43.9130333" lon="12.5370667"><ele>381.0</ele><time>2026-04-04T06:57:27.377Z</time></trkpt><trkpt lat="43.9130967" lon="12.5369717"><ele>381.0</ele><time>2026-04-04T06:57:29.378Z</time></trkpt><trkpt lat="43.913155" lon="12.53691"><ele>381.0</ele><time>2026-04-04T06:57:32.377Z</time></trkpt><trkpt lat="43.9130833" lon="12.53696"><ele>381.0</ele><time>2026-04-04T06:57:38.378Z</time></trkpt><trkpt lat="43.912995" lon="12.5370767"><ele>381.0</ele><time>2026-04-04T06:57:40.377Z</time></trkpt><trkpt lat="43.912945" lon="12.5371517"><ele>381.0</ele><time>2026-04-04T06:57:41.377Z</time></trkpt><trkpt lat="43.9128933" lon="12.5372267"><ele>381.0</ele><time>2026-04-04T06:57:42.377Z</time></trkpt><trkpt lat="43.9128467" lon="12.537295"><ele>381.0</ele><time>2026-04-04T06:57:43.377Z</time></trkpt><trkpt lat="43.912765" lon="12.537405"><ele>381.0</ele><time>2026-04-04T06:57:45.377Z</time></trkpt><trkpt lat="43.9126967" lon="12.5374583"><ele>381.0</ele><time>2026-04-04T06:57:47.378Z</time></trkpt><trkpt lat="43.9126117" lon="12.537425"><ele>379.5</ele><time>2026-04-04T06:57:50.378Z</time></trkpt><trkpt lat="43.9125583" lon="12.53734"><ele>378.0</ele><time>2026-04-04T06:57:53.378Z</time></trkpt><trkpt lat="43.9124917" lon="12.5372967"><ele>376.5</ele><time>2026-04-04T06:57:55.377Z</time></trkpt><trkpt lat="43.912415" lon="12.5373117"><ele>375.0</ele><time>2026-04-04T06:57:57.378Z</time></trkpt><trkpt lat="43.91234" lon="12.537345"><ele>373.5</ele><time>2026-04-04T06:57:59.378Z</time></trkpt><trkpt lat="43.9122733" lon="12.5373783"><ele>372.0</ele><time>2026-04-04T06:58:01.379Z</time></trkpt><trkpt lat="43.9122117" lon="12.5374183"><ele>372.0</ele><time>2026-04-04T06:58:03.378Z</time></trkpt><trkpt lat="43.9121383" lon="12.5374717"><ele>372.0</ele><time>2026-04-04T06:58:06.378Z</time></trkpt><trkpt lat="43.9120667" lon="12.5375267"><ele>372.0</ele><time>2026-04-04T06:58:09.379Z</time></trkpt><trkpt lat="43.912005" lon="12.5375633"><ele>372.0</ele><time>2026-04-04T06:58:12.378Z</time></trkpt><trkpt lat="43.9119233" lon="12.5376367"><ele>372.0</ele><time>2026-04-04T06:58:15.379Z</time></trkpt><trkpt lat="43.911855" lon="12.5377033"><ele>372.0</ele><time>2026-04-04T06:58:17.378Z</time></trkpt><trkpt lat="43.91179" lon="12.5377983"><ele>369.0</ele><time>2026-04-04T06:58:19.378Z</time></trkpt><trkpt lat="43.91173" lon="12.5379133"><ele>366.0</ele><time>2026-04-04T06:58:21.379Z</time></trkpt><trkpt lat="43.9116733" lon="12.538035"><ele>363.0</ele><time>2026-04-04T06:58:23.379Z</time></trkpt><trkpt lat="43.911625" lon="12.5381533"><ele>360.0</ele><time>2026-04-04T06:58:25.378Z</time></trkpt><trkpt lat="43.9115633" lon="12.5382533"><ele>357.0</ele><time>2026-04-04T06:58:27.378Z</time></trkpt><trkpt lat="43.911495" lon="12.5382883"><ele>357.0</ele><time>2026-04-04T06:58:29.378Z</time></trkpt><trkpt lat="43.9114183" lon="12.5382633"><ele>357.0</ele><time>2026-04-04T06:58:32.379Z</time></trkpt><trkpt lat="43.91136" lon="12.5382217"><ele>357.0</ele><time>2026-04-04T06:58:34.378Z</time></trkpt><trkpt lat="43.9113" lon="12.5381683"><ele>357.0</ele><time>2026-04-04T06:58:36.379Z</time></trkpt><trkpt lat="43.911235" lon="12.5380933"><ele>357.0</ele><time>2026-04-04T06:58:39.379Z</time></trkpt><trkpt lat="43.9111883" lon="12.5380067"><ele>357.0</ele><time>2026-04-04T06:58:42.378Z</time></trkpt><trkpt lat="43.91119" lon="12.5378883"><ele>357.6666666666667</ele><time>2026-04-04T06:58:45.379Z</time></trkpt><trkpt lat="43.9112283" lon="12.5378033"><ele>358.3333333333333</ele><time>2026-04-04T06:58:47.379Z</time></trkpt><trkpt lat="43.9112917" lon="12.53773"><ele>359.0</ele><time>2026-04-04T06:58:49.378Z</time></trkpt><trkpt lat="43.9113533" lon="12.5376883"><ele>359.66666666666663</ele><time>2026-04-04T06:58:51.378Z</time></trkpt><trkpt lat="43.9114217" lon="12.5376583"><ele>360.3333333333333</ele><time>2026-04-04T06:58:53.378Z</time></trkpt><trkpt lat="43.911525" lon="12.5377183"><ele>361.0</ele><time>2026-04-04T06:59:10.378Z</time></trkpt><trkpt lat="43.9116033" lon="12.5378133"><ele>361.0</ele><time>2026-04-04T06:59:12.379Z</time></trkpt><trkpt lat="43.9116783" lon="12.53787"><ele>361.0</ele><time>2026-04-04T06:59:14.378Z</time></trkpt><trkpt lat="43.9117583" lon="12.53784"><ele>361.0</ele><time>2026-04-04T06:59:24.378Z</time></trkpt><trkpt lat="43.9118217" lon="12.5377433"><ele>361.0</ele><time>2026-04-04T06:59:26.378Z</time></trkpt><trkpt lat="43.91189" lon="12.53766"><ele>361.0</ele><time>2026-04-04T06:59:28.378Z</time></trkpt><trkpt lat="43.9119633" lon="12.5376"><ele>361.0</ele><time>2026-04-04T06:59:30.378Z</time></trkpt><trkpt lat="43.9120233" lon="12.5375617"><ele>362.8333333333333</ele><time>2026-04-04T06:59:32.379Z</time></trkpt><trkpt lat="43.912085" lon="12.5375117"><ele>364.66666666666663</ele><time>2026-04-04T06:59:35.378Z</time></trkpt><trkpt lat="43.9121533" lon="12.537445"><ele>366.5</ele><time>2026-04-04T06:59:39.378Z</time></trkpt><trkpt lat="43.9122117" lon="12.5373983"><ele>368.3333333333333</ele><time>2026-04-04T06:59:41.379Z</time></trkpt><trkpt lat="43.9122783" lon="12.537345"><ele>370.1666666666667</ele><time>2026-04-04T06:59:44.378Z</time></trkpt><trkpt lat="43.912305" lon="12.5372617"><ele>372.0</ele><time>2026-04-04T06:59:47.378Z</time></trkpt><trkpt lat="43.91233" lon="12.5371433"><ele>372.0</ele><time>2026-04-04T06:59:50.378Z</time></trkpt><trkpt lat="43.9123683" lon="12.5370667"><ele>372.0</ele><time>2026-04-04T06:59:52.378Z</time></trkpt><trkpt lat="43.912395" lon="12.5369833"><ele>372.0</ele><time>2026-04-04T06:59:54.379Z</time></trkpt><trkpt lat="43.9124317" lon="12.536905"><ele>372.0</ele><time>2026-04-04T06:59:56.379Z</time></trkpt><trkpt lat="43.9124883" lon="12.5368417"><ele>372.0</ele><time>2026-04-04T06:59:58.378Z</time></trkpt><trkpt lat="43.912565" lon="12.5367617"><ele>372.0</ele><time>2026-04-04T07:00:05.379Z</time></trkpt><trkpt lat="43.9126283" lon="12.5366883"><ele>373.00000000000006</ele><time>2026-04-04T07:00:09.379Z</time></trkpt><trkpt lat="43.9126783" lon="12.5366067"><ele>374.0</ele><time>2026-04-04T07:00:13.378Z</time></trkpt><trkpt lat="43.9127317" lon="12.5365383"><ele>375.0</ele><time>2026-04-04T07:00:24.378Z</time></trkpt><trkpt lat="43.9127383" lon="12.5364333"><ele>376.0</ele><time>2026-04-04T07:00:29.379Z</time></trkpt><trkpt lat="43.9127217" lon="12.5363367"><ele>377.0</ele><time>2026-04-04T07:00:34.379Z</time></trkpt><trkpt lat="43.91267" lon="12.5362683"><ele>378.00000000000006</ele><time>2026-04-04T07:00:37.378Z</time></trkpt><trkpt lat="43.9126033" lon="12.5362417"><ele>379.0</ele><time>2026-04-04T07:00:40.378Z</time></trkpt><trkpt lat="43.912535" lon="12.5361717"><ele>373.5</ele><time>2026-04-04T07:00:43.378Z</time></trkpt><trkpt lat="43.9124717" lon="12.5360917"><ele>368.0</ele><time>2026-04-04T07:00:46.378Z</time></trkpt><trkpt lat="43.912405" lon="12.5360183"><ele>362.5</ele><time>2026-04-04T07:00:49.378Z</time></trkpt><trkpt lat="43.9123167" lon="12.535925"><ele>357.0</ele><time>2026-04-04T07:00:58.379Z</time></trkpt><trkpt lat="43.9122683" lon="12.5358633"><ele>351.5</ele><time>2026-04-04T07:01:00.379Z</time></trkpt><trkpt lat="43.9122283" lon="12.5357933"><ele>346.0</ele><time>2026-04-04T07:01:02.379Z</time></trkpt><trkpt lat="43.9121817" lon="12.53569"><ele>346.0</ele><time>2026-04-04T07:01:04.379Z</time></trkpt><trkpt lat="43.9121317" lon="12.535595"><ele>346.0</ele><time>2026-04-04T07:01:06.379Z</time></trkpt><trkpt lat="43.9120883" lon="12.5355"><ele>346.0</ele><time>2026-04-04T07:01:08.378Z</time></trkpt><trkpt lat="43.912055" lon="12.5354167"><ele>346.0</ele><time>2026-04-04T07:01:10.378Z</time></trkpt><trkpt lat="43.9120017" lon="12.535315"><ele>346.0</ele><time>2026-04-04T07:01:13.378Z</time></trkpt><trkpt lat="43.91195" lon="12.535215"><ele>346.0</ele><time>2026-04-04T07:01:16.379Z</time></trkpt><trkpt lat="43.9119" lon="12.5351533"><ele>343.3333333333333</ele><time>2026-04-04T07:01:18.379Z</time></trkpt><trkpt lat="43.911805" lon="12.5350617"><ele>340.66666666666663</ele><time>2026-04-04T07:01:25.379Z</time></trkpt><trkpt lat="43.9117633" lon="12.5349933"><ele>338.0</ele><time>2026-04-04T07:01:28.378Z</time></trkpt><trkpt lat="43.91172" lon="12.5349267"><ele>335.3333333333333</ele><time>2026-04-04T07:01:31.379Z</time></trkpt><trkpt lat="43.9116683" lon="12.5348483"><ele>332.6666666666667</ele><time>2026-04-04T07:01:34.379Z</time></trkpt><trkpt lat="43.9116183" lon="12.5347817"><ele>330.0</ele><time>2026-04-04T07:01:38.378Z</time></trkpt><trkpt lat="43.9115567" lon="12.5347317"><ele>328.8333333333333</ele><time>2026-04-04T07:01:41.378Z</time></trkpt><trkpt lat="43.911515" lon="12.5346467"><ele>327.6666666666667</ele><time>2026-04-04T07:01:45.379Z</time></trkpt><trkpt lat="43.9114617" lon="12.5345583"><ele>326.5</ele><time>2026-04-04T07:01:48.379Z</time></trkpt><trkpt lat="43.9114133" lon="12.5344867"><ele>325.33333333333337</ele><time>2026-04-04T07:01:51.379Z</time></trkpt><trkpt lat="43.9112867" lon="12.53446"><ele>324.1666666666667</ele><time>2026-04-04T07:02:06.379Z</time></trkpt><trkpt lat="43.911275" lon="12.5345567"><ele>323.0</ele><time>2026-04-04T07:02:08.379Z</time></trkpt><trkpt lat="43.9112733" lon="12.5346483"><ele>323.0</ele><time>2026-04-04T07:02:10.378Z</time></trkpt><trkpt lat="43.91127" lon="12.5347383"><ele>323.0</ele><time>2026-04-04T07:02:12.378Z</time></trkpt><trkpt lat="43.9112683" lon="12.534845"><ele>323.0</ele><time>2026-04-04T07:02:15.379Z</time></trkpt><trkpt lat="43.9112517" lon="12.5349633"><ele>323.0</ele><time>2026-04-04T07:02:18.378Z</time></trkpt><trkpt lat="43.91123" lon="12.5350717"><ele>323.0</ele><time>2026-04-04T07:02:20.379Z</time></trkpt><trkpt lat="43.9111917" lon="12.5351683"><ele>323.0</ele><time>2026-04-04T07:02:22.378Z</time></trkpt><trkpt lat="43.911155" lon="12.535265"><ele>323.0</ele><time>2026-04-04T07:02:24.378Z</time></trkpt><trkpt lat="43.91112" lon="12.535385"><ele>323.0</ele><time>2026-04-04T07:02:27.379Z</time></trkpt><trkpt lat="43.911095" lon="12.535485"><ele>323.0</ele><time>2026-04-04T07:02:30.379Z</time></trkpt><trkpt lat="43.9110583" lon="12.535585"><ele>323.0</ele><time>2026-04-04T07:02:33.378Z</time></trkpt><trkpt lat="43.9109867" lon="12.53555"><ele>323.0</ele><time>2026-04-04T07:02:44.379Z</time></trkpt><trkpt lat="43.9109583" lon="12.53545"><ele>323.0</ele><time>2026-04-04T07:02:47.378Z</time></trkpt><trkpt lat="43.9109133" lon="12.535375"><ele>319.1666666666667</ele><time>2026-04-04T07:02:50.379Z</time></trkpt><trkpt lat="43.9108433" lon="12.5353017"><ele>315.33333333333337</ele><time>2026-04-04T07:02:53.378Z</time></trkpt><trkpt lat="43.910775" lon="12.53526"><ele>311.5</ele><time>2026-04-04T07:02:56.378Z</time></trkpt><trkpt lat="43.9107083" lon="12.535215"><ele>307.6666666666667</ele><time>2026-04-04T07:02:59.379Z</time></trkpt><trkpt lat="43.9106483" lon="12.535175"><ele>303.8333333333333</ele><time>2026-04-04T07:03:02.378Z</time></trkpt><trkpt lat="43.910565" lon="12.5351783"><ele>300.0</ele><time>2026-04-04T07:03:04.378Z</time></trkpt><trkpt lat="43.910465" lon="12.5352033"><ele>300.0</ele><time>2026-04-04T07:03:06.379Z</time></trkpt><trkpt lat="43.9103617" lon="12.5352233"><ele>300.0</ele><time>2026-04-04T07:03:08.378Z</time></trkpt><trkpt lat="43.9102817" lon="12.53525"><ele>300.0</ele><time>2026-04-04T07:03:10.378Z</time></trkpt><trkpt lat="43.9102167" lon="12.5352517"><ele>300.0</ele><time>2026-04-04T07:03:12.378Z</time></trkpt><trkpt lat="43.910135" lon="12.5352167"><ele>300.0</ele><time>2026-04-04T07:03:15.379Z</time></trkpt><trkpt lat="43.91009" lon="12.5351317"><ele>300.0</ele><time>2026-04-04T07:03:18.378Z</time></trkpt><trkpt lat="43.910035" lon="12.53508"><ele>300.0</ele><time>2026-04-04T07:03:24.378Z</time></trkpt><trkpt lat="43.9101367" lon="12.53495"><ele>300.0</ele><time>2026-04-04T07:04:21.864Z</time></trkpt><trkpt lat="43.910005" lon="12.535085"><ele>300.0</ele><time>2026-04-04T07:04:25.378Z</time></trkpt><trkpt lat="43.90992" lon="12.53512"><ele>300.0</ele><time>2026-04-04T07:06:05.379Z</time></trkpt><trkpt lat="43.9098633" lon="12.535045"><ele>297.6666666666667</ele><time>2026-04-04T07:06:08.378Z</time></trkpt><trkpt lat="43.90981" lon="12.5349917"><ele>295.3333333333333</ele><time>2026-04-04T07:06:11.378Z</time></trkpt><trkpt lat="43.9097583" lon="12.53493"><ele>293.0</ele><time>2026-04-04T07:06:16.378Z</time></trkpt><trkpt lat="43.9096617" lon="12.5348617"><ele>290.66666666666663</ele><time>2026-04-04T07:06:31.378Z</time></trkpt><trkpt lat="43.9096" lon="12.5348167"><ele>288.3333333333333</ele><time>2026-04-04T07:06:34.378Z</time></trkpt><trkpt lat="43.90954" lon="12.53485"><ele>286.0</ele><time>2026-04-04T07:06:39.378Z</time></trkpt><trkpt lat="43.9094833" lon="12.5349267"><ele>286.0</ele><time>2026-04-04T07:06:44.379Z</time></trkpt><trkpt lat="43.9093983" lon="12.5349917"><ele>286.0</ele><time>2026-04-04T07:06:46.378Z</time></trkpt><trkpt lat="43.90929" lon="12.5350967"><ele>286.0</ele><time>2026-04-04T07:06:48.378Z</time></trkpt><trkpt lat="43.9092417" lon="12.5351683"><ele>286.0</ele><time>2026-04-04T07:06:49.378Z</time></trkpt><trkpt lat="43.9091967" lon="12.5352383"><ele>286.0</ele><time>2026-04-04T07:06:50.378Z</time></trkpt><trkpt lat="43.90911" lon="12.5353333"><ele>286.0</ele><time>2026-04-04T07:06:52.379Z</time></trkpt><trkpt lat="43.909055" lon="12.5353983"><ele>286.0</ele><time>2026-04-04T07:06:54.378Z</time></trkpt><trkpt lat="43.909005" lon="12.5354533"><ele>286.0</ele><time>2026-04-04T07:06:57.378Z</time></trkpt><trkpt lat="43.9090733" lon="12.5354033"><ele>286.0</ele><time>2026-04-04T07:07:00.378Z</time></trkpt><trkpt lat="43.9091633" lon="12.535275"><ele>286.0</ele><time>2026-04-04T07:07:02.379Z</time></trkpt><trkpt lat="43.9092117" lon="12.5352067"><ele>286.0</ele><time>2026-04-04T07:07:03.378Z</time></trkpt><trkpt lat="43.90926" lon="12.5351417"><ele>286.0</ele><time>2026-04-04T07:07:04.379Z</time></trkpt><trkpt lat="43.9093367" lon="12.5350617"><ele>286.0</ele><time>2026-04-04T07:07:06.378Z</time></trkpt><trkpt lat="43.9093967" lon="12.5350333"><ele>286.0</ele><time>2026-04-04T07:07:08.378Z</time></trkpt><trkpt lat="43.9094583" lon="12.5349717"><ele>286.0</ele><time>2026-04-04T07:07:10.378Z</time></trkpt><trkpt lat="43.9094833" lon="12.534865"><ele>286.0</ele><time>2026-04-04T07:07:14.378Z</time></trkpt><trkpt lat="43.9094333" lon="12.53477"><ele>286.0</ele><time>2026-04-04T07:07:18.378Z</time></trkpt><trkpt lat="43.90936" lon="12.5346933"><ele>286.0</ele><time>2026-04-04T07:07:21.379Z</time></trkpt><trkpt lat="43.9092783" lon="12.5346133"><ele>286.0</ele><time>2026-04-04T07:07:24.378Z</time></trkpt><trkpt lat="43.9092183" lon="12.5345233"><ele>286.0</ele><time>2026-04-04T07:07:26.379Z</time></trkpt><trkpt lat="43.90916" lon="12.5344517"><ele>286.0</ele><time>2026-04-04T07:07:28.379Z</time></trkpt><trkpt lat="43.9091083" lon="12.5343883"><ele>286.0</ele><time>2026-04-04T07:07:30.378Z</time></trkpt><trkpt lat="43.9090517" lon="12.5343283"><ele>286.0</ele><time>2026-04-04T07:07:32.378Z</time></trkpt><trkpt lat="43.9089717" lon="12.53426"><ele>279.6</ele><time>2026-04-04T07:07:35.379Z</time></trkpt><trkpt lat="43.90888" lon="12.5342667"><ele>273.20000000000005</ele><time>2026-04-04T07:07:37.379Z</time></trkpt><trkpt lat="43.9087833" lon="12.534325"><ele>266.79999999999995</ele><time>2026-04-04T07:07:39.378Z</time></trkpt><trkpt lat="43.9086867" lon="12.5343583"><ele>260.4</ele><time>2026-04-04T07:07:41.378Z</time></trkpt><trkpt lat="43.9085683" lon="12.53435"><ele>254.0</ele><time>2026-04-04T07:07:43.379Z</time></trkpt><trkpt lat="43.9084533" lon="12.53434"><ele>252.33333333333334</ele><time>2026-04-04T07:07:45.379Z</time></trkpt><trkpt lat="43.908355" lon="12.53437"><ele>250.66666666666669</ele><time>2026-04-04T07:07:47.379Z</time></trkpt><trkpt lat="43.9082733" lon="12.5344317"><ele>249.0</ele><time>2026-04-04T07:07:49.378Z</time></trkpt><trkpt lat="43.9082033" lon="12.5344917"><ele>247.33333333333331</ele><time>2026-04-04T07:07:51.378Z</time></trkpt><trkpt lat="43.908135" lon="12.5345633"><ele>245.66666666666666</ele><time>2026-04-04T07:07:54.378Z</time></trkpt><trkpt lat="43.90808" lon="12.5346333"><ele>244.0</ele><time>2026-04-04T07:07:57.379Z</time></trkpt><trkpt lat="43.9079933" lon="12.5347233"><ele>243.99999999999997</ele><time>2026-04-04T07:08:15.378Z</time></trkpt><trkpt lat="43.9079017" lon="12.53475"><ele>244.0</ele><time>2026-04-04T07:08:22.378Z</time></trkpt><trkpt lat="43.9078433" lon="12.534785"><ele>243.99999999999997</ele><time>2026-04-04T07:08:24.378Z</time></trkpt><trkpt lat="43.9077833" lon="12.5348267"><ele>243.99999999999997</ele><time>2026-04-04T07:08:26.379Z</time></trkpt><trkpt lat="43.90772" lon="12.53487"><ele>244.0</ele><time>2026-04-04T07:08:28.378Z</time></trkpt><trkpt lat="43.907655" lon="12.5349133"><ele>243.99999999999997</ele><time>2026-04-04T07:08:30.378Z</time></trkpt><trkpt lat="43.9075817" lon="12.5349533"><ele>243.99999999999997</ele><time>2026-04-04T07:08:32.378Z</time></trkpt><trkpt lat="43.9075133" lon="12.53499"><ele>241.49999999999997</ele><time>2026-04-04T07:08:34.379Z</time></trkpt><trkpt lat="43.9074317" lon="12.5350767"><ele>239.0</ele><time>2026-04-04T07:08:37.379Z</time></trkpt><trkpt lat="43.9073783" lon="12.5351533"><ele>236.5</ele><time>2026-04-04T07:08:39.378Z</time></trkpt><trkpt lat="43.9073267" lon="12.5352367"><ele>234.0</ele><time>2026-04-04T07:08:41.379Z</time></trkpt><trkpt lat="43.9072617" lon="12.5353317"><ele>231.49999999999997</ele><time>2026-04-04T07:08:43.378Z</time></trkpt><trkpt lat="43.9071933" lon="12.535425"><ele>229.0</ele><time>2026-04-04T07:08:45.378Z</time></trkpt><trkpt lat="43.907125" lon="12.5355083"><ele>229.0</ele><time>2026-04-04T07:08:47.379Z</time></trkpt><trkpt lat="43.90706" lon="12.5355867"><ele>228.99999999999997</ele><time>2026-04-04T07:08:49.379Z</time></trkpt><trkpt lat="43.9069867" lon="12.53566"><ele>228.99999999999997</ele><time>2026-04-04T07:08:51.378Z</time></trkpt><trkpt lat="43.9069117" lon="12.5357317"><ele>229.0</ele><time>2026-04-04T07:08:53.379Z</time></trkpt><trkpt lat="43.9068417" lon="12.5358183"><ele>229.0</ele><time>2026-04-04T07:08:55.379Z</time></trkpt><trkpt lat="43.90677" lon="12.5358967"><ele>225.49999999999997</ele><time>2026-04-04T07:08:57.378Z</time></trkpt><trkpt lat="43.9067083" lon="12.535975"><ele>222.0</ele><time>2026-04-04T07:08:59.378Z</time></trkpt><trkpt lat="43.9066567" lon="12.5360533"><ele>218.5</ele><time>2026-04-04T07:09:01.378Z</time></trkpt><trkpt lat="43.9065917" lon="12.5360817"><ele>215.0</ele><time>2026-04-04T07:09:03.379Z</time></trkpt><trkpt lat="43.9065117" lon="12.5360533"><ele>211.49999999999997</ele><time>2026-04-04T07:09:05.378Z</time></trkpt><trkpt lat="43.90643" lon="12.536"><ele>208.0</ele><time>2026-04-04T07:09:07.378Z</time></trkpt><trkpt lat="43.9063367" lon="12.5359417"><ele>207.99999999999997</ele><time>2026-04-04T07:09:09.379Z</time></trkpt><trkpt lat="43.9062467" lon="12.5359"><ele>208.0</ele><time>2026-04-04T07:09:11.378Z</time></trkpt><trkpt lat="43.9061583" lon="12.5358817"><ele>208.0</ele><time>2026-04-04T07:09:13.378Z</time></trkpt><trkpt lat="43.9060633" lon="12.5358967"><ele>208.0</ele><time>2026-04-04T07:09:16.378Z</time></trkpt><trkpt lat="43.9059883" lon="12.5359267"><ele>207.99999999999997</ele><time>2026-04-04T07:09:19.379Z</time></trkpt><trkpt lat="43.905915" lon="12.5358983"><ele>208.0</ele><time>2026-04-04T07:09:22.378Z</time></trkpt><trkpt lat="43.9058183" lon="12.5358067"><ele>206.33333333333331</ele><time>2026-04-04T07:09:24.378Z</time></trkpt><trkpt lat="43.9057583" lon="12.5357467"><ele>204.66666666666666</ele><time>2026-04-04T07:09:25.379Z</time></trkpt><trkpt lat="43.9057" lon="12.5356833"><ele>203.0</ele><time>2026-04-04T07:09:26.378Z</time></trkpt><trkpt lat="43.9056383" lon="12.5356283"><ele>201.33333333333331</ele><time>2026-04-04T07:09:27.379Z</time></trkpt><trkpt lat="43.9055683" lon="12.535575"><ele>199.66666666666666</ele><time>2026-04-04T07:09:28.378Z</time></trkpt><trkpt lat="43.9054967" lon="12.53552"><ele>198.0</ele><time>2026-04-04T07:09:29.378Z</time></trkpt><trkpt lat="43.9054283" lon="12.5354633"><ele>198.0</ele><time>2026-04-04T07:09:30.378Z</time></trkpt><trkpt lat="43.90535" lon="12.5354133"><ele>198.0</ele><time>2026-04-04T07:09:31.379Z</time></trkpt><trkpt lat="43.90528" lon="12.535355"><ele>198.0</ele><time>2026-04-04T07:09:32.379Z</time></trkpt><trkpt lat="43.905215" lon="12.5352983"><ele>198.0</ele><time>2026-04-04T07:09:33.378Z</time></trkpt><trkpt lat="43.905145" lon="12.5352483"><ele>198.0</ele><time>2026-04-04T07:09:34.378Z</time></trkpt><trkpt lat="43.9050767" lon="12.535205"><ele>198.0</ele><time>2026-04-04T07:09:35.379Z</time></trkpt><trkpt lat="43.90501" lon="12.5351617"><ele>199.16666666666666</ele><time>2026-04-04T07:09:36.378Z</time></trkpt><trkpt lat="43.9049467" lon="12.535115"><ele>200.33333333333331</ele><time>2026-04-04T07:09:37.379Z</time></trkpt><trkpt lat="43.9048733" lon="12.5350767"><ele>201.5</ele><time>2026-04-04T07:09:38.378Z</time></trkpt><trkpt lat="43.9048" lon="12.5350467"><ele>202.66666666666666</ele><time>2026-04-04T07:09:39.378Z</time></trkpt><trkpt lat="43.9047217" lon="12.5350033"><ele>203.83333333333331</ele><time>2026-04-04T07:09:40.378Z</time></trkpt><trkpt lat="43.90463" lon="12.534955"><ele>205.0</ele><time>2026-04-04T07:09:41.378Z</time></trkpt><trkpt lat="43.9045333" lon="12.53491"><ele>205.0</ele><time>2026-04-04T07:09:42.379Z</time></trkpt><trkpt lat="43.9044333" lon="12.534865"><ele>205.0</ele><time>2026-04-04T07:09:43.378Z</time></trkpt><trkpt lat="43.9043217" lon="12.534825"><ele>205.0</ele><time>2026-04-04T07:09:44.378Z</time></trkpt><trkpt lat="43.90421" lon="12.5347867"><ele>205.0</ele><time>2026-04-04T07:09:45.378Z</time></trkpt><trkpt lat="43.9041017" lon="12.5347483"><ele>205.0</ele><time>2026-04-04T07:09:46.378Z</time></trkpt><trkpt lat="43.9039933" lon="12.5347233"><ele>204.5</ele><time>2026-04-04T07:09:47.379Z</time></trkpt><trkpt lat="43.90388" lon="12.5346917"><ele>204.0</ele><time>2026-04-04T07:09:48.379Z</time></trkpt><trkpt lat="43.90376" lon="12.5346683"><ele>203.5</ele><time>2026-04-04T07:09:49.378Z</time></trkpt><trkpt lat="43.9036467" lon="12.5346367"><ele>203.0</ele><time>2026-04-04T07:09:50.379Z</time></trkpt><trkpt lat="43.9035383" lon="12.5346117"><ele>203.0</ele><time>2026-04-04T07:09:51.378Z</time></trkpt><trkpt lat="43.903425" lon="12.5345833"><ele>203.0</ele><time>2026-04-04T07:09:52.378Z</time></trkpt><trkpt lat="43.9033083" lon="12.5345483"><ele>203.0</ele><time>2026-04-04T07:09:53.378Z</time></trkpt><trkpt lat="43.9032017" lon="12.5345083"><ele>203.0</ele><time>2026-04-04T07:09:54.378Z</time></trkpt><trkpt lat="43.9030883" lon="12.5344483"><ele>203.5</ele><time>2026-04-04T07:09:55.378Z</time></trkpt><trkpt lat="43.90298" lon="12.534375"><ele>204.0</ele><time>2026-04-04T07:09:56.379Z</time></trkpt><trkpt lat="43.90288" lon="12.5342817"><ele>204.5</ele><time>2026-04-04T07:09:57.379Z</time></trkpt><trkpt lat="43.902775" lon="12.534195"><ele>205.0</ele><time>2026-04-04T07:09:58.378Z</time></trkpt><trkpt lat="43.902675" lon="12.5341017"><ele>205.0</ele><time>2026-04-04T07:09:59.379Z</time></trkpt><trkpt lat="43.9025717" lon="12.5340083"><ele>205.0</ele><time>2026-04-04T07:10:00.379Z</time></trkpt><trkpt lat="43.90246" lon="12.5339133"><ele>205.0</ele><time>2026-04-04T07:10:01.379Z</time></trkpt><trkpt lat="43.9023483" lon="12.53382"><ele>205.0</ele><time>2026-04-04T07:10:02.379Z</time></trkpt><trkpt lat="43.902235" lon="12.5337333"><ele>206.25</ele><time>2026-04-04T07:10:03.378Z</time></trkpt><trkpt lat="43.9021217" lon="12.5336567"><ele>207.5</ele><time>2026-04-04T07:10:04.378Z</time></trkpt><trkpt lat="43.9020133" lon="12.5335817"><ele>208.75</ele><time>2026-04-04T07:10:05.378Z</time></trkpt><trkpt lat="43.9019017" lon="12.53351"><ele>210.0</ele><time>2026-04-04T07:10:06.378Z</time></trkpt><trkpt lat="43.9017917" lon="12.5334367"><ele>209.25</ele><time>2026-04-04T07:10:07.378Z</time></trkpt><trkpt lat="43.9016833" lon="12.5333633"><ele>208.5</ele><time>2026-04-04T07:10:08.378Z</time></trkpt><trkpt lat="43.9015767" lon="12.5332917"><ele>207.75</ele><time>2026-04-04T07:10:09.378Z</time></trkpt><trkpt lat="43.90147" lon="12.5332167"><ele>207.0</ele><time>2026-04-04T07:10:10.379Z</time></trkpt><trkpt lat="43.9013633" lon="12.5331417"><ele>207.0</ele><time>2026-04-04T07:10:11.379Z</time></trkpt><trkpt lat="43.9012617" lon="12.5330733"><ele>207.0</ele><time>2026-04-04T07:10:12.379Z</time></trkpt><trkpt lat="43.9011617" lon="12.5330183"><ele>207.0</ele><time>2026-04-04T07:10:13.379Z</time></trkpt><trkpt lat="43.901065" lon="12.5329583"><ele>207.0</ele><time>2026-04-04T07:10:14.379Z</time></trkpt><trkpt lat="43.9009683" lon="12.5329"><ele>207.0</ele><time>2026-04-04T07:10:15.378Z</time></trkpt><trkpt lat="43.9008817" lon="12.5328467"><ele>207.2</ele><time>2026-04-04T07:10:16.378Z</time></trkpt><trkpt lat="43.9007967" lon="12.5327867"><ele>207.39999999999998</ele><time>2026-04-04T07:10:17.379Z</time></trkpt><trkpt lat="43.9007067" lon="12.5327217"><ele>207.60000000000002</ele><time>2026-04-04T07:10:18.379Z</time></trkpt><trkpt lat="43.9006117" lon="12.5326583"><ele>207.8</ele><time>2026-04-04T07:10:19.378Z</time></trkpt><trkpt lat="43.9005083" lon="12.53259"><ele>208.0</ele><time>2026-04-04T07:10:20.378Z</time></trkpt><trkpt lat="43.9004017" lon="12.5325183"><ele>208.0</ele><time>2026-04-04T07:10:21.379Z</time></trkpt><trkpt lat="43.90029" lon="12.5324433"><ele>208.0</ele><time>2026-04-04T07:10:22.378Z</time></trkpt><trkpt lat="43.9001733" lon="12.5323733"><ele>208.0</ele><time>2026-04-04T07:10:23.378Z</time></trkpt><trkpt lat="43.900055" lon="12.532315"><ele>208.0</ele><time>2026-04-04T07:10:24.378Z</time></trkpt><trkpt lat="43.8999333" lon="12.5322583"><ele>206.0</ele><time>2026-04-04T07:10:25.378Z</time></trkpt><trkpt lat="43.89981" lon="12.532205"><ele>204.0</ele><time>2026-04-04T07:10:26.378Z</time></trkpt><trkpt lat="43.899685" lon="12.53216"><ele>202.0</ele><time>2026-04-04T07:10:27.378Z</time></trkpt><trkpt lat="43.8995583" lon="12.53211"><ele>200.0</ele><time>2026-04-04T07:10:28.379Z</time></trkpt><trkpt lat="43.89942" lon="12.5320617"><ele>199.25</ele><time>2026-04-04T07:10:29.379Z</time></trkpt><trkpt lat="43.899285" lon="12.5320133"><ele>198.5</ele><time>2026-04-04T07:10:30.378Z</time></trkpt><trkpt lat="43.8991517" lon="12.53196"><ele>197.75</ele><time>2026-04-04T07:10:31.378Z</time></trkpt><trkpt lat="43.8990183" lon="12.5319083"><ele>197.0</ele><time>2026-04-04T07:10:32.379Z</time></trkpt><trkpt lat="43.8988867" lon="12.53186"><ele>197.0</ele><time>2026-04-04T07:10:33.379Z</time></trkpt><trkpt lat="43.8987567" lon="12.5318083"><ele>197.0</ele><time>2026-04-04T07:10:34.379Z</time></trkpt><trkpt lat="43.8986283" lon="12.531745"><ele>197.0</ele><time>2026-04-04T07:10:35.378Z</time></trkpt><trkpt lat="43.8985" lon="12.5316683"><ele>197.0</ele><time>2026-04-04T07:10:36.379Z</time></trkpt><trkpt lat="43.8983783" lon="12.531575"><ele>197.5</ele><time>2026-04-04T07:10:37.378Z</time></trkpt><trkpt lat="43.8982617" lon="12.53147"><ele>198.0</ele><time>2026-04-04T07:10:38.379Z</time></trkpt><trkpt lat="43.8981517" lon="12.5313667"><ele>198.5</ele><time>2026-04-04T07:10:39.378Z</time></trkpt><trkpt lat="43.8980367" lon="12.5312717"><ele>199.0</ele><time>2026-04-04T07:10:40.379Z</time></trkpt><trkpt lat="43.8979283" lon="12.5311733"><ele>199.0</ele><time>2026-04-04T07:10:41.378Z</time></trkpt><trkpt lat="43.89782" lon="12.5310983"><ele>199.0</ele><time>2026-04-04T07:10:42.378Z</time></trkpt><trkpt lat="43.89771" lon="12.531045"><ele>199.0</ele><time>2026-04-04T07:10:43.378Z</time></trkpt><trkpt lat="43.8975983" lon="12.5309917"><ele>199.0</ele><time>2026-04-04T07:10:44.378Z</time></trkpt><trkpt lat="43.8975067" lon="12.5309683"><ele>199.0</ele><time>2026-04-04T07:10:45.378Z</time></trkpt><trkpt lat="43.8974267" lon="12.5309517"><ele>201.2</ele><time>2026-04-04T07:10:46.378Z</time></trkpt><trkpt lat="43.897345" lon="12.5309383"><ele>203.39999999999998</ele><time>2026-04-04T07:10:47.378Z</time></trkpt><trkpt lat="43.8972517" lon="12.5309283"><ele>205.6</ele><time>2026-04-04T07:10:48.378Z</time></trkpt><trkpt lat="43.8971533" lon="12.5309183"><ele>207.8</ele><time>2026-04-04T07:10:49.379Z</time></trkpt><trkpt lat="43.8970517" lon="12.5309033"><ele>210.0</ele><time>2026-04-04T07:10:50.379Z</time></trkpt><trkpt lat="43.8969367" lon="12.530895"><ele>210.0</ele><time>2026-04-04T07:10:51.379Z</time></trkpt><trkpt lat="43.8968167" lon="12.530885"><ele>210.0</ele><time>2026-04-04T07:10:52.379Z</time></trkpt><trkpt lat="43.8966883" lon="12.5308783"><ele>210.0</ele><time>2026-04-04T07:10:53.379Z</time></trkpt><trkpt lat="43.896565" lon="12.530875"><ele>210.0</ele><time>2026-04-04T07:10:54.378Z</time></trkpt><trkpt lat="43.89643" lon="12.5308683"><ele>210.5</ele><time>2026-04-04T07:10:55.378Z</time></trkpt><trkpt lat="43.89629" lon="12.5308633"><ele>211.0</ele><time>2026-04-04T07:10:56.379Z</time></trkpt><trkpt lat="43.8961517" lon="12.5308567"><ele>211.5</ele><time>2026-04-04T07:10:57.379Z</time></trkpt><trkpt lat="43.8960233" lon="12.53085"><ele>212.0</ele><time>2026-04-04T07:10:58.378Z</time></trkpt><trkpt lat="43.89589" lon="12.53084"><ele>213.25</ele><time>2026-04-04T07:10:59.378Z</time></trkpt><trkpt lat="43.895755" lon="12.5308267"><ele>214.5</ele><time>2026-04-04T07:11:00.378Z</time></trkpt><trkpt lat="43.89562" lon="12.5308233"><ele>215.75</ele><time>2026-04-04T07:11:01.379Z</time></trkpt><trkpt lat="43.8954817" lon="12.5308233"><ele>217.0</ele><time>2026-04-04T07:11:02.378Z</time></trkpt><trkpt lat="43.8953483" lon="12.5308217"><ele>217.0</ele><time>2026-04-04T07:11:03.378Z</time></trkpt><trkpt lat="43.8952167" lon="12.53081"><ele>217.0</ele><time>2026-04-04T07:11:04.378Z</time></trkpt><trkpt lat="43.895085" lon="12.5308017"><ele>217.0</ele><time>2026-04-04T07:11:05.378Z</time></trkpt><trkpt lat="43.8949483" lon="12.5307883"><ele>217.0</ele><time>2026-04-04T07:11:06.379Z</time></trkpt><trkpt lat="43.8948167" lon="12.53079"><ele>217.0</ele><time>2026-04-04T07:11:07.379Z</time></trkpt><trkpt lat="43.89468" lon="12.5307783"><ele>217.0</ele><time>2026-04-04T07:11:08.378Z</time></trkpt><trkpt lat="43.8945383" lon="12.530765"><ele>217.0</ele><time>2026-04-04T07:11:09.378Z</time></trkpt><trkpt lat="43.8943967" lon="12.5307517"><ele>217.0</ele><time>2026-04-04T07:11:10.379Z</time></trkpt><trkpt lat="43.8942517" lon="12.5307417"><ele>217.75</ele><time>2026-04-04T07:11:11.378Z</time></trkpt><trkpt lat="43.8941167" lon="12.5307283"><ele>218.5</ele><time>2026-04-04T07:11:12.378Z</time></trkpt><trkpt lat="43.8939933" lon="12.5307267"><ele>219.25</ele><time>2026-04-04T07:11:13.378Z</time></trkpt><trkpt lat="43.89388" lon="12.5307267"><ele>220.0</ele><time>2026-04-04T07:11:14.378Z</time></trkpt><trkpt lat="43.8937717" lon="12.5307233"><ele>220.0</ele><time>2026-04-04T07:11:15.379Z</time></trkpt><trkpt lat="43.893665" lon="12.5307217"><ele>220.0</ele><time>2026-04-04T07:11:16.379Z</time></trkpt><trkpt lat="43.8935617" lon="12.5307167"><ele>220.0</ele><time>2026-04-04T07:11:17.378Z</time></trkpt><trkpt lat="43.8934533" lon="12.5307017"><ele>220.0</ele><time>2026-04-04T07:11:18.378Z</time></trkpt><trkpt lat="43.89334" lon="12.53069"><ele>220.0</ele><time>2026-04-04T07:11:19.379Z</time></trkpt><trkpt lat="43.89323" lon="12.53068"><ele>220.0</ele><time>2026-04-04T07:11:20.378Z</time></trkpt><trkpt lat="43.8931083" lon="12.5306833"><ele>220.0</ele><time>2026-04-04T07:11:21.378Z</time></trkpt><trkpt lat="43.8929833" lon="12.5306783"><ele>220.0</ele><time>2026-04-04T07:11:22.378Z</time></trkpt><trkpt lat="43.892865" lon="12.5306783"><ele>220.0</ele><time>2026-04-04T07:11:23.379Z</time></trkpt><trkpt lat="43.892755" lon="12.530675"><ele>219.99999999999997</ele><time>2026-04-04T07:11:24.378Z</time></trkpt><trkpt lat="43.892655" lon="12.5306717"><ele>220.0</ele><time>2026-04-04T07:11:25.378Z</time></trkpt><trkpt lat="43.8925733" lon="12.5306667"><ele>220.0</ele><time>2026-04-04T07:11:26.378Z</time></trkpt><trkpt lat="43.8925017" lon="12.53066"><ele>220.0</ele><time>2026-04-04T07:11:27.379Z</time></trkpt><trkpt lat="43.8924317" lon="12.53066"><ele>219.99999999999997</ele><time>2026-04-04T07:11:28.378Z</time></trkpt><trkpt lat="43.8923483" lon="12.530655"><ele>220.0</ele><time>2026-04-04T07:11:29.379Z</time></trkpt><trkpt lat="43.892255" lon="12.5306517"><ele>220.0</ele><time>2026-04-04T07:11:30.379Z</time></trkpt><trkpt lat="43.89215" lon="12.530645"><ele>220.0</ele><time>2026-04-04T07:11:31.379Z</time></trkpt><trkpt lat="43.89205" lon="12.530635"><ele>220.0</ele><time>2026-04-04T07:11:32.378Z</time></trkpt><trkpt lat="43.8919417" lon="12.5306217"><ele>220.0</ele><time>2026-04-04T07:11:33.379Z</time></trkpt><trkpt lat="43.8918333" lon="12.5306083"><ele>220.0</ele><time>2026-04-04T07:11:34.378Z</time></trkpt><trkpt lat="43.8917217" lon="12.5305967"><ele>219.6</ele><time>2026-04-04T07:11:35.379Z</time></trkpt><trkpt lat="43.89161" lon="12.5305917"><ele>219.2</ele><time>2026-04-04T07:11:36.379Z</time></trkpt><trkpt lat="43.8915083" lon="12.5305817"><ele>218.8</ele><time>2026-04-04T07:11:37.378Z</time></trkpt><trkpt lat="43.8914017" lon="12.5305717"><ele>218.4</ele><time>2026-04-04T07:11:38.379Z</time></trkpt><trkpt lat="43.8912933" lon="12.530565"><ele>218.0</ele><time>2026-04-04T07:11:39.379Z</time></trkpt><trkpt lat="43.89118" lon="12.5305617"><ele>218.0</ele><time>2026-04-04T07:11:40.378Z</time></trkpt><trkpt lat="43.8910667" lon="12.5305583"><ele>218.0</ele><time>2026-04-04T07:11:41.379Z</time></trkpt><trkpt lat="43.8909567" lon="12.5305433"><ele>218.0</ele><time>2026-04-04T07:11:42.379Z</time></trkpt><trkpt lat="43.89084" lon="12.530535"><ele>218.0</ele><time>2026-04-04T07:11:43.378Z</time></trkpt><trkpt lat="43.8907083" lon="12.53053"><ele>218.75</ele><time>2026-04-04T07:11:44.378Z</time></trkpt><trkpt lat="43.890585" lon="12.53053"><ele>219.5</ele><time>2026-04-04T07:11:45.378Z</time></trkpt><trkpt lat="43.8904633" lon="12.53053"><ele>220.25</ele><time>2026-04-04T07:11:46.379Z</time></trkpt><trkpt lat="43.8903433" lon="12.5305317"><ele>221.0</ele><time>2026-04-04T07:11:47.379Z</time></trkpt><trkpt lat="43.8899667" lon="12.5304917"><ele>221.25</ele><time>2026-04-04T07:11:50.378Z</time></trkpt><trkpt lat="43.889845" lon="12.53046"><ele>221.5</ele><time>2026-04-04T07:11:51.379Z</time></trkpt><trkpt lat="43.889735" lon="12.5304067"><ele>221.75</ele><time>2026-04-04T07:11:52.379Z</time></trkpt><trkpt lat="43.889615" lon="12.5303567"><ele>222.0</ele><time>2026-04-04T07:11:53.378Z</time></trkpt><trkpt lat="43.8894967" lon="12.5302933"><ele>222.5</ele><time>2026-04-04T07:11:54.379Z</time></trkpt><trkpt lat="43.8893833" lon="12.5302183"><ele>223.0</ele><time>2026-04-04T07:11:55.379Z</time></trkpt><trkpt lat="43.8892683" lon="12.5301333"><ele>223.5</ele><time>2026-04-04T07:11:56.378Z</time></trkpt><trkpt lat="43.88916" lon="12.5300267"><ele>224.0</ele><time>2026-04-04T07:11:57.378Z</time></trkpt><trkpt lat="43.88905" lon="12.5299317"><ele>224.0</ele><time>2026-04-04T07:11:58.378Z</time></trkpt><trkpt lat="43.8889467" lon="12.5298217"><ele>224.0</ele><time>2026-04-04T07:11:59.379Z</time></trkpt><trkpt lat="43.8888417" lon="12.529695"><ele>224.0</ele><time>2026-04-04T07:12:00.379Z</time></trkpt><trkpt lat="43.888735" lon="12.529565"><ele>224.0</ele><time>2026-04-04T07:12:01.378Z</time></trkpt><trkpt lat="43.888635" lon="12.5294283"><ele>224.75</ele><time>2026-04-04T07:12:02.379Z</time></trkpt><trkpt lat="43.8885317" lon="12.5292983"><ele>225.5</ele><time>2026-04-04T07:12:03.379Z</time></trkpt><trkpt lat="43.88843" lon="12.5291733"><ele>226.25</ele><time>2026-04-04T07:12:04.378Z</time></trkpt><trkpt lat="43.888335" lon="12.52905"><ele>227.0</ele><time>2026-04-04T07:12:05.379Z</time></trkpt><trkpt lat="43.8882367" lon="12.5289267"><ele>227.0</ele><time>2026-04-04T07:12:06.378Z</time></trkpt><trkpt lat="43.88814" lon="12.5288"><ele>227.0</ele><time>2026-04-04T07:12:07.379Z</time></trkpt><trkpt lat="43.8880417" lon="12.5286733"><ele>227.0</ele><time>2026-04-04T07:12:08.379Z</time></trkpt><trkpt lat="43.88794" lon="12.528545"><ele>227.0</ele><time>2026-04-04T07:12:09.379Z</time></trkpt><trkpt lat="43.8878383" lon="12.5284133"><ele>227.25</ele><time>2026-04-04T07:12:10.378Z</time></trkpt><trkpt lat="43.8877367" lon="12.5282783"><ele>227.5</ele><time>2026-04-04T07:12:11.378Z</time></trkpt><trkpt lat="43.88763" lon="12.5281467"><ele>227.75</ele><time>2026-04-04T07:12:12.379Z</time></trkpt><trkpt lat="43.887525" lon="12.5280133"><ele>228.0</ele><time>2026-04-04T07:12:13.378Z</time></trkpt><trkpt lat="43.8874233" lon="12.5278767"><ele>230.33333333333331</ele><time>2026-04-04T07:12:14.378Z</time></trkpt><trkpt lat="43.887325" lon="12.5277233"><ele>232.66666666666666</ele><time>2026-04-04T07:12:15.378Z</time></trkpt><trkpt lat="43.8872283" lon="12.5275617"><ele>235.0</ele><time>2026-04-04T07:12:16.378Z</time></trkpt><trkpt lat="43.8871317" lon="12.5274"><ele>235.0</ele><time>2026-04-04T07:12:17.378Z</time></trkpt><trkpt lat="43.8870367" lon="12.52724"><ele>235.0</ele><time>2026-04-04T07:12:18.379Z</time></trkpt><trkpt lat="43.88694" lon="12.5270783"><ele>235.0</ele><time>2026-04-04T07:12:19.378Z</time></trkpt><trkpt lat="43.886845" lon="12.5269183"><ele>233.66666666666666</ele><time>2026-04-04T07:12:20.379Z</time></trkpt><trkpt lat="43.886755" lon="12.5267517"><ele>232.33333333333331</ele><time>2026-04-04T07:12:21.378Z</time></trkpt><trkpt lat="43.8866633" lon="12.526585"><ele>231.0</ele><time>2026-04-04T07:12:22.378Z</time></trkpt><trkpt lat="43.8865633" lon="12.52642"><ele>231.0</ele><time>2026-04-04T07:12:23.378Z</time></trkpt><trkpt lat="43.8864783" lon="12.526245"><ele>231.0</ele><time>2026-04-04T07:12:24.379Z</time></trkpt><trkpt lat="43.8863583" lon="12.5261017"><ele>231.0</ele><time>2026-04-04T07:12:25.378Z</time></trkpt><trkpt lat="43.88624" lon="12.525955"><ele>231.0</ele><time>2026-04-04T07:12:26.378Z</time></trkpt><trkpt lat="43.8861217" lon="12.5258117"><ele>231.0</ele><time>2026-04-04T07:12:27.378Z</time></trkpt><trkpt lat="43.8859983" lon="12.5256767"><ele>231.0</ele><time>2026-04-04T07:12:28.378Z</time></trkpt><trkpt lat="43.8858783" lon="12.5255417"><ele>231.0</ele><time>2026-04-04T07:12:29.378Z</time></trkpt><trkpt lat="43.88576" lon="12.5254017"><ele>231.0</ele><time>2026-04-04T07:12:30.379Z</time></trkpt><trkpt lat="43.8856433" lon="12.5252733"><ele>231.0</ele><time>2026-04-04T07:12:31.378Z</time></trkpt><trkpt lat="43.8855267" lon="12.5251517"><ele>233.5</ele><time>2026-04-04T07:12:32.378Z</time></trkpt><trkpt lat="43.8854233" lon="12.525035"><ele>236.0</ele><time>2026-04-04T07:12:33.378Z</time></trkpt><trkpt lat="43.8853217" lon="12.5249233"><ele>238.5</ele><time>2026-04-04T07:12:34.379Z</time></trkpt><trkpt lat="43.8852217" lon="12.5248067"><ele>241.0</ele><time>2026-04-04T07:12:35.379Z</time></trkpt><trkpt lat="43.8851167" lon="12.5246967"><ele>240.75</ele><time>2026-04-04T07:12:36.378Z</time></trkpt><trkpt lat="43.88501" lon="12.5245783"><ele>240.5</ele><time>2026-04-04T07:12:37.378Z</time></trkpt><trkpt lat="43.8848967" lon="12.5244683"><ele>240.25</ele><time>2026-04-04T07:12:38.378Z</time></trkpt><trkpt lat="43.8847867" lon="12.5243433"><ele>240.0</ele><time>2026-04-04T07:12:39.378Z</time></trkpt><trkpt lat="43.884675" lon="12.52422"><ele>240.0</ele><time>2026-04-04T07:12:40.378Z</time></trkpt><trkpt lat="43.88456" lon="12.5241"><ele>240.0</ele><time>2026-04-04T07:12:41.379Z</time></trkpt><trkpt lat="43.8844367" lon="12.523985"><ele>240.0</ele><time>2026-04-04T07:12:42.378Z</time></trkpt><trkpt lat="43.8843133" lon="12.5238733"><ele>240.0</ele><time>2026-04-04T07:12:43.378Z</time></trkpt><trkpt lat="43.8842033" lon="12.523775"><ele>238.5</ele><time>2026-04-04T07:12:44.378Z</time></trkpt><trkpt lat="43.8840983" lon="12.52369"><ele>237.0</ele><time>2026-04-04T07:12:45.378Z</time></trkpt><trkpt lat="43.8839967" lon="12.5236033"><ele>235.5</ele><time>2026-04-04T07:12:46.378Z</time></trkpt><trkpt lat="43.8838883" lon="12.5235117"><ele>234.0</ele><time>2026-04-04T07:12:47.378Z</time></trkpt><trkpt lat="43.8837717" lon="12.5234183"><ele>234.0</ele><time>2026-04-04T07:12:48.379Z</time></trkpt><trkpt lat="43.88365" lon="12.523325"><ele>234.0</ele><time>2026-04-04T07:12:49.379Z</time></trkpt><trkpt lat="43.8835317" lon="12.52323"><ele>234.0</ele><time>2026-04-04T07:12:50.378Z</time></trkpt><trkpt lat="43.8834183" lon="12.5231483"><ele>234.0</ele><time>2026-04-04T07:12:51.379Z</time></trkpt><trkpt lat="43.8833067" lon="12.5230617"><ele>233.0</ele><time>2026-04-04T07:12:52.378Z</time></trkpt><trkpt lat="43.8831983" lon="12.5229783"><ele>232.0</ele><time>2026-04-04T07:12:53.378Z</time></trkpt><trkpt lat="43.883095" lon="12.5228983"><ele>231.0</ele><time>2026-04-04T07:12:54.379Z</time></trkpt><trkpt lat="43.8830067" lon="12.5228083"><ele>230.0</ele><time>2026-04-04T07:12:55.378Z</time></trkpt><trkpt lat="43.8829283" lon="12.52271"><ele>232.25</ele><time>2026-04-04T07:12:56.379Z</time></trkpt><trkpt lat="43.8828583" lon="12.5226033"><ele>234.5</ele><time>2026-04-04T07:12:57.379Z</time></trkpt><trkpt lat="43.8828017" lon="12.522475"><ele>236.75</ele><time>2026-04-04T07:12:58.378Z</time></trkpt><trkpt lat="43.88276" lon="12.522315"><ele>239.0</ele><time>2026-04-04T07:12:59.379Z</time></trkpt><trkpt lat="43.8827317" lon="12.52214"><ele>239.5</ele><time>2026-04-04T07:13:00.379Z</time></trkpt><trkpt lat="43.8827067" lon="12.5219533"><ele>240.0</ele><time>2026-04-04T07:13:01.378Z</time></trkpt><trkpt lat="43.88268" lon="12.5217617"><ele>240.5</ele><time>2026-04-04T07:13:02.379Z</time></trkpt><trkpt lat="43.88265" lon="12.5215633"><ele>241.0</ele><time>2026-04-04T07:13:03.378Z</time></trkpt><trkpt lat="43.8826317" lon="12.5213717"><ele>239.5</ele><time>2026-04-04T07:13:04.378Z</time></trkpt><trkpt lat="43.882605" lon="12.5211683"><ele>238.0</ele><time>2026-04-04T07:13:05.378Z</time></trkpt><trkpt lat="43.8825783" lon="12.5209667"><ele>236.5</ele><time>2026-04-04T07:13:06.378Z</time></trkpt><trkpt lat="43.882555" lon="12.5207583"><ele>235.0</ele><time>2026-04-04T07:13:07.379Z</time></trkpt><trkpt lat="43.8825233" lon="12.5205517"><ele>231.66666666666666</ele><time>2026-04-04T07:13:08.378Z</time></trkpt><trkpt lat="43.8824983" lon="12.5203467"><ele>228.33333333333331</ele><time>2026-04-04T07:13:09.378Z</time></trkpt><trkpt lat="43.8824717" lon="12.5201367"><ele>225.0</ele><time>2026-04-04T07:13:10.378Z</time></trkpt><trkpt lat="43.8824367" lon="12.5199367"><ele>225.0</ele><time>2026-04-04T07:13:11.379Z</time></trkpt><trkpt lat="43.8824017" lon="12.51974"><ele>225.0</ele><time>2026-04-04T07:13:12.378Z</time></trkpt><trkpt lat="43.88237" lon="12.519545"><ele>225.0</ele><time>2026-04-04T07:13:13.378Z</time></trkpt><trkpt lat="43.8823383" lon="12.5193383"><ele>225.0</ele><time>2026-04-04T07:13:14.378Z</time></trkpt><trkpt lat="43.8823033" lon="12.5191317"><ele>226.0</ele><time>2026-04-04T07:13:15.378Z</time></trkpt><trkpt lat="43.8822717" lon="12.51893"><ele>227.0</ele><time>2026-04-04T07:13:16.378Z</time></trkpt><trkpt lat="43.8822367" lon="12.5187217"><ele>228.0</ele><time>2026-04-04T07:13:17.379Z</time></trkpt><trkpt lat="43.8822017" lon="12.5185133"><ele>229.66666666666669</ele><time>2026-04-04T07:13:18.378Z</time></trkpt><trkpt lat="43.8821717" lon="12.5183117"><ele>231.33333333333334</ele><time>2026-04-04T07:13:19.378Z</time></trkpt><trkpt lat="43.882145" lon="12.518105"><ele>233.0</ele><time>2026-04-04T07:13:20.378Z</time></trkpt><trkpt lat="43.8821167" lon="12.517895"><ele>235.0</ele><time>2026-04-04T07:13:21.379Z</time></trkpt><trkpt lat="43.8820867" lon="12.5176833"><ele>237.0</ele><time>2026-04-04T07:13:22.378Z</time></trkpt><trkpt lat="43.882055" lon="12.5174717"><ele>239.0</ele><time>2026-04-04T07:13:23.378Z</time></trkpt><trkpt lat="43.8820233" lon="12.517255"><ele>240.0</ele><time>2026-04-04T07:13:24.378Z</time></trkpt><trkpt lat="43.8820033" lon="12.5170433"><ele>241.0</ele><time>2026-04-04T07:13:25.378Z</time></trkpt><trkpt lat="43.8819817" lon="12.51683"><ele>242.0</ele><time>2026-04-04T07:13:26.378Z</time></trkpt><trkpt lat="43.881955" lon="12.5166117"><ele>242.0</ele><time>2026-04-04T07:13:27.378Z</time></trkpt><trkpt lat="43.8819217" lon="12.516395"><ele>242.0</ele><time>2026-04-04T07:13:28.378Z</time></trkpt><trkpt lat="43.881885" lon="12.5161733"><ele>242.0</ele><time>2026-04-04T07:13:29.379Z</time></trkpt><trkpt lat="43.8818533" lon="12.51596"><ele>242.66666666666669</ele><time>2026-04-04T07:13:30.378Z</time></trkpt><trkpt lat="43.8818217" lon="12.51574"><ele>243.33333333333331</ele><time>2026-04-04T07:13:31.379Z</time></trkpt><trkpt lat="43.8817933" lon="12.5155233"><ele>244.0</ele><time>2026-04-04T07:13:32.379Z</time></trkpt><trkpt lat="43.8817683" lon="12.5153"><ele>241.5</ele><time>2026-04-04T07:13:33.378Z</time></trkpt><trkpt lat="43.881755" lon="12.5150867"><ele>239.0</ele><time>2026-04-04T07:13:34.379Z</time></trkpt><trkpt lat="43.8817433" lon="12.5149"><ele>236.5</ele><time>2026-04-04T07:13:35.379Z</time></trkpt><trkpt lat="43.8817283" lon="12.514745"><ele>234.0</ele><time>2026-04-04T07:13:36.379Z</time></trkpt><trkpt lat="43.8817183" lon="12.5146317"><ele>234.6</ele><time>2026-04-04T07:13:37.379Z</time></trkpt><trkpt lat="43.8817017" lon="12.5144833"><ele>235.2</ele><time>2026-04-04T07:13:39.378Z</time></trkpt><trkpt lat="43.8816483" lon="12.514405"><ele>235.79999999999998</ele><time>2026-04-04T07:13:41.378Z</time></trkpt><trkpt lat="43.8815667" lon="12.5144267"><ele>236.39999999999998</ele><time>2026-04-04T07:13:43.379Z</time></trkpt><trkpt lat="43.88145" lon="12.5145"><ele>237.0</ele><time>2026-04-04T07:13:45.379Z</time></trkpt><trkpt lat="43.88139" lon="12.514555"><ele>236.5</ele><time>2026-04-04T07:13:46.379Z</time></trkpt><trkpt lat="43.8813317" lon="12.51462"><ele>236.0</ele><time>2026-04-04T07:13:47.378Z</time></trkpt><trkpt lat="43.8812733" lon="12.5146783"><ele>235.5</ele><time>2026-04-04T07:13:48.378Z</time></trkpt><trkpt lat="43.8812133" lon="12.5147367"><ele>235.0</ele><time>2026-04-04T07:13:49.378Z</time></trkpt><trkpt lat="43.8811583" lon="12.5147917"><ele>234.5</ele><time>2026-04-04T07:13:50.379Z</time></trkpt><trkpt lat="43.8810733" lon="12.5148467"><ele>234.0</ele><time>2026-04-04T07:13:52.379Z</time></trkpt><trkpt lat="43.8810067" lon="12.5148283"><ele>234.0</ele><time>2026-04-04T07:13:54.378Z</time></trkpt><trkpt lat="43.8809417" lon="12.5147217"><ele>234.0</ele><time>2026-04-04T07:13:56.378Z</time></trkpt><trkpt lat="43.8809217" lon="12.5146217"><ele>234.0</ele><time>2026-04-04T07:13:57.379Z</time></trkpt><trkpt lat="43.880915" lon="12.514505"><ele>234.0</ele><time>2026-04-04T07:13:58.378Z</time></trkpt><trkpt lat="43.8809083" lon="12.5143867"><ele>234.0</ele><time>2026-04-04T07:13:59.378Z</time></trkpt><trkpt lat="43.8808917" lon="12.5142617"><ele>234.0</ele><time>2026-04-04T07:14:00.378Z</time></trkpt><trkpt lat="43.8808667" lon="12.514145"><ele>233.83333333333334</ele><time>2026-04-04T07:14:01.379Z</time></trkpt><trkpt lat="43.8808333" lon="12.514025"><ele>233.66666666666669</ele><time>2026-04-04T07:14:02.378Z</time></trkpt><trkpt lat="43.8808" lon="12.5139167"><ele>233.5</ele><time>2026-04-04T07:14:03.378Z</time></trkpt><trkpt lat="43.88077" lon="12.5138033"><ele>233.33333333333334</ele><time>2026-04-04T07:14:04.378Z</time></trkpt><trkpt lat="43.8807483" lon="12.513685"><ele>233.16666666666669</ele><time>2026-04-04T07:14:05.379Z</time></trkpt><trkpt lat="43.8807467" lon="12.513555"><ele>233.0</ele><time>2026-04-04T07:14:06.378Z</time></trkpt><trkpt lat="43.8807367" lon="12.5134283"><ele>233.00000000000003</ele><time>2026-04-04T07:14:07.379Z</time></trkpt><trkpt lat="43.88072" lon="12.5133033"><ele>233.0</ele><time>2026-04-04T07:14:08.378Z</time></trkpt><trkpt lat="43.8806983" lon="12.513185"><ele>233.0</ele><time>2026-04-04T07:14:09.378Z</time></trkpt><trkpt lat="43.8806867" lon="12.51307"><ele>233.0</ele><time>2026-04-04T07:14:10.378Z</time></trkpt><trkpt lat="43.8806767" lon="12.51296"><ele>233.00000000000003</ele><time>2026-04-04T07:14:11.378Z</time></trkpt><trkpt lat="43.8806517" lon="12.5128517"><ele>233.0</ele><time>2026-04-04T07:14:12.378Z</time></trkpt><trkpt lat="43.8806183" lon="12.5127517"><ele>233.33333333333334</ele><time>2026-04-04T07:14:13.379Z</time></trkpt><trkpt lat="43.8805767" lon="12.5126567"><ele>233.66666666666669</ele><time>2026-04-04T07:14:14.378Z</time></trkpt><trkpt lat="43.8805317" lon="12.5125683"><ele>234.0</ele><time>2026-04-04T07:14:15.378Z</time></trkpt><trkpt lat="43.880485" lon="12.5124717"><ele>234.33333333333331</ele><time>2026-04-04T07:14:16.379Z</time></trkpt><trkpt lat="43.8804367" lon="12.5123567"><ele>234.66666666666666</ele><time>2026-04-04T07:14:17.378Z</time></trkpt><trkpt lat="43.8803867" lon="12.512225"><ele>235.0</ele><time>2026-04-04T07:14:18.379Z</time></trkpt><trkpt lat="43.8803383" lon="12.512105"><ele>235.6</ele><time>2026-04-04T07:14:19.378Z</time></trkpt><trkpt lat="43.8802833" lon="12.5119917"><ele>236.2</ele><time>2026-04-04T07:14:20.379Z</time></trkpt><trkpt lat="43.8802367" lon="12.5118867"><ele>236.8</ele><time>2026-04-04T07:14:21.378Z</time></trkpt><trkpt lat="43.8801983" lon="12.5117967"><ele>237.4</ele><time>2026-04-04T07:14:22.379Z</time></trkpt><trkpt lat="43.880155" lon="12.51165"><ele>238.0</ele><time>2026-04-04T07:14:24.378Z</time></trkpt><trkpt lat="43.8801267" lon="12.5115217"><ele>237.99999999999997</ele><time>2026-04-04T07:14:26.378Z</time></trkpt><trkpt lat="43.8801083" lon="12.5114117"><ele>238.0</ele><time>2026-04-04T07:14:28.378Z</time></trkpt><trkpt lat="43.8800867" lon="12.51129"><ele>238.0</ele><time>2026-04-04T07:14:30.378Z</time></trkpt><trkpt lat="43.8800533" lon="12.5111467"><ele>238.0</ele><time>2026-04-04T07:14:32.379Z</time></trkpt><trkpt lat="43.88002" lon="12.5110317"><ele>237.99999999999997</ele><time>2026-04-04T07:14:35.378Z</time></trkpt><trkpt lat="43.8800233" lon="12.5109267"><ele>238.0</ele><time>2026-04-04T07:14:37.379Z</time></trkpt><trkpt lat="43.88006" lon="12.5107667"><ele>237.8</ele><time>2026-04-04T07:14:39.378Z</time></trkpt><trkpt lat="43.880105" lon="12.5106167"><ele>237.60000000000002</ele><time>2026-04-04T07:14:41.378Z</time></trkpt><trkpt lat="43.8801333" lon="12.5104917"><ele>237.39999999999998</ele><time>2026-04-04T07:14:43.379Z</time></trkpt><trkpt lat="43.8801083" lon="12.5103133"><ele>237.2</ele><time>2026-04-04T07:14:45.379Z</time></trkpt><trkpt lat="43.8800917" lon="12.5102183"><ele>237.0</ele><time>2026-04-04T07:14:46.378Z</time></trkpt><trkpt lat="43.8800783" lon="12.5101217"><ele>237.0</ele><time>2026-04-04T07:14:47.378Z</time></trkpt><trkpt lat="43.8800617" lon="12.5100317"><ele>237.0</ele><time>2026-04-04T07:14:48.379Z</time></trkpt><trkpt lat="43.8800517" lon="12.50993"><ele>237.0</ele><time>2026-04-04T07:14:49.378Z</time></trkpt><trkpt lat="43.8800383" lon="12.5098333"><ele>237.0</ele><time>2026-04-04T07:14:50.378Z</time></trkpt><trkpt lat="43.880035" lon="12.50974"><ele>237.0</ele><time>2026-04-04T07:14:51.378Z</time></trkpt><trkpt lat="43.8800317" lon="12.5096517"><ele>237.0</ele><time>2026-04-04T07:14:52.378Z</time></trkpt><trkpt lat="43.87999" lon="12.509515"><ele>238.0</ele><time>2026-04-04T07:14:54.378Z</time></trkpt><trkpt lat="43.8799217" lon="12.50941"><ele>239.0</ele><time>2026-04-04T07:14:56.379Z</time></trkpt><trkpt lat="43.8798517" lon="12.5092967"><ele>240.0</ele><time>2026-04-04T07:14:58.378Z</time></trkpt><trkpt lat="43.879825" lon="12.5092167"><ele>241.0</ele><time>2026-04-04T07:14:59.379Z</time></trkpt><trkpt lat="43.87979" lon="12.5091267"><ele>242.0</ele><time>2026-04-04T07:15:00.379Z</time></trkpt><trkpt lat="43.8797533" lon="12.5090367"><ele>243.0</ele><time>2026-04-04T07:15:01.378Z</time></trkpt><trkpt lat="43.87972" lon="12.508955"><ele>243.0</ele><time>2026-04-04T07:15:02.379Z</time></trkpt><trkpt lat="43.8796783" lon="12.5088533"><ele>243.0</ele><time>2026-04-04T07:15:04.379Z</time></trkpt><trkpt lat="43.8796667" lon="12.5087317"><ele>243.0</ele><time>2026-04-04T07:15:07.378Z</time></trkpt><trkpt lat="43.8797217" lon="12.5086117"><ele>243.0</ele><time>2026-04-04T07:15:09.378Z</time></trkpt><trkpt lat="43.8797933" lon="12.5084783"><ele>243.0</ele><time>2026-04-04T07:15:11.379Z</time></trkpt><trkpt lat="43.8798667" lon="12.5084267"><ele>243.5</ele><time>2026-04-04T07:15:13.379Z</time></trkpt><trkpt lat="43.8799367" lon="12.5083883"><ele>244.0</ele><time>2026-04-04T07:15:16.379Z</time></trkpt><trkpt lat="43.8800183" lon="12.5083667"><ele>244.5</ele><time>2026-04-04T07:15:18.38Z</time></trkpt><trkpt lat="43.8800983" lon="12.5083483"><ele>245.0</ele><time>2026-04-04T07:15:20.38Z</time></trkpt><trkpt lat="43.8801633" lon="12.50832"><ele>245.5</ele><time>2026-04-04T07:15:23.38Z</time></trkpt><trkpt lat="43.8801517" lon="12.508215"><ele>246.0</ele><time>2026-04-04T07:15:25.379Z</time></trkpt><trkpt lat="43.88011" lon="12.5081183"><ele>246.0</ele><time>2026-04-04T07:15:26.38Z</time></trkpt><trkpt lat="43.8800517" lon="12.5079917"><ele>246.0</ele><time>2026-04-04T07:15:27.379Z</time></trkpt><trkpt lat="43.8799917" lon="12.5078533"><ele>246.0</ele><time>2026-04-04T07:15:28.38Z</time></trkpt><trkpt lat="43.8799283" lon="12.5077133"><ele>246.0</ele><time>2026-04-04T07:15:29.379Z</time></trkpt><trkpt lat="43.8798667" lon="12.507575"><ele>247.0</ele><time>2026-04-04T07:15:30.38Z</time></trkpt><trkpt lat="43.879805" lon="12.5074267"><ele>248.0</ele><time>2026-04-04T07:15:31.379Z</time></trkpt><trkpt lat="43.8797467" lon="12.5072717"><ele>249.0</ele><time>2026-04-04T07:15:32.379Z</time></trkpt><trkpt lat="43.8796883" lon="12.5071167"><ele>250.0</ele><time>2026-04-04T07:15:33.38Z</time></trkpt><trkpt lat="43.8796317" lon="12.5069683"><ele>251.75</ele><time>2026-04-04T07:15:34.379Z</time></trkpt><trkpt lat="43.8795933" lon="12.5068083"><ele>253.5</ele><time>2026-04-04T07:15:35.379Z</time></trkpt><trkpt lat="43.87955" lon="12.5066583"><ele>255.25</ele><time>2026-04-04T07:15:36.379Z</time></trkpt><trkpt lat="43.8795167" lon="12.5064933"><ele>257.0</ele><time>2026-04-04T07:15:37.38Z</time></trkpt><trkpt lat="43.8794883" lon="12.5063367"><ele>258.0</ele><time>2026-04-04T07:15:38.38Z</time></trkpt><trkpt lat="43.8794617" lon="12.5061833"><ele>259.0</ele><time>2026-04-04T07:15:39.379Z</time></trkpt><trkpt lat="43.879435" lon="12.506055"><ele>260.0</ele><time>2026-04-04T07:15:40.379Z</time></trkpt><trkpt lat="43.8794133" lon="12.5059617"><ele>261.0</ele><time>2026-04-04T07:15:41.379Z</time></trkpt><trkpt lat="43.8794233" lon="12.5058583"><ele>262.0</ele><time>2026-04-04T07:15:43.379Z</time></trkpt><trkpt lat="43.8793783" lon="12.5059367"><ele>263.0</ele><time>2026-04-04T07:15:48.38Z</time></trkpt><trkpt lat="43.8794033" lon="12.5060433"><ele>263.0</ele><time>2026-04-04T07:15:49.379Z</time></trkpt><trkpt lat="43.8794317" lon="12.50617"><ele>263.0</ele><time>2026-04-04T07:15:50.38Z</time></trkpt><trkpt lat="43.879465" lon="12.506315"><ele>263.0</ele><time>2026-04-04T07:15:51.38Z</time></trkpt><trkpt lat="43.8795033" lon="12.50648"><ele>263.0</ele><time>2026-04-04T07:15:52.38Z</time></trkpt><trkpt lat="43.8795417" lon="12.5066617"><ele>261.5</ele><time>2026-04-04T07:15:53.379Z</time></trkpt><trkpt lat="43.8795867" lon="12.506845"><ele>260.0</ele><time>2026-04-04T07:15:54.379Z</time></trkpt><trkpt lat="43.8796417" lon="12.5070217"><ele>258.5</ele><time>2026-04-04T07:15:55.379Z</time></trkpt><trkpt lat="43.8797067" lon="12.5071917"><ele>257.0</ele><time>2026-04-04T07:15:56.379Z</time></trkpt><trkpt lat="43.879775" lon="12.5073667"><ele>255.25</ele><time>2026-04-04T07:15:57.379Z</time></trkpt><trkpt lat="43.8798467" lon="12.507535"><ele>253.5</ele><time>2026-04-04T07:15:58.379Z</time></trkpt><trkpt lat="43.8799183" lon="12.5076967"><ele>251.75</ele><time>2026-04-04T07:15:59.379Z</time></trkpt><trkpt lat="43.8799883" lon="12.507855"><ele>250.0</ele><time>2026-04-04T07:16:00.379Z</time></trkpt><trkpt lat="43.8800533" lon="12.5080033"><ele>249.33333333333331</ele><time>2026-04-04T07:16:01.379Z</time></trkpt><trkpt lat="43.8801033" lon="12.5081283"><ele>248.66666666666666</ele><time>2026-04-04T07:16:02.379Z</time></trkpt><trkpt lat="43.8801383" lon="12.5082267"><ele>248.0</ele><time>2026-04-04T07:16:03.38Z</time></trkpt><trkpt lat="43.8801733" lon="12.5083267"><ele>247.33333333333331</ele><time>2026-04-04T07:16:05.379Z</time></trkpt><trkpt lat="43.8800933" lon="12.5083783"><ele>246.66666666666666</ele><time>2026-04-04T07:16:08.38Z</time></trkpt><trkpt lat="43.8800067" lon="12.5083883"><ele>246.0</ele><time>2026-04-04T07:16:10.379Z</time></trkpt><trkpt lat="43.8799133" lon="12.50842"><ele>246.0</ele><time>2026-04-04T07:16:12.38Z</time></trkpt><trkpt lat="43.87982" lon="12.5084817"><ele>246.0</ele><time>2026-04-04T07:16:14.38Z</time></trkpt><trkpt lat="43.8797583" lon="12.5085783"><ele>246.0</ele><time>2026-04-04T07:16:16.379Z</time></trkpt><trkpt lat="43.8797167" lon="12.5086833"><ele>246.0</ele><time>2026-04-04T07:16:18.379Z</time></trkpt><trkpt lat="43.879685" lon="12.508765"><ele>246.0</ele><time>2026-04-04T07:16:20.379Z</time></trkpt><trkpt lat="43.8797133" lon="12.5088967"><ele>246.0</ele><time>2026-04-04T07:16:22.38Z</time></trkpt><trkpt lat="43.879745" lon="12.5089833"><ele>245.5</ele><time>2026-04-04T07:16:23.379Z</time></trkpt><trkpt lat="43.8797817" lon="12.5090667"><ele>245.0</ele><time>2026-04-04T07:16:24.379Z</time></trkpt><trkpt lat="43.8798117" lon="12.5091517"><ele>244.5</ele><time>2026-04-04T07:16:25.379Z</time></trkpt><trkpt lat="43.879865" lon="12.5092883"><ele>244.0</ele><time>2026-04-04T07:16:27.379Z</time></trkpt><trkpt lat="43.8799333" lon="12.50941"><ele>243.5</ele><time>2026-04-04T07:16:29.38Z</time></trkpt><trkpt lat="43.879985" lon="12.5094867"><ele>243.0</ele><time>2026-04-04T07:16:31.38Z</time></trkpt><trkpt lat="43.8800233" lon="12.509585"><ele>243.5</ele><time>2026-04-04T07:16:34.38Z</time></trkpt><trkpt lat="43.8800467" lon="12.5096983"><ele>244.0</ele><time>2026-04-04T07:16:36.38Z</time></trkpt><trkpt lat="43.8800533" lon="12.5098417"><ele>244.5</ele><time>2026-04-04T07:16:38.38Z</time></trkpt><trkpt lat="43.8800567" lon="12.50994"><ele>245.0</ele><time>2026-04-04T07:16:39.38Z</time></trkpt><trkpt lat="43.88007" lon="12.510045"><ele>245.5</ele><time>2026-04-04T07:16:40.379Z</time></trkpt><trkpt lat="43.8800883" lon="12.5101367"><ele>246.0</ele><time>2026-04-04T07:16:41.38Z</time></trkpt><trkpt lat="43.8801033" lon="12.5102267"><ele>246.0</ele><time>2026-04-04T07:16:42.379Z</time></trkpt><trkpt lat="43.88011" lon="12.5103167"><ele>246.00000000000003</ele><time>2026-04-04T07:16:43.379Z</time></trkpt><trkpt lat="43.8801217" lon="12.5104667"><ele>246.00000000000003</ele><time>2026-04-04T07:16:45.38Z</time></trkpt><trkpt lat="43.8801033" lon="12.510615"><ele>246.0</ele><time>2026-04-04T07:16:47.38Z</time></trkpt><trkpt lat="43.8800617" lon="12.51077"><ele>246.0</ele><time>2026-04-04T07:16:49.379Z</time></trkpt><trkpt lat="43.8800383" lon="12.5108833"><ele>244.4</ele><time>2026-04-04T07:16:51.379Z</time></trkpt><trkpt lat="43.8800317" lon="12.5110033"><ele>242.8</ele><time>2026-04-04T07:16:54.379Z</time></trkpt><trkpt lat="43.880055" lon="12.5111183"><ele>241.20000000000002</ele><time>2026-04-04T07:16:56.379Z</time></trkpt><trkpt lat="43.8800867" lon="12.511275"><ele>239.60000000000002</ele><time>2026-04-04T07:16:58.379Z</time></trkpt><trkpt lat="43.88012" lon="12.5114367"><ele>238.0</ele><time>2026-04-04T07:17:00.379Z</time></trkpt><trkpt lat="43.88015" lon="12.5115683"><ele>238.0</ele><time>2026-04-04T07:17:02.379Z</time></trkpt><trkpt lat="43.8801783" lon="12.5116833"><ele>238.0</ele><time>2026-04-04T07:17:04.38Z</time></trkpt><trkpt lat="43.8801983" lon="12.5117883"><ele>238.0</ele><time>2026-04-04T07:17:07.379Z</time></trkpt><trkpt lat="43.8801183" lon="12.51182"><ele>238.0</ele><time>2026-04-04T07:17:11.379Z</time></trkpt><trkpt lat="43.8800533" lon="12.5118417"><ele>238.0</ele><time>2026-04-04T07:17:14.38Z</time></trkpt><trkpt lat="43.8801217" lon="12.51185"><ele>238.0</ele><time>2026-04-04T07:19:54.38Z</time></trkpt><trkpt lat="43.88017" lon="12.5117933"><ele>238.0</ele><time>2026-04-04T07:19:56.379Z</time></trkpt><trkpt lat="43.8801867" lon="12.5116833"><ele>237.99999999999997</ele><time>2026-04-04T07:19:58.379Z</time></trkpt><trkpt lat="43.880175" lon="12.5115967"><ele>238.0</ele><time>2026-04-04T07:19:59.38Z</time></trkpt><trkpt lat="43.8801517" lon="12.5114917"><ele>238.0</ele><time>2026-04-04T07:20:00.379Z</time></trkpt><trkpt lat="43.8801183" lon="12.5113817"><ele>238.0</ele><time>2026-04-04T07:20:01.379Z</time></trkpt><trkpt lat="43.8800933" lon="12.5112733"><ele>237.99999999999997</ele><time>2026-04-04T07:20:02.38Z</time></trkpt><trkpt lat="43.8800717" lon="12.5111883"><ele>238.0</ele><time>2026-04-04T07:20:03.38Z</time></trkpt><trkpt lat="43.8800367" lon="12.5110717"><ele>237.60000000000002</ele><time>2026-04-04T07:20:05.379Z</time></trkpt><trkpt lat="43.88002" lon="12.5109317"><ele>237.20000000000002</ele><time>2026-04-04T07:20:07.379Z</time></trkpt><trkpt lat="43.8800567" lon="12.51075"><ele>236.8</ele><time>2026-04-04T07:20:09.379Z</time></trkpt><trkpt lat="43.8800767" lon="12.5106517"><ele>236.4</ele><time>2026-04-04T07:20:10.379Z</time></trkpt><trkpt lat="43.8801183" lon="12.5105"><ele>236.0</ele><time>2026-04-04T07:20:12.38Z</time></trkpt><trkpt lat="43.8801133" lon="12.5103333"><ele>236.16666666666669</ele><time>2026-04-04T07:20:14.38Z</time></trkpt><trkpt lat="43.880105" lon="12.510225"><ele>236.33333333333334</ele><time>2026-04-04T07:20:15.38Z</time></trkpt><trkpt lat="43.8800817" lon="12.5101"><ele>236.5</ele><time>2026-04-04T07:20:16.38Z</time></trkpt><trkpt lat="43.88006" lon="12.50997"><ele>236.66666666666669</ele><time>2026-04-04T07:20:17.38Z</time></trkpt><trkpt lat="43.88004" lon="12.50985"><ele>236.83333333333334</ele><time>2026-04-04T07:20:18.38Z</time></trkpt><trkpt lat="43.8800283" lon="12.5097433"><ele>237.0</ele><time>2026-04-04T07:20:19.379Z</time></trkpt><trkpt lat="43.8800017" lon="12.5095883"><ele>238.0</ele><time>2026-04-04T07:20:21.38Z</time></trkpt><trkpt lat="43.8799683" lon="12.5094967"><ele>239.0</ele><time>2026-04-04T07:20:23.379Z</time></trkpt><trkpt lat="43.8799067" lon="12.5094033"><ele>240.0</ele><time>2026-04-04T07:20:28.379Z</time></trkpt><trkpt lat="43.879865" lon="12.5093267"><ele>241.0</ele><time>2026-04-04T07:20:29.379Z</time></trkpt><trkpt lat="43.8798233" lon="12.5092233"><ele>242.0</ele><time>2026-04-04T07:20:30.38Z</time></trkpt><trkpt lat="43.87978" lon="12.5091183"><ele>243.0</ele><time>2026-04-04T07:20:31.38Z</time></trkpt><trkpt lat="43.8797383" lon="12.509015"><ele>243.0</ele><time>2026-04-04T07:20:32.38Z</time></trkpt><trkpt lat="43.8796983" lon="12.5089283"><ele>243.0</ele><time>2026-04-04T07:20:33.379Z</time></trkpt><trkpt lat="43.8796533" lon="12.5088267"><ele>243.0</ele><time>2026-04-04T07:20:35.379Z</time></trkpt><trkpt lat="43.8796517" lon="12.5087383"><ele>243.0</ele><time>2026-04-04T07:20:37.379Z</time></trkpt><trkpt lat="43.8797" lon="12.508615"><ele>243.0</ele><time>2026-04-04T07:20:39.379Z</time></trkpt><trkpt lat="43.879745" lon="12.5085333"><ele>243.0</ele><time>2026-04-04T07:20:40.379Z</time></trkpt><trkpt lat="43.8797933" lon="12.50847"><ele>243.5</ele><time>2026-04-04T07:20:41.379Z</time></trkpt><trkpt lat="43.8798467" lon="12.5084217"><ele>244.0</ele><time>2026-04-04T07:20:42.379Z</time></trkpt><trkpt lat="43.8799483" lon="12.5083817"><ele>244.5</ele><time>2026-04-04T07:20:44.379Z</time></trkpt><trkpt lat="43.880045" lon="12.508375"><ele>245.0</ele><time>2026-04-04T07:20:46.379Z</time></trkpt><trkpt lat="43.8801167" lon="12.5083617"><ele>245.5</ele><time>2026-04-04T07:20:48.379Z</time></trkpt><trkpt lat="43.88016" lon="12.5082467"><ele>246.0</ele><time>2026-04-04T07:21:00.379Z</time></trkpt><trkpt lat="43.8801133" lon="12.5081433"><ele>246.0</ele><time>2026-04-04T07:21:01.38Z</time></trkpt><trkpt lat="43.880055" lon="12.50802"><ele>246.0</ele><time>2026-04-04T07:21:02.379Z</time></trkpt><trkpt lat="43.8799983" lon="12.50788"><ele>246.0</ele><time>2026-04-04T07:21:03.38Z</time></trkpt><trkpt lat="43.8799433" lon="12.5077333"><ele>246.0</ele><time>2026-04-04T07:21:04.38Z</time></trkpt><trkpt lat="43.8798767" lon="12.5075833"><ele>247.0</ele><time>2026-04-04T07:21:05.38Z</time></trkpt><trkpt lat="43.8798083" lon="12.50742"><ele>248.0</ele><time>2026-04-04T07:21:06.379Z</time></trkpt><trkpt lat="43.8797417" lon="12.50726"><ele>249.0</ele><time>2026-04-04T07:21:07.38Z</time></trkpt><trkpt lat="43.87968" lon="12.507085"><ele>250.0</ele><time>2026-04-04T07:21:08.379Z</time></trkpt><trkpt lat="43.879625" lon="12.5069"><ele>252.33333333333331</ele><time>2026-04-04T07:21:09.379Z</time></trkpt><trkpt lat="43.8795733" lon="12.506705"><ele>254.66666666666669</ele><time>2026-04-04T07:21:10.379Z</time></trkpt><trkpt lat="43.8795333" lon="12.5065"><ele>257.0</ele><time>2026-04-04T07:21:11.38Z</time></trkpt><trkpt lat="43.8794933" lon="12.50629"><ele>259.0</ele><time>2026-04-04T07:21:12.38Z</time></trkpt><trkpt lat="43.8794433" lon="12.5060917"><ele>261.0</ele><time>2026-04-04T07:21:13.379Z</time></trkpt><trkpt lat="43.8793867" lon="12.5058817"><ele>263.0</ele><time>2026-04-04T07:21:14.379Z</time></trkpt><trkpt lat="43.8793067" lon="12.5056717"><ele>262.0</ele><time>2026-04-04T07:21:15.379Z</time></trkpt><trkpt lat="43.87921" lon="12.505475"><ele>261.0</ele><time>2026-04-04T07:21:16.38Z</time></trkpt><trkpt lat="43.8791067" lon="12.505285"><ele>260.0</ele><time>2026-04-04T07:21:17.38Z</time></trkpt><trkpt lat="43.8790067" lon="12.5050967"><ele>260.0</ele><time>2026-04-04T07:21:18.379Z</time></trkpt><trkpt lat="43.8789033" lon="12.5049083"><ele>260.0</ele><time>2026-04-04T07:21:19.379Z</time></trkpt><trkpt lat="43.8787967" lon="12.5047083"><ele>260.0</ele><time>2026-04-04T07:21:20.379Z</time></trkpt><trkpt lat="43.878695" lon="12.50451"><ele>258.6666666666667</ele><time>2026-04-04T07:21:21.379Z</time></trkpt><trkpt lat="43.8785867" lon="12.50432"><ele>257.3333333333333</ele><time>2026-04-04T07:21:22.379Z</time></trkpt><trkpt lat="43.8784833" lon="12.504125"><ele>256.0</ele><time>2026-04-04T07:21:23.379Z</time></trkpt><trkpt lat="43.8783817" lon="12.5039367"><ele>258.66666666666663</ele><time>2026-04-04T07:21:24.379Z</time></trkpt><trkpt lat="43.8782783" lon="12.5037417"><ele>261.3333333333333</ele><time>2026-04-04T07:21:25.379Z</time></trkpt><trkpt lat="43.8781817" lon="12.5035483"><ele>264.0</ele><time>2026-04-04T07:21:26.38Z</time></trkpt><trkpt lat="43.8781" lon="12.5033467"><ele>264.0</ele><time>2026-04-04T07:21:27.379Z</time></trkpt><trkpt lat="43.8780133" lon="12.5031417"><ele>264.0</ele><time>2026-04-04T07:21:28.38Z</time></trkpt><trkpt lat="43.87793" lon="12.5029383"><ele>264.0</ele><time>2026-04-04T07:21:29.38Z</time></trkpt><trkpt lat="43.877845" lon="12.5027267"><ele>263.3333333333333</ele><time>2026-04-04T07:21:30.379Z</time></trkpt><trkpt lat="43.8777583" lon="12.5025167"><ele>262.66666666666663</ele><time>2026-04-04T07:21:31.379Z</time></trkpt><trkpt lat="43.877665" lon="12.5023"><ele>262.0</ele><time>2026-04-04T07:21:32.38Z</time></trkpt><trkpt lat="43.8775717" lon="12.502075"><ele>262.0</ele><time>2026-04-04T07:21:33.379Z</time></trkpt><trkpt lat="43.87748" lon="12.501855"><ele>262.0</ele><time>2026-04-04T07:21:34.38Z</time></trkpt><trkpt lat="43.8773867" lon="12.501635"><ele>262.0</ele><time>2026-04-04T07:21:35.379Z</time></trkpt><trkpt lat="43.8772917" lon="12.5014167"><ele>263.66666666666663</ele><time>2026-04-04T07:21:36.379Z</time></trkpt><trkpt lat="43.8771967" lon="12.5012017"><ele>265.3333333333333</ele><time>2026-04-04T07:21:37.38Z</time></trkpt><trkpt lat="43.8770983" lon="12.50099"><ele>267.0</ele><time>2026-04-04T07:21:38.379Z</time></trkpt><trkpt lat="43.8770067" lon="12.500775"><ele>267.0</ele><time>2026-04-04T07:21:39.379Z</time></trkpt><trkpt lat="43.876915" lon="12.5005517"><ele>267.0</ele><time>2026-04-04T07:21:40.379Z</time></trkpt><trkpt lat="43.8768217" lon="12.5003283"><ele>267.0</ele><time>2026-04-04T07:21:41.379Z</time></trkpt><trkpt lat="43.876735" lon="12.5001"><ele>267.0</ele><time>2026-04-04T07:21:42.38Z</time></trkpt><trkpt lat="43.8766483" lon="12.4998783"><ele>267.0</ele><time>2026-04-04T07:21:43.379Z</time></trkpt><trkpt lat="43.8765617" lon="12.4996583"><ele>267.0</ele><time>2026-04-04T07:21:44.379Z</time></trkpt><trkpt lat="43.876475" lon="12.4994483"><ele>267.0</ele><time>2026-04-04T07:21:45.379Z</time></trkpt><trkpt lat="43.8763967" lon="12.4992383"><ele>267.0</ele><time>2026-04-04T07:21:46.38Z</time></trkpt><trkpt lat="43.8763283" lon="12.49902"><ele>267.0</ele><time>2026-04-04T07:21:47.38Z</time></trkpt><trkpt lat="43.8762683" lon="12.4988067"><ele>268.25</ele><time>2026-04-04T07:21:48.38Z</time></trkpt><trkpt lat="43.87622" lon="12.4986083"><ele>269.5</ele><time>2026-04-04T07:21:49.379Z</time></trkpt><trkpt lat="43.8761783" lon="12.4984283"><ele>270.75</ele><time>2026-04-04T07:21:50.379Z</time></trkpt><trkpt lat="43.8761533" lon="12.4982633"><ele>272.0</ele><time>2026-04-04T07:21:51.38Z</time></trkpt><trkpt lat="43.876125" lon="12.49811"><ele>272.0</ele><time>2026-04-04T07:21:52.379Z</time></trkpt><trkpt lat="43.876105" lon="12.4979717"><ele>272.0</ele><time>2026-04-04T07:21:53.379Z</time></trkpt><trkpt lat="43.8760883" lon="12.49785"><ele>272.0</ele><time>2026-04-04T07:21:54.38Z</time></trkpt><trkpt lat="43.87608" lon="12.497735"><ele>272.0</ele><time>2026-04-04T07:21:55.379Z</time></trkpt><trkpt lat="43.8760767" lon="12.4976317"><ele>272.0</ele><time>2026-04-04T07:21:56.379Z</time></trkpt><trkpt lat="43.876075" lon="12.4975317"><ele>272.0</ele><time>2026-04-04T07:21:57.38Z</time></trkpt><trkpt lat="43.8760667" lon="12.4973667"><ele>272.0</ele><time>2026-04-04T07:21:59.379Z</time></trkpt><trkpt lat="43.8760483" lon="12.4972583"><ele>272.0</ele><time>2026-04-04T07:22:01.379Z</time></trkpt><trkpt lat="43.8759883" lon="12.4970817"><ele>272.0</ele><time>2026-04-04T07:24:48.379Z</time></trkpt><trkpt lat="43.8759233" lon="12.4969717"><ele>272.0</ele><time>2026-04-04T07:24:50.38Z</time></trkpt><trkpt lat="43.875875" lon="12.4968967"><ele>272.0</ele><time>2026-04-04T07:24:51.379Z</time></trkpt><trkpt lat="43.8758183" lon="12.49681"><ele>272.0</ele><time>2026-04-04T07:24:52.379Z</time></trkpt><trkpt lat="43.8757567" lon="12.4967167"><ele>272.0</ele><time>2026-04-04T07:24:53.38Z</time></trkpt><trkpt lat="43.8756933" lon="12.496615"><ele>272.0</ele><time>2026-04-04T07:24:54.379Z</time></trkpt><trkpt lat="43.8756433" lon="12.4965317"><ele>272.0</ele><time>2026-04-04T07:24:55.379Z</time></trkpt><trkpt lat="43.8755817" lon="12.4964467"><ele>272.0</ele><time>2026-04-04T07:24:56.379Z</time></trkpt><trkpt lat="43.87551" lon="12.4963533"><ele>273.2</ele><time>2026-04-04T07:24:57.379Z</time></trkpt><trkpt lat="43.8754317" lon="12.496245"><ele>274.4</ele><time>2026-04-04T07:24:58.379Z</time></trkpt><trkpt lat="43.8753567" lon="12.4961417"><ele>275.6</ele><time>2026-04-04T07:24:59.379Z</time></trkpt><trkpt lat="43.8752783" lon="12.4960433"><ele>276.8</ele><time>2026-04-04T07:25:00.379Z</time></trkpt><trkpt lat="43.875195" lon="12.495955"><ele>278.0</ele><time>2026-04-04T07:25:01.379Z</time></trkpt><trkpt lat="43.8751083" lon="12.4958817"><ele>277.5</ele><time>2026-04-04T07:25:02.38Z</time></trkpt><trkpt lat="43.8750117" lon="12.495805"><ele>277.0</ele><time>2026-04-04T07:25:03.38Z</time></trkpt><trkpt lat="43.8749167" lon="12.4957183"><ele>276.5</ele><time>2026-04-04T07:25:04.379Z</time></trkpt><trkpt lat="43.8748167" lon="12.4956317"><ele>276.0</ele><time>2026-04-04T07:25:05.38Z</time></trkpt><trkpt lat="43.8747017" lon="12.4955583"><ele>276.0</ele><time>2026-04-04T07:25:06.379Z</time></trkpt><trkpt lat="43.8745817" lon="12.4954817"><ele>276.0</ele><time>2026-04-04T07:25:07.379Z</time></trkpt><trkpt lat="43.8744567" lon="12.4954"><ele>276.0</ele><time>2026-04-04T07:25:08.379Z</time></trkpt><trkpt lat="43.8743283" lon="12.4953183"><ele>276.0</ele><time>2026-04-04T07:25:09.379Z</time></trkpt><trkpt lat="43.8742017" lon="12.49524"><ele>278.0</ele><time>2026-04-04T07:25:10.379Z</time></trkpt><trkpt lat="43.8740783" lon="12.49516"><ele>280.0</ele><time>2026-04-04T07:25:11.38Z</time></trkpt><trkpt lat="43.873965" lon="12.49506"><ele>282.0</ele><time>2026-04-04T07:25:12.38Z</time></trkpt><trkpt lat="43.8738583" lon="12.4949483"><ele>284.0</ele><time>2026-04-04T07:25:13.38Z</time></trkpt><trkpt lat="43.8737517" lon="12.4948233"><ele>284.0</ele><time>2026-04-04T07:25:14.38Z</time></trkpt><trkpt lat="43.8736517" lon="12.4946917"><ele>284.0</ele><time>2026-04-04T07:25:15.38Z</time></trkpt><trkpt lat="43.8735417" lon="12.4945717"><ele>284.0</ele><time>2026-04-04T07:25:16.38Z</time></trkpt><trkpt lat="43.8734317" lon="12.4944433"><ele>284.0</ele><time>2026-04-04T07:25:17.379Z</time></trkpt><trkpt lat="43.8733167" lon="12.494325"><ele>284.25</ele><time>2026-04-04T07:25:18.38Z</time></trkpt><trkpt lat="43.8732079" lon="12.4942069"><ele>284.5</ele><time>2026-04-04T07:25:19.379Z</time></trkpt><trkpt lat="43.8731011" lon="12.4940876"><ele>284.75</ele><time>2026-04-04T07:25:20.38Z</time></trkpt><trkpt lat="43.8729903" lon="12.4939671"><ele>285.0</ele><time>2026-04-04T07:25:21.379Z</time></trkpt><trkpt lat="43.872878" lon="12.4938473"><ele>285.5</ele><time>2026-04-04T07:25:22.379Z</time></trkpt><trkpt lat="43.8727681" lon="12.4937325"><ele>286.0</ele><time>2026-04-04T07:25:23.38Z</time></trkpt><trkpt lat="43.8726607" lon="12.4936111"><ele>286.5</ele><time>2026-04-04T07:25:24.379Z</time></trkpt><trkpt lat="43.8725502" lon="12.493487"><ele>287.0</ele><time>2026-04-04T07:25:25.38Z</time></trkpt><trkpt lat="43.87244" lon="12.4933631"><ele>287.0</ele><time>2026-04-04T07:25:26.38Z</time></trkpt><trkpt lat="43.8723288" lon="12.4932328"><ele>287.0</ele><time>2026-04-04T07:25:27.38Z</time></trkpt><trkpt lat="43.8722194" lon="12.4930978"><ele>287.0</ele><time>2026-04-04T07:25:28.38Z</time></trkpt><trkpt lat="43.872108" lon="12.4929647"><ele>287.0</ele><time>2026-04-04T07:25:29.379Z</time></trkpt><trkpt lat="43.8719933" lon="12.4928351"><ele>286.75</ele><time>2026-04-04T07:25:30.38Z</time></trkpt><trkpt lat="43.8718797" lon="12.4927033"><ele>286.5</ele><time>2026-04-04T07:25:31.379Z</time></trkpt><trkpt lat="43.8717666" lon="12.4925754"><ele>286.25</ele><time>2026-04-04T07:25:32.379Z</time></trkpt><trkpt lat="43.8716551" lon="12.4924614"><ele>286.0</ele><time>2026-04-04T07:25:33.38Z</time></trkpt><trkpt lat="43.8715534" lon="12.4923442"><ele>286.0</ele><time>2026-04-04T07:25:34.38Z</time></trkpt><trkpt lat="43.8714637" lon="12.4922184"><ele>286.0</ele><time>2026-04-04T07:25:35.38Z</time></trkpt><trkpt lat="43.8713811" lon="12.4920745"><ele>286.0</ele><time>2026-04-04T07:25:36.379Z</time></trkpt><trkpt lat="43.871308" lon="12.4919216"><ele>286.0</ele><time>2026-04-04T07:25:37.379Z</time></trkpt><trkpt lat="43.8712525" lon="12.4917648"><ele>290.0</ele><time>2026-04-04T07:25:38.379Z</time></trkpt><trkpt lat="43.8712037" lon="12.4916243"><ele>294.0</ele><time>2026-04-04T07:25:39.38Z</time></trkpt><trkpt lat="43.8711564" lon="12.4914909"><ele>298.0</ele><time>2026-04-04T07:25:40.38Z</time></trkpt><trkpt lat="43.8711066" lon="12.4913538"><ele>302.0</ele><time>2026-04-04T07:25:41.38Z</time></trkpt><trkpt lat="43.8710494" lon="12.4912083"><ele>300.25</ele><time>2026-04-04T07:25:42.379Z</time></trkpt><trkpt lat="43.8709819" lon="12.491057"><ele>298.5</ele><time>2026-04-04T07:25:43.379Z</time></trkpt><trkpt lat="43.8709113" lon="12.4908981"><ele>296.75</ele><time>2026-04-04T07:25:44.379Z</time></trkpt><trkpt lat="43.8708319" lon="12.4907422"><ele>295.0</ele><time>2026-04-04T07:25:45.38Z</time></trkpt><trkpt lat="43.8707442" lon="12.4905973"><ele>295.0</ele><time>2026-04-04T07:25:46.379Z</time></trkpt><trkpt lat="43.8706577" lon="12.4904457"><ele>295.0</ele><time>2026-04-04T07:25:47.379Z</time></trkpt><trkpt lat="43.8705735" lon="12.4902869"><ele>295.0</ele><time>2026-04-04T07:25:48.38Z</time></trkpt><trkpt lat="43.8704957" lon="12.4901286"><ele>295.0</ele><time>2026-04-04T07:25:49.379Z</time></trkpt><trkpt lat="43.8704228" lon="12.4899786"><ele>296.8</ele><time>2026-04-04T07:25:50.379Z</time></trkpt><trkpt lat="43.8703728" lon="12.489833"><ele>298.6</ele><time>2026-04-04T07:25:51.379Z</time></trkpt><trkpt lat="43.8703483" lon="12.4896917"><ele>300.4</ele><time>2026-04-04T07:25:52.38Z</time></trkpt><trkpt lat="43.8703267" lon="12.4895667"><ele>302.2</ele><time>2026-04-04T07:25:53.379Z</time></trkpt><trkpt lat="43.8703083" lon="12.48946"><ele>304.0</ele><time>2026-04-04T07:25:54.38Z</time></trkpt><trkpt lat="43.870315" lon="12.4893333"><ele>304.3333333333333</ele><time>2026-04-04T07:25:56.38Z</time></trkpt><trkpt lat="43.870335" lon="12.4891783"><ele>304.66666666666663</ele><time>2026-04-04T07:25:58.379Z</time></trkpt><trkpt lat="43.8702717" lon="12.4890733"><ele>305.0</ele><time>2026-04-04T07:26:00.379Z</time></trkpt><trkpt lat="43.8702067" lon="12.4890617"><ele>305.3333333333333</ele><time>2026-04-04T07:26:01.38Z</time></trkpt><trkpt lat="43.8701383" lon="12.48907"><ele>305.6666666666667</ele><time>2026-04-04T07:26:02.38Z</time></trkpt><trkpt lat="43.8700733" lon="12.4890717"><ele>306.0</ele><time>2026-04-04T07:26:03.38Z</time></trkpt><trkpt lat="43.869995" lon="12.4890833"><ele>303.8333333333333</ele><time>2026-04-04T07:26:04.38Z</time></trkpt><trkpt lat="43.8699067" lon="12.4890933"><ele>301.6666666666667</ele><time>2026-04-04T07:26:05.379Z</time></trkpt><trkpt lat="43.8698183" lon="12.4891033"><ele>299.5</ele><time>2026-04-04T07:26:06.38Z</time></trkpt><trkpt lat="43.8697267" lon="12.489115"><ele>297.33333333333337</ele><time>2026-04-04T07:26:07.379Z</time></trkpt><trkpt lat="43.8696483" lon="12.4891083"><ele>295.1666666666667</ele><time>2026-04-04T07:26:08.38Z</time></trkpt><trkpt lat="43.8695667" lon="12.4890533"><ele>293.0</ele><time>2026-04-04T07:26:09.38Z</time></trkpt><trkpt lat="43.8695017" lon="12.4889567"><ele>293.0</ele><time>2026-04-04T07:26:10.38Z</time></trkpt><trkpt lat="43.869445" lon="12.4888183"><ele>293.0</ele><time>2026-04-04T07:26:11.379Z</time></trkpt><trkpt lat="43.8693883" lon="12.4886717"><ele>293.0</ele><time>2026-04-04T07:26:12.38Z</time></trkpt><trkpt lat="43.86933" lon="12.4885183"><ele>293.0</ele><time>2026-04-04T07:26:13.379Z</time></trkpt><trkpt lat="43.869275" lon="12.4883633"><ele>293.0</ele><time>2026-04-04T07:26:14.38Z</time></trkpt><trkpt lat="43.8692217" lon="12.4882033"><ele>293.0</ele><time>2026-04-04T07:26:15.379Z</time></trkpt><trkpt lat="43.8691667" lon="12.48806"><ele>293.0</ele><time>2026-04-04T07:26:16.379Z</time></trkpt><trkpt lat="43.8691067" lon="12.487925"><ele>293.0</ele><time>2026-04-04T07:26:17.38Z</time></trkpt><trkpt lat="43.8690167" lon="12.4878183"><ele>293.0</ele><time>2026-04-04T07:26:18.38Z</time></trkpt><trkpt lat="43.8689133" lon="12.4877367"><ele>293.0</ele><time>2026-04-04T07:26:19.379Z</time></trkpt><trkpt lat="43.8687983" lon="12.4876667"><ele>293.0</ele><time>2026-04-04T07:26:20.379Z</time></trkpt><trkpt lat="43.868675" lon="12.4875967"><ele>293.0</ele><time>2026-04-04T07:26:21.379Z</time></trkpt><trkpt lat="43.86856" lon="12.4875033"><ele>293.0</ele><time>2026-04-04T07:26:22.379Z</time></trkpt><trkpt lat="43.8684583" lon="12.4873867"><ele>293.0</ele><time>2026-04-04T07:26:23.379Z</time></trkpt><trkpt lat="43.8683717" lon="12.4872533"><ele>293.0</ele><time>2026-04-04T07:26:24.379Z</time></trkpt><trkpt lat="43.8683033" lon="12.48709"><ele>293.0</ele><time>2026-04-04T07:26:25.38Z</time></trkpt><trkpt lat="43.8682333" lon="12.4869317"><ele>295.75</ele><time>2026-04-04T07:26:26.379Z</time></trkpt><trkpt lat="43.868145" lon="12.486795"><ele>298.5</ele><time>2026-04-04T07:26:27.379Z</time></trkpt><trkpt lat="43.86804" lon="12.4866783"><ele>301.25</ele><time>2026-04-04T07:26:28.38Z</time></trkpt><trkpt lat="43.8679233" lon="12.48659"><ele>304.0</ele><time>2026-04-04T07:26:29.38Z</time></trkpt><trkpt lat="43.8678" lon="12.486535"><ele>304.0</ele><time>2026-04-04T07:26:30.379Z</time></trkpt><trkpt lat="43.8676767" lon="12.4865067"><ele>304.0</ele><time>2026-04-04T07:26:31.38Z</time></trkpt><trkpt lat="43.86755" lon="12.4864733"><ele>304.0</ele><time>2026-04-04T07:26:32.379Z</time></trkpt><trkpt lat="43.867425" lon="12.4864017"><ele>304.0</ele><time>2026-04-04T07:26:33.379Z</time></trkpt><trkpt lat="43.8673033" lon="12.4862983"><ele>305.5</ele><time>2026-04-04T07:26:34.379Z</time></trkpt><trkpt lat="43.867205" lon="12.4861817"><ele>307.0</ele><time>2026-04-04T07:26:35.379Z</time></trkpt><trkpt lat="43.8671167" lon="12.48606"><ele>308.5</ele><time>2026-04-04T07:26:36.379Z</time></trkpt><trkpt lat="43.8670233" lon="12.4859417"><ele>310.0</ele><time>2026-04-04T07:26:37.38Z</time></trkpt><trkpt lat="43.8669283" lon="12.4858267"><ele>310.0</ele><time>2026-04-04T07:26:38.379Z</time></trkpt><trkpt lat="43.8668317" lon="12.48572"><ele>310.0</ele><time>2026-04-04T07:26:39.38Z</time></trkpt><trkpt lat="43.8667283" lon="12.4856067"><ele>310.0</ele><time>2026-04-04T07:26:40.379Z</time></trkpt><trkpt lat="43.8666133" lon="12.4855"><ele>310.0</ele><time>2026-04-04T07:26:41.379Z</time></trkpt><trkpt lat="43.8664933" lon="12.48542"><ele>310.75</ele><time>2026-04-04T07:26:42.379Z</time></trkpt><trkpt lat="43.8663717" lon="12.4853583"><ele>311.5</ele><time>2026-04-04T07:26:43.38Z</time></trkpt><trkpt lat="43.8662633" lon="12.4852833"><ele>312.25</ele><time>2026-04-04T07:26:44.379Z</time></trkpt><trkpt lat="43.8661717" lon="12.4851917"><ele>313.0</ele><time>2026-04-04T07:26:45.38Z</time></trkpt><trkpt lat="43.8660983" lon="12.48508"><ele>313.0</ele><time>2026-04-04T07:26:46.38Z</time></trkpt><trkpt lat="43.8660517" lon="12.4849417"><ele>313.0</ele><time>2026-04-04T07:26:47.38Z</time></trkpt><trkpt lat="43.8660183" lon="12.4847833"><ele>313.0</ele><time>2026-04-04T07:26:48.38Z</time></trkpt><trkpt lat="43.866" lon="12.4846117"><ele>313.0</ele><time>2026-04-04T07:26:49.379Z</time></trkpt><trkpt lat="43.8659883" lon="12.484445"><ele>312.8</ele><time>2026-04-04T07:26:50.38Z</time></trkpt><trkpt lat="43.8659733" lon="12.4842867"><ele>312.6</ele><time>2026-04-04T07:26:51.38Z</time></trkpt><trkpt lat="43.8659567" lon="12.484125"><ele>312.4</ele><time>2026-04-04T07:26:52.379Z</time></trkpt><trkpt lat="43.86595" lon="12.4839783"><ele>312.2</ele><time>2026-04-04T07:26:53.379Z</time></trkpt><trkpt lat="43.86594" lon="12.4838417"><ele>312.0</ele><time>2026-04-04T07:26:54.379Z</time></trkpt><trkpt lat="43.8659383" lon="12.48371"><ele>312.4</ele><time>2026-04-04T07:26:55.379Z</time></trkpt><trkpt lat="43.86594" lon="12.48358"><ele>312.79999999999995</ele><time>2026-04-04T07:26:56.379Z</time></trkpt><trkpt lat="43.865955" lon="12.4834567"><ele>313.2</ele><time>2026-04-04T07:26:57.379Z</time></trkpt><trkpt lat="43.86597" lon="12.4833217"><ele>313.59999999999997</ele><time>2026-04-04T07:26:58.379Z</time></trkpt><trkpt lat="43.8659783" lon="12.483165"><ele>314.0</ele><time>2026-04-04T07:26:59.379Z</time></trkpt><trkpt lat="43.8659833" lon="12.482985"><ele>318.25</ele><time>2026-04-04T07:27:00.379Z</time></trkpt><trkpt lat="43.8659817" lon="12.482785"><ele>322.5</ele><time>2026-04-04T07:27:01.38Z</time></trkpt><trkpt lat="43.8659817" lon="12.4825767"><ele>326.75</ele><time>2026-04-04T07:27:02.379Z</time></trkpt><trkpt lat="43.865995" lon="12.482385"><ele>331.0</ele><time>2026-04-04T07:27:03.38Z</time></trkpt><trkpt lat="43.8659983" lon="12.4822183"><ele>330.5</ele><time>2026-04-04T07:27:04.38Z</time></trkpt><trkpt lat="43.8659867" lon="12.4820517"><ele>330.0</ele><time>2026-04-04T07:27:05.379Z</time></trkpt><trkpt lat="43.8659667" lon="12.4818833"><ele>329.5</ele><time>2026-04-04T07:27:06.38Z</time></trkpt><trkpt lat="43.8659383" lon="12.48172"><ele>329.0</ele><time>2026-04-04T07:27:07.379Z</time></trkpt><trkpt lat="43.8659133" lon="12.481545"><ele>329.0</ele><time>2026-04-04T07:27:08.379Z</time></trkpt><trkpt lat="43.8658983" lon="12.4813867"><ele>329.0</ele><time>2026-04-04T07:27:09.379Z</time></trkpt><trkpt lat="43.865885" lon="12.4812367"><ele>329.0</ele><time>2026-04-04T07:27:10.38Z</time></trkpt><trkpt lat="43.8658433" lon="12.48109"><ele>329.0</ele><time>2026-04-04T07:27:11.379Z</time></trkpt><trkpt lat="43.8657817" lon="12.4809517"><ele>330.5</ele><time>2026-04-04T07:27:12.38Z</time></trkpt><trkpt lat="43.8656867" lon="12.4808333"><ele>332.0</ele><time>2026-04-04T07:27:13.38Z</time></trkpt><trkpt lat="43.86558" lon="12.4807133"><ele>333.5</ele><time>2026-04-04T07:27:14.38Z</time></trkpt><trkpt lat="43.8654667" lon="12.4806083"><ele>335.0</ele><time>2026-04-04T07:27:15.38Z</time></trkpt><trkpt lat="43.8653517" lon="12.4805067"><ele>335.25</ele><time>2026-04-04T07:27:16.38Z</time></trkpt><trkpt lat="43.8652417" lon="12.4803917"><ele>335.5</ele><time>2026-04-04T07:27:17.38Z</time></trkpt><trkpt lat="43.8651467" lon="12.48026"><ele>335.75</ele><time>2026-04-04T07:27:18.38Z</time></trkpt><trkpt lat="43.8650633" lon="12.4801"><ele>336.0</ele><time>2026-04-04T07:27:19.38Z</time></trkpt><trkpt lat="43.8649933" lon="12.479915"><ele>336.0</ele><time>2026-04-04T07:27:20.379Z</time></trkpt><trkpt lat="43.8649317" lon="12.4797333"><ele>336.0</ele><time>2026-04-04T07:27:21.379Z</time></trkpt><trkpt lat="43.864875" lon="12.479545"><ele>336.0</ele><time>2026-04-04T07:27:22.379Z</time></trkpt><trkpt lat="43.8648183" lon="12.479365"><ele>336.0</ele><time>2026-04-04T07:27:23.38Z</time></trkpt><trkpt lat="43.864755" lon="12.4791833"><ele>339.0</ele><time>2026-04-04T07:27:24.38Z</time></trkpt><trkpt lat="43.8646933" lon="12.4790017"><ele>342.0</ele><time>2026-04-04T07:27:25.379Z</time></trkpt><trkpt lat="43.864625" lon="12.4788183"><ele>345.0</ele><time>2026-04-04T07:27:26.379Z</time></trkpt><trkpt lat="43.86455" lon="12.478645"><ele>348.0</ele><time>2026-04-04T07:27:27.379Z</time></trkpt><trkpt lat="43.8644667" lon="12.4784633"><ele>348.0</ele><time>2026-04-04T07:27:28.379Z</time></trkpt><trkpt lat="43.86436" lon="12.478295"><ele>348.0</ele><time>2026-04-04T07:27:29.379Z</time></trkpt><trkpt lat="43.86425" lon="12.4781417"><ele>348.0</ele><time>2026-04-04T07:27:30.379Z</time></trkpt><trkpt lat="43.8641233" lon="12.4780083"><ele>352.3333333333333</ele><time>2026-04-04T07:27:31.38Z</time></trkpt><trkpt lat="43.8639917" lon="12.477885"><ele>356.66666666666663</ele><time>2026-04-04T07:27:32.38Z</time></trkpt><trkpt lat="43.8638533" lon="12.4777717"><ele>361.0</ele><time>2026-04-04T07:27:33.379Z</time></trkpt><trkpt lat="43.8637083" lon="12.477695"><ele>361.0</ele><time>2026-04-04T07:27:34.379Z</time></trkpt><trkpt lat="43.863555" lon="12.4776417"><ele>361.0</ele><time>2026-04-04T07:27:35.379Z</time></trkpt><trkpt lat="43.8634083" lon="12.4775833"><ele>361.0</ele><time>2026-04-04T07:27:36.379Z</time></trkpt><trkpt lat="43.8632633" lon="12.477525"><ele>359.0</ele><time>2026-04-04T07:27:37.38Z</time></trkpt><trkpt lat="43.8631283" lon="12.4774367"><ele>357.0</ele><time>2026-04-04T07:27:38.379Z</time></trkpt><trkpt lat="43.862995" lon="12.4773417"><ele>355.0</ele><time>2026-04-04T07:27:39.38Z</time></trkpt><trkpt lat="43.862865" lon="12.4772417"><ele>353.0</ele><time>2026-04-04T07:27:40.379Z</time></trkpt><trkpt lat="43.86273" lon="12.4771367"><ele>354.0</ele><time>2026-04-04T07:27:41.38Z</time></trkpt><trkpt lat="43.8625883" lon="12.4770233"><ele>355.0</ele><time>2026-04-04T07:27:42.38Z</time></trkpt><trkpt lat="43.8624433" lon="12.4769117"><ele>356.0</ele><time>2026-04-04T07:27:43.38Z</time></trkpt><trkpt lat="43.8623033" lon="12.476795"><ele>356.0</ele><time>2026-04-04T07:27:44.379Z</time></trkpt><trkpt lat="43.8621567" lon="12.4766817"><ele>356.0</ele><time>2026-04-04T07:27:45.379Z</time></trkpt><trkpt lat="43.8620167" lon="12.4765617"><ele>356.0</ele><time>2026-04-04T07:27:46.38Z</time></trkpt><trkpt lat="43.8618717" lon="12.4764483"><ele>358.0</ele><time>2026-04-04T07:27:47.38Z</time></trkpt><trkpt lat="43.8617333" lon="12.47633"><ele>360.0</ele><time>2026-04-04T07:27:48.38Z</time></trkpt><trkpt lat="43.8615983" lon="12.4762117"><ele>362.0</ele><time>2026-04-04T07:27:49.379Z</time></trkpt><trkpt lat="43.8614733" lon="12.4760967"><ele>362.0</ele><time>2026-04-04T07:27:50.379Z</time></trkpt><trkpt lat="43.8613617" lon="12.4759883"><ele>362.0</ele><time>2026-04-04T07:27:51.38Z</time></trkpt><trkpt lat="43.861255" lon="12.475895"><ele>362.0</ele><time>2026-04-04T07:27:52.379Z</time></trkpt><trkpt lat="43.8611533" lon="12.4757933"><ele>362.0</ele><time>2026-04-04T07:27:53.38Z</time></trkpt><trkpt lat="43.8610517" lon="12.475685"><ele>362.0</ele><time>2026-04-04T07:27:54.38Z</time></trkpt><trkpt lat="43.8609517" lon="12.475575"><ele>362.0</ele><time>2026-04-04T07:27:55.379Z</time></trkpt><trkpt lat="43.86085" lon="12.4754667"><ele>362.0</ele><time>2026-04-04T07:27:56.38Z</time></trkpt><trkpt lat="43.8607467" lon="12.47536"><ele>362.0</ele><time>2026-04-04T07:27:57.379Z</time></trkpt><trkpt lat="43.8606617" lon="12.4752217"><ele>361.75</ele><time>2026-04-04T07:27:58.38Z</time></trkpt><trkpt lat="43.8605617" lon="12.4751183"><ele>361.5</ele><time>2026-04-04T07:27:59.379Z</time></trkpt><trkpt lat="43.860455" lon="12.4750183"><ele>361.25</ele><time>2026-04-04T07:28:00.379Z</time></trkpt><trkpt lat="43.8603483" lon="12.4749133"><ele>361.0</ele><time>2026-04-04T07:28:01.38Z</time></trkpt><trkpt lat="43.8602267" lon="12.4748267"><ele>357.0</ele><time>2026-04-04T07:28:02.38Z</time></trkpt><trkpt lat="43.8600983" lon="12.4747583"><ele>353.0</ele><time>2026-04-04T07:28:03.379Z</time></trkpt><trkpt lat="43.859965" lon="12.4747117"><ele>349.0</ele><time>2026-04-04T07:28:04.38Z</time></trkpt><trkpt lat="43.8598233" lon="12.4746933"><ele>345.0</ele><time>2026-04-04T07:28:05.379Z</time></trkpt><trkpt lat="43.85968" lon="12.474695"><ele>345.0</ele><time>2026-04-04T07:28:06.38Z</time></trkpt><trkpt lat="43.8595517" lon="12.4747233"><ele>345.0</ele><time>2026-04-04T07:28:07.38Z</time></trkpt><trkpt lat="43.8594217" lon="12.4747683"><ele>345.0</ele><time>2026-04-04T07:28:08.379Z</time></trkpt><trkpt lat="43.8593033" lon="12.4748233"><ele>345.0</ele><time>2026-04-04T07:28:09.38Z</time></trkpt><trkpt lat="43.85919" lon="12.4748733"><ele>346.8</ele><time>2026-04-04T07:28:10.379Z</time></trkpt><trkpt lat="43.8590933" lon="12.4748983"><ele>348.6</ele><time>2026-04-04T07:28:11.38Z</time></trkpt><trkpt lat="43.8589917" lon="12.4748617"><ele>350.4</ele><time>2026-04-04T07:28:12.379Z</time></trkpt><trkpt lat="43.85892" lon="12.4747983"><ele>352.2</ele><time>2026-04-04T07:28:13.38Z</time></trkpt><trkpt lat="43.8588617" lon="12.474705"><ele>354.0</ele><time>2026-04-04T07:28:14.379Z</time></trkpt><trkpt lat="43.8588167" lon="12.4745933"><ele>357.25</ele><time>2026-04-04T07:28:15.379Z</time></trkpt><trkpt lat="43.8587833" lon="12.4744583"><ele>360.5</ele><time>2026-04-04T07:28:16.379Z</time></trkpt><trkpt lat="43.858755" lon="12.47431"><ele>363.75</ele><time>2026-04-04T07:28:17.379Z</time></trkpt><trkpt lat="43.8587267" lon="12.4741467"><ele>367.0</ele><time>2026-04-04T07:28:18.379Z</time></trkpt><trkpt lat="43.858685" lon="12.4739867"><ele>367.0</ele><time>2026-04-04T07:28:19.379Z</time></trkpt><trkpt lat="43.8586483" lon="12.4738083"><ele>367.0</ele><time>2026-04-04T07:28:20.379Z</time></trkpt><trkpt lat="43.8585933" lon="12.4736467"><ele>367.0</ele><time>2026-04-04T07:28:21.379Z</time></trkpt><trkpt lat="43.8585333" lon="12.4734833"><ele>367.0</ele><time>2026-04-04T07:28:22.38Z</time></trkpt><trkpt lat="43.8584667" lon="12.4733217"><ele>366.0</ele><time>2026-04-04T07:28:23.379Z</time></trkpt><trkpt lat="43.8584067" lon="12.4731633"><ele>365.0</ele><time>2026-04-04T07:28:24.379Z</time></trkpt><trkpt lat="43.8583467" lon="12.4730067"><ele>364.0</ele><time>2026-04-04T07:28:25.38Z</time></trkpt><trkpt lat="43.85828" lon="12.4728583"><ele>363.0</ele><time>2026-04-04T07:28:26.379Z</time></trkpt><trkpt lat="43.8582133" lon="12.4727117"><ele>363.0</ele><time>2026-04-04T07:28:27.38Z</time></trkpt><trkpt lat="43.85815" lon="12.4725567"><ele>363.0</ele><time>2026-04-04T07:28:28.38Z</time></trkpt><trkpt lat="43.858085" lon="12.4723967"><ele>363.0</ele><time>2026-04-04T07:28:29.379Z</time></trkpt><trkpt lat="43.85803" lon="12.47224"><ele>363.0</ele><time>2026-04-04T07:28:30.38Z</time></trkpt><trkpt lat="43.8579833" lon="12.4720783"><ele>366.0</ele><time>2026-04-04T07:28:31.38Z</time></trkpt><trkpt lat="43.8579483" lon="12.4719167"><ele>369.0</ele><time>2026-04-04T07:28:32.379Z</time></trkpt><trkpt lat="43.8579367" lon="12.471745"><ele>372.0</ele><time>2026-04-04T07:28:33.379Z</time></trkpt><trkpt lat="43.8579217" lon="12.471575"><ele>375.0</ele><time>2026-04-04T07:28:34.38Z</time></trkpt><trkpt lat="43.8579033" lon="12.4714167"><ele>375.0</ele><time>2026-04-04T07:28:35.379Z</time></trkpt><trkpt lat="43.8578767" lon="12.471285"><ele>375.0</ele><time>2026-04-04T07:28:36.379Z</time></trkpt><trkpt lat="43.8578467" lon="12.4711783"><ele>375.0</ele><time>2026-04-04T07:28:37.379Z</time></trkpt><trkpt lat="43.8578183" lon="12.47109"><ele>375.0</ele><time>2026-04-04T07:28:38.38Z</time></trkpt><trkpt lat="43.8577567" lon="12.470945"><ele>375.0</ele><time>2026-04-04T07:28:40.38Z</time></trkpt><trkpt lat="43.857715" lon="12.470845"><ele>376.2</ele><time>2026-04-04T07:28:41.379Z</time></trkpt><trkpt lat="43.8576533" lon="12.4707517"><ele>377.4</ele><time>2026-04-04T07:28:42.38Z</time></trkpt><trkpt lat="43.857585" lon="12.47066"><ele>378.6</ele><time>2026-04-04T07:28:43.379Z</time></trkpt><trkpt lat="43.8575017" lon="12.4705717"><ele>379.8</ele><time>2026-04-04T07:28:44.38Z</time></trkpt><trkpt lat="43.8574117" lon="12.470485"><ele>381.0</ele><time>2026-04-04T07:28:45.379Z</time></trkpt><trkpt lat="43.85731" lon="12.4703983"><ele>382.25</ele><time>2026-04-04T07:28:46.379Z</time></trkpt><trkpt lat="43.8572083" lon="12.4703167"><ele>383.5</ele><time>2026-04-04T07:28:47.38Z</time></trkpt><trkpt lat="43.8571067" lon="12.4702317"><ele>384.75</ele><time>2026-04-04T07:28:48.379Z</time></trkpt><trkpt lat="43.8570117" lon="12.470125"><ele>386.0</ele><time>2026-04-04T07:28:49.379Z</time></trkpt><trkpt lat="43.856915" lon="12.4700033"><ele>386.0</ele><time>2026-04-04T07:28:50.38Z</time></trkpt><trkpt lat="43.8568267" lon="12.4698517"><ele>386.0</ele><time>2026-04-04T07:28:51.38Z</time></trkpt><trkpt lat="43.85674" lon="12.4696983"><ele>386.0</ele><time>2026-04-04T07:28:52.38Z</time></trkpt><trkpt lat="43.8566467" lon="12.4695417"><ele>386.0</ele><time>2026-04-04T07:28:53.38Z</time></trkpt><trkpt lat="43.85655" lon="12.469385"><ele>385.66666666666663</ele><time>2026-04-04T07:28:54.38Z</time></trkpt><trkpt lat="43.8564533" lon="12.469225"><ele>385.33333333333337</ele><time>2026-04-04T07:28:55.379Z</time></trkpt><trkpt lat="43.8563517" lon="12.4690767"><ele>385.0</ele><time>2026-04-04T07:28:56.379Z</time></trkpt><trkpt lat="43.8562383" lon="12.4689333"><ele>385.0</ele><time>2026-04-04T07:28:57.38Z</time></trkpt><trkpt lat="43.8561217" lon="12.4687917"><ele>385.0</ele><time>2026-04-04T07:28:58.38Z</time></trkpt><trkpt lat="43.856" lon="12.468655"><ele>385.0</ele><time>2026-04-04T07:28:59.38Z</time></trkpt><trkpt lat="43.8558767" lon="12.468525"><ele>383.6666666666667</ele><time>2026-04-04T07:29:00.38Z</time></trkpt><trkpt lat="43.85574" lon="12.4684083"><ele>382.33333333333337</ele><time>2026-04-04T07:29:01.379Z</time></trkpt><trkpt lat="43.85559" lon="12.468325"><ele>381.0</ele><time>2026-04-04T07:29:02.38Z</time></trkpt><trkpt lat="43.85544" lon="12.468255"><ele>381.0</ele><time>2026-04-04T07:29:03.379Z</time></trkpt><trkpt lat="43.85529" lon="12.4682017"><ele>381.0</ele><time>2026-04-04T07:29:04.38Z</time></trkpt><trkpt lat="43.8551467" lon="12.4681333"><ele>381.0</ele><time>2026-04-04T07:29:05.379Z</time></trkpt><trkpt lat="43.8550083" lon="12.468055"><ele>385.66666666666663</ele><time>2026-04-04T07:29:06.379Z</time></trkpt><trkpt lat="43.854865" lon="12.467965"><ele>390.3333333333333</ele><time>2026-04-04T07:29:07.379Z</time></trkpt><trkpt lat="43.8547267" lon="12.46786"><ele>395.0</ele><time>2026-04-04T07:29:08.379Z</time></trkpt><trkpt lat="43.8545883" lon="12.4677533"><ele>395.0</ele><time>2026-04-04T07:29:09.38Z</time></trkpt><trkpt lat="43.854455" lon="12.4676333"><ele>395.0</ele><time>2026-04-04T07:29:10.379Z</time></trkpt><trkpt lat="43.8543217" lon="12.4675217"><ele>395.0</ele><time>2026-04-04T07:29:11.38Z</time></trkpt><trkpt lat="43.854185" lon="12.467435"><ele>387.66666666666663</ele><time>2026-04-04T07:29:12.38Z</time></trkpt><trkpt lat="43.854035" lon="12.46736"><ele>380.3333333333333</ele><time>2026-04-04T07:29:13.38Z</time></trkpt><trkpt lat="43.85389" lon="12.4672883"><ele>373.0</ele><time>2026-04-04T07:29:14.379Z</time></trkpt><trkpt lat="43.8537417" lon="12.46723"><ele>373.0</ele><time>2026-04-04T07:29:15.38Z</time></trkpt><trkpt lat="43.853585" lon="12.4672017"><ele>373.0</ele><time>2026-04-04T07:29:16.379Z</time></trkpt><trkpt lat="43.8534317" lon="12.467205"><ele>373.0</ele><time>2026-04-04T07:29:17.379Z</time></trkpt><trkpt lat="43.8532817" lon="12.4671883"><ele>369.0</ele><time>2026-04-04T07:29:18.379Z</time></trkpt><trkpt lat="43.85314" lon="12.4671533"><ele>365.0</ele><time>2026-04-04T07:29:19.379Z</time></trkpt><trkpt lat="43.853005" lon="12.4671033"><ele>361.0</ele><time>2026-04-04T07:29:20.38Z</time></trkpt><trkpt lat="43.8528833" lon="12.4670367"><ele>357.0</ele><time>2026-04-04T07:29:21.379Z</time></trkpt><trkpt lat="43.8527767" lon="12.4669583"><ele>359.75</ele><time>2026-04-04T07:29:22.379Z</time></trkpt><trkpt lat="43.85269" lon="12.4668567"><ele>362.5</ele><time>2026-04-04T07:29:23.379Z</time></trkpt><trkpt lat="43.8526267" lon="12.4667133"><ele>365.25</ele><time>2026-04-04T07:29:24.38Z</time></trkpt><trkpt lat="43.8525683" lon="12.4665533"><ele>368.0</ele><time>2026-04-04T07:29:25.379Z</time></trkpt><trkpt lat="43.8525017" lon="12.4664067"><ele>370.75</ele><time>2026-04-04T07:29:26.38Z</time></trkpt><trkpt lat="43.8524233" lon="12.4662717"><ele>373.5</ele><time>2026-04-04T07:29:27.379Z</time></trkpt><trkpt lat="43.8523233" lon="12.4661617"><ele>376.25</ele><time>2026-04-04T07:29:28.38Z</time></trkpt><trkpt lat="43.8522017" lon="12.4660767"><ele>379.0</ele><time>2026-04-04T07:29:29.379Z</time></trkpt><trkpt lat="43.8520667" lon="12.4660067"><ele>379.0</ele><time>2026-04-04T07:29:30.38Z</time></trkpt><trkpt lat="43.851935" lon="12.4659233"><ele>379.0</ele><time>2026-04-04T07:29:31.379Z</time></trkpt><trkpt lat="43.8518017" lon="12.465825"><ele>379.0</ele><time>2026-04-04T07:29:32.379Z</time></trkpt><trkpt lat="43.8516833" lon="12.465695"><ele>379.0</ele><time>2026-04-04T07:29:33.379Z</time></trkpt><trkpt lat="43.8515767" lon="12.465565"><ele>379.25</ele><time>2026-04-04T07:29:34.379Z</time></trkpt><trkpt lat="43.8514717" lon="12.4654317"><ele>379.5</ele><time>2026-04-04T07:29:35.379Z</time></trkpt><trkpt lat="43.85137" lon="12.465295"><ele>379.75</ele><time>2026-04-04T07:29:36.38Z</time></trkpt><trkpt lat="43.85127" lon="12.46517"><ele>380.0</ele><time>2026-04-04T07:29:37.38Z</time></trkpt><trkpt lat="43.851165" lon="12.4650667"><ele>380.0</ele><time>2026-04-04T07:29:38.38Z</time></trkpt><trkpt lat="43.8510517" lon="12.46497"><ele>380.0</ele><time>2026-04-04T07:29:39.379Z</time></trkpt><trkpt lat="43.8509317" lon="12.4648717"><ele>380.0</ele><time>2026-04-04T07:29:40.379Z</time></trkpt><trkpt lat="43.8507967" lon="12.4647833"><ele>380.0</ele><time>2026-04-04T07:29:41.379Z</time></trkpt><trkpt lat="43.850665" lon="12.4646983"><ele>377.5</ele><time>2026-04-04T07:29:42.38Z</time></trkpt><trkpt lat="43.8505333" lon="12.4646133"><ele>375.0</ele><time>2026-04-04T07:29:43.38Z</time></trkpt><trkpt lat="43.8504033" lon="12.4645267"><ele>372.5</ele><time>2026-04-04T07:29:44.379Z</time></trkpt><trkpt lat="43.8502667" lon="12.4644367"><ele>370.0</ele><time>2026-04-04T07:29:45.38Z</time></trkpt><trkpt lat="43.85013" lon="12.4643467"><ele>369.0</ele><time>2026-04-04T07:29:46.379Z</time></trkpt><trkpt lat="43.8500067" lon="12.4642417"><ele>368.0</ele><time>2026-04-04T07:29:47.379Z</time></trkpt><trkpt lat="43.849905" lon="12.4641133"><ele>367.0</ele><time>2026-04-04T07:29:48.38Z</time></trkpt><trkpt lat="43.849815" lon="12.4639583"><ele>366.0</ele><time>2026-04-04T07:29:49.379Z</time></trkpt><trkpt lat="43.8497183" lon="12.4637867"><ele>369.0</ele><time>2026-04-04T07:29:50.38Z</time></trkpt><trkpt lat="43.8496317" lon="12.46361"><ele>372.0</ele><time>2026-04-04T07:29:51.38Z</time></trkpt><trkpt lat="43.849545" lon="12.4634333"><ele>375.0</ele><time>2026-04-04T07:29:52.379Z</time></trkpt><trkpt lat="43.8494533" lon="12.4632483"><ele>375.0</ele><time>2026-04-04T07:29:53.379Z</time></trkpt><trkpt lat="43.8493633" lon="12.4630683"><ele>375.0</ele><time>2026-04-04T07:29:54.379Z</time></trkpt><trkpt lat="43.849285" lon="12.4629033"><ele>375.0</ele><time>2026-04-04T07:29:55.379Z</time></trkpt><trkpt lat="43.8492333" lon="12.462775"><ele>375.0</ele><time>2026-04-04T07:29:56.38Z</time></trkpt><trkpt lat="43.8492017" lon="12.4626767"><ele>375.2</ele><time>2026-04-04T07:29:57.38Z</time></trkpt><trkpt lat="43.8491583" lon="12.4625483"><ele>375.4</ele><time>2026-04-04T07:29:59.379Z</time></trkpt><trkpt lat="43.849075" lon="12.4625233"><ele>375.6</ele><time>2026-04-04T07:30:10.38Z</time></trkpt><trkpt lat="43.849135" lon="12.462635"><ele>375.8</ele><time>2026-04-04T07:30:12.38Z</time></trkpt><trkpt lat="43.8491817" lon="12.4627317"><ele>376.0</ele><time>2026-04-04T07:30:13.379Z</time></trkpt><trkpt lat="43.8492417" lon="12.4628367"><ele>375.8</ele><time>2026-04-04T07:30:14.379Z</time></trkpt><trkpt lat="43.8493117" lon="12.462955"><ele>375.6</ele><time>2026-04-04T07:30:15.38Z</time></trkpt><trkpt lat="43.8493633" lon="12.46308"><ele>375.4</ele><time>2026-04-04T07:30:16.38Z</time></trkpt><trkpt lat="43.8494133" lon="12.4631883"><ele>375.2</ele><time>2026-04-04T07:30:17.379Z</time></trkpt><trkpt lat="43.84947" lon="12.4633033"><ele>375.0</ele><time>2026-04-04T07:30:18.379Z</time></trkpt><trkpt lat="43.8495233" lon="12.4634183"><ele>375.0</ele><time>2026-04-04T07:30:19.379Z</time></trkpt><trkpt lat="43.8495717" lon="12.4635267"><ele>375.0</ele><time>2026-04-04T07:30:20.379Z</time></trkpt><trkpt lat="43.849625" lon="12.4636267"><ele>375.0</ele><time>2026-04-04T07:30:21.379Z</time></trkpt><trkpt lat="43.8496683" lon="12.4637183"><ele>375.0</ele><time>2026-04-04T07:30:22.379Z</time></trkpt><trkpt lat="43.84971" lon="12.4638"><ele>375.0</ele><time>2026-04-04T07:30:23.379Z</time></trkpt><trkpt lat="43.849765" lon="12.4639167"><ele>375.0</ele><time>2026-04-04T07:30:25.379Z</time></trkpt><trkpt lat="43.8497133" lon="12.463975"><ele>373.5</ele><time>2026-04-04T07:30:29.38Z</time></trkpt><trkpt lat="43.8496517" lon="12.46393"><ele>372.0</ele><time>2026-04-04T07:30:38.379Z</time></trkpt><trkpt lat="43.84963" lon="12.4638233"><ele>370.5</ele><time>2026-04-04T07:30:40.379Z</time></trkpt><trkpt lat="43.84966" lon="12.46393"><ele>369.0</ele><time>2026-04-04T07:30:50.379Z</time></trkpt><trkpt lat="43.8497217" lon="12.4640133"><ele>367.5</ele><time>2026-04-04T07:30:52.38Z</time></trkpt><trkpt lat="43.8497983" lon="12.464085"><ele>366.0</ele><time>2026-04-04T07:30:54.379Z</time></trkpt><trkpt lat="43.8498833" lon="12.4641783"><ele>366.0</ele><time>2026-04-04T07:30:56.38Z</time></trkpt><trkpt lat="43.8499067" lon="12.4642733"><ele>366.0</ele><time>2026-04-04T07:30:59.379Z</time></trkpt><trkpt lat="43.8498067" lon="12.464215"><ele>366.0</ele><time>2026-04-04T07:31:02.38Z</time></trkpt><trkpt lat="43.8496917" lon="12.4641333"><ele>366.0</ele><time>2026-04-04T07:31:04.379Z</time></trkpt><trkpt lat="43.8496183" lon="12.4640783"><ele>366.0</ele><time>2026-04-04T07:31:05.379Z</time></trkpt><trkpt lat="43.84955" lon="12.4640067"><ele>366.0</ele><time>2026-04-04T07:31:06.38Z</time></trkpt><trkpt lat="43.8494817" lon="12.4639417"><ele>366.0</ele><time>2026-04-04T07:31:07.379Z</time></trkpt><trkpt lat="43.8494083" lon="12.4638733"><ele>366.0</ele><time>2026-04-04T07:31:08.379Z</time></trkpt><trkpt lat="43.8493417" lon="12.46381"><ele>366.0</ele><time>2026-04-04T07:31:09.38Z</time></trkpt><trkpt lat="43.849275" lon="12.463755"><ele>366.0</ele><time>2026-04-04T07:31:10.379Z</time></trkpt><trkpt lat="43.8492083" lon="12.4637017"><ele>366.0</ele><time>2026-04-04T07:31:11.38Z</time></trkpt><trkpt lat="43.8491483" lon="12.4636567"><ele>366.0</ele><time>2026-04-04T07:31:12.38Z</time></trkpt><trkpt lat="43.8490517" lon="12.4636033"><ele>366.0</ele><time>2026-04-04T07:31:14.379Z</time></trkpt><trkpt lat="43.8489933" lon="12.4635683"><ele>366.0</ele><time>2026-04-04T07:31:16.379Z</time></trkpt><trkpt lat="43.84892" lon="12.463535"><ele>366.0</ele><time>2026-04-04T07:31:20.379Z</time></trkpt><trkpt lat="43.8488183" lon="12.4635383"><ele>366.0</ele><time>2026-04-04T07:31:23.38Z</time></trkpt><trkpt lat="43.8487267" lon="12.46355"><ele>366.0</ele><time>2026-04-04T07:31:25.379Z</time></trkpt><trkpt lat="43.8486583" lon="12.4635717"><ele>366.0</ele><time>2026-04-04T07:31:27.379Z</time></trkpt><trkpt lat="43.8485867" lon="12.4636167"><ele>366.0</ele><time>2026-04-04T07:31:29.38Z</time></trkpt><trkpt lat="43.8484883" lon="12.4636917"><ele>366.0</ele><time>2026-04-04T07:31:31.38Z</time></trkpt><trkpt lat="43.8484167" lon="12.463755"><ele>366.0</ele><time>2026-04-04T07:31:33.38Z</time></trkpt><trkpt lat="43.848345" lon="12.4638333"><ele>366.0</ele><time>2026-04-04T07:31:36.379Z</time></trkpt><trkpt lat="43.8482467" lon="12.4639567"><ele>360.3333333333333</ele><time>2026-04-04T07:32:30.379Z</time></trkpt><trkpt lat="43.8481733" lon="12.46408"><ele>354.66666666666663</ele><time>2026-04-04T07:32:31.379Z</time></trkpt><trkpt lat="43.84801" lon="12.464295"><ele>349.0</ele><time>2026-04-04T07:32:32.38Z</time></trkpt><trkpt lat="43.8478367" lon="12.464525"><ele>348.66666666666663</ele><time>2026-04-04T07:32:33.379Z</time></trkpt><trkpt lat="43.84769" lon="12.464715"><ele>348.3333333333333</ele><time>2026-04-04T07:32:34.38Z</time></trkpt><trkpt lat="43.8475717" lon="12.4648683"><ele>348.0</ele><time>2026-04-04T07:32:35.379Z</time></trkpt><trkpt lat="43.8474717" lon="12.4649983"><ele>348.0</ele><time>2026-04-04T07:32:36.379Z</time></trkpt><trkpt lat="43.847375" lon="12.4651183"><ele>348.0</ele><time>2026-04-04T07:32:37.379Z</time></trkpt><trkpt lat="43.8472817" lon="12.465245"><ele>348.0</ele><time>2026-04-04T07:32:38.379Z</time></trkpt><trkpt lat="43.8471967" lon="12.4653567"><ele>348.0</ele><time>2026-04-04T07:32:39.379Z</time></trkpt><trkpt lat="43.84712" lon="12.4654583"><ele>348.0</ele><time>2026-04-04T07:32:40.379Z</time></trkpt><trkpt lat="43.8470483" lon="12.465535"><ele>348.0</ele><time>2026-04-04T07:32:41.379Z</time></trkpt><trkpt lat="43.846975" lon="12.46559"><ele>348.0</ele><time>2026-04-04T07:32:42.38Z</time></trkpt><trkpt lat="43.8468933" lon="12.4656217"><ele>348.0</ele><time>2026-04-04T07:32:43.38Z</time></trkpt><trkpt lat="43.84681" lon="12.46562"><ele>348.0</ele><time>2026-04-04T07:32:44.379Z</time></trkpt><trkpt lat="43.846735" lon="12.4655917"><ele>348.0</ele><time>2026-04-04T07:32:45.379Z</time></trkpt><trkpt lat="43.8466667" lon="12.46554"><ele>348.85714285714283</ele><time>2026-04-04T07:32:46.379Z</time></trkpt><trkpt lat="43.8466083" lon="12.4654817"><ele>349.7142857142857</ele><time>2026-04-04T07:32:47.38Z</time></trkpt><trkpt lat="43.8465583" lon="12.4654033"><ele>350.57142857142856</ele><time>2026-04-04T07:32:48.38Z</time></trkpt><trkpt lat="43.846505" lon="12.4653367"><ele>351.42857142857144</ele><time>2026-04-04T07:32:49.379Z</time></trkpt><trkpt lat="43.84646" lon="12.4652633"><ele>352.2857142857143</ele><time>2026-04-04T07:32:50.38Z</time></trkpt><trkpt lat="43.84642" lon="12.4651883"><ele>353.14285714285717</ele><time>2026-04-04T07:32:51.379Z</time></trkpt><trkpt lat="43.8463783" lon="12.4651217"><ele>354.0</ele><time>2026-04-04T07:32:52.379Z</time></trkpt><trkpt lat="43.8463317" lon="12.4650567"><ele>354.0</ele><time>2026-04-04T07:32:53.38Z</time></trkpt><trkpt lat="43.846285" lon="12.464985"><ele>354.0</ele><time>2026-04-04T07:32:54.379Z</time></trkpt><trkpt lat="43.8462367" lon="12.4649167"><ele>354.0</ele><time>2026-04-04T07:32:55.38Z</time></trkpt><trkpt lat="43.8461867" lon="12.46484"><ele>354.0</ele><time>2026-04-04T07:32:56.379Z</time></trkpt><trkpt lat="43.8461417" lon="12.4647767"><ele>354.0</ele><time>2026-04-04T07:32:57.379Z</time></trkpt><trkpt lat="43.846095" lon="12.464715"><ele>354.0</ele><time>2026-04-04T07:32:58.379Z</time></trkpt><trkpt lat="43.8460483" lon="12.46465"><ele>354.0</ele><time>2026-04-04T07:32:59.38Z</time></trkpt><trkpt lat="43.8460067" lon="12.4645817"><ele>355.6666666666667</ele><time>2026-04-04T07:33:00.379Z</time></trkpt><trkpt lat="43.8459483" lon="12.4645017"><ele>357.3333333333333</ele><time>2026-04-04T07:33:01.379Z</time></trkpt><trkpt lat="43.845885" lon="12.4644233"><ele>359.0</ele><time>2026-04-04T07:33:02.379Z</time></trkpt><trkpt lat="43.84582" lon="12.4643383"><ele>360.66666666666663</ele><time>2026-04-04T07:33:03.379Z</time></trkpt><trkpt lat="43.8457583" lon="12.4642517"><ele>362.3333333333333</ele><time>2026-04-04T07:33:04.379Z</time></trkpt><trkpt lat="43.845685" lon="12.46416"><ele>364.0</ele><time>2026-04-04T07:33:05.379Z</time></trkpt><trkpt lat="43.845605" lon="12.46406"><ele>364.0</ele><time>2026-04-04T07:33:06.379Z</time></trkpt><trkpt lat="43.8455283" lon="12.4639633"><ele>364.0</ele><time>2026-04-04T07:33:07.38Z</time></trkpt><trkpt lat="43.8454567" lon="12.4638617"><ele>364.0</ele><time>2026-04-04T07:33:08.38Z</time></trkpt><trkpt lat="43.8453867" lon="12.4637683"><ele>364.0</ele><time>2026-04-04T07:33:09.379Z</time></trkpt><trkpt lat="43.84531" lon="12.4636833"><ele>364.0</ele><time>2026-04-04T07:33:10.38Z</time></trkpt><trkpt lat="43.8452433" lon="12.4635917"><ele>362.3333333333333</ele><time>2026-04-04T07:33:11.379Z</time></trkpt><trkpt lat="43.8451733" lon="12.4634967"><ele>360.66666666666663</ele><time>2026-04-04T07:33:12.379Z</time></trkpt><trkpt lat="43.8451017" lon="12.4634083"><ele>359.0</ele><time>2026-04-04T07:33:13.379Z</time></trkpt><trkpt lat="43.8450317" lon="12.4633317"><ele>357.3333333333333</ele><time>2026-04-04T07:33:14.38Z</time></trkpt><trkpt lat="43.8449667" lon="12.4632567"><ele>355.6666666666667</ele><time>2026-04-04T07:33:15.38Z</time></trkpt><trkpt lat="43.8449017" lon="12.4631917"><ele>354.0</ele><time>2026-04-04T07:33:16.379Z</time></trkpt><trkpt lat="43.84484" lon="12.4631317"><ele>359.25</ele><time>2026-04-04T07:33:17.38Z</time></trkpt><trkpt lat="43.844785" lon="12.4630817"><ele>364.5</ele><time>2026-04-04T07:33:18.38Z</time></trkpt><trkpt lat="43.844715" lon="12.4630217"><ele>369.75</ele><time>2026-04-04T07:33:20.379Z</time></trkpt><trkpt lat="43.8448167" lon="12.4631183"><ele>375.0</ele><time>2026-04-04T07:33:43.379Z</time></trkpt><trkpt lat="43.844965" lon="12.46327"><ele>375.0</ele><time>2026-04-04T07:33:45.379Z</time></trkpt><trkpt lat="43.8450417" lon="12.4633617"><ele>375.0</ele><time>2026-04-04T07:33:46.379Z</time></trkpt><trkpt lat="43.8451117" lon="12.46345"><ele>375.0</ele><time>2026-04-04T07:33:47.379Z</time></trkpt><trkpt lat="43.8451833" lon="12.4635283"><ele>375.0</ele><time>2026-04-04T07:33:48.38Z</time></trkpt><trkpt lat="43.8452617" lon="12.4636317"><ele>375.0</ele><time>2026-04-04T07:33:50.38Z</time></trkpt><trkpt lat="43.8453233" lon="12.463665"><ele>372.8</ele><time>2026-04-04T07:34:01.379Z</time></trkpt><trkpt lat="43.84537" lon="12.463725"><ele>370.6</ele><time>2026-04-04T07:34:02.38Z</time></trkpt><trkpt lat="43.8454333" lon="12.4638067"><ele>368.4</ele><time>2026-04-04T07:34:03.38Z</time></trkpt><trkpt lat="43.8455133" lon="12.4639083"><ele>366.2</ele><time>2026-04-04T07:34:04.38Z</time></trkpt><trkpt lat="43.8456033" lon="12.4640317"><ele>364.0</ele><time>2026-04-04T07:34:05.379Z</time></trkpt><trkpt lat="43.845715" lon="12.464165"><ele>364.0</ele><time>2026-04-04T07:34:06.38Z</time></trkpt><trkpt lat="43.8458183" lon="12.4642967"><ele>364.0</ele><time>2026-04-04T07:34:07.38Z</time></trkpt><trkpt lat="43.8459067" lon="12.4644267"><ele>364.0</ele><time>2026-04-04T07:34:08.379Z</time></trkpt><trkpt lat="43.846" lon="12.4645533"><ele>364.0</ele><time>2026-04-04T07:34:09.379Z</time></trkpt><trkpt lat="43.8460833" lon="12.4646883"><ele>361.5</ele><time>2026-04-04T07:34:10.379Z</time></trkpt><trkpt lat="43.8461667" lon="12.4648233"><ele>359.0</ele><time>2026-04-04T07:34:11.38Z</time></trkpt><trkpt lat="43.8462517" lon="12.4649583"><ele>356.5</ele><time>2026-04-04T07:34:12.38Z</time></trkpt><trkpt lat="43.84633" lon="12.4651"><ele>354.0</ele><time>2026-04-04T07:34:13.379Z</time></trkpt><trkpt lat="43.8464133" lon="12.4652283"><ele>354.0</ele><time>2026-04-04T07:34:14.379Z</time></trkpt><trkpt lat="43.8464883" lon="12.4653617"><ele>354.0</ele><time>2026-04-04T07:34:15.379Z</time></trkpt><trkpt lat="43.8465617" lon="12.4654717"><ele>354.0</ele><time>2026-04-04T07:34:16.379Z</time></trkpt><trkpt lat="43.8466483" lon="12.4655583"><ele>354.0</ele><time>2026-04-04T07:34:17.379Z</time></trkpt><trkpt lat="43.8467433" lon="12.4656183"><ele>354.0</ele><time>2026-04-04T07:34:18.379Z</time></trkpt><trkpt lat="43.846835" lon="12.4656533"><ele>352.79999999999995</ele><time>2026-04-04T07:34:19.38Z</time></trkpt><trkpt lat="43.846915" lon="12.4656517"><ele>351.59999999999997</ele><time>2026-04-04T07:34:20.379Z</time></trkpt><trkpt lat="43.8469967" lon="12.4656117"><ele>350.4</ele><time>2026-04-04T07:34:21.379Z</time></trkpt><trkpt lat="43.847075" lon="12.4655483"><ele>349.2</ele><time>2026-04-04T07:34:22.38Z</time></trkpt><trkpt lat="43.8471567" lon="12.4654533"><ele>348.0</ele><time>2026-04-04T07:34:23.379Z</time></trkpt><trkpt lat="43.8472333" lon="12.4653367"><ele>347.25</ele><time>2026-04-04T07:34:24.379Z</time></trkpt><trkpt lat="43.8473167" lon="12.4652217"><ele>346.5</ele><time>2026-04-04T07:34:25.379Z</time></trkpt><trkpt lat="43.8474" lon="12.465105"><ele>345.75</ele><time>2026-04-04T07:34:26.379Z</time></trkpt><trkpt lat="43.847485" lon="12.4649833"><ele>345.0</ele><time>2026-04-04T07:34:27.38Z</time></trkpt><trkpt lat="43.84757" lon="12.464865"><ele>345.75</ele><time>2026-04-04T07:34:28.379Z</time></trkpt><trkpt lat="43.8476567" lon="12.4647433"><ele>346.5</ele><time>2026-04-04T07:34:29.379Z</time></trkpt><trkpt lat="43.8477467" lon="12.4646217"><ele>347.25</ele><time>2026-04-04T07:34:30.38Z</time></trkpt><trkpt lat="43.8478383" lon="12.4645033"><ele>348.0</ele><time>2026-04-04T07:34:31.38Z</time></trkpt><trkpt lat="43.847935" lon="12.4643833"><ele>348.25</ele><time>2026-04-04T07:34:32.379Z</time></trkpt><trkpt lat="43.848035" lon="12.46426"><ele>348.5</ele><time>2026-04-04T07:34:33.38Z</time></trkpt><trkpt lat="43.848135" lon="12.4641267"><ele>348.75</ele><time>2026-04-04T07:34:34.38Z</time></trkpt><trkpt lat="43.8482317" lon="12.46399"><ele>349.0</ele><time>2026-04-04T07:34:35.38Z</time></trkpt><trkpt lat="43.8483317" lon="12.4638733"><ele>349.4</ele><time>2026-04-04T07:34:36.379Z</time></trkpt><trkpt lat="43.8484267" lon="12.463765"><ele>349.79999999999995</ele><time>2026-04-04T07:34:37.379Z</time></trkpt><trkpt lat="43.848515" lon="12.4636883"><ele>350.20000000000005</ele><time>2026-04-04T07:34:38.379Z</time></trkpt><trkpt lat="43.8485983" lon="12.4636383"><ele>350.6</ele><time>2026-04-04T07:34:39.38Z</time></trkpt><trkpt lat="43.8486783" lon="12.4635967"><ele>351.0</ele><time>2026-04-04T07:34:40.379Z</time></trkpt><trkpt lat="43.8487517" lon="12.463575"><ele>353.5</ele><time>2026-04-04T07:34:41.38Z</time></trkpt><trkpt lat="43.8488167" lon="12.463565"><ele>356.0</ele><time>2026-04-04T07:34:42.379Z</time></trkpt><trkpt lat="43.8488983" lon="12.4635517"><ele>358.5</ele><time>2026-04-04T07:34:44.38Z</time></trkpt><trkpt lat="43.8489033" lon="12.4634533"><ele>361.0</ele><time>2026-04-04T07:34:48.38Z</time></trkpt><trkpt lat="43.848845" lon="12.4633967"><ele>363.5</ele><time>2026-04-04T07:34:50.379Z</time></trkpt><trkpt lat="43.84892" lon="12.4633733"><ele>366.0</ele><time>2026-04-04T07:34:55.379Z</time></trkpt><trkpt lat="43.84903" lon="12.4634583"><ele>366.0</ele><time>2026-04-04T07:34:57.38Z</time></trkpt><trkpt lat="43.8491117" lon="12.46352"><ele>366.0</ele><time>2026-04-04T07:34:58.38Z</time></trkpt><trkpt lat="43.8492033" lon="12.4635917"><ele>366.0</ele><time>2026-04-04T07:34:59.379Z</time></trkpt><trkpt lat="43.849295" lon="12.4636683"><ele>366.0</ele><time>2026-04-04T07:35:00.379Z</time></trkpt><trkpt lat="43.84939" lon="12.4637483"><ele>366.0</ele><time>2026-04-04T07:35:01.379Z</time></trkpt><trkpt lat="43.84948" lon="12.463815"><ele>366.0</ele><time>2026-04-04T07:35:02.379Z</time></trkpt><trkpt lat="43.8495567" lon="12.46387"><ele>366.0</ele><time>2026-04-04T07:35:03.379Z</time></trkpt><trkpt lat="43.8496167" lon="12.4639117"><ele>366.0</ele><time>2026-04-04T07:35:04.379Z</time></trkpt><trkpt lat="43.8496817" lon="12.4639733"><ele>366.0</ele><time>2026-04-04T07:35:06.379Z</time></trkpt><trkpt lat="43.8497383" lon="12.4640283"><ele>366.0</ele><time>2026-04-04T07:35:08.379Z</time></trkpt><trkpt lat="43.84966" lon="12.4639467"><ele>366.0</ele><time>2026-04-04T07:35:16.38Z</time></trkpt><trkpt lat="43.84962" lon="12.46385"><ele>367.5</ele><time>2026-04-04T07:35:18.379Z</time></trkpt><trkpt lat="43.8495767" lon="12.4636933"><ele>369.0</ele><time>2026-04-04T07:35:20.379Z</time></trkpt><trkpt lat="43.8495433" lon="12.46361"><ele>370.5</ele><time>2026-04-04T07:35:21.379Z</time></trkpt><trkpt lat="43.8495033" lon="12.46353"><ele>372.0</ele><time>2026-04-04T07:35:22.379Z</time></trkpt><trkpt lat="43.849455" lon="12.4634483"><ele>373.5</ele><time>2026-04-04T07:35:23.379Z</time></trkpt><trkpt lat="43.8494067" lon="12.4633567"><ele>375.0</ele><time>2026-04-04T07:35:24.379Z</time></trkpt><trkpt lat="43.849365" lon="12.46328"><ele>375.0</ele><time>2026-04-04T07:35:25.379Z</time></trkpt><trkpt lat="43.8493267" lon="12.4632017"><ele>375.0</ele><time>2026-04-04T07:35:26.38Z</time></trkpt><trkpt lat="43.8492867" lon="12.4631317"><ele>375.0</ele><time>2026-04-04T07:35:27.38Z</time></trkpt><trkpt lat="43.849245" lon="12.4630467"><ele>375.0</ele><time>2026-04-04T07:35:28.38Z</time></trkpt><trkpt lat="43.8491967" lon="12.462955"><ele>375.0</ele><time>2026-04-04T07:35:29.38Z</time></trkpt><trkpt lat="43.84915" lon="12.4628633"><ele>375.0</ele><time>2026-04-04T07:35:30.38Z</time></trkpt><trkpt lat="43.8491067" lon="12.4627683"><ele>375.1666666666667</ele><time>2026-04-04T07:35:31.38Z</time></trkpt><trkpt lat="43.8490567" lon="12.462675"><ele>375.3333333333333</ele><time>2026-04-04T07:35:32.379Z</time></trkpt><trkpt lat="43.84901" lon="12.4625883"><ele>375.5</ele><time>2026-04-04T07:35:33.38Z</time></trkpt><trkpt lat="43.8489667" lon="12.46251"><ele>375.66666666666663</ele><time>2026-04-04T07:35:34.38Z</time></trkpt><trkpt lat="43.8488967" lon="12.4623883"><ele>375.8333333333333</ele><time>2026-04-04T07:35:36.379Z</time></trkpt><trkpt lat="43.848865" lon="12.4623033"><ele>376.0</ele><time>2026-04-04T07:35:38.379Z</time></trkpt><trkpt lat="43.84892" lon="12.462375"><ele>376.0</ele><time>2026-04-04T07:35:56.38Z</time></trkpt><trkpt lat="43.8489867" lon="12.4624983"><ele>376.0</ele><time>2026-04-04T07:35:58.379Z</time></trkpt><trkpt lat="43.8490333" lon="12.4625883"><ele>376.0</ele><time>2026-04-04T07:35:59.38Z</time></trkpt><trkpt lat="43.849095" lon="12.46269"><ele>376.0</ele><time>2026-04-04T07:36:00.379Z</time></trkpt><trkpt lat="43.849145" lon="12.462795"><ele>376.0</ele><time>2026-04-04T07:36:01.38Z</time></trkpt><trkpt lat="43.849195" lon="12.462905"><ele>375.8</ele><time>2026-04-04T07:36:02.379Z</time></trkpt><trkpt lat="43.84925" lon="12.463015"><ele>375.6</ele><time>2026-04-04T07:36:03.379Z</time></trkpt><trkpt lat="43.8493083" lon="12.4631267"><ele>375.4</ele><time>2026-04-04T07:36:04.38Z</time></trkpt><trkpt lat="43.8493683" lon="12.46324"><ele>375.2</ele><time>2026-04-04T07:36:05.38Z</time></trkpt><trkpt lat="43.8494267" lon="12.4633517"><ele>375.0</ele><time>2026-04-04T07:36:06.379Z</time></trkpt><trkpt lat="43.8494817" lon="12.46345"><ele>375.0</ele><time>2026-04-04T07:36:07.379Z</time></trkpt><trkpt lat="43.8495283" lon="12.463555"><ele>375.0</ele><time>2026-04-04T07:36:08.379Z</time></trkpt><trkpt lat="43.8495733" lon="12.4636517"><ele>375.0</ele><time>2026-04-04T07:36:09.38Z</time></trkpt><trkpt lat="43.8496083" lon="12.4637367"><ele>375.0</ele><time>2026-04-04T07:36:10.38Z</time></trkpt><trkpt lat="43.8496433" lon="12.463865"><ele>375.0</ele><time>2026-04-04T07:36:12.38Z</time></trkpt><trkpt lat="43.8496983" lon="12.4639733"><ele>375.0</ele><time>2026-04-04T07:36:15.38Z</time></trkpt><trkpt lat="43.8497683" lon="12.4639133"><ele>375.0</ele><time>2026-04-04T07:36:26.38Z</time></trkpt><trkpt lat="43.8497417" lon="12.4638167"><ele>375.0</ele><time>2026-04-04T07:36:27.379Z</time></trkpt><trkpt lat="43.8496967" lon="12.4637083"><ele>375.0</ele><time>2026-04-04T07:36:28.38Z</time></trkpt><trkpt lat="43.8496367" lon="12.4635983"><ele>375.0</ele><time>2026-04-04T07:36:29.379Z</time></trkpt><trkpt lat="43.84957" lon="12.4634833"><ele>375.0</ele><time>2026-04-04T07:36:30.379Z</time></trkpt><trkpt lat="43.849505" lon="12.46334"><ele>375.0</ele><time>2026-04-04T07:36:31.379Z</time></trkpt><trkpt lat="43.8494417" lon="12.4631883"><ele>375.0</ele><time>2026-04-04T07:36:32.379Z</time></trkpt><trkpt lat="43.8493733" lon="12.463045"><ele>375.0</ele><time>2026-04-04T07:36:33.38Z</time></trkpt><trkpt lat="43.8493033" lon="12.4628883"><ele>375.0</ele><time>2026-04-04T07:36:34.379Z</time></trkpt><trkpt lat="43.8492317" lon="12.4627317"><ele>375.25</ele><time>2026-04-04T07:36:35.379Z</time></trkpt><trkpt lat="43.8491633" lon="12.4625717"><ele>375.5</ele><time>2026-04-04T07:36:36.379Z</time></trkpt><trkpt lat="43.84909" lon="12.4624133"><ele>375.75</ele><time>2026-04-04T07:36:37.379Z</time></trkpt><trkpt lat="43.8490167" lon="12.4622467"><ele>376.0</ele><time>2026-04-04T07:36:38.379Z</time></trkpt><trkpt lat="43.8489433" lon="12.4620817"><ele>379.25</ele><time>2026-04-04T07:36:39.379Z</time></trkpt><trkpt lat="43.848875" lon="12.4619167"><ele>382.5</ele><time>2026-04-04T07:36:40.379Z</time></trkpt><trkpt lat="43.8488033" lon="12.4617517"><ele>385.75</ele><time>2026-04-04T07:36:41.38Z</time></trkpt><trkpt lat="43.8487267" lon="12.461575"><ele>389.0</ele><time>2026-04-04T07:36:42.379Z</time></trkpt><trkpt lat="43.848645" lon="12.46141"><ele>386.75</ele><time>2026-04-04T07:36:43.379Z</time></trkpt><trkpt lat="43.84856" lon="12.4612433"><ele>384.5</ele><time>2026-04-04T07:36:44.379Z</time></trkpt><trkpt lat="43.8484833" lon="12.4610717"><ele>382.25</ele><time>2026-04-04T07:36:45.379Z</time></trkpt><trkpt lat="43.8484033" lon="12.4609017"><ele>380.0</ele><time>2026-04-04T07:36:46.38Z</time></trkpt><trkpt lat="43.84831" lon="12.46074"><ele>380.0</ele><time>2026-04-04T07:36:47.38Z</time></trkpt><trkpt lat="43.8482117" lon="12.4605883"><ele>380.0</ele><time>2026-04-04T07:36:48.379Z</time></trkpt><trkpt lat="43.8480983" lon="12.46044"><ele>380.0</ele><time>2026-04-04T07:36:49.38Z</time></trkpt><trkpt lat="43.8479767" lon="12.4603033"><ele>380.0</ele><time>2026-04-04T07:36:50.38Z</time></trkpt><trkpt lat="43.8478517" lon="12.4601717"><ele>380.0</ele><time>2026-04-04T07:36:51.379Z</time></trkpt><trkpt lat="43.8477267" lon="12.460035"><ele>380.0</ele><time>2026-04-04T07:36:52.379Z</time></trkpt><trkpt lat="43.8476033" lon="12.4599017"><ele>380.0</ele><time>2026-04-04T07:36:53.38Z</time></trkpt><trkpt lat="43.84748" lon="12.45978"><ele>380.0</ele><time>2026-04-04T07:36:54.379Z</time></trkpt><trkpt lat="43.8473617" lon="12.4596533"><ele>380.0</ele><time>2026-04-04T07:36:55.38Z</time></trkpt><trkpt lat="43.847245" lon="12.459515"><ele>384.6666666666667</ele><time>2026-04-04T07:36:56.379Z</time></trkpt><trkpt lat="43.8471333" lon="12.4593767"><ele>389.33333333333337</ele><time>2026-04-04T07:36:57.38Z</time></trkpt><trkpt lat="43.8470267" lon="12.4592317"><ele>394.0</ele><time>2026-04-04T07:36:58.379Z</time></trkpt><trkpt lat="43.846925" lon="12.459075"><ele>394.0</ele><time>2026-04-04T07:36:59.379Z</time></trkpt><trkpt lat="43.846835" lon="12.4588967"><ele>394.0</ele><time>2026-04-04T07:37:00.379Z</time></trkpt><trkpt lat="43.846745" lon="12.45871"><ele>394.0</ele><time>2026-04-04T07:37:01.379Z</time></trkpt><trkpt lat="43.8466517" lon="12.4585283"><ele>395.0</ele><time>2026-04-04T07:37:02.38Z</time></trkpt><trkpt lat="43.846565" lon="12.4583483"><ele>396.0</ele><time>2026-04-04T07:37:03.38Z</time></trkpt><trkpt lat="43.8464767" lon="12.458185"><ele>397.0</ele><time>2026-04-04T07:37:04.38Z</time></trkpt><trkpt lat="43.8464033" lon="12.45804"><ele>398.0</ele><time>2026-04-04T07:37:05.379Z</time></trkpt><trkpt lat="43.8463383" lon="12.4579117"><ele>397.99999999999994</ele><time>2026-04-04T07:37:06.38Z</time></trkpt><trkpt lat="43.8462767" lon="12.4577983"><ele>398.0</ele><time>2026-04-04T07:37:07.38Z</time></trkpt><trkpt lat="43.8462233" lon="12.457695"><ele>398.0</ele><time>2026-04-04T07:37:08.379Z</time></trkpt><trkpt lat="43.8461667" lon="12.4576133"><ele>398.0</ele><time>2026-04-04T07:37:09.38Z</time></trkpt><trkpt lat="43.8461167" lon="12.457525"><ele>397.99999999999994</ele><time>2026-04-04T07:37:10.379Z</time></trkpt><trkpt lat="43.8460683" lon="12.457425"><ele>398.0</ele><time>2026-04-04T07:37:11.38Z</time></trkpt><trkpt lat="43.8460183" lon="12.4573167"><ele>397.99999999999994</ele><time>2026-04-04T07:37:12.379Z</time></trkpt><trkpt lat="43.84597" lon="12.457215"><ele>398.0</ele><time>2026-04-04T07:37:13.38Z</time></trkpt><trkpt lat="43.8459217" lon="12.4571183"><ele>398.0</ele><time>2026-04-04T07:37:14.38Z</time></trkpt><trkpt lat="43.8458767" lon="12.4570283"><ele>398.0</ele><time>2026-04-04T07:37:15.38Z</time></trkpt><trkpt lat="43.84584" lon="12.456955"><ele>397.99999999999994</ele><time>2026-04-04T07:37:16.38Z</time></trkpt><trkpt lat="43.845805" lon="12.4568767"><ele>398.0</ele><time>2026-04-04T07:37:17.38Z</time></trkpt><trkpt lat="43.8457683" lon="12.4567967"><ele>397.8333333333333</ele><time>2026-04-04T07:37:18.38Z</time></trkpt><trkpt lat="43.8457217" lon="12.4567117"><ele>397.66666666666663</ele><time>2026-04-04T07:37:19.38Z</time></trkpt><trkpt lat="43.84567" lon="12.4566217"><ele>397.5</ele><time>2026-04-04T07:37:20.379Z</time></trkpt><trkpt lat="43.8456333" lon="12.4565267"><ele>397.33333333333337</ele><time>2026-04-04T07:37:21.38Z</time></trkpt><trkpt lat="43.8456" lon="12.4564383"><ele>397.1666666666667</ele><time>2026-04-04T07:37:22.38Z</time></trkpt><trkpt lat="43.8455383" lon="12.4563017"><ele>397.0</ele><time>2026-04-04T07:37:24.38Z</time></trkpt><trkpt lat="43.8454733" lon="12.4561883"><ele>398.8</ele><time>2026-04-04T07:37:26.379Z</time></trkpt><trkpt lat="43.8454017" lon="12.4560567"><ele>400.6</ele><time>2026-04-04T07:37:28.38Z</time></trkpt><trkpt lat="43.8453533" lon="12.4559283"><ele>402.40000000000003</ele><time>2026-04-04T07:37:30.38Z</time></trkpt><trkpt lat="43.8453183" lon="12.4558383"><ele>404.20000000000005</ele><time>2026-04-04T07:37:31.38Z</time></trkpt><trkpt lat="43.84528" lon="12.455725"><ele>406.0</ele><time>2026-04-04T07:37:32.379Z</time></trkpt><trkpt lat="43.8452417" lon="12.4556"><ele>406.0</ele><time>2026-04-04T07:37:33.379Z</time></trkpt><trkpt lat="43.8452" lon="12.455475"><ele>406.0</ele><time>2026-04-04T07:37:34.38Z</time></trkpt><trkpt lat="43.845155" lon="12.4553367"><ele>406.0</ele><time>2026-04-04T07:37:35.379Z</time></trkpt><trkpt lat="43.8451" lon="12.4552033"><ele>406.0</ele><time>2026-04-04T07:37:36.379Z</time></trkpt><trkpt lat="43.8450383" lon="12.45507"><ele>406.0</ele><time>2026-04-04T07:37:37.379Z</time></trkpt><trkpt lat="43.8449617" lon="12.4549433"><ele>405.4</ele><time>2026-04-04T07:37:38.379Z</time></trkpt><trkpt lat="43.8448783" lon="12.4548317"><ele>404.8</ele><time>2026-04-04T07:37:39.38Z</time></trkpt><trkpt lat="43.8447883" lon="12.4547367"><ele>404.2</ele><time>2026-04-04T07:37:40.38Z</time></trkpt><trkpt lat="43.8447117" lon="12.454645"><ele>403.59999999999997</ele><time>2026-04-04T07:37:41.379Z</time></trkpt><trkpt lat="43.8446083" lon="12.4545667"><ele>403.0</ele><time>2026-04-04T07:37:42.379Z</time></trkpt><trkpt lat="43.8445233" lon="12.4545033"><ele>403.0</ele><time>2026-04-04T07:37:43.379Z</time></trkpt><trkpt lat="43.8444217" lon="12.4544383"><ele>403.0</ele><time>2026-04-04T07:37:44.379Z</time></trkpt><trkpt lat="43.8443267" lon="12.454375"><ele>403.0</ele><time>2026-04-04T07:37:45.379Z</time></trkpt><trkpt lat="43.84423" lon="12.4543083"><ele>403.0</ele><time>2026-04-04T07:37:46.379Z</time></trkpt><trkpt lat="43.8441367" lon="12.45423"><ele>403.0</ele><time>2026-04-04T07:37:47.38Z</time></trkpt><trkpt lat="43.84405" lon="12.45412"><ele>403.0</ele><time>2026-04-04T07:37:48.379Z</time></trkpt><trkpt lat="43.8439683" lon="12.4539917"><ele>403.0</ele><time>2026-04-04T07:37:49.38Z</time></trkpt><trkpt lat="43.84389" lon="12.45385"><ele>403.0</ele><time>2026-04-04T07:37:50.379Z</time></trkpt><trkpt lat="43.8438117" lon="12.4537083"><ele>403.0</ele><time>2026-04-04T07:37:51.379Z</time></trkpt><trkpt lat="43.8437333" lon="12.4535667"><ele>407.75</ele><time>2026-04-04T07:37:52.38Z</time></trkpt><trkpt lat="43.8436567" lon="12.4534233"><ele>412.5</ele><time>2026-04-04T07:37:53.379Z</time></trkpt><trkpt lat="43.8435833" lon="12.453285"><ele>417.25</ele><time>2026-04-04T07:37:54.38Z</time></trkpt><trkpt lat="43.84352" lon="12.45314"><ele>422.0</ele><time>2026-04-04T07:37:55.38Z</time></trkpt><trkpt lat="43.84347" lon="12.4529883"><ele>423.5</ele><time>2026-04-04T07:37:56.38Z</time></trkpt><trkpt lat="43.8434483" lon="12.4528283"><ele>425.0</ele><time>2026-04-04T07:37:57.379Z</time></trkpt><trkpt lat="43.843465" lon="12.4526733"><ele>426.5</ele><time>2026-04-04T07:37:58.38Z</time></trkpt><trkpt lat="43.8435217" lon="12.4525283"><ele>428.0</ele><time>2026-04-04T07:37:59.379Z</time></trkpt><trkpt lat="43.8436083" lon="12.452405"><ele>428.0</ele><time>2026-04-04T07:38:00.38Z</time></trkpt><trkpt lat="43.843705" lon="12.45231"><ele>428.0</ele><time>2026-04-04T07:38:01.379Z</time></trkpt><trkpt lat="43.84383" lon="12.4522383"><ele>428.0</ele><time>2026-04-04T07:38:02.379Z</time></trkpt><trkpt lat="43.8439483" lon="12.4521767"><ele>428.0</ele><time>2026-04-04T07:38:03.379Z</time></trkpt><trkpt lat="43.8440633" lon="12.4521083"><ele>428.59999999999997</ele><time>2026-04-04T07:38:04.38Z</time></trkpt><trkpt lat="43.8441583" lon="12.4520283"><ele>429.19999999999993</ele><time>2026-04-04T07:38:05.38Z</time></trkpt><trkpt lat="43.84423" lon="12.4519483"><ele>429.8</ele><time>2026-04-04T07:38:06.38Z</time></trkpt><trkpt lat="43.8442867" lon="12.45186"><ele>430.4</ele><time>2026-04-04T07:38:07.379Z</time></trkpt><trkpt lat="43.8443167" lon="12.45174"><ele>431.0</ele><time>2026-04-04T07:38:08.38Z</time></trkpt><trkpt lat="43.844315" lon="12.45161"><ele>428.4</ele><time>2026-04-04T07:38:09.38Z</time></trkpt><trkpt lat="43.8442883" lon="12.4514917"><ele>425.8</ele><time>2026-04-04T07:38:10.38Z</time></trkpt><trkpt lat="43.84422" lon="12.4514083"><ele>423.2</ele><time>2026-04-04T07:38:11.379Z</time></trkpt><trkpt lat="43.8441283" lon="12.4513533"><ele>420.59999999999997</ele><time>2026-04-04T07:38:12.38Z</time></trkpt><trkpt lat="43.844015" lon="12.4513367"><ele>418.0</ele><time>2026-04-04T07:38:13.38Z</time></trkpt><trkpt lat="43.8438917" lon="12.4513317"><ele>418.0</ele><time>2026-04-04T07:38:14.379Z</time></trkpt><trkpt lat="43.8437667" lon="12.45133"><ele>418.0</ele><time>2026-04-04T07:38:15.379Z</time></trkpt><trkpt lat="43.84365" lon="12.45132"><ele>418.0</ele><time>2026-04-04T07:38:16.38Z</time></trkpt><trkpt lat="43.8435367" lon="12.4512933"><ele>418.0</ele><time>2026-04-04T07:38:17.379Z</time></trkpt><trkpt lat="43.8434383" lon="12.4512517"><ele>419.83333333333337</ele><time>2026-04-04T07:38:18.379Z</time></trkpt><trkpt lat="43.8433367" lon="12.45119"><ele>421.6666666666667</ele><time>2026-04-04T07:38:19.38Z</time></trkpt><trkpt lat="43.8432633" lon="12.4511167"><ele>423.5</ele><time>2026-04-04T07:38:20.379Z</time></trkpt><trkpt lat="43.8432033" lon="12.4510467"><ele>425.33333333333337</ele><time>2026-04-04T07:38:21.379Z</time></trkpt><trkpt lat="43.8431517" lon="12.4509467"><ele>427.1666666666667</ele><time>2026-04-04T07:38:23.379Z</time></trkpt><trkpt lat="43.8431017" lon="12.4508917"><ele>429.0</ele><time>2026-04-04T07:38:25.379Z</time></trkpt><trkpt lat="43.8430267" lon="12.4509183"><ele>429.0</ele><time>2026-04-04T07:38:27.379Z</time></trkpt><trkpt lat="43.8429467" lon="12.4510333"><ele>429.0</ele><time>2026-04-04T07:38:29.38Z</time></trkpt><trkpt lat="43.84287" lon="12.451135"><ele>429.0</ele><time>2026-04-04T07:38:31.379Z</time></trkpt><trkpt lat="43.842775" lon="12.451175"><ele>429.0</ele><time>2026-04-04T07:38:33.379Z</time></trkpt><trkpt lat="43.84266" lon="12.4511833"><ele>429.0</ele><time>2026-04-04T07:38:35.379Z</time></trkpt><trkpt lat="43.8425433" lon="12.451185"><ele>426.6</ele><time>2026-04-04T07:38:37.38Z</time></trkpt><trkpt lat="43.842455" lon="12.4512183"><ele>424.2</ele><time>2026-04-04T07:38:39.38Z</time></trkpt><trkpt lat="43.8424" lon="12.4512783"><ele>421.8</ele><time>2026-04-04T07:38:41.379Z</time></trkpt><trkpt lat="43.8423867" lon="12.4514267"><ele>419.40000000000003</ele><time>2026-04-04T07:38:43.379Z</time></trkpt><trkpt lat="43.842385" lon="12.4515767"><ele>417.0</ele><time>2026-04-04T07:38:45.38Z</time></trkpt><trkpt lat="43.8423483" lon="12.451665"><ele>416.6</ele><time>2026-04-04T07:38:48.38Z</time></trkpt><trkpt lat="43.8422667" lon="12.45178"><ele>416.20000000000005</ele><time>2026-04-04T07:38:50.379Z</time></trkpt><trkpt lat="43.8422083" lon="12.4518967"><ele>415.8</ele><time>2026-04-04T07:38:52.38Z</time></trkpt><trkpt lat="43.8421867" lon="12.452015"><ele>415.4</ele><time>2026-04-04T07:38:54.38Z</time></trkpt><trkpt lat="43.8421783" lon="12.4521017"><ele>415.0</ele><time>2026-04-04T07:38:55.38Z</time></trkpt><trkpt lat="43.8421617" lon="12.4522817"><ele>413.50000000000006</ele><time>2026-04-04T07:38:57.38Z</time></trkpt><trkpt lat="43.8421717" lon="12.45238"><ele>412.0</ele><time>2026-04-04T07:38:58.38Z</time></trkpt><trkpt lat="43.8421833" lon="12.4524817"><ele>410.5</ele><time>2026-04-04T07:38:59.379Z</time></trkpt><trkpt lat="43.8421783" lon="12.4525833"><ele>409.0</ele><time>2026-04-04T07:39:00.379Z</time></trkpt><trkpt lat="43.842165" lon="12.4526883"><ele>407.50000000000006</ele><time>2026-04-04T07:39:01.38Z</time></trkpt><trkpt lat="43.8421567" lon="12.4527983"><ele>406.0</ele><time>2026-04-04T07:39:02.38Z</time></trkpt><trkpt lat="43.8421483" lon="12.452915"><ele>404.0</ele><time>2026-04-04T07:39:03.379Z</time></trkpt><trkpt lat="43.8421483" lon="12.4530383"><ele>402.0</ele><time>2026-04-04T07:39:04.379Z</time></trkpt><trkpt lat="43.8421517" lon="12.4531683"><ele>400.0</ele><time>2026-04-04T07:39:05.379Z</time></trkpt><trkpt lat="43.842155" lon="12.453305"><ele>398.0</ele><time>2026-04-04T07:39:06.379Z</time></trkpt><trkpt lat="43.842165" lon="12.4534367"><ele>396.0</ele><time>2026-04-04T07:39:07.379Z</time></trkpt><trkpt lat="43.8421867" lon="12.4535567"><ele>396.0</ele><time>2026-04-04T07:39:08.379Z</time></trkpt><trkpt lat="43.8422233" lon="12.453665"><ele>396.0</ele><time>2026-04-04T07:39:09.379Z</time></trkpt><trkpt lat="43.8422667" lon="12.453765"><ele>396.0</ele><time>2026-04-04T07:39:10.379Z</time></trkpt><trkpt lat="43.842325" lon="12.4538533"><ele>396.0</ele><time>2026-04-04T07:39:11.38Z</time></trkpt><trkpt lat="43.842385" lon="12.4539433"><ele>396.0</ele><time>2026-04-04T07:39:12.379Z</time></trkpt><trkpt lat="43.8424383" lon="12.4540483"><ele>396.0</ele><time>2026-04-04T07:39:13.379Z</time></trkpt><trkpt lat="43.8424833" lon="12.4541567"><ele>395.20000000000005</ele><time>2026-04-04T07:39:14.38Z</time></trkpt><trkpt lat="43.8425183" lon="12.4542667"><ele>394.40000000000003</ele><time>2026-04-04T07:39:15.379Z</time></trkpt><trkpt lat="43.8425567" lon="12.4543783"><ele>393.6</ele><time>2026-04-04T07:39:16.379Z</time></trkpt><trkpt lat="43.84259" lon="12.4544917"><ele>392.8</ele><time>2026-04-04T07:39:17.38Z</time></trkpt><trkpt lat="43.842625" lon="12.4546067"><ele>392.0</ele><time>2026-04-04T07:39:18.38Z</time></trkpt><trkpt lat="43.8426667" lon="12.4547283"><ele>390.0</ele><time>2026-04-04T07:39:19.379Z</time></trkpt><trkpt lat="43.842705" lon="12.4548533"><ele>388.0</ele><time>2026-04-04T07:39:20.379Z</time></trkpt><trkpt lat="43.8427417" lon="12.454975"><ele>386.0</ele><time>2026-04-04T07:39:21.379Z</time></trkpt><trkpt lat="43.8427833" lon="12.45509"><ele>384.0</ele><time>2026-04-04T07:39:22.38Z</time></trkpt><trkpt lat="43.8428217" lon="12.455215"><ele>382.0</ele><time>2026-04-04T07:39:23.379Z</time></trkpt><trkpt lat="43.8428667" lon="12.45534"><ele>381.6</ele><time>2026-04-04T07:39:24.379Z</time></trkpt><trkpt lat="43.8429033" lon="12.4554567"><ele>381.20000000000005</ele><time>2026-04-04T07:39:25.379Z</time></trkpt><trkpt lat="43.842945" lon="12.4555867"><ele>380.8</ele><time>2026-04-04T07:39:26.38Z</time></trkpt><trkpt lat="43.8429817" lon="12.45571"><ele>380.4</ele><time>2026-04-04T07:39:27.38Z</time></trkpt><trkpt lat="43.8430083" lon="12.45583"><ele>380.0</ele><time>2026-04-04T07:39:28.379Z</time></trkpt><trkpt lat="43.8430317" lon="12.455945"><ele>380.0</ele><time>2026-04-04T07:39:29.38Z</time></trkpt><trkpt lat="43.84305" lon="12.4560317"><ele>380.0</ele><time>2026-04-04T07:39:30.38Z</time></trkpt><trkpt lat="43.8430683" lon="12.4561167"><ele>380.0</ele><time>2026-04-04T07:39:32.38Z</time></trkpt><trkpt lat="43.8429717" lon="12.45614"><ele>380.0</ele><time>2026-04-04T07:39:40.38Z</time></trkpt><trkpt lat="43.8428933" lon="12.4560933"><ele>380.0</ele><time>2026-04-04T07:39:43.379Z</time></trkpt><trkpt lat="43.8429833" lon="12.4561083"><ele>380.0</ele><time>2026-04-04T07:39:50.379Z</time></trkpt><trkpt lat="43.8430483" lon="12.45618"><ele>378.8</ele><time>2026-04-04T07:39:53.379Z</time></trkpt><trkpt lat="43.8430817" lon="12.4563033"><ele>377.6</ele><time>2026-04-04T07:39:55.379Z</time></trkpt><trkpt lat="43.8430767" lon="12.4564467"><ele>376.4</ele><time>2026-04-04T07:39:57.379Z</time></trkpt><trkpt lat="43.8430567" lon="12.4565533"><ele>375.2</ele><time>2026-04-04T07:39:59.379Z</time></trkpt><trkpt lat="43.8430033" lon="12.4566333"><ele>374.0</ele><time>2026-04-04T07:40:01.379Z</time></trkpt><trkpt lat="43.8429083" lon="12.4566883"><ele>374.0</ele><time>2026-04-04T07:40:03.38Z</time></trkpt><trkpt lat="43.842775" lon="12.456645"><ele>374.0</ele><time>2026-04-04T07:40:05.38Z</time></trkpt><trkpt lat="43.8426933" lon="12.4566233"><ele>374.0</ele><time>2026-04-04T07:40:06.38Z</time></trkpt><trkpt lat="43.842615" lon="12.4566067"><ele>374.0</ele><time>2026-04-04T07:40:07.38Z</time></trkpt><trkpt lat="43.8425467" lon="12.4566"><ele>374.0</ele><time>2026-04-04T07:40:08.379Z</time></trkpt><trkpt lat="43.8424833" lon="12.45661"><ele>374.0</ele><time>2026-04-04T07:40:09.379Z</time></trkpt><trkpt lat="43.8424133" lon="12.45662"><ele>373.6666666666667</ele><time>2026-04-04T07:40:10.38Z</time></trkpt><trkpt lat="43.8423417" lon="12.4566167"><ele>373.33333333333337</ele><time>2026-04-04T07:40:11.38Z</time></trkpt><trkpt lat="43.8422767" lon="12.45659"><ele>373.0</ele><time>2026-04-04T07:40:12.379Z</time></trkpt><trkpt lat="43.842195" lon="12.456505"><ele>372.6666666666667</ele><time>2026-04-04T07:40:14.379Z</time></trkpt><trkpt lat="43.842135" lon="12.4564417"><ele>372.3333333333333</ele><time>2026-04-04T07:40:18.379Z</time></trkpt><trkpt lat="43.842035" lon="12.4564867"><ele>372.0</ele><time>2026-04-04T07:40:22.38Z</time></trkpt><trkpt lat="43.841945" lon="12.456535"><ele>372.0</ele><time>2026-04-04T07:40:24.38Z</time></trkpt><trkpt lat="43.8418567" lon="12.4565617"><ele>372.0</ele><time>2026-04-04T07:40:26.38Z</time></trkpt><trkpt lat="43.8417617" lon="12.45659"><ele>372.0</ele><time>2026-04-04T07:40:28.38Z</time></trkpt><trkpt lat="43.8416617" lon="12.4565983"><ele>372.0</ele><time>2026-04-04T07:40:30.38Z</time></trkpt><trkpt lat="43.8415483" lon="12.4566017"><ele>372.0</ele><time>2026-04-04T07:40:32.379Z</time></trkpt><trkpt lat="43.841425" lon="12.456595"><ele>371.0</ele><time>2026-04-04T07:40:34.38Z</time></trkpt><trkpt lat="43.8413033" lon="12.4565867"><ele>370.0</ele><time>2026-04-04T07:40:36.38Z</time></trkpt><trkpt lat="43.8411833" lon="12.4565917"><ele>369.0</ele><time>2026-04-04T07:40:38.379Z</time></trkpt><trkpt lat="43.841075" lon="12.4565867"><ele>368.0</ele><time>2026-04-04T07:40:40.379Z</time></trkpt><trkpt lat="43.8409683" lon="12.45659"><ele>368.0</ele><time>2026-04-04T07:40:42.379Z</time></trkpt><trkpt lat="43.8408933" lon="12.4566033"><ele>368.0</ele><time>2026-04-04T07:40:44.38Z</time></trkpt><trkpt lat="43.8408" lon="12.4565717"><ele>368.0</ele><time>2026-04-04T07:40:46.38Z</time></trkpt><trkpt lat="43.8407383" lon="12.45652"><ele>368.0</ele><time>2026-04-04T07:40:47.379Z</time></trkpt><trkpt lat="43.8406717" lon="12.456455"><ele>368.0</ele><time>2026-04-04T07:40:48.38Z</time></trkpt><trkpt lat="43.8406017" lon="12.4563867"><ele>368.0</ele><time>2026-04-04T07:40:49.38Z</time></trkpt><trkpt lat="43.8405367" lon="12.4563083"><ele>368.4</ele><time>2026-04-04T07:40:50.379Z</time></trkpt><trkpt lat="43.8404717" lon="12.456225"><ele>368.79999999999995</ele><time>2026-04-04T07:40:51.379Z</time></trkpt><trkpt lat="43.84042" lon="12.4561233"><ele>369.2</ele><time>2026-04-04T07:40:52.38Z</time></trkpt><trkpt lat="43.840375" lon="12.45601"><ele>369.6</ele><time>2026-04-04T07:40:53.38Z</time></trkpt><trkpt lat="43.8403433" lon="12.455895"><ele>370.0</ele><time>2026-04-04T07:40:54.379Z</time></trkpt><trkpt lat="43.840305" lon="12.4557717"><ele>370.0</ele><time>2026-04-04T07:40:55.379Z</time></trkpt><trkpt lat="43.8402617" lon="12.4556633"><ele>370.0</ele><time>2026-04-04T07:40:56.379Z</time></trkpt><trkpt lat="43.8402117" lon="12.4555567"><ele>370.0</ele><time>2026-04-04T07:40:57.38Z</time></trkpt><trkpt lat="43.8401733" lon="12.4554517"><ele>370.0</ele><time>2026-04-04T07:40:58.38Z</time></trkpt><trkpt lat="43.8401583" lon="12.4553283"><ele>370.0</ele><time>2026-04-04T07:40:59.379Z</time></trkpt><trkpt lat="43.840155" lon="12.4552067"><ele>370.0</ele><time>2026-04-04T07:41:00.379Z</time></trkpt><trkpt lat="43.840155" lon="12.4550717"><ele>370.2</ele><time>2026-04-04T07:41:01.379Z</time></trkpt><trkpt lat="43.8401517" lon="12.4549317"><ele>370.4</ele><time>2026-04-04T07:41:02.379Z</time></trkpt><trkpt lat="43.8401433" lon="12.45479"><ele>370.6</ele><time>2026-04-04T07:41:03.38Z</time></trkpt><trkpt lat="43.8401283" lon="12.4546667"><ele>370.8</ele><time>2026-04-04T07:41:04.379Z</time></trkpt><trkpt lat="43.8401083" lon="12.4545517"><ele>371.0</ele><time>2026-04-04T07:41:05.379Z</time></trkpt><trkpt lat="43.8400833" lon="12.4544367"><ele>371.6</ele><time>2026-04-04T07:41:06.379Z</time></trkpt><trkpt lat="43.8400467" lon="12.4543083"><ele>372.20000000000005</ele><time>2026-04-04T07:41:07.379Z</time></trkpt><trkpt lat="43.840005" lon="12.4541833"><ele>372.79999999999995</ele><time>2026-04-04T07:41:08.379Z</time></trkpt><trkpt lat="43.83996" lon="12.4540533"><ele>373.4</ele><time>2026-04-04T07:41:09.379Z</time></trkpt><trkpt lat="43.8399217" lon="12.4539233"><ele>374.0</ele><time>2026-04-04T07:41:10.38Z</time></trkpt><trkpt lat="43.8399" lon="12.4537867"><ele>374.75</ele><time>2026-04-04T07:41:11.379Z</time></trkpt><trkpt lat="43.8398867" lon="12.453635"><ele>375.5</ele><time>2026-04-04T07:41:12.379Z</time></trkpt><trkpt lat="43.8398783" lon="12.453475"><ele>376.25</ele><time>2026-04-04T07:41:13.379Z</time></trkpt><trkpt lat="43.839875" lon="12.4533167"><ele>377.0</ele><time>2026-04-04T07:41:14.38Z</time></trkpt><trkpt lat="43.8398617" lon="12.4531617"><ele>377.0</ele><time>2026-04-04T07:41:15.379Z</time></trkpt><trkpt lat="43.8398533" lon="12.4530167"><ele>377.0</ele><time>2026-04-04T07:41:16.379Z</time></trkpt><trkpt lat="43.8398333" lon="12.4528917"><ele>377.0</ele><time>2026-04-04T07:41:17.38Z</time></trkpt><trkpt lat="43.8398033" lon="12.45278"><ele>377.0</ele><time>2026-04-04T07:41:18.379Z</time></trkpt><trkpt lat="43.83978" lon="12.4526833"><ele>377.0</ele><time>2026-04-04T07:41:19.38Z</time></trkpt><trkpt lat="43.8397383" lon="12.4525483"><ele>377.6666666666667</ele><time>2026-04-04T07:41:21.379Z</time></trkpt><trkpt lat="43.8396733" lon="12.4524517"><ele>378.33333333333337</ele><time>2026-04-04T07:41:23.379Z</time></trkpt><trkpt lat="43.83973" lon="12.4525333"><ele>379.0</ele><time>2026-04-04T07:41:44.379Z</time></trkpt><trkpt lat="43.8397583" lon="12.4526117"><ele>379.6666666666667</ele><time>2026-04-04T07:41:45.379Z</time></trkpt><trkpt lat="43.839785" lon="12.4527067"><ele>380.3333333333333</ele><time>2026-04-04T07:41:46.379Z</time></trkpt><trkpt lat="43.8398083" lon="12.4528233"><ele>381.0</ele><time>2026-04-04T07:41:47.38Z</time></trkpt><trkpt lat="43.8398317" lon="12.452955"><ele>380.20000000000005</ele><time>2026-04-04T07:41:48.379Z</time></trkpt><trkpt lat="43.8398567" lon="12.4530933"><ele>379.40000000000003</ele><time>2026-04-04T07:41:49.38Z</time></trkpt><trkpt lat="43.8398667" lon="12.45324"><ele>378.6</ele><time>2026-04-04T07:41:50.379Z</time></trkpt><trkpt lat="43.8398683" lon="12.4533783"><ele>377.8</ele><time>2026-04-04T07:41:51.38Z</time></trkpt><trkpt lat="43.839875" lon="12.453515"><ele>377.0</ele><time>2026-04-04T07:41:52.379Z</time></trkpt><trkpt lat="43.8398783" lon="12.453645"><ele>377.0</ele><time>2026-04-04T07:41:53.38Z</time></trkpt><trkpt lat="43.8398883" lon="12.45376"><ele>377.0</ele><time>2026-04-04T07:41:54.38Z</time></trkpt><trkpt lat="43.8399033" lon="12.453865"><ele>377.0</ele><time>2026-04-04T07:41:55.379Z</time></trkpt><trkpt lat="43.8399333" lon="12.4539633"><ele>377.0</ele><time>2026-04-04T07:41:56.379Z</time></trkpt><trkpt lat="43.83997" lon="12.4540667"><ele>377.0</ele><time>2026-04-04T07:41:57.379Z</time></trkpt><trkpt lat="43.8400067" lon="12.45417"><ele>377.0</ele><time>2026-04-04T07:41:58.38Z</time></trkpt><trkpt lat="43.8400367" lon="12.45427"><ele>376.40000000000003</ele><time>2026-04-04T07:41:59.38Z</time></trkpt><trkpt lat="43.840065" lon="12.454375"><ele>375.8</ele><time>2026-04-04T07:42:00.379Z</time></trkpt><trkpt lat="43.8400917" lon="12.4544817"><ele>375.2</ele><time>2026-04-04T07:42:01.379Z</time></trkpt><trkpt lat="43.8401133" lon="12.4546033"><ele>374.6</ele><time>2026-04-04T07:42:02.379Z</time></trkpt><trkpt lat="43.84013" lon="12.4547333"><ele>374.0</ele><time>2026-04-04T07:42:03.379Z</time></trkpt><trkpt lat="43.8401433" lon="12.4548733"><ele>373.5</ele><time>2026-04-04T07:42:04.38Z</time></trkpt><trkpt lat="43.840145" lon="12.455015"><ele>373.0</ele><time>2026-04-04T07:42:05.379Z</time></trkpt><trkpt lat="43.8401467" lon="12.4551533"><ele>372.5</ele><time>2026-04-04T07:42:06.379Z</time></trkpt><trkpt lat="43.8401533" lon="12.4552733"><ele>372.0</ele><time>2026-04-04T07:42:07.38Z</time></trkpt><trkpt lat="43.8401583" lon="12.45538"><ele>371.5</ele><time>2026-04-04T07:42:08.38Z</time></trkpt><trkpt lat="43.8401833" lon="12.4554833"><ele>371.0</ele><time>2026-04-04T07:42:09.379Z</time></trkpt><trkpt lat="43.8402267" lon="12.4555833"><ele>370.8</ele><time>2026-04-04T07:42:10.379Z</time></trkpt><trkpt lat="43.8402733" lon="12.455695"><ele>370.6</ele><time>2026-04-04T07:42:11.38Z</time></trkpt><trkpt lat="43.84032" lon="12.4558017"><ele>370.4</ele><time>2026-04-04T07:42:12.379Z</time></trkpt><trkpt lat="43.8403633" lon="12.45592"><ele>370.2</ele><time>2026-04-04T07:42:13.379Z</time></trkpt><trkpt lat="43.8404017" lon="12.456035"><ele>370.0</ele><time>2026-04-04T07:42:14.38Z</time></trkpt><trkpt lat="43.84044" lon="12.456145"><ele>370.0</ele><time>2026-04-04T07:42:15.38Z</time></trkpt><trkpt lat="43.8404933" lon="12.4562433"><ele>370.0</ele><time>2026-04-04T07:42:16.38Z</time></trkpt><trkpt lat="43.8405633" lon="12.4563367"><ele>370.0</ele><time>2026-04-04T07:42:17.38Z</time></trkpt><trkpt lat="43.8406383" lon="12.4564167"><ele>370.0</ele><time>2026-04-04T07:42:18.38Z</time></trkpt><trkpt lat="43.8407117" lon="12.4564833"><ele>370.0</ele><time>2026-04-04T07:42:19.379Z</time></trkpt><trkpt lat="43.840775" lon="12.45654"><ele>370.0</ele><time>2026-04-04T07:42:20.379Z</time></trkpt><trkpt lat="43.84086" lon="12.4566233"><ele>369.66666666666663</ele><time>2026-04-04T07:42:22.379Z</time></trkpt><trkpt lat="43.8409467" lon="12.4566117"><ele>369.3333333333333</ele><time>2026-04-04T07:42:31.379Z</time></trkpt><trkpt lat="43.8410367" lon="12.456565"><ele>369.0</ele><time>2026-04-04T07:42:33.379Z</time></trkpt><trkpt lat="43.8411" lon="12.45656"><ele>368.6666666666667</ele><time>2026-04-04T07:42:34.38Z</time></trkpt><trkpt lat="43.8411667" lon="12.4565617"><ele>368.33333333333337</ele><time>2026-04-04T07:42:35.379Z</time></trkpt><trkpt lat="43.8412367" lon="12.45657"><ele>368.0</ele><time>2026-04-04T07:42:36.38Z</time></trkpt><trkpt lat="43.8413083" lon="12.4565817"><ele>368.0</ele><time>2026-04-04T07:42:37.379Z</time></trkpt><trkpt lat="43.84138" lon="12.4565833"><ele>368.0</ele><time>2026-04-04T07:42:38.38Z</time></trkpt><trkpt lat="43.8414483" lon="12.4565817"><ele>368.0</ele><time>2026-04-04T07:42:39.379Z</time></trkpt><trkpt lat="43.8415183" lon="12.4565833"><ele>368.0</ele><time>2026-04-04T07:42:40.379Z</time></trkpt><trkpt lat="43.8415883" lon="12.456585"><ele>368.0</ele><time>2026-04-04T07:42:41.379Z</time></trkpt><trkpt lat="43.8416533" lon="12.4565867"><ele>368.0</ele><time>2026-04-04T07:42:42.38Z</time></trkpt><trkpt lat="43.8417167" lon="12.4565833"><ele>368.0</ele><time>2026-04-04T07:42:43.38Z</time></trkpt><trkpt lat="43.84178" lon="12.45657"><ele>368.6666666666667</ele><time>2026-04-04T07:42:44.379Z</time></trkpt><trkpt lat="43.8418417" lon="12.4565483"><ele>369.33333333333337</ele><time>2026-04-04T07:42:45.38Z</time></trkpt><trkpt lat="43.8419083" lon="12.4565267"><ele>370.0</ele><time>2026-04-04T07:42:46.38Z</time></trkpt><trkpt lat="43.8420267" lon="12.4564867"><ele>370.6666666666667</ele><time>2026-04-04T07:42:48.38Z</time></trkpt><trkpt lat="43.842115" lon="12.4564483"><ele>371.3333333333333</ele><time>2026-04-04T07:42:50.38Z</time></trkpt><trkpt lat="43.8421983" lon="12.4564683"><ele>372.0</ele><time>2026-04-04T07:42:52.379Z</time></trkpt><trkpt lat="43.8423033" lon="12.456565"><ele>372.0</ele><time>2026-04-04T07:42:54.38Z</time></trkpt><trkpt lat="43.8423767" lon="12.4565967"><ele>372.0</ele><time>2026-04-04T07:42:55.379Z</time></trkpt><trkpt lat="43.8424583" lon="12.4566117"><ele>372.0</ele><time>2026-04-04T07:42:56.379Z</time></trkpt><trkpt lat="43.8425467" lon="12.456605"><ele>372.0</ele><time>2026-04-04T07:42:57.38Z</time></trkpt><trkpt lat="43.84264" lon="12.456605"><ele>372.0</ele><time>2026-04-04T07:42:58.379Z</time></trkpt><trkpt lat="43.842735" lon="12.4566317"><ele>372.0</ele><time>2026-04-04T07:42:59.38Z</time></trkpt><trkpt lat="43.8428233" lon="12.4566683"><ele>372.3333333333333</ele><time>2026-04-04T07:43:00.38Z</time></trkpt><trkpt lat="43.8429" lon="12.4566967"><ele>372.6666666666667</ele><time>2026-04-04T07:43:01.379Z</time></trkpt><trkpt lat="43.8429717" lon="12.45669"><ele>373.0</ele><time>2026-04-04T07:43:02.38Z</time></trkpt><trkpt lat="43.8430383" lon="12.4566533"><ele>373.33333333333337</ele><time>2026-04-04T07:43:03.379Z</time></trkpt><trkpt lat="43.8430733" lon="12.4565567"><ele>373.6666666666667</ele><time>2026-04-04T07:43:04.379Z</time></trkpt><trkpt lat="43.8430917" lon="12.45643"><ele>374.0</ele><time>2026-04-04T07:43:05.38Z</time></trkpt><trkpt lat="43.8430917" lon="12.4562867"><ele>375.2</ele><time>2026-04-04T07:43:06.379Z</time></trkpt><trkpt lat="43.8430717" lon="12.45615"><ele>376.4</ele><time>2026-04-04T07:43:07.379Z</time></trkpt><trkpt lat="43.8430467" lon="12.4560117"><ele>377.6</ele><time>2026-04-04T07:43:08.379Z</time></trkpt><trkpt lat="43.8430183" lon="12.45587"><ele>378.8</ele><time>2026-04-04T07:43:09.38Z</time></trkpt><trkpt lat="43.8429833" lon="12.4557183"><ele>380.0</ele><time>2026-04-04T07:43:10.379Z</time></trkpt><trkpt lat="43.8429417" lon="12.455575"><ele>380.5</ele><time>2026-04-04T07:43:11.38Z</time></trkpt><trkpt lat="43.8428933" lon="12.455425"><ele>381.0</ele><time>2026-04-04T07:43:12.38Z</time></trkpt><trkpt lat="43.8428317" lon="12.4552767"><ele>381.5</ele><time>2026-04-04T07:43:13.38Z</time></trkpt><trkpt lat="43.8427783" lon="12.4551167"><ele>382.0</ele><time>2026-04-04T07:43:14.379Z</time></trkpt><trkpt lat="43.84272" lon="12.4549583"><ele>382.0</ele><time>2026-04-04T07:43:15.379Z</time></trkpt><trkpt lat="43.84267" lon="12.4547917"><ele>382.0</ele><time>2026-04-04T07:43:16.379Z</time></trkpt><trkpt lat="43.84262" lon="12.454635"><ele>382.0</ele><time>2026-04-04T07:43:17.379Z</time></trkpt><trkpt lat="43.8425733" lon="12.45449"><ele>382.0</ele><time>2026-04-04T07:43:18.379Z</time></trkpt><trkpt lat="43.842535" lon="12.4543483"><ele>384.0</ele><time>2026-04-04T07:43:19.381Z</time></trkpt><trkpt lat="43.8424933" lon="12.4542033"><ele>386.0</ele><time>2026-04-04T07:43:20.38Z</time></trkpt><trkpt lat="43.8424417" lon="12.454055"><ele>388.0</ele><time>2026-04-04T07:43:21.381Z</time></trkpt><trkpt lat="43.8423833" lon="12.4539233"><ele>390.0</ele><time>2026-04-04T07:43:22.381Z</time></trkpt><trkpt lat="43.8423233" lon="12.45382"><ele>392.0</ele><time>2026-04-04T07:43:23.38Z</time></trkpt><trkpt lat="43.842265" lon="12.453735"><ele>392.66666666666663</ele><time>2026-04-04T07:43:24.381Z</time></trkpt><trkpt lat="43.8422267" lon="12.4536583"><ele>393.3333333333333</ele><time>2026-04-04T07:43:25.38Z</time></trkpt><trkpt lat="43.8421983" lon="12.45356"><ele>394.0</ele><time>2026-04-04T07:43:26.38Z</time></trkpt><trkpt lat="43.8421733" lon="12.45344"><ele>394.66666666666663</ele><time>2026-04-04T07:43:27.381Z</time></trkpt><trkpt lat="43.84216" lon="12.4533033"><ele>395.3333333333333</ele><time>2026-04-04T07:43:28.381Z</time></trkpt><trkpt lat="43.8421467" lon="12.4531483"><ele>396.0</ele><time>2026-04-04T07:43:29.38Z</time></trkpt><trkpt lat="43.842145" lon="12.4529983"><ele>398.0</ele><time>2026-04-04T07:43:30.38Z</time></trkpt><trkpt lat="43.8421483" lon="12.4528483"><ele>400.0</ele><time>2026-04-04T07:43:31.38Z</time></trkpt><trkpt lat="43.84216" lon="12.4527"><ele>402.0</ele><time>2026-04-04T07:43:32.381Z</time></trkpt><trkpt lat="43.8421667" lon="12.45257"><ele>404.0</ele><time>2026-04-04T07:43:33.38Z</time></trkpt><trkpt lat="43.8421667" lon="12.45245"><ele>406.0</ele><time>2026-04-04T07:43:34.381Z</time></trkpt><trkpt lat="43.84216" lon="12.452355"><ele>406.0</ele><time>2026-04-04T07:43:35.381Z</time></trkpt><trkpt lat="43.8421467" lon="12.4522"><ele>406.0</ele><time>2026-04-04T07:43:37.38Z</time></trkpt><trkpt lat="43.842165" lon="12.4520117"><ele>406.0</ele><time>2026-04-04T07:43:39.38Z</time></trkpt><trkpt lat="43.8421833" lon="12.45191"><ele>406.0</ele><time>2026-04-04T07:43:40.381Z</time></trkpt><trkpt lat="43.8422067" lon="12.45182"><ele>406.0</ele><time>2026-04-04T07:43:41.38Z</time></trkpt><trkpt lat="43.84224" lon="12.451745"><ele>407.50000000000006</ele><time>2026-04-04T07:43:42.38Z</time></trkpt><trkpt lat="43.8423" lon="12.4516833"><ele>409.0</ele><time>2026-04-04T07:43:44.38Z</time></trkpt><trkpt lat="43.8423633" lon="12.4515783"><ele>410.5</ele><time>2026-04-04T07:43:53.38Z</time></trkpt><trkpt lat="43.8423767" lon="12.4514683"><ele>412.0</ele><time>2026-04-04T07:43:56.381Z</time></trkpt><trkpt lat="43.84238" lon="12.4513783"><ele>413.50000000000006</ele><time>2026-04-04T07:43:58.38Z</time></trkpt><trkpt lat="43.8423817" lon="12.45129"><ele>415.0</ele><time>2026-04-04T07:44:00.38Z</time></trkpt><trkpt lat="43.8423767" lon="12.4511683"><ele>415.4</ele><time>2026-04-04T07:44:02.38Z</time></trkpt><trkpt lat="43.84237" lon="12.4510133"><ele>415.8</ele><time>2026-04-04T07:44:04.381Z</time></trkpt><trkpt lat="43.8423717" lon="12.4509233"><ele>416.20000000000005</ele><time>2026-04-04T07:44:05.38Z</time></trkpt><trkpt lat="43.8423767" lon="12.4507617"><ele>416.6</ele><time>2026-04-04T07:44:07.38Z</time></trkpt><trkpt lat="43.84238" lon="12.4506033"><ele>417.0</ele><time>2026-04-04T07:44:09.381Z</time></trkpt><trkpt lat="43.8423917" lon="12.4504433"><ele>417.20000000000005</ele><time>2026-04-04T07:44:11.38Z</time></trkpt><trkpt lat="43.842405" lon="12.4502983"><ele>417.4</ele><time>2026-04-04T07:44:13.38Z</time></trkpt><trkpt lat="43.8424167" lon="12.45013"><ele>417.6</ele><time>2026-04-04T07:44:15.38Z</time></trkpt><trkpt lat="43.84241" lon="12.45004"><ele>417.79999999999995</ele><time>2026-04-04T07:44:16.38Z</time></trkpt><trkpt lat="43.8423717" lon="12.4498933"><ele>418.0</ele><time>2026-04-04T07:44:18.38Z</time></trkpt><trkpt lat="43.8423433" lon="12.449775"><ele>418.50000000000006</ele><time>2026-04-04T07:44:20.38Z</time></trkpt><trkpt lat="43.8423367" lon="12.449605"><ele>419.0</ele><time>2026-04-04T07:44:22.381Z</time></trkpt><trkpt lat="43.8423317" lon="12.4495"><ele>419.5</ele><time>2026-04-04T07:44:23.381Z</time></trkpt><trkpt lat="43.842325" lon="12.449405"><ele>420.0</ele><time>2026-04-04T07:44:24.38Z</time></trkpt><trkpt lat="43.8423217" lon="12.449305"><ele>420.50000000000006</ele><time>2026-04-04T07:44:25.381Z</time></trkpt><trkpt lat="43.8423017" lon="12.44918"><ele>421.0</ele><time>2026-04-04T07:44:27.381Z</time></trkpt><trkpt lat="43.8422783" lon="12.44907"><ele>421.0</ele><time>2026-04-04T07:44:30.38Z</time></trkpt><trkpt lat="43.842265" lon="12.4489367"><ele>421.0</ele><time>2026-04-04T07:44:32.381Z</time></trkpt><trkpt lat="43.842265" lon="12.44878"><ele>421.0</ele><time>2026-04-04T07:44:34.38Z</time></trkpt><trkpt lat="43.842285" lon="12.4486233"><ele>421.0</ele><time>2026-04-04T07:44:36.38Z</time></trkpt><trkpt lat="43.8423383" lon="12.448485"><ele>421.0</ele><time>2026-04-04T07:44:38.38Z</time></trkpt><trkpt lat="43.842395" lon="12.448355"><ele>421.5714285714286</ele><time>2026-04-04T07:44:40.38Z</time></trkpt><trkpt lat="43.8424417" lon="12.4482117"><ele>422.14285714285717</ele><time>2026-04-04T07:44:42.38Z</time></trkpt><trkpt lat="43.8424583" lon="12.4481267"><ele>422.7142857142857</ele><time>2026-04-04T07:44:43.38Z</time></trkpt><trkpt lat="43.8424717" lon="12.4480367"><ele>423.28571428571433</ele><time>2026-04-04T07:44:44.38Z</time></trkpt><trkpt lat="43.84248" lon="12.44795"><ele>423.85714285714283</ele><time>2026-04-04T07:44:45.38Z</time></trkpt><trkpt lat="43.8424817" lon="12.447855"><ele>424.42857142857144</ele><time>2026-04-04T07:44:46.381Z</time></trkpt><trkpt lat="43.8424817" lon="12.44776"><ele>425.0</ele><time>2026-04-04T07:44:47.381Z</time></trkpt><trkpt lat="43.8424767" lon="12.447665"><ele>425.49999999999994</ele><time>2026-04-04T07:44:48.38Z</time></trkpt><trkpt lat="43.8424683" lon="12.4475783"><ele>426.0</ele><time>2026-04-04T07:44:49.381Z</time></trkpt><trkpt lat="43.8424483" lon="12.4474267"><ele>426.5</ele><time>2026-04-04T07:44:51.38Z</time></trkpt><trkpt lat="43.842425" lon="12.447345"><ele>427.0</ele><time>2026-04-04T07:44:52.381Z</time></trkpt><trkpt lat="43.8424033" lon="12.4472033"><ele>427.49999999999994</ele><time>2026-04-04T07:44:54.38Z</time></trkpt><trkpt lat="43.842395" lon="12.4470883"><ele>428.0</ele><time>2026-04-04T07:44:56.38Z</time></trkpt><trkpt lat="43.8423583" lon="12.4469283"><ele>428.49999999999994</ele><time>2026-04-04T07:44:58.381Z</time></trkpt><trkpt lat="43.8423567" lon="12.4468317"><ele>429.0</ele><time>2026-04-04T07:44:59.381Z</time></trkpt><trkpt lat="43.842365" lon="12.446725"><ele>429.5</ele><time>2026-04-04T07:45:00.381Z</time></trkpt><trkpt lat="43.84238" lon="12.4466183"><ele>430.0</ele><time>2026-04-04T07:45:01.38Z</time></trkpt><trkpt lat="43.8424133" lon="12.44651"><ele>430.49999999999994</ele><time>2026-04-04T07:45:02.38Z</time></trkpt><trkpt lat="43.8424567" lon="12.44641"><ele>431.0</ele><time>2026-04-04T07:45:03.38Z</time></trkpt><trkpt lat="43.84251" lon="12.4463133"><ele>431.20000000000005</ele><time>2026-04-04T07:45:04.381Z</time></trkpt><trkpt lat="43.8425783" lon="12.4462183"><ele>431.40000000000003</ele><time>2026-04-04T07:45:05.381Z</time></trkpt><trkpt lat="43.8426517" lon="12.4461233"><ele>431.6</ele><time>2026-04-04T07:45:06.38Z</time></trkpt><trkpt lat="43.8427283" lon="12.446045"><ele>431.8</ele><time>2026-04-04T07:45:07.38Z</time></trkpt><trkpt lat="43.8428033" lon="12.4459717"><ele>432.0</ele><time>2026-04-04T07:45:08.381Z</time></trkpt><trkpt lat="43.84288" lon="12.445895"><ele>432.3333333333333</ele><time>2026-04-04T07:45:09.38Z</time></trkpt><trkpt lat="43.842945" lon="12.44584"><ele>432.66666666666663</ele><time>2026-04-04T07:45:10.38Z</time></trkpt><trkpt lat="43.8429983" lon="12.4457833"><ele>433.0</ele><time>2026-04-04T07:45:11.38Z</time></trkpt><trkpt lat="43.84307" lon="12.4456417"><ele>433.3333333333333</ele><time>2026-04-04T07:45:13.38Z</time></trkpt><trkpt lat="43.8431067" lon="12.4455533"><ele>433.66666666666663</ele><time>2026-04-04T07:45:14.381Z</time></trkpt><trkpt lat="43.8431467" lon="12.4454633"><ele>434.0</ele><time>2026-04-04T07:45:15.38Z</time></trkpt><trkpt lat="43.8431883" lon="12.4453833"><ele>433.79999999999995</ele><time>2026-04-04T07:45:16.381Z</time></trkpt><trkpt lat="43.8432517" lon="12.4452633"><ele>433.59999999999997</ele><time>2026-04-04T07:45:18.38Z</time></trkpt><trkpt lat="43.84331" lon="12.4452"><ele>433.4</ele><time>2026-04-04T07:45:21.38Z</time></trkpt><trkpt lat="43.8433833" lon="12.4451867"><ele>433.2</ele><time>2026-04-04T07:45:24.381Z</time></trkpt><trkpt lat="43.843525" lon="12.4452583"><ele>433.0</ele><time>2026-04-04T07:45:26.381Z</time></trkpt><trkpt lat="43.8436233" lon="12.4453167"><ele>433.0</ele><time>2026-04-04T07:45:27.38Z</time></trkpt><trkpt lat="43.84374" lon="12.4453783"><ele>433.0</ele><time>2026-04-04T07:45:28.38Z</time></trkpt><trkpt lat="43.8438583" lon="12.4454583"><ele>433.0</ele><time>2026-04-04T07:45:29.38Z</time></trkpt><trkpt lat="43.8439767" lon="12.4455317"><ele>433.0</ele><time>2026-04-04T07:45:30.38Z</time></trkpt><trkpt lat="43.8440917" lon="12.4456017"><ele>434.0</ele><time>2026-04-04T07:45:31.381Z</time></trkpt><trkpt lat="43.8442017" lon="12.4456617"><ele>434.99999999999994</ele><time>2026-04-04T07:45:32.381Z</time></trkpt><trkpt lat="43.8443033" lon="12.4457067"><ele>435.99999999999994</ele><time>2026-04-04T07:45:33.381Z</time></trkpt><trkpt lat="43.8444" lon="12.4457483"><ele>437.0</ele><time>2026-04-04T07:45:34.38Z</time></trkpt><trkpt lat="43.844485" lon="12.445805"><ele>438.0</ele><time>2026-04-04T07:45:35.38Z</time></trkpt><trkpt lat="43.844555" lon="12.4458383"><ele>439.2</ele><time>2026-04-04T07:45:36.38Z</time></trkpt><trkpt lat="43.8446317" lon="12.4458867"><ele>440.4</ele><time>2026-04-04T07:45:38.38Z</time></trkpt><trkpt lat="43.8447267" lon="12.44592"><ele>441.59999999999997</ele><time>2026-04-04T07:46:25.381Z</time></trkpt><trkpt lat="43.8448" lon="12.4457633"><ele>442.79999999999995</ele><time>2026-04-04T07:46:27.381Z</time></trkpt><trkpt lat="43.844825" lon="12.4456183"><ele>444.0</ele><time>2026-04-04T07:46:28.38Z</time></trkpt><trkpt lat="43.84485" lon="12.44544"><ele>444.0</ele><time>2026-04-04T07:46:29.38Z</time></trkpt><trkpt lat="43.8448733" lon="12.4452533"><ele>444.0</ele><time>2026-04-04T07:46:30.38Z</time></trkpt><trkpt lat="43.8448883" lon="12.4450733"><ele>444.0</ele><time>2026-04-04T07:46:31.381Z</time></trkpt><trkpt lat="43.8448983" lon="12.4448967"><ele>444.0</ele><time>2026-04-04T07:46:32.38Z</time></trkpt><trkpt lat="43.8449067" lon="12.444715"><ele>443.0</ele><time>2026-04-04T07:46:33.38Z</time></trkpt><trkpt lat="43.84491" lon="12.4445283"><ele>442.0</ele><time>2026-04-04T07:46:34.381Z</time></trkpt><trkpt lat="43.8449167" lon="12.4443333"><ele>441.0</ele><time>2026-04-04T07:46:35.38Z</time></trkpt><trkpt lat="43.84492" lon="12.4441483"><ele>440.0</ele><time>2026-04-04T07:46:36.38Z</time></trkpt><trkpt lat="43.8449267" lon="12.44396"><ele>439.75</ele><time>2026-04-04T07:46:37.38Z</time></trkpt><trkpt lat="43.84493" lon="12.44376"><ele>439.5</ele><time>2026-04-04T07:46:38.381Z</time></trkpt><trkpt lat="43.8449333" lon="12.4435667"><ele>439.25</ele><time>2026-04-04T07:46:39.38Z</time></trkpt><trkpt lat="43.8449317" lon="12.44337"><ele>439.0</ele><time>2026-04-04T07:46:40.38Z</time></trkpt><trkpt lat="43.8449433" lon="12.443185"><ele>439.0</ele><time>2026-04-04T07:46:41.381Z</time></trkpt><trkpt lat="43.8449683" lon="12.4430233"><ele>439.0</ele><time>2026-04-04T07:46:42.38Z</time></trkpt><trkpt lat="43.8450117" lon="12.4428733"><ele>439.0</ele><time>2026-04-04T07:46:43.381Z</time></trkpt><trkpt lat="43.8450833" lon="12.4427417"><ele>439.0</ele><time>2026-04-04T07:46:44.38Z</time></trkpt><trkpt lat="43.8451833" lon="12.44263"><ele>441.75</ele><time>2026-04-04T07:46:45.381Z</time></trkpt><trkpt lat="43.8452883" lon="12.442535"><ele>444.5</ele><time>2026-04-04T07:46:46.381Z</time></trkpt><trkpt lat="43.8454217" lon="12.4424633"><ele>447.25</ele><time>2026-04-04T07:46:47.381Z</time></trkpt><trkpt lat="43.8455517" lon="12.4424017"><ele>450.0</ele><time>2026-04-04T07:46:48.38Z</time></trkpt><trkpt lat="43.8456867" lon="12.4423333"><ele>450.0</ele><time>2026-04-04T07:46:49.38Z</time></trkpt><trkpt lat="43.845825" lon="12.442285"><ele>450.0</ele><time>2026-04-04T07:46:50.38Z</time></trkpt><trkpt lat="43.84595" lon="12.4422417"><ele>450.0</ele><time>2026-04-04T07:46:51.38Z</time></trkpt><trkpt lat="43.8460567" lon="12.442195"><ele>450.0</ele><time>2026-04-04T07:46:52.38Z</time></trkpt><trkpt lat="43.8461467" lon="12.4421317"><ele>450.2</ele><time>2026-04-04T07:46:53.381Z</time></trkpt><trkpt lat="43.84622" lon="12.4420767"><ele>450.4</ele><time>2026-04-04T07:46:54.38Z</time></trkpt><trkpt lat="43.8462767" lon="12.4420017"><ele>450.6</ele><time>2026-04-04T07:46:55.38Z</time></trkpt><trkpt lat="43.846325" lon="12.4418783"><ele>450.8</ele><time>2026-04-04T07:46:56.381Z</time></trkpt><trkpt lat="43.84635" lon="12.441715"><ele>451.0</ele><time>2026-04-04T07:46:57.381Z</time></trkpt><trkpt lat="43.84637" lon="12.4415333"><ele>451.0</ele><time>2026-04-04T07:46:58.38Z</time></trkpt><trkpt lat="43.8463783" lon="12.4413533"><ele>451.0</ele><time>2026-04-04T07:46:59.381Z</time></trkpt><trkpt lat="43.8463867" lon="12.4411717"><ele>451.0</ele><time>2026-04-04T07:47:00.38Z</time></trkpt><trkpt lat="43.84637" lon="12.4409983"><ele>451.0</ele><time>2026-04-04T07:47:01.381Z</time></trkpt><trkpt lat="43.84632" lon="12.4408283"><ele>450.5</ele><time>2026-04-04T07:47:02.381Z</time></trkpt><trkpt lat="43.8462517" lon="12.4406683"><ele>450.0</ele><time>2026-04-04T07:47:03.381Z</time></trkpt><trkpt lat="43.8461533" lon="12.4405333"><ele>449.5</ele><time>2026-04-04T07:47:04.38Z</time></trkpt><trkpt lat="43.8460417" lon="12.4404133"><ele>449.0</ele><time>2026-04-04T07:47:05.381Z</time></trkpt><trkpt lat="43.84593" lon="12.4403067"><ele>449.0</ele><time>2026-04-04T07:47:06.38Z</time></trkpt><trkpt lat="43.845835" lon="12.440205"><ele>449.0</ele><time>2026-04-04T07:47:07.381Z</time></trkpt><trkpt lat="43.8457567" lon="12.4401067"><ele>449.0</ele><time>2026-04-04T07:47:08.381Z</time></trkpt><trkpt lat="43.8456933" lon="12.4399883"><ele>449.0</ele><time>2026-04-04T07:47:09.381Z</time></trkpt><trkpt lat="43.845655" lon="12.439855"><ele>449.0</ele><time>2026-04-04T07:47:10.381Z</time></trkpt><trkpt lat="43.845635" lon="12.4397"><ele>450.0</ele><time>2026-04-04T07:47:11.38Z</time></trkpt><trkpt lat="43.8456383" lon="12.4395217"><ele>451.0</ele><time>2026-04-04T07:47:12.381Z</time></trkpt><trkpt lat="43.84565" lon="12.4393283"><ele>452.0</ele><time>2026-04-04T07:47:13.38Z</time></trkpt><trkpt lat="43.8456583" lon="12.4391233"><ele>453.0</ele><time>2026-04-04T07:47:14.38Z</time></trkpt><trkpt lat="43.84567" lon="12.4389133"><ele>452.66666666666663</ele><time>2026-04-04T07:47:15.38Z</time></trkpt><trkpt lat="43.8456767" lon="12.4386967"><ele>452.3333333333333</ele><time>2026-04-04T07:47:16.381Z</time></trkpt><trkpt lat="43.8456833" lon="12.4384933"><ele>452.0</ele><time>2026-04-04T07:47:17.38Z</time></trkpt><trkpt lat="43.8456933" lon="12.43828"><ele>452.0</ele><time>2026-04-04T07:47:18.38Z</time></trkpt><trkpt lat="43.8457" lon="12.438085"><ele>452.0</ele><time>2026-04-04T07:47:19.379Z</time></trkpt><trkpt lat="43.8457117" lon="12.437895"><ele>452.0</ele><time>2026-04-04T07:47:20.38Z</time></trkpt><trkpt lat="43.845715" lon="12.4377417"><ele>452.0</ele><time>2026-04-04T07:47:21.38Z</time></trkpt><trkpt lat="43.84572" lon="12.4376083"><ele>452.0</ele><time>2026-04-04T07:47:22.381Z</time></trkpt><trkpt lat="43.845725" lon="12.437495"><ele>452.00000000000006</ele><time>2026-04-04T07:47:23.38Z</time></trkpt><trkpt lat="43.8457283" lon="12.43738"><ele>452.00000000000006</ele><time>2026-04-04T07:47:24.38Z</time></trkpt><trkpt lat="43.84573" lon="12.4372483"><ele>452.0</ele><time>2026-04-04T07:47:25.38Z</time></trkpt><trkpt lat="43.8457317" lon="12.4370983"><ele>452.0</ele><time>2026-04-04T07:47:26.381Z</time></trkpt><trkpt lat="43.845725" lon="12.4369233"><ele>452.25</ele><time>2026-04-04T07:47:27.381Z</time></trkpt><trkpt lat="43.8457167" lon="12.436735"><ele>452.5</ele><time>2026-04-04T07:47:28.381Z</time></trkpt><trkpt lat="43.8457067" lon="12.4365383"><ele>452.75</ele><time>2026-04-04T07:47:29.38Z</time></trkpt><trkpt lat="43.8457" lon="12.436345"><ele>453.0</ele><time>2026-04-04T07:47:30.38Z</time></trkpt><trkpt lat="43.84569" lon="12.43616"><ele>454.0</ele><time>2026-04-04T07:47:31.381Z</time></trkpt><trkpt lat="43.8456833" lon="12.4359667"><ele>455.0</ele><time>2026-04-04T07:47:32.38Z</time></trkpt><trkpt lat="43.84567" lon="12.435775"><ele>456.0</ele><time>2026-04-04T07:47:33.381Z</time></trkpt><trkpt lat="43.8456633" lon="12.43557"><ele>457.0</ele><time>2026-04-04T07:47:34.381Z</time></trkpt><trkpt lat="43.8456517" lon="12.4353717"><ele>457.5</ele><time>2026-04-04T07:47:35.38Z</time></trkpt><trkpt lat="43.84564" lon="12.4351833"><ele>458.0</ele><time>2026-04-04T07:47:36.381Z</time></trkpt><trkpt lat="43.845635" lon="12.4349967"><ele>458.5</ele><time>2026-04-04T07:47:37.381Z</time></trkpt><trkpt lat="43.8456267" lon="12.43481"><ele>459.0</ele><time>2026-04-04T07:47:38.38Z</time></trkpt><trkpt lat="43.84562" lon="12.434625"><ele>459.5</ele><time>2026-04-04T07:47:39.38Z</time></trkpt><trkpt lat="43.84562" lon="12.4344533"><ele>460.0</ele><time>2026-04-04T07:47:40.38Z</time></trkpt><trkpt lat="43.8456233" lon="12.4342933"><ele>460.5</ele><time>2026-04-04T07:47:41.38Z</time></trkpt><trkpt lat="43.845625" lon="12.4341267"><ele>461.0</ele><time>2026-04-04T07:47:42.38Z</time></trkpt><trkpt lat="43.845635" lon="12.4339717"><ele>461.0</ele><time>2026-04-04T07:47:43.381Z</time></trkpt><trkpt lat="43.8456417" lon="12.433815"><ele>461.0</ele><time>2026-04-04T07:47:44.38Z</time></trkpt><trkpt lat="43.8456533" lon="12.4336567"><ele>461.0</ele><time>2026-04-04T07:47:45.38Z</time></trkpt><trkpt lat="43.8456717" lon="12.4335083"><ele>461.0</ele><time>2026-04-04T07:47:46.38Z</time></trkpt><trkpt lat="43.845695" lon="12.4333433"><ele>460.0</ele><time>2026-04-04T07:47:47.381Z</time></trkpt><trkpt lat="43.84571" lon="12.4331767"><ele>459.0</ele><time>2026-04-04T07:47:48.38Z</time></trkpt><trkpt lat="43.8457233" lon="12.4330167"><ele>458.0</ele><time>2026-04-04T07:47:49.38Z</time></trkpt><trkpt lat="43.8457417" lon="12.43284"><ele>457.0</ele><time>2026-04-04T07:47:50.38Z</time></trkpt><trkpt lat="43.8457617" lon="12.4326733"><ele>457.0</ele><time>2026-04-04T07:47:51.381Z</time></trkpt><trkpt lat="43.84578" lon="12.4324883"><ele>457.0</ele><time>2026-04-04T07:47:52.38Z</time></trkpt><trkpt lat="43.8457833" lon="12.432305"><ele>457.0</ele><time>2026-04-04T07:47:53.381Z</time></trkpt><trkpt lat="43.8457717" lon="12.4321233"><ele>457.0</ele><time>2026-04-04T07:47:54.381Z</time></trkpt><trkpt lat="43.8457517" lon="12.4319483"><ele>457.25</ele><time>2026-04-04T07:47:55.38Z</time></trkpt><trkpt lat="43.8457283" lon="12.4317883"><ele>457.5</ele><time>2026-04-04T07:47:56.381Z</time></trkpt><trkpt lat="43.8457067" lon="12.431635"><ele>457.75</ele><time>2026-04-04T07:47:57.381Z</time></trkpt><trkpt lat="43.84569" lon="12.4314783"><ele>458.0</ele><time>2026-04-04T07:47:58.38Z</time></trkpt><trkpt lat="43.845685" lon="12.4313217"><ele>458.0</ele><time>2026-04-04T07:47:59.38Z</time></trkpt><trkpt lat="43.8457" lon="12.431155"><ele>458.0</ele><time>2026-04-04T07:48:00.38Z</time></trkpt><trkpt lat="43.845735" lon="12.4309833"><ele>458.0</ele><time>2026-04-04T07:48:01.38Z</time></trkpt><trkpt lat="43.845785" lon="12.4308117"><ele>458.0</ele><time>2026-04-04T07:48:02.38Z</time></trkpt><trkpt lat="43.8458483" lon="12.4306383"><ele>457.25</ele><time>2026-04-04T07:48:03.38Z</time></trkpt><trkpt lat="43.8459167" lon="12.4304617"><ele>456.5</ele><time>2026-04-04T07:48:04.38Z</time></trkpt><trkpt lat="43.84598" lon="12.4302667"><ele>455.75</ele><time>2026-04-04T07:48:05.38Z</time></trkpt><trkpt lat="43.8460433" lon="12.43008"><ele>455.0</ele><time>2026-04-04T07:48:06.38Z</time></trkpt><trkpt lat="43.8461067" lon="12.42989"><ele>459.0</ele><time>2026-04-04T07:48:07.38Z</time></trkpt><trkpt lat="43.8461683" lon="12.4297117"><ele>463.0</ele><time>2026-04-04T07:48:08.38Z</time></trkpt><trkpt lat="43.8462283" lon="12.429535"><ele>467.0</ele><time>2026-04-04T07:48:09.38Z</time></trkpt><trkpt lat="43.8462883" lon="12.4293683"><ele>471.0</ele><time>2026-04-04T07:48:10.381Z</time></trkpt><trkpt lat="43.846335" lon="12.42919"><ele>471.0</ele><time>2026-04-04T07:48:11.38Z</time></trkpt><trkpt lat="43.8463467" lon="12.4290083"><ele>471.0</ele><time>2026-04-04T07:48:12.38Z</time></trkpt><trkpt lat="43.8463367" lon="12.4288233"><ele>471.0</ele><time>2026-04-04T07:48:13.38Z</time></trkpt><trkpt lat="43.8462983" lon="12.4286367"><ele>471.0</ele><time>2026-04-04T07:48:14.381Z</time></trkpt><trkpt lat="43.8462583" lon="12.4284517"><ele>471.0</ele><time>2026-04-04T07:48:15.38Z</time></trkpt><trkpt lat="43.846215" lon="12.4282667"><ele>471.0</ele><time>2026-04-04T07:48:16.381Z</time></trkpt><trkpt lat="43.8461783" lon="12.4280683"><ele>471.0</ele><time>2026-04-04T07:48:17.38Z</time></trkpt><trkpt lat="43.8461467" lon="12.4278667"><ele>471.0</ele><time>2026-04-04T07:48:18.38Z</time></trkpt><trkpt lat="43.846105" lon="12.427675"><ele>471.0</ele><time>2026-04-04T07:48:19.381Z</time></trkpt><trkpt lat="43.84606" lon="12.4274917"><ele>471.0</ele><time>2026-04-04T07:48:20.38Z</time></trkpt><trkpt lat="43.8460183" lon="12.4272983"><ele>471.0</ele><time>2026-04-04T07:48:21.381Z</time></trkpt><trkpt lat="43.8459717" lon="12.4271067"><ele>471.0</ele><time>2026-04-04T07:48:22.381Z</time></trkpt><trkpt lat="43.8459383" lon="12.42692"><ele>469.25</ele><time>2026-04-04T07:48:23.381Z</time></trkpt><trkpt lat="43.84591" lon="12.4267233"><ele>467.5</ele><time>2026-04-04T07:48:24.381Z</time></trkpt><trkpt lat="43.8458933" lon="12.4265233"><ele>465.75</ele><time>2026-04-04T07:48:25.38Z</time></trkpt><trkpt lat="43.8458883" lon="12.4263183"><ele>464.0</ele><time>2026-04-04T07:48:26.381Z</time></trkpt><trkpt lat="43.8458933" lon="12.4261033"><ele>464.0</ele><time>2026-04-04T07:48:27.381Z</time></trkpt><trkpt lat="43.8459183" lon="12.4258967"><ele>464.0</ele><time>2026-04-04T07:48:28.381Z</time></trkpt><trkpt lat="43.8459517" lon="12.4256817"><ele>464.0</ele><time>2026-04-04T07:48:29.38Z</time></trkpt><trkpt lat="43.8459933" lon="12.4254733"><ele>470.3333333333333</ele><time>2026-04-04T07:48:30.381Z</time></trkpt><trkpt lat="43.8460533" lon="12.425275"><ele>476.66666666666663</ele><time>2026-04-04T07:48:31.38Z</time></trkpt><trkpt lat="43.84611" lon="12.4250717"><ele>483.0</ele><time>2026-04-04T07:48:32.38Z</time></trkpt><trkpt lat="43.8461567" lon="12.4248817"><ele>483.0</ele><time>2026-04-04T07:48:33.38Z</time></trkpt><trkpt lat="43.8461933" lon="12.42467"><ele>483.0</ele><time>2026-04-04T07:48:34.38Z</time></trkpt><trkpt lat="43.8462267" lon="12.4244717"><ele>483.0</ele><time>2026-04-04T07:48:35.38Z</time></trkpt><trkpt lat="43.8462533" lon="12.4242717"><ele>483.75</ele><time>2026-04-04T07:48:36.38Z</time></trkpt><trkpt lat="43.84625" lon="12.4240783"><ele>484.5</ele><time>2026-04-04T07:48:37.381Z</time></trkpt><trkpt lat="43.8462183" lon="12.423875"><ele>485.25</ele><time>2026-04-04T07:48:38.38Z</time></trkpt><trkpt lat="43.8461717" lon="12.4236867"><ele>486.0</ele><time>2026-04-04T07:48:39.38Z</time></trkpt><trkpt lat="43.8461183" lon="12.42348"><ele>488.33333333333337</ele><time>2026-04-04T07:48:40.38Z</time></trkpt><trkpt lat="43.8460767" lon="12.4232683"><ele>490.6666666666667</ele><time>2026-04-04T07:48:41.381Z</time></trkpt><trkpt lat="43.8460467" lon="12.4230533"><ele>493.0</ele><time>2026-04-04T07:48:42.38Z</time></trkpt><trkpt lat="43.8460383" lon="12.4228417"><ele>493.0</ele><time>2026-04-04T07:48:43.38Z</time></trkpt><trkpt lat="43.8460383" lon="12.4226233"><ele>493.0</ele><time>2026-04-04T07:48:44.38Z</time></trkpt><trkpt lat="43.846055" lon="12.4224017"><ele>493.0</ele><time>2026-04-04T07:48:45.38Z</time></trkpt><trkpt lat="43.8460867" lon="12.42219"><ele>489.6666666666667</ele><time>2026-04-04T07:48:46.38Z</time></trkpt><trkpt lat="43.8461133" lon="12.4219767"><ele>486.33333333333337</ele><time>2026-04-04T07:48:47.38Z</time></trkpt><trkpt lat="43.8461467" lon="12.4217733"><ele>483.0</ele><time>2026-04-04T07:48:48.38Z</time></trkpt><trkpt lat="43.8461783" lon="12.4215633"><ele>483.0</ele><time>2026-04-04T07:48:49.381Z</time></trkpt><trkpt lat="43.84622" lon="12.4213533"><ele>483.0</ele><time>2026-04-04T07:48:50.38Z</time></trkpt><trkpt lat="43.846255" lon="12.421155"><ele>483.0</ele><time>2026-04-04T07:48:51.381Z</time></trkpt><trkpt lat="43.846295" lon="12.4209383"><ele>482.25</ele><time>2026-04-04T07:48:52.38Z</time></trkpt><trkpt lat="43.8463283" lon="12.4207367"><ele>481.5</ele><time>2026-04-04T07:48:53.38Z</time></trkpt><trkpt lat="43.8463717" lon="12.420545"><ele>480.75</ele><time>2026-04-04T07:48:54.381Z</time></trkpt><trkpt lat="43.846425" lon="12.420365"><ele>480.0</ele><time>2026-04-04T07:48:55.38Z</time></trkpt><trkpt lat="43.84648" lon="12.420215"><ele>479.2</ele><time>2026-04-04T07:48:56.38Z</time></trkpt><trkpt lat="43.8465367" lon="12.4200733"><ele>478.4</ele><time>2026-04-04T07:48:57.381Z</time></trkpt><trkpt lat="43.84656" lon="12.41991"><ele>477.6</ele><time>2026-04-04T07:48:58.38Z</time></trkpt><trkpt lat="43.8465533" lon="12.4197633"><ele>476.8</ele><time>2026-04-04T07:48:59.38Z</time></trkpt><trkpt lat="43.8465183" lon="12.4196267"><ele>476.0</ele><time>2026-04-04T07:49:00.381Z</time></trkpt><trkpt lat="43.8464567" lon="12.4194883"><ele>476.0</ele><time>2026-04-04T07:49:01.38Z</time></trkpt><trkpt lat="43.8463817" lon="12.4193517"><ele>476.0</ele><time>2026-04-04T07:49:02.38Z</time></trkpt><trkpt lat="43.8462967" lon="12.419225"><ele>476.0</ele><time>2026-04-04T07:49:03.38Z</time></trkpt><trkpt lat="43.8462183" lon="12.419095"><ele>476.0</ele><time>2026-04-04T07:49:04.38Z</time></trkpt><trkpt lat="43.846145" lon="12.4189833"><ele>476.0</ele><time>2026-04-04T07:49:05.381Z</time></trkpt><trkpt lat="43.8460733" lon="12.418875"><ele>476.0</ele><time>2026-04-04T07:49:06.38Z</time></trkpt><trkpt lat="43.8460167" lon="12.41877"><ele>476.0</ele><time>2026-04-04T07:49:07.38Z</time></trkpt><trkpt lat="43.8459583" lon="12.41866"><ele>476.0</ele><time>2026-04-04T07:49:08.38Z</time></trkpt><trkpt lat="43.845915" lon="12.4185317"><ele>476.0</ele><time>2026-04-04T07:49:09.381Z</time></trkpt><trkpt lat="43.8458733" lon="12.418385"><ele>476.25</ele><time>2026-04-04T07:49:10.381Z</time></trkpt><trkpt lat="43.8458317" lon="12.4182217"><ele>476.5</ele><time>2026-04-04T07:49:11.381Z</time></trkpt><trkpt lat="43.8457917" lon="12.41805"><ele>476.75</ele><time>2026-04-04T07:49:12.38Z</time></trkpt><trkpt lat="43.8457583" lon="12.41787"><ele>477.0</ele><time>2026-04-04T07:49:13.381Z</time></trkpt><trkpt lat="43.845725" lon="12.4176883"><ele>477.0</ele><time>2026-04-04T07:49:14.381Z</time></trkpt><trkpt lat="43.8456933" lon="12.4175017"><ele>477.0</ele><time>2026-04-04T07:49:15.38Z</time></trkpt><trkpt lat="43.845665" lon="12.4173333"><ele>477.0</ele><time>2026-04-04T07:49:16.381Z</time></trkpt><trkpt lat="43.8456367" lon="12.4171667"><ele>477.0</ele><time>2026-04-04T07:49:17.38Z</time></trkpt><trkpt lat="43.8456017" lon="12.4170033"><ele>477.0</ele><time>2026-04-04T07:49:18.38Z</time></trkpt><trkpt lat="43.8455667" lon="12.41685"><ele>477.00000000000006</ele><time>2026-04-04T07:49:19.38Z</time></trkpt><trkpt lat="43.8455283" lon="12.4167033"><ele>477.00000000000006</ele><time>2026-04-04T07:49:20.38Z</time></trkpt><trkpt lat="43.8454683" lon="12.4165783"><ele>477.0</ele><time>2026-04-04T07:49:21.38Z</time></trkpt><trkpt lat="43.8453883" lon="12.4164883"><ele>477.0</ele><time>2026-04-04T07:49:22.38Z</time></trkpt><trkpt lat="43.8452983" lon="12.4164383"><ele>477.0</ele><time>2026-04-04T07:49:23.38Z</time></trkpt><trkpt lat="43.8452" lon="12.416435"><ele>477.0</ele><time>2026-04-04T07:49:24.38Z</time></trkpt><trkpt lat="43.8450833" lon="12.4164783"><ele>477.0</ele><time>2026-04-04T07:49:25.38Z</time></trkpt><trkpt lat="43.84496" lon="12.4165533"><ele>477.0</ele><time>2026-04-04T07:49:26.38Z</time></trkpt><trkpt lat="43.8448383" lon="12.4166217"><ele>473.0</ele><time>2026-04-04T07:49:27.38Z</time></trkpt><trkpt lat="43.84471" lon="12.4166883"><ele>469.0</ele><time>2026-04-04T07:49:28.38Z</time></trkpt><trkpt lat="43.8445817" lon="12.41676"><ele>465.0</ele><time>2026-04-04T07:49:29.38Z</time></trkpt><trkpt lat="43.844465" lon="12.4168317"><ele>461.0</ele><time>2026-04-04T07:49:30.381Z</time></trkpt><trkpt lat="43.8443617" lon="12.416885"><ele>459.6</ele><time>2026-04-04T07:49:31.38Z</time></trkpt><trkpt lat="43.8442783" lon="12.416925"><ele>458.20000000000005</ele><time>2026-04-04T07:49:32.381Z</time></trkpt><trkpt lat="43.8442167" lon="12.416955"><ele>456.79999999999995</ele><time>2026-04-04T07:49:33.381Z</time></trkpt><trkpt lat="43.84413" lon="12.4170067"><ele>455.4</ele><time>2026-04-04T07:50:03.381Z</time></trkpt><trkpt lat="43.8440217" lon="12.41708"><ele>454.0</ele><time>2026-04-04T07:50:05.381Z</time></trkpt><trkpt lat="43.843945" lon="12.417135"><ele>454.2</ele><time>2026-04-04T07:50:06.38Z</time></trkpt><trkpt lat="43.8438667" lon="12.4171883"><ele>454.4</ele><time>2026-04-04T07:50:07.38Z</time></trkpt><trkpt lat="43.84378" lon="12.4172367"><ele>454.6</ele><time>2026-04-04T07:50:08.38Z</time></trkpt><trkpt lat="43.843685" lon="12.417275"><ele>454.8</ele><time>2026-04-04T07:50:09.38Z</time></trkpt><trkpt lat="43.843585" lon="12.4172783"><ele>455.0</ele><time>2026-04-04T07:50:10.38Z</time></trkpt><trkpt lat="43.843485" lon="12.4172367"><ele>457.25</ele><time>2026-04-04T07:50:11.38Z</time></trkpt><trkpt lat="43.843395" lon="12.41715"><ele>459.5</ele><time>2026-04-04T07:50:12.38Z</time></trkpt><trkpt lat="43.8433133" lon="12.4170433"><ele>461.75</ele><time>2026-04-04T07:50:13.381Z</time></trkpt><trkpt lat="43.843225" lon="12.416945"><ele>464.0</ele><time>2026-04-04T07:50:14.381Z</time></trkpt><trkpt lat="43.8431267" lon="12.4168633"><ele>464.0</ele><time>2026-04-04T07:50:15.381Z</time></trkpt><trkpt lat="43.8430133" lon="12.4168217"><ele>464.0</ele><time>2026-04-04T07:50:16.38Z</time></trkpt><trkpt lat="43.8428967" lon="12.4168217"><ele>464.0</ele><time>2026-04-04T07:50:17.381Z</time></trkpt><trkpt lat="43.8427733" lon="12.416845"><ele>464.0</ele><time>2026-04-04T07:50:18.381Z</time></trkpt><trkpt lat="43.8426633" lon="12.4168667"><ele>466.2</ele><time>2026-04-04T07:50:19.381Z</time></trkpt><trkpt lat="43.8425633" lon="12.4168833"><ele>468.4</ele><time>2026-04-04T07:50:20.381Z</time></trkpt><trkpt lat="43.84247" lon="12.4168983"><ele>470.6</ele><time>2026-04-04T07:50:21.38Z</time></trkpt><trkpt lat="43.842385" lon="12.4169217"><ele>472.8</ele><time>2026-04-04T07:50:22.381Z</time></trkpt><trkpt lat="43.8423133" lon="12.4169783"><ele>475.0</ele><time>2026-04-04T07:50:23.38Z</time></trkpt><trkpt lat="43.8422467" lon="12.4170617"><ele>476.0</ele><time>2026-04-04T07:50:24.38Z</time></trkpt><trkpt lat="43.84221" lon="12.4171717"><ele>477.0</ele><time>2026-04-04T07:50:25.38Z</time></trkpt><trkpt lat="43.8421917" lon="12.4172933"><ele>478.0</ele><time>2026-04-04T07:50:26.38Z</time></trkpt><trkpt lat="43.842225" lon="12.4174167"><ele>479.0</ele><time>2026-04-04T07:50:27.381Z</time></trkpt><trkpt lat="43.84229" lon="12.417535"><ele>480.0</ele><time>2026-04-04T07:50:28.38Z</time></trkpt><trkpt lat="43.842395" lon="12.4176383"><ele>480.0</ele><time>2026-04-04T07:50:29.381Z</time></trkpt><trkpt lat="43.8425033" lon="12.4177333"><ele>480.0</ele><time>2026-04-04T07:50:30.381Z</time></trkpt><trkpt lat="43.8425833" lon="12.4178217"><ele>480.0</ele><time>2026-04-04T07:50:31.381Z</time></trkpt><trkpt lat="43.8426567" lon="12.417895"><ele>480.0</ele><time>2026-04-04T07:50:32.381Z</time></trkpt><trkpt lat="43.842705" lon="12.4179633"><ele>480.0</ele><time>2026-04-04T07:50:33.381Z</time></trkpt><trkpt lat="43.84274" lon="12.4180433"><ele>481.1666666666667</ele><time>2026-04-04T07:50:34.38Z</time></trkpt><trkpt lat="43.8427433" lon="12.41814"><ele>482.33333333333337</ele><time>2026-04-04T07:50:35.38Z</time></trkpt><trkpt lat="43.8427067" lon="12.41823"><ele>483.5</ele><time>2026-04-04T07:50:36.38Z</time></trkpt><trkpt lat="43.8426433" lon="12.418285"><ele>484.6666666666667</ele><time>2026-04-04T07:50:37.38Z</time></trkpt><trkpt lat="43.842555" lon="12.4182833"><ele>485.83333333333337</ele><time>2026-04-04T07:50:38.38Z</time></trkpt><trkpt lat="43.8424517" lon="12.418245"><ele>487.0</ele><time>2026-04-04T07:50:39.38Z</time></trkpt><trkpt lat="43.8423383" lon="12.4181783"><ele>487.0</ele><time>2026-04-04T07:50:40.38Z</time></trkpt><trkpt lat="43.84222" lon="12.4181017"><ele>487.0</ele><time>2026-04-04T07:50:41.381Z</time></trkpt><trkpt lat="43.8420983" lon="12.41802"><ele>487.0</ele><time>2026-04-04T07:50:42.38Z</time></trkpt><trkpt lat="43.8419783" lon="12.41796"><ele>487.0</ele><time>2026-04-04T07:50:43.38Z</time></trkpt><trkpt lat="43.841865" lon="12.4178967"><ele>488.0</ele><time>2026-04-04T07:50:44.38Z</time></trkpt><trkpt lat="43.8417667" lon="12.41782"><ele>489.00000000000006</ele><time>2026-04-04T07:50:45.38Z</time></trkpt><trkpt lat="43.84167" lon="12.4177567"><ele>490.00000000000006</ele><time>2026-04-04T07:50:46.381Z</time></trkpt><trkpt lat="43.8415817" lon="12.417695"><ele>491.0</ele><time>2026-04-04T07:50:47.381Z</time></trkpt><trkpt lat="43.8414983" lon="12.4176317"><ele>492.0</ele><time>2026-04-04T07:50:48.38Z</time></trkpt><trkpt lat="43.8414167" lon="12.417575"><ele>492.0</ele><time>2026-04-04T07:50:49.38Z</time></trkpt><trkpt lat="43.8412683" lon="12.4174433"><ele>492.0</ele><time>2026-04-04T07:50:51.38Z</time></trkpt><trkpt lat="43.8411317" lon="12.4173283"><ele>492.0</ele><time>2026-04-04T07:50:53.38Z</time></trkpt><trkpt lat="43.841025" lon="12.41725"><ele>494.0</ele><time>2026-04-04T07:50:55.381Z</time></trkpt><trkpt lat="43.840885" lon="12.4171117"><ele>496.0</ele><time>2026-04-04T07:50:58.381Z</time></trkpt><trkpt lat="43.84084" lon="12.4170383"><ele>498.0</ele><time>2026-04-04T07:50:59.38Z</time></trkpt><trkpt lat="43.8407633" lon="12.4168283"><ele>500.0</ele><time>2026-04-04T07:51:01.381Z</time></trkpt><trkpt lat="43.8407267" lon="12.4167"><ele>500.0</ele><time>2026-04-04T07:51:02.38Z</time></trkpt><trkpt lat="43.8407" lon="12.4165767"><ele>500.0</ele><time>2026-04-04T07:51:03.38Z</time></trkpt><trkpt lat="43.8406667" lon="12.416455"><ele>500.0</ele><time>2026-04-04T07:51:04.38Z</time></trkpt><trkpt lat="43.8406217" lon="12.4163467"><ele>500.0</ele><time>2026-04-04T07:51:05.381Z</time></trkpt><trkpt lat="43.8405683" lon="12.4162467"><ele>500.0</ele><time>2026-04-04T07:51:06.38Z</time></trkpt><trkpt lat="43.8405067" lon="12.4161617"><ele>499.66666666666663</ele><time>2026-04-04T07:51:07.381Z</time></trkpt><trkpt lat="43.8403717" lon="12.4159967"><ele>499.33333333333337</ele><time>2026-04-04T07:51:09.38Z</time></trkpt><trkpt lat="43.8402883" lon="12.41577"><ele>499.0</ele><time>2026-04-04T07:51:11.38Z</time></trkpt><trkpt lat="43.84026" lon="12.415655"><ele>499.00000000000006</ele><time>2026-04-04T07:51:12.38Z</time></trkpt><trkpt lat="43.8402283" lon="12.4155383"><ele>499.0</ele><time>2026-04-04T07:51:13.38Z</time></trkpt><trkpt lat="43.84018" lon="12.4154333"><ele>499.0</ele><time>2026-04-04T07:51:14.38Z</time></trkpt><trkpt lat="43.8401317" lon="12.415325"><ele>499.0</ele><time>2026-04-04T07:51:15.381Z</time></trkpt><trkpt lat="43.8400667" lon="12.4152483"><ele>499.00000000000006</ele><time>2026-04-04T07:51:16.38Z</time></trkpt><trkpt lat="43.8399917" lon="12.4152017"><ele>499.0</ele><time>2026-04-04T07:51:17.381Z</time></trkpt><trkpt lat="43.8399283" lon="12.4151783"><ele>500.79999999999995</ele><time>2026-04-04T07:51:18.381Z</time></trkpt><trkpt lat="43.8398633" lon="12.415175"><ele>502.59999999999997</ele><time>2026-04-04T07:51:19.38Z</time></trkpt><trkpt lat="43.8397983" lon="12.415165"><ele>504.4</ele><time>2026-04-04T07:51:20.381Z</time></trkpt><trkpt lat="43.83963" lon="12.415145"><ele>506.2</ele><time>2026-04-04T07:51:22.381Z</time></trkpt><trkpt lat="43.8395267" lon="12.4150967"><ele>508.0</ele><time>2026-04-04T07:51:23.381Z</time></trkpt><trkpt lat="43.8394283" lon="12.41502"><ele>508.0</ele><time>2026-04-04T07:51:24.38Z</time></trkpt><trkpt lat="43.839335" lon="12.414905"><ele>508.0</ele><time>2026-04-04T07:51:25.38Z</time></trkpt><trkpt lat="43.839255" lon="12.414775"><ele>508.0</ele><time>2026-04-04T07:51:26.38Z</time></trkpt><trkpt lat="43.8391817" lon="12.414635"><ele>508.0</ele><time>2026-04-04T07:51:27.381Z</time></trkpt><trkpt lat="43.8391133" lon="12.4145"><ele>510.2</ele><time>2026-04-04T07:51:28.38Z</time></trkpt><trkpt lat="43.8390517" lon="12.4143717"><ele>512.4</ele><time>2026-04-04T07:51:29.38Z</time></trkpt><trkpt lat="43.8389967" lon="12.4142567"><ele>514.5999999999999</ele><time>2026-04-04T07:51:30.38Z</time></trkpt><trkpt lat="43.8389417" lon="12.4141333"><ele>516.8</ele><time>2026-04-04T07:51:31.381Z</time></trkpt><trkpt lat="43.838875" lon="12.4140317"><ele>519.0</ele><time>2026-04-04T07:51:32.38Z</time></trkpt><trkpt lat="43.8388083" lon="12.4139583"><ele>519.0</ele><time>2026-04-04T07:51:33.38Z</time></trkpt><trkpt lat="43.8387383" lon="12.4138983"><ele>519.0</ele><time>2026-04-04T07:51:34.381Z</time></trkpt><trkpt lat="43.8386667" lon="12.4138367"><ele>519.0</ele><time>2026-04-04T07:51:35.38Z</time></trkpt><trkpt lat="43.8385967" lon="12.4137783"><ele>519.0</ele><time>2026-04-04T07:51:36.38Z</time></trkpt><trkpt lat="43.8385217" lon="12.41373"><ele>519.0</ele><time>2026-04-04T07:51:37.381Z</time></trkpt><trkpt lat="43.8384417" lon="12.413675"><ele>519.0</ele><time>2026-04-04T07:51:38.38Z</time></trkpt><trkpt lat="43.838365" lon="12.4136367"><ele>519.5</ele><time>2026-04-04T07:51:39.38Z</time></trkpt><trkpt lat="43.8382867" lon="12.4136083"><ele>520.0</ele><time>2026-04-04T07:51:40.38Z</time></trkpt><trkpt lat="43.8382267" lon="12.413655"><ele>520.5</ele><time>2026-04-04T07:51:41.381Z</time></trkpt><trkpt lat="43.8381833" lon="12.4137367"><ele>521.0</ele><time>2026-04-04T07:51:42.38Z</time></trkpt><trkpt lat="43.838155" lon="12.4138533"><ele>521.5</ele><time>2026-04-04T07:51:43.381Z</time></trkpt><trkpt lat="43.83817" lon="12.4140067"><ele>522.0</ele><time>2026-04-04T07:51:44.38Z</time></trkpt><trkpt lat="43.83819" lon="12.414165"><ele>523.5</ele><time>2026-04-04T07:51:45.38Z</time></trkpt><trkpt lat="43.8382033" lon="12.4143233"><ele>525.0</ele><time>2026-04-04T07:51:46.38Z</time></trkpt><trkpt lat="43.8382117" lon="12.4144917"><ele>526.5</ele><time>2026-04-04T07:51:47.38Z</time></trkpt><trkpt lat="43.8382217" lon="12.4146633"><ele>528.0</ele><time>2026-04-04T07:51:48.38Z</time></trkpt><trkpt lat="43.8382367" lon="12.4148283"><ele>529.25</ele><time>2026-04-04T07:51:49.38Z</time></trkpt><trkpt lat="43.8382517" lon="12.41499"><ele>530.5</ele><time>2026-04-04T07:51:50.38Z</time></trkpt><trkpt lat="43.8382633" lon="12.4151517"><ele>531.75</ele><time>2026-04-04T07:51:51.381Z</time></trkpt><trkpt lat="43.8382733" lon="12.4153083"><ele>533.0</ele><time>2026-04-04T07:51:52.38Z</time></trkpt><trkpt lat="43.83828" lon="12.41545"><ele>533.4</ele><time>2026-04-04T07:51:53.38Z</time></trkpt><trkpt lat="43.8382833" lon="12.415585"><ele>533.8</ele><time>2026-04-04T07:51:54.38Z</time></trkpt><trkpt lat="43.8382783" lon="12.415725"><ele>534.2</ele><time>2026-04-04T07:51:55.381Z</time></trkpt><trkpt lat="43.8382567" lon="12.41587"><ele>534.6</ele><time>2026-04-04T07:51:56.381Z</time></trkpt><trkpt lat="43.83822" lon="12.4160217"><ele>535.0</ele><time>2026-04-04T07:51:57.38Z</time></trkpt><trkpt lat="43.8381883" lon="12.4161883"><ele>535.6666666666667</ele><time>2026-04-04T07:51:58.38Z</time></trkpt><trkpt lat="43.8381533" lon="12.416385"><ele>536.3333333333334</ele><time>2026-04-04T07:51:59.38Z</time></trkpt><trkpt lat="43.838105" lon="12.4165883"><ele>537.0</ele><time>2026-04-04T07:52:00.38Z</time></trkpt><trkpt lat="43.838055" lon="12.4167967"><ele>537.0</ele><time>2026-04-04T07:52:01.381Z</time></trkpt><trkpt lat="43.838025" lon="12.4170133"><ele>537.0</ele><time>2026-04-04T07:52:02.38Z</time></trkpt><trkpt lat="43.8380083" lon="12.4172217"><ele>537.0</ele><time>2026-04-04T07:52:03.381Z</time></trkpt><trkpt lat="43.8380183" lon="12.41742"><ele>537.0</ele><time>2026-04-04T07:52:04.38Z</time></trkpt><trkpt lat="43.8380233" lon="12.4176"><ele>537.0</ele><time>2026-04-04T07:52:05.38Z</time></trkpt><trkpt lat="43.8380383" lon="12.4177567"><ele>537.0</ele><time>2026-04-04T07:52:06.38Z</time></trkpt><trkpt lat="43.83803" lon="12.4179"><ele>537.0</ele><time>2026-04-04T07:52:07.38Z</time></trkpt><trkpt lat="43.8379883" lon="12.4180383"><ele>537.6</ele><time>2026-04-04T07:52:08.381Z</time></trkpt><trkpt lat="43.83792" lon="12.41814"><ele>538.2</ele><time>2026-04-04T07:52:09.38Z</time></trkpt><trkpt lat="43.83782" lon="12.4181983"><ele>538.8</ele><time>2026-04-04T07:52:10.38Z</time></trkpt><trkpt lat="43.837715" lon="12.4181917"><ele>539.4</ele><time>2026-04-04T07:52:11.38Z</time></trkpt><trkpt lat="43.8376167" lon="12.4181267"><ele>540.0</ele><time>2026-04-04T07:52:12.381Z</time></trkpt><trkpt lat="43.8375333" lon="12.4180117"><ele>542.75</ele><time>2026-04-04T07:52:13.38Z</time></trkpt><trkpt lat="43.83746" lon="12.41787"><ele>545.5</ele><time>2026-04-04T07:52:14.38Z</time></trkpt><trkpt lat="43.8374017" lon="12.4177283"><ele>548.25</ele><time>2026-04-04T07:52:15.38Z</time></trkpt><trkpt lat="43.8373417" lon="12.4175867"><ele>551.0</ele><time>2026-04-04T07:52:16.38Z</time></trkpt><trkpt lat="43.8372767" lon="12.4174583"><ele>551.0</ele><time>2026-04-04T07:52:17.38Z</time></trkpt><trkpt lat="43.8372133" lon="12.41734"><ele>551.0</ele><time>2026-04-04T07:52:18.38Z</time></trkpt><trkpt lat="43.837145" lon="12.4172367"><ele>551.0</ele><time>2026-04-04T07:52:19.38Z</time></trkpt><trkpt lat="43.8370817" lon="12.41715"><ele>551.0</ele><time>2026-04-04T07:52:20.38Z</time></trkpt><trkpt lat="43.83702" lon="12.4170717"><ele>551.0</ele><time>2026-04-04T07:52:21.38Z</time></trkpt><trkpt lat="43.8369583" lon="12.4170017"><ele>550.6666666666666</ele><time>2026-04-04T07:52:22.38Z</time></trkpt><trkpt lat="43.83685" lon="12.4168617"><ele>550.3333333333334</ele><time>2026-04-04T07:52:24.381Z</time></trkpt><trkpt lat="43.8367217" lon="12.4167017"><ele>550.0</ele><time>2026-04-04T07:52:26.38Z</time></trkpt><trkpt lat="43.8366033" lon="12.41655"><ele>551.5</ele><time>2026-04-04T07:52:28.38Z</time></trkpt><trkpt lat="43.8365167" lon="12.4164383"><ele>553.0</ele><time>2026-04-04T07:52:30.381Z</time></trkpt><trkpt lat="43.8364617" lon="12.4163917"><ele>554.5</ele><time>2026-04-04T07:52:31.381Z</time></trkpt><trkpt lat="43.8364017" lon="12.41634"><ele>556.0</ele><time>2026-04-04T07:52:32.38Z</time></trkpt><trkpt lat="43.8363367" lon="12.4163033"><ele>557.5</ele><time>2026-04-04T07:52:33.381Z</time></trkpt><trkpt lat="43.8362233" lon="12.4163583"><ele>559.0</ele><time>2026-04-04T07:52:35.381Z</time></trkpt><trkpt lat="43.8361733" lon="12.41645"><ele>559.6666666666667</ele><time>2026-04-04T07:52:36.38Z</time></trkpt><trkpt lat="43.8361383" lon="12.41657"><ele>560.3333333333334</ele><time>2026-04-04T07:52:37.381Z</time></trkpt><trkpt lat="43.8361233" lon="12.4167"><ele>561.0</ele><time>2026-04-04T07:52:38.38Z</time></trkpt><trkpt lat="43.8361183" lon="12.4168167"><ele>561.6666666666666</ele><time>2026-04-04T07:52:39.38Z</time></trkpt><trkpt lat="43.8361283" lon="12.4169167"><ele>562.3333333333333</ele><time>2026-04-04T07:52:40.381Z</time></trkpt><trkpt lat="43.83616" lon="12.4170017"><ele>563.0</ele><time>2026-04-04T07:52:41.38Z</time></trkpt><trkpt lat="43.8362083" lon="12.4170817"><ele>563.4</ele><time>2026-04-04T07:52:42.381Z</time></trkpt><trkpt lat="43.8362633" lon="12.4171633"><ele>563.8</ele><time>2026-04-04T07:52:43.381Z</time></trkpt><trkpt lat="43.8363183" lon="12.4172467"><ele>564.2</ele><time>2026-04-04T07:52:44.38Z</time></trkpt><trkpt lat="43.836375" lon="12.4173333"><ele>564.6</ele><time>2026-04-04T07:52:45.381Z</time></trkpt><trkpt lat="43.83647" lon="12.417525"><ele>565.0</ele><time>2026-04-04T07:52:47.38Z</time></trkpt><trkpt lat="43.836495" lon="12.41764"><ele>565.0</ele><time>2026-04-04T07:52:48.38Z</time></trkpt><trkpt lat="43.8364983" lon="12.4177567"><ele>565.0</ele><time>2026-04-04T07:52:49.38Z</time></trkpt><trkpt lat="43.8364017" lon="12.41795"><ele>565.0</ele><time>2026-04-04T07:52:51.38Z</time></trkpt><trkpt lat="43.8363233" lon="12.4180083"><ele>565.0</ele><time>2026-04-04T07:52:52.38Z</time></trkpt><trkpt lat="43.836235" lon="12.4180267"><ele>565.0</ele><time>2026-04-04T07:52:53.381Z</time></trkpt><trkpt lat="43.8361417" lon="12.4179983"><ele>565.0</ele><time>2026-04-04T07:52:54.381Z</time></trkpt><trkpt lat="43.836065" lon="12.4179183"><ele>565.0</ele><time>2026-04-04T07:52:55.38Z</time></trkpt><trkpt lat="43.8359983" lon="12.4178183"><ele>565.0</ele><time>2026-04-04T07:52:56.38Z</time></trkpt><trkpt lat="43.83594" lon="12.4177267"><ele>565.0</ele><time>2026-04-04T07:52:57.381Z</time></trkpt><trkpt lat="43.835885" lon="12.41765"><ele>565.0</ele><time>2026-04-04T07:52:58.38Z</time></trkpt><trkpt lat="43.83577" lon="12.41758"><ele>568.25</ele><time>2026-04-04T07:53:00.381Z</time></trkpt><trkpt lat="43.8355883" lon="12.4176133"><ele>571.5</ele><time>2026-04-04T07:53:03.381Z</time></trkpt><trkpt lat="43.8354917" lon="12.4177133"><ele>574.75</ele><time>2026-04-04T07:53:05.38Z</time></trkpt><trkpt lat="43.8354333" lon="12.4178567"><ele>578.0</ele><time>2026-04-04T07:53:07.381Z</time></trkpt><trkpt lat="43.8354167" lon="12.4180317"><ele>578.0</ele><time>2026-04-04T07:53:09.38Z</time></trkpt><trkpt lat="43.8354283" lon="12.41813"><ele>578.0</ele><time>2026-04-04T07:53:10.38Z</time></trkpt><trkpt lat="43.835435" lon="12.4182333"><ele>578.0</ele><time>2026-04-04T07:53:11.381Z</time></trkpt><trkpt lat="43.8354433" lon="12.418325"><ele>578.0</ele><time>2026-04-04T07:53:12.381Z</time></trkpt><trkpt lat="43.835475" lon="12.4184533"><ele>578.0</ele><time>2026-04-04T07:53:42.381Z</time></trkpt><trkpt lat="43.8355033" lon="12.4186167"><ele>578.0</ele><time>2026-04-04T07:53:44.38Z</time></trkpt><trkpt lat="43.835525" lon="12.41876"><ele>578.75</ele><time>2026-04-04T07:53:45.38Z</time></trkpt><trkpt lat="43.8355417" lon="12.418915"><ele>579.5</ele><time>2026-04-04T07:53:46.38Z</time></trkpt><trkpt lat="43.835545" lon="12.4190867"><ele>580.25</ele><time>2026-04-04T07:53:47.38Z</time></trkpt><trkpt lat="43.8355367" lon="12.4192817"><ele>581.0</ele><time>2026-04-04T07:53:48.38Z</time></trkpt><trkpt lat="43.8355283" lon="12.41947"><ele>581.0</ele><time>2026-04-04T07:53:49.38Z</time></trkpt><trkpt lat="43.8355167" lon="12.4196483"><ele>581.0</ele><time>2026-04-04T07:53:50.38Z</time></trkpt><trkpt lat="43.835475" lon="12.41983"><ele>581.0</ele><time>2026-04-04T07:53:51.38Z</time></trkpt><trkpt lat="43.8354383" lon="12.4199833"><ele>581.0</ele><time>2026-04-04T07:53:52.381Z</time></trkpt><trkpt lat="43.835385" lon="12.4201133"><ele>583.5</ele><time>2026-04-04T07:53:53.38Z</time></trkpt><trkpt lat="43.835305" lon="12.4202317"><ele>586.0</ele><time>2026-04-04T07:53:54.381Z</time></trkpt><trkpt lat="43.8352067" lon="12.4203133"><ele>588.5</ele><time>2026-04-04T07:53:55.381Z</time></trkpt><trkpt lat="43.83508" lon="12.4203767"><ele>591.0</ele><time>2026-04-04T07:53:56.38Z</time></trkpt><trkpt lat="43.83494" lon="12.4204367"><ele>593.0</ele><time>2026-04-04T07:53:57.38Z</time></trkpt><trkpt lat="43.83481" lon="12.4205017"><ele>595.0</ele><time>2026-04-04T07:53:58.381Z</time></trkpt><trkpt lat="43.8346883" lon="12.4205767"><ele>597.0</ele><time>2026-04-04T07:53:59.38Z</time></trkpt><trkpt lat="43.8345867" lon="12.42068"><ele>599.0</ele><time>2026-04-04T07:54:00.38Z</time></trkpt><trkpt lat="43.834505" lon="12.420815"><ele>599.0</ele><time>2026-04-04T07:54:01.38Z</time></trkpt><trkpt lat="43.8344683" lon="12.4209833"><ele>599.0</ele><time>2026-04-04T07:54:02.38Z</time></trkpt><trkpt lat="43.8344517" lon="12.4211683"><ele>599.0</ele><time>2026-04-04T07:54:03.38Z</time></trkpt><trkpt lat="43.8344433" lon="12.4213633"><ele>599.0</ele><time>2026-04-04T07:54:04.38Z</time></trkpt><trkpt lat="43.8344233" lon="12.4215667"><ele>598.25</ele><time>2026-04-04T07:54:05.381Z</time></trkpt><trkpt lat="43.83438" lon="12.421765"><ele>597.5</ele><time>2026-04-04T07:54:06.381Z</time></trkpt><trkpt lat="43.8343183" lon="12.4219583"><ele>596.75</ele><time>2026-04-04T07:54:07.381Z</time></trkpt><trkpt lat="43.8342517" lon="12.4221383"><ele>596.0</ele><time>2026-04-04T07:54:08.381Z</time></trkpt><trkpt lat="43.8341933" lon="12.4223183"><ele>600.5</ele><time>2026-04-04T07:54:09.381Z</time></trkpt><trkpt lat="43.8341533" lon="12.422505"><ele>605.0</ele><time>2026-04-04T07:54:10.381Z</time></trkpt><trkpt lat="43.83417" lon="12.4226967"><ele>609.5</ele><time>2026-04-04T07:54:11.381Z</time></trkpt><trkpt lat="43.834215" lon="12.4228817"><ele>614.0</ele><time>2026-04-04T07:54:12.38Z</time></trkpt><trkpt lat="43.8342833" lon="12.423055"><ele>609.5</ele><time>2026-04-04T07:54:13.381Z</time></trkpt><trkpt lat="43.8343433" lon="12.42323"><ele>605.0</ele><time>2026-04-04T07:54:14.38Z</time></trkpt><trkpt lat="43.83438" lon="12.4234183"><ele>600.5</ele><time>2026-04-04T07:54:15.38Z</time></trkpt><trkpt lat="43.83439" lon="12.4236167"><ele>596.0</ele><time>2026-04-04T07:54:16.381Z</time></trkpt><trkpt lat="43.8343817" lon="12.4238117"><ele>596.5</ele><time>2026-04-04T07:54:17.38Z</time></trkpt><trkpt lat="43.8343433" lon="12.4239983"><ele>597.0</ele><time>2026-04-04T07:54:18.38Z</time></trkpt><trkpt lat="43.8342767" lon="12.4241783"><ele>597.5</ele><time>2026-04-04T07:54:19.38Z</time></trkpt><trkpt lat="43.8342017" lon="12.4243583"><ele>598.0</ele><time>2026-04-04T07:54:20.381Z</time></trkpt><trkpt lat="43.8341233" lon="12.4245383"><ele>604.3333333333334</ele><time>2026-04-04T07:54:21.38Z</time></trkpt><trkpt lat="43.834055" lon="12.4247267"><ele>610.6666666666666</ele><time>2026-04-04T07:54:22.381Z</time></trkpt><trkpt lat="43.834" lon="12.424925"><ele>617.0</ele><time>2026-04-04T07:54:23.38Z</time></trkpt><trkpt lat="43.8339483" lon="12.4251183"><ele>617.0</ele><time>2026-04-04T07:54:24.38Z</time></trkpt><trkpt lat="43.8338783" lon="12.4253"><ele>617.0</ele><time>2026-04-04T07:54:25.381Z</time></trkpt><trkpt lat="43.8337933" lon="12.425465"><ele>617.0</ele><time>2026-04-04T07:54:26.381Z</time></trkpt><trkpt lat="43.8336883" lon="12.4255967"><ele>617.0</ele><time>2026-04-04T07:54:27.38Z</time></trkpt><trkpt lat="43.8335683" lon="12.4257133"><ele>619.3333333333333</ele><time>2026-04-04T07:54:28.38Z</time></trkpt><trkpt lat="43.8334233" lon="12.4257967"><ele>621.6666666666666</ele><time>2026-04-04T07:54:29.38Z</time></trkpt><trkpt lat="43.8332767" lon="12.4258683"><ele>624.0</ele><time>2026-04-04T07:54:30.38Z</time></trkpt><trkpt lat="43.8331267" lon="12.4259217"><ele>624.0</ele><time>2026-04-04T07:54:31.38Z</time></trkpt><trkpt lat="43.832985" lon="12.425965"><ele>624.0</ele><time>2026-04-04T07:54:32.38Z</time></trkpt><trkpt lat="43.8328383" lon="12.4260083"><ele>624.0</ele><time>2026-04-04T07:54:33.381Z</time></trkpt><trkpt lat="43.832695" lon="12.42605"><ele>624.0</ele><time>2026-04-04T07:54:34.38Z</time></trkpt><trkpt lat="43.8325567" lon="12.42609"><ele>625.5</ele><time>2026-04-04T07:54:35.381Z</time></trkpt><trkpt lat="43.8324267" lon="12.4261217"><ele>627.0</ele><time>2026-04-04T07:54:36.38Z</time></trkpt><trkpt lat="43.8322933" lon="12.42617"><ele>628.5</ele><time>2026-04-04T07:54:37.381Z</time></trkpt><trkpt lat="43.83217" lon="12.426245"><ele>630.0</ele><time>2026-04-04T07:54:38.38Z</time></trkpt><trkpt lat="43.8320733" lon="12.426335"><ele>626.75</ele><time>2026-04-04T07:54:39.38Z</time></trkpt><trkpt lat="43.8319917" lon="12.4264667"><ele>623.5</ele><time>2026-04-04T07:54:40.381Z</time></trkpt><trkpt lat="43.831935" lon="12.4266233"><ele>620.25</ele><time>2026-04-04T07:54:41.38Z</time></trkpt><trkpt lat="43.8319083" lon="12.4268067"><ele>617.0</ele><time>2026-04-04T07:54:42.38Z</time></trkpt><trkpt lat="43.8319017" lon="12.4269917"><ele>617.25</ele><time>2026-04-04T07:54:43.38Z</time></trkpt><trkpt lat="43.831905" lon="12.427165"><ele>617.5</ele><time>2026-04-04T07:54:44.38Z</time></trkpt><trkpt lat="43.8319" lon="12.42733"><ele>617.75</ele><time>2026-04-04T07:54:45.381Z</time></trkpt><trkpt lat="43.8318667" lon="12.4274933"><ele>618.0</ele><time>2026-04-04T07:54:46.38Z</time></trkpt><trkpt lat="43.8317983" lon="12.42764"><ele>620.25</ele><time>2026-04-04T07:54:47.381Z</time></trkpt><trkpt lat="43.8317017" lon="12.427765"><ele>622.5</ele><time>2026-04-04T07:54:48.38Z</time></trkpt><trkpt lat="43.8315933" lon="12.427855"><ele>624.75</ele><time>2026-04-04T07:54:49.38Z</time></trkpt><trkpt lat="43.8314717" lon="12.427915"><ele>627.0</ele><time>2026-04-04T07:54:50.38Z</time></trkpt><trkpt lat="43.8313667" lon="12.4279467"><ele>627.0</ele><time>2026-04-04T07:54:51.381Z</time></trkpt><trkpt lat="43.8312617" lon="12.427945"><ele>627.0</ele><time>2026-04-04T07:54:52.38Z</time></trkpt><trkpt lat="43.83115" lon="12.427925"><ele>627.0</ele><time>2026-04-04T07:54:53.38Z</time></trkpt><trkpt lat="43.83103" lon="12.4279067"><ele>627.0</ele><time>2026-04-04T07:54:54.381Z</time></trkpt><trkpt lat="43.8309017" lon="12.4279033"><ele>627.5</ele><time>2026-04-04T07:54:55.38Z</time></trkpt><trkpt lat="43.8307667" lon="12.42794"><ele>628.0</ele><time>2026-04-04T07:54:56.381Z</time></trkpt><trkpt lat="43.830635" lon="12.42802"><ele>628.5</ele><time>2026-04-04T07:54:57.381Z</time></trkpt><trkpt lat="43.8305183" lon="12.4281133"><ele>629.0</ele><time>2026-04-04T07:54:58.38Z</time></trkpt><trkpt lat="43.8304083" lon="12.42823"><ele>625.25</ele><time>2026-04-04T07:54:59.38Z</time></trkpt><trkpt lat="43.8303283" lon="12.4283617"><ele>621.5</ele><time>2026-04-04T07:55:00.381Z</time></trkpt><trkpt lat="43.8302633" lon="12.4285"><ele>617.75</ele><time>2026-04-04T07:55:01.381Z</time></trkpt><trkpt lat="43.8302183" lon="12.4286333"><ele>614.0</ele><time>2026-04-04T07:55:02.381Z</time></trkpt><trkpt lat="43.8301917" lon="12.4287767"><ele>611.25</ele><time>2026-04-04T07:55:03.381Z</time></trkpt><trkpt lat="43.8301633" lon="12.4289367"><ele>608.5</ele><time>2026-04-04T07:55:04.38Z</time></trkpt><trkpt lat="43.8301533" lon="12.4290967"><ele>605.75</ele><time>2026-04-04T07:55:05.38Z</time></trkpt><trkpt lat="43.83017" lon="12.429245"><ele>603.0</ele><time>2026-04-04T07:55:06.38Z</time></trkpt><trkpt lat="43.830195" lon="12.429395"><ele>603.0</ele><time>2026-04-04T07:55:07.38Z</time></trkpt><trkpt lat="43.830215" lon="12.4295383"><ele>603.0</ele><time>2026-04-04T07:55:08.38Z</time></trkpt><trkpt lat="43.8302367" lon="12.4296817"><ele>603.0</ele><time>2026-04-04T07:55:09.381Z</time></trkpt><trkpt lat="43.83026" lon="12.4298283"><ele>603.0</ele><time>2026-04-04T07:55:10.38Z</time></trkpt><trkpt lat="43.8302883" lon="12.4299883"><ele>603.0</ele><time>2026-04-04T07:55:11.38Z</time></trkpt><trkpt lat="43.8303083" lon="12.4301467"><ele>602.25</ele><time>2026-04-04T07:55:12.381Z</time></trkpt><trkpt lat="43.8303083" lon="12.4303183"><ele>601.5</ele><time>2026-04-04T07:55:13.38Z</time></trkpt><trkpt lat="43.8302967" lon="12.4304983"><ele>600.75</ele><time>2026-04-04T07:55:14.381Z</time></trkpt><trkpt lat="43.8302717" lon="12.43067"><ele>600.0</ele><time>2026-04-04T07:55:15.38Z</time></trkpt><trkpt lat="43.830235" lon="12.4308567"><ele>600.0</ele><time>2026-04-04T07:55:16.381Z</time></trkpt><trkpt lat="43.830195" lon="12.43105"><ele>600.0</ele><time>2026-04-04T07:55:17.38Z</time></trkpt><trkpt lat="43.8301633" lon="12.4312417"><ele>600.0</ele><time>2026-04-04T07:55:18.381Z</time></trkpt><trkpt lat="43.8301317" lon="12.43144"><ele>600.0</ele><time>2026-04-04T07:55:19.38Z</time></trkpt><trkpt lat="43.8300983" lon="12.4316383"><ele>600.0</ele><time>2026-04-04T07:55:20.38Z</time></trkpt><trkpt lat="43.8300617" lon="12.4318267"><ele>600.0</ele><time>2026-04-04T07:55:21.381Z</time></trkpt><trkpt lat="43.8300383" lon="12.4320217"><ele>600.0</ele><time>2026-04-04T07:55:22.381Z</time></trkpt><trkpt lat="43.8300417" lon="12.4322083"><ele>600.0</ele><time>2026-04-04T07:55:23.381Z</time></trkpt><trkpt lat="43.8300533" lon="12.432395"><ele>598.5</ele><time>2026-04-04T07:55:24.38Z</time></trkpt><trkpt lat="43.8300783" lon="12.4325783"><ele>597.0</ele><time>2026-04-04T07:55:25.38Z</time></trkpt><trkpt lat="43.8301017" lon="12.43277"><ele>595.5</ele><time>2026-04-04T07:55:26.38Z</time></trkpt><trkpt lat="43.8301267" lon="12.43295"><ele>594.0</ele><time>2026-04-04T07:55:27.38Z</time></trkpt><trkpt lat="43.830145" lon="12.4331117"><ele>593.1666666666666</ele><time>2026-04-04T07:55:28.38Z</time></trkpt><trkpt lat="43.8301517" lon="12.4332517"><ele>592.3333333333334</ele><time>2026-04-04T07:55:29.381Z</time></trkpt><trkpt lat="43.8301483" lon="12.4333717"><ele>591.5</ele><time>2026-04-04T07:55:30.381Z</time></trkpt><trkpt lat="43.8301267" lon="12.43348"><ele>590.6666666666667</ele><time>2026-04-04T07:55:31.38Z</time></trkpt><trkpt lat="43.8300817" lon="12.4335667"><ele>589.8333333333334</ele><time>2026-04-04T07:55:32.38Z</time></trkpt><trkpt lat="43.8300267" lon="12.4336333"><ele>589.0</ele><time>2026-04-04T07:55:33.38Z</time></trkpt><trkpt lat="43.829955" lon="12.4336783"><ele>589.0</ele><time>2026-04-04T07:55:34.38Z</time></trkpt><trkpt lat="43.829865" lon="12.4336817"><ele>589.0</ele><time>2026-04-04T07:55:35.38Z</time></trkpt><trkpt lat="43.829775" lon="12.4336417"><ele>589.0</ele><time>2026-04-04T07:55:36.38Z</time></trkpt><trkpt lat="43.82969" lon="12.433565"><ele>589.0</ele><time>2026-04-04T07:55:37.38Z</time></trkpt><trkpt lat="43.829615" lon="12.4334417"><ele>589.0</ele><time>2026-04-04T07:55:38.38Z</time></trkpt><trkpt lat="43.8295533" lon="12.4332917"><ele>589.0</ele><time>2026-04-04T07:55:39.38Z</time></trkpt><trkpt lat="43.829495" lon="12.4331417"><ele>589.0</ele><time>2026-04-04T07:55:40.38Z</time></trkpt><trkpt lat="43.8294417" lon="12.4329983"><ele>589.0</ele><time>2026-04-04T07:55:41.38Z</time></trkpt><trkpt lat="43.8293917" lon="12.4328733"><ele>589.0</ele><time>2026-04-04T07:55:42.381Z</time></trkpt><trkpt lat="43.8293433" lon="12.4327533"><ele>589.0</ele><time>2026-04-04T07:55:43.38Z</time></trkpt><trkpt lat="43.8292917" lon="12.4326483"><ele>587.5</ele><time>2026-04-04T07:55:44.38Z</time></trkpt><trkpt lat="43.8292317" lon="12.4325667"><ele>586.0</ele><time>2026-04-04T07:55:45.381Z</time></trkpt><trkpt lat="43.8291583" lon="12.4325267"><ele>584.5</ele><time>2026-04-04T07:55:46.38Z</time></trkpt><trkpt lat="43.8290817" lon="12.432525"><ele>583.0</ele><time>2026-04-04T07:55:47.38Z</time></trkpt><trkpt lat="43.82901" lon="12.4325833"><ele>581.5</ele><time>2026-04-04T07:55:48.38Z</time></trkpt><trkpt lat="43.82896" lon="12.4326783"><ele>580.0</ele><time>2026-04-04T07:55:49.381Z</time></trkpt><trkpt lat="43.828935" lon="12.4328"><ele>580.0</ele><time>2026-04-04T07:55:50.381Z</time></trkpt><trkpt lat="43.8289233" lon="12.4329267"><ele>580.0</ele><time>2026-04-04T07:55:51.38Z</time></trkpt><trkpt lat="43.8289117" lon="12.43305"><ele>580.0</ele><time>2026-04-04T07:55:52.38Z</time></trkpt><trkpt lat="43.828915" lon="12.4331833"><ele>580.0</ele><time>2026-04-04T07:55:53.38Z</time></trkpt><trkpt lat="43.828915" lon="12.433335"><ele>580.0</ele><time>2026-04-04T07:55:54.381Z</time></trkpt><trkpt lat="43.8289117" lon="12.433495"><ele>579.2</ele><time>2026-04-04T07:55:55.38Z</time></trkpt><trkpt lat="43.82891" lon="12.4336533"><ele>578.4</ele><time>2026-04-04T07:55:56.38Z</time></trkpt><trkpt lat="43.8289017" lon="12.433805"><ele>577.6</ele><time>2026-04-04T07:55:57.38Z</time></trkpt><trkpt lat="43.828885" lon="12.4339533"><ele>576.8</ele><time>2026-04-04T07:55:58.381Z</time></trkpt><trkpt lat="43.828875" lon="12.4340867"><ele>576.0</ele><time>2026-04-04T07:55:59.38Z</time></trkpt><trkpt lat="43.8288717" lon="12.4342333"><ele>575.4</ele><time>2026-04-04T07:56:00.38Z</time></trkpt><trkpt lat="43.8288667" lon="12.4343833"><ele>574.8</ele><time>2026-04-04T07:56:01.38Z</time></trkpt><trkpt lat="43.8288567" lon="12.4345233"><ele>574.1999999999999</ele><time>2026-04-04T07:56:02.38Z</time></trkpt><trkpt lat="43.8288433" lon="12.43465"><ele>573.6</ele><time>2026-04-04T07:56:03.38Z</time></trkpt><trkpt lat="43.8288383" lon="12.434765"><ele>573.0</ele><time>2026-04-04T07:56:04.38Z</time></trkpt><trkpt lat="43.8288183" lon="12.434875"><ele>573.0</ele><time>2026-04-04T07:56:05.38Z</time></trkpt><trkpt lat="43.8287833" lon="12.43497"><ele>573.0</ele><time>2026-04-04T07:56:06.381Z</time></trkpt><trkpt lat="43.8287117" lon="12.43505"><ele>573.0</ele><time>2026-04-04T07:56:07.381Z</time></trkpt><trkpt lat="43.8286167" lon="12.4351033"><ele>573.0</ele><time>2026-04-04T07:56:08.38Z</time></trkpt><trkpt lat="43.8285033" lon="12.43515"><ele>573.0</ele><time>2026-04-04T07:56:09.38Z</time></trkpt><trkpt lat="43.8283833" lon="12.4352033"><ele>571.1999999999999</ele><time>2026-04-04T07:56:10.381Z</time></trkpt><trkpt lat="43.8282733" lon="12.4352733"><ele>569.4</ele><time>2026-04-04T07:56:11.38Z</time></trkpt><trkpt lat="43.828175" lon="12.4353617"><ele>567.5999999999999</ele><time>2026-04-04T07:56:12.38Z</time></trkpt><trkpt lat="43.8280883" lon="12.435445"><ele>565.8</ele><time>2026-04-04T07:56:13.381Z</time></trkpt><trkpt lat="43.828015" lon="12.4355433"><ele>564.0</ele><time>2026-04-04T07:56:14.38Z</time></trkpt><trkpt lat="43.8279667" lon="12.4356233"><ele>564.0</ele><time>2026-04-04T07:56:15.381Z</time></trkpt><trkpt lat="43.8279333" lon="12.4357083"><ele>564.0</ele><time>2026-04-04T07:56:16.38Z</time></trkpt><trkpt lat="43.827895" lon="12.4358483"><ele>564.0</ele><time>2026-04-04T07:56:18.381Z</time></trkpt><trkpt lat="43.82789" lon="12.4359417"><ele>564.0</ele><time>2026-04-04T07:56:20.381Z</time></trkpt><trkpt lat="43.8278917" lon="12.4360383"><ele>564.0</ele><time>2026-04-04T07:56:22.38Z</time></trkpt><trkpt lat="43.82786" lon="12.4362"><ele>564.0</ele><time>2026-04-04T07:56:24.38Z</time></trkpt><trkpt lat="43.827835" lon="12.4362833"><ele>565.2</ele><time>2026-04-04T07:56:25.38Z</time></trkpt><trkpt lat="43.8277967" lon="12.4363667"><ele>566.4</ele><time>2026-04-04T07:56:26.381Z</time></trkpt><trkpt lat="43.8277333" lon="12.43645"><ele>567.6</ele><time>2026-04-04T07:56:27.381Z</time></trkpt><trkpt lat="43.8276567" lon="12.43653"><ele>568.8</ele><time>2026-04-04T07:56:28.38Z</time></trkpt><trkpt lat="43.8275617" lon="12.4365717"><ele>570.0</ele><time>2026-04-04T07:56:29.38Z</time></trkpt><trkpt lat="43.8274433" lon="12.436595"><ele>564.75</ele><time>2026-04-04T07:56:30.38Z</time></trkpt><trkpt lat="43.8273233" lon="12.4365967"><ele>559.5</ele><time>2026-04-04T07:56:31.38Z</time></trkpt><trkpt lat="43.8271917" lon="12.43659"><ele>554.25</ele><time>2026-04-04T07:56:32.38Z</time></trkpt><trkpt lat="43.8270567" lon="12.4365867"><ele>549.0</ele><time>2026-04-04T07:56:33.38Z</time></trkpt><trkpt lat="43.8269233" lon="12.4365983"><ele>545.5</ele><time>2026-04-04T07:56:34.38Z</time></trkpt><trkpt lat="43.8267917" lon="12.43662"><ele>542.0</ele><time>2026-04-04T07:56:35.38Z</time></trkpt><trkpt lat="43.8266683" lon="12.4366467"><ele>538.5</ele><time>2026-04-04T07:56:36.38Z</time></trkpt><trkpt lat="43.8265533" lon="12.4366833"><ele>535.0</ele><time>2026-04-04T07:56:37.381Z</time></trkpt><trkpt lat="43.8264533" lon="12.4367417"><ele>535.0</ele><time>2026-04-04T07:56:38.38Z</time></trkpt><trkpt lat="43.82639" lon="12.4368267"><ele>535.0</ele><time>2026-04-04T07:56:39.38Z</time></trkpt><trkpt lat="43.8263517" lon="12.4369467"><ele>535.0</ele><time>2026-04-04T07:56:40.38Z</time></trkpt><trkpt lat="43.8263467" lon="12.4370767"><ele>535.0</ele><time>2026-04-04T07:56:41.381Z</time></trkpt><trkpt lat="43.8263733" lon="12.4372217"><ele>535.0</ele><time>2026-04-04T07:56:42.38Z</time></trkpt><trkpt lat="43.82642" lon="12.4373533"><ele>535.4</ele><time>2026-04-04T07:56:43.38Z</time></trkpt><trkpt lat="43.8264783" lon="12.437465"><ele>535.8</ele><time>2026-04-04T07:56:44.38Z</time></trkpt><trkpt lat="43.8265583" lon="12.43756"><ele>536.2</ele><time>2026-04-04T07:56:45.381Z</time></trkpt><trkpt lat="43.8266467" lon="12.43766"><ele>536.6</ele><time>2026-04-04T07:56:46.38Z</time></trkpt><trkpt lat="43.8267383" lon="12.4377517"><ele>537.0</ele><time>2026-04-04T07:56:47.38Z</time></trkpt><trkpt lat="43.8268333" lon="12.4378433"><ele>536.75</ele><time>2026-04-04T07:56:48.38Z</time></trkpt><trkpt lat="43.82693" lon="12.4379317"><ele>536.5</ele><time>2026-04-04T07:56:49.381Z</time></trkpt><trkpt lat="43.8270267" lon="12.438025"><ele>536.25</ele><time>2026-04-04T07:56:50.38Z</time></trkpt><trkpt lat="43.8271367" lon="12.438115"><ele>536.0</ele><time>2026-04-04T07:56:51.38Z</time></trkpt><trkpt lat="43.8272367" lon="12.4382183"><ele>536.0</ele><time>2026-04-04T07:56:52.38Z</time></trkpt><trkpt lat="43.8273317" lon="12.4383317"><ele>536.0</ele><time>2026-04-04T07:56:53.38Z</time></trkpt><trkpt lat="43.8274133" lon="12.4384483"><ele>536.0</ele><time>2026-04-04T07:56:54.38Z</time></trkpt><trkpt lat="43.8274917" lon="12.4385633"><ele>536.0</ele><time>2026-04-04T07:56:55.38Z</time></trkpt><trkpt lat="43.8275683" lon="12.4386733"><ele>536.0</ele><time>2026-04-04T07:56:56.38Z</time></trkpt><trkpt lat="43.82763" lon="12.4387933"><ele>536.0</ele><time>2026-04-04T07:56:57.381Z</time></trkpt><trkpt lat="43.82768" lon="12.43893"><ele>536.0</ele><time>2026-04-04T07:56:58.381Z</time></trkpt><trkpt lat="43.8277033" lon="12.4390867"><ele>536.0</ele><time>2026-04-04T07:56:59.38Z</time></trkpt><trkpt lat="43.8276967" lon="12.4392583"><ele>537.75</ele><time>2026-04-04T07:57:00.38Z</time></trkpt><trkpt lat="43.8276817" lon="12.4394367"><ele>539.5</ele><time>2026-04-04T07:57:01.38Z</time></trkpt><trkpt lat="43.8276533" lon="12.4396183"><ele>541.25</ele><time>2026-04-04T07:57:02.38Z</time></trkpt><trkpt lat="43.8276267" lon="12.439795"><ele>543.0</ele><time>2026-04-04T07:57:03.38Z</time></trkpt><trkpt lat="43.8276067" lon="12.4399717"><ele>536.25</ele><time>2026-04-04T07:57:04.38Z</time></trkpt><trkpt lat="43.8275733" lon="12.44015"><ele>529.5</ele><time>2026-04-04T07:57:05.38Z</time></trkpt><trkpt lat="43.8275333" lon="12.4403217"><ele>522.75</ele><time>2026-04-04T07:57:06.38Z</time></trkpt><trkpt lat="43.8274933" lon="12.440485"><ele>516.0</ele><time>2026-04-04T07:57:07.38Z</time></trkpt><trkpt lat="43.8274433" lon="12.4406483"><ele>516.0</ele><time>2026-04-04T07:57:08.38Z</time></trkpt><trkpt lat="43.827385" lon="12.440795"><ele>516.0</ele><time>2026-04-04T07:57:09.38Z</time></trkpt><trkpt lat="43.82732" lon="12.44092"><ele>516.0</ele><time>2026-04-04T07:57:10.381Z</time></trkpt><trkpt lat="43.827245" lon="12.441035"><ele>516.0</ele><time>2026-04-04T07:57:11.381Z</time></trkpt><trkpt lat="43.8271667" lon="12.441145"><ele>516.0</ele><time>2026-04-04T07:57:12.38Z</time></trkpt><trkpt lat="43.8270833" lon="12.4412467"><ele>516.0</ele><time>2026-04-04T07:57:13.38Z</time></trkpt><trkpt lat="43.8269833" lon="12.4413583"><ele>516.0</ele><time>2026-04-04T07:57:14.38Z</time></trkpt><trkpt lat="43.8268917" lon="12.4414533"><ele>516.0</ele><time>2026-04-04T07:57:15.38Z</time></trkpt><trkpt lat="43.8267983" lon="12.4415517"><ele>513.0</ele><time>2026-04-04T07:57:16.38Z</time></trkpt><trkpt lat="43.8267017" lon="12.4416567"><ele>510.0</ele><time>2026-04-04T07:57:17.38Z</time></trkpt><trkpt lat="43.8266017" lon="12.441735"><ele>507.0</ele><time>2026-04-04T07:57:18.381Z</time></trkpt><trkpt lat="43.8265083" lon="12.4417933"><ele>504.0</ele><time>2026-04-04T07:57:19.381Z</time></trkpt><trkpt lat="43.826415" lon="12.4418283"><ele>501.0</ele><time>2026-04-04T07:57:20.381Z</time></trkpt><trkpt lat="43.8263267" lon="12.4418617"><ele>501.0</ele><time>2026-04-04T07:57:21.38Z</time></trkpt><trkpt lat="43.82624" lon="12.4419017"><ele>501.0</ele><time>2026-04-04T07:57:22.38Z</time></trkpt><trkpt lat="43.8261467" lon="12.4419517"><ele>501.0</ele><time>2026-04-04T07:57:23.38Z</time></trkpt><trkpt lat="43.8260467" lon="12.44201"><ele>501.0</ele><time>2026-04-04T07:57:24.381Z</time></trkpt><trkpt lat="43.8259483" lon="12.44209"><ele>501.0</ele><time>2026-04-04T07:57:25.381Z</time></trkpt><trkpt lat="43.8258583" lon="12.4421767"><ele>498.5</ele><time>2026-04-04T07:57:26.381Z</time></trkpt><trkpt lat="43.8257733" lon="12.4422917"><ele>496.0</ele><time>2026-04-04T07:57:27.38Z</time></trkpt><trkpt lat="43.8256783" lon="12.4424117"><ele>493.5</ele><time>2026-04-04T07:57:28.381Z</time></trkpt><trkpt lat="43.8256033" lon="12.4425217"><ele>491.0</ele><time>2026-04-04T07:57:29.38Z</time></trkpt><trkpt lat="43.8255367" lon="12.44264"><ele>491.0</ele><time>2026-04-04T07:57:30.381Z</time></trkpt><trkpt lat="43.825485" lon="12.4427633"><ele>491.0</ele><time>2026-04-04T07:57:31.38Z</time></trkpt><trkpt lat="43.8254467" lon="12.4428883"><ele>491.0</ele><time>2026-04-04T07:57:32.38Z</time></trkpt><trkpt lat="43.8254317" lon="12.443005"><ele>491.0</ele><time>2026-04-04T07:57:33.381Z</time></trkpt><trkpt lat="43.82542" lon="12.4431133"><ele>491.0</ele><time>2026-04-04T07:57:34.381Z</time></trkpt><trkpt lat="43.825405" lon="12.4432667"><ele>490.6</ele><time>2026-04-04T07:57:36.38Z</time></trkpt><trkpt lat="43.8253367" lon="12.443355"><ele>490.20000000000005</ele><time>2026-04-04T07:57:38.38Z</time></trkpt><trkpt lat="43.8252583" lon="12.44335"><ele>489.79999999999995</ele><time>2026-04-04T07:57:39.38Z</time></trkpt><trkpt lat="43.825165" lon="12.4433233"><ele>489.4</ele><time>2026-04-04T07:57:40.38Z</time></trkpt><trkpt lat="43.82506" lon="12.4432817"><ele>489.0</ele><time>2026-04-04T07:57:41.381Z</time></trkpt><trkpt lat="43.8249433" lon="12.443255"><ele>487.8333333333333</ele><time>2026-04-04T07:57:42.381Z</time></trkpt><trkpt lat="43.8248417" lon="12.44322"><ele>486.66666666666663</ele><time>2026-04-04T07:57:43.381Z</time></trkpt><trkpt lat="43.8247583" lon="12.443195"><ele>485.5</ele><time>2026-04-04T07:57:44.38Z</time></trkpt><trkpt lat="43.824685" lon="12.4431967"><ele>484.3333333333333</ele><time>2026-04-04T07:57:45.381Z</time></trkpt><trkpt lat="43.8246133" lon="12.4432267"><ele>483.16666666666663</ele><time>2026-04-04T07:57:46.381Z</time></trkpt><trkpt lat="43.824545" lon="12.4432933"><ele>482.0</ele><time>2026-04-04T07:57:47.38Z</time></trkpt><trkpt lat="43.8244767" lon="12.44338"><ele>482.0</ele><time>2026-04-04T07:57:48.38Z</time></trkpt><trkpt lat="43.8244117" lon="12.4434983"><ele>482.0</ele><time>2026-04-04T07:57:49.38Z</time></trkpt><trkpt lat="43.8243383" lon="12.4436183"><ele>482.0</ele><time>2026-04-04T07:57:50.38Z</time></trkpt><trkpt lat="43.8242483" lon="12.4437267"><ele>482.0</ele><time>2026-04-04T07:57:51.38Z</time></trkpt><trkpt lat="43.8241517" lon="12.443835"><ele>479.75</ele><time>2026-04-04T07:57:52.38Z</time></trkpt><trkpt lat="43.824045" lon="12.4439317"><ele>477.5</ele><time>2026-04-04T07:57:53.38Z</time></trkpt><trkpt lat="43.823925" lon="12.4440233"><ele>475.25</ele><time>2026-04-04T07:57:54.38Z</time></trkpt><trkpt lat="43.8238" lon="12.4441183"><ele>473.0</ele><time>2026-04-04T07:57:55.38Z</time></trkpt><trkpt lat="43.8236683" lon="12.4442217"><ele>473.0</ele><time>2026-04-04T07:57:56.381Z</time></trkpt><trkpt lat="43.8235483" lon="12.4443167"><ele>473.0</ele><time>2026-04-04T07:57:57.381Z</time></trkpt><trkpt lat="43.8234467" lon="12.4444033"><ele>473.0</ele><time>2026-04-04T07:57:58.38Z</time></trkpt><trkpt lat="43.82334" lon="12.4444917"><ele>473.0</ele><time>2026-04-04T07:57:59.38Z</time></trkpt><trkpt lat="43.8232233" lon="12.4445817"><ele>470.75</ele><time>2026-04-04T07:58:00.38Z</time></trkpt><trkpt lat="43.8231017" lon="12.4446817"><ele>468.5</ele><time>2026-04-04T07:58:01.381Z</time></trkpt><trkpt lat="43.82297" lon="12.4447783"><ele>466.25</ele><time>2026-04-04T07:58:02.38Z</time></trkpt><trkpt lat="43.8228383" lon="12.44488"><ele>464.0</ele><time>2026-04-04T07:58:03.38Z</time></trkpt><trkpt lat="43.8227033" lon="12.4449767"><ele>459.0</ele><time>2026-04-04T07:58:04.38Z</time></trkpt><trkpt lat="43.82257" lon="12.445085"><ele>454.0</ele><time>2026-04-04T07:58:05.38Z</time></trkpt><trkpt lat="43.822435" lon="12.44518"><ele>449.0</ele><time>2026-04-04T07:58:06.38Z</time></trkpt><trkpt lat="43.8223117" lon="12.4452583"><ele>444.0</ele><time>2026-04-04T07:58:07.38Z</time></trkpt><trkpt lat="43.8221983" lon="12.4453317"><ele>444.0</ele><time>2026-04-04T07:58:08.381Z</time></trkpt><trkpt lat="43.822105" lon="12.445395"><ele>444.0</ele><time>2026-04-04T07:58:09.38Z</time></trkpt><trkpt lat="43.8220117" lon="12.4454467"><ele>444.0</ele><time>2026-04-04T07:58:10.381Z</time></trkpt><trkpt lat="43.82193" lon="12.445475"><ele>444.0</ele><time>2026-04-04T07:58:11.38Z</time></trkpt><trkpt lat="43.8218533" lon="12.44549"><ele>444.0</ele><time>2026-04-04T07:58:12.381Z</time></trkpt><trkpt lat="43.8217833" lon="12.4454767"><ele>444.0</ele><time>2026-04-04T07:58:13.381Z</time></trkpt><trkpt lat="43.821735" lon="12.44542"><ele>440.79999999999995</ele><time>2026-04-04T07:58:14.381Z</time></trkpt><trkpt lat="43.82171" lon="12.4453167"><ele>437.59999999999997</ele><time>2026-04-04T07:58:15.38Z</time></trkpt><trkpt lat="43.8217067" lon="12.4451733"><ele>434.4</ele><time>2026-04-04T07:58:16.381Z</time></trkpt><trkpt lat="43.82172" lon="12.445015"><ele>431.2</ele><time>2026-04-04T07:58:17.38Z</time></trkpt><trkpt lat="43.8217517" lon="12.4448533"><ele>428.0</ele><time>2026-04-04T07:58:18.38Z</time></trkpt><trkpt lat="43.8217767" lon="12.444695"><ele>427.2</ele><time>2026-04-04T07:58:19.381Z</time></trkpt><trkpt lat="43.8217833" lon="12.444535"><ele>426.4</ele><time>2026-04-04T07:58:20.38Z</time></trkpt><trkpt lat="43.821775" lon="12.44438"><ele>425.59999999999997</ele><time>2026-04-04T07:58:21.38Z</time></trkpt><trkpt lat="43.821745" lon="12.44425"><ele>424.79999999999995</ele><time>2026-04-04T07:58:22.381Z</time></trkpt><trkpt lat="43.8217033" lon="12.4441133"><ele>424.0</ele><time>2026-04-04T07:58:23.381Z</time></trkpt><trkpt lat="43.8216533" lon="12.4439867"><ele>424.0</ele><time>2026-04-04T07:58:24.381Z</time></trkpt><trkpt lat="43.821595" lon="12.4438683"><ele>424.0</ele><time>2026-04-04T07:58:25.38Z</time></trkpt><trkpt lat="43.8215217" lon="12.4437767"><ele>424.0</ele><time>2026-04-04T07:58:26.381Z</time></trkpt><trkpt lat="43.8214367" lon="12.443715"><ele>424.0</ele><time>2026-04-04T07:58:27.38Z</time></trkpt><trkpt lat="43.8213317" lon="12.443685"><ele>424.0</ele><time>2026-04-04T07:58:28.38Z</time></trkpt><trkpt lat="43.8212083" lon="12.4436733"><ele>422.75</ele><time>2026-04-04T07:58:29.38Z</time></trkpt><trkpt lat="43.821085" lon="12.4436983"><ele>421.5</ele><time>2026-04-04T07:58:30.381Z</time></trkpt><trkpt lat="43.8209567" lon="12.4437433"><ele>420.25</ele><time>2026-04-04T07:58:31.38Z</time></trkpt><trkpt lat="43.82083" lon="12.443785"><ele>419.0</ele><time>2026-04-04T07:58:32.38Z</time></trkpt><trkpt lat="43.8207" lon="12.4438367"><ele>417.25</ele><time>2026-04-04T07:58:33.38Z</time></trkpt><trkpt lat="43.8205617" lon="12.44389"><ele>415.5</ele><time>2026-04-04T07:58:34.38Z</time></trkpt><trkpt lat="43.820415" lon="12.4439483"><ele>413.75</ele><time>2026-04-04T07:58:35.381Z</time></trkpt><trkpt lat="43.82027" lon="12.4440083"><ele>412.0</ele><time>2026-04-04T07:58:36.38Z</time></trkpt><trkpt lat="43.82013" lon="12.4440717"><ele>409.25</ele><time>2026-04-04T07:58:37.381Z</time></trkpt><trkpt lat="43.8199883" lon="12.4441233"><ele>406.5</ele><time>2026-04-04T07:58:38.38Z</time></trkpt><trkpt lat="43.81984" lon="12.4441633"><ele>403.75</ele><time>2026-04-04T07:58:39.38Z</time></trkpt><trkpt lat="43.81969" lon="12.4441867"><ele>401.0</ele><time>2026-04-04T07:58:40.38Z</time></trkpt><trkpt lat="43.81954" lon="12.444185"><ele>401.0</ele><time>2026-04-04T07:58:41.38Z</time></trkpt><trkpt lat="43.819395" lon="12.4441583"><ele>401.0</ele><time>2026-04-04T07:58:42.38Z</time></trkpt><trkpt lat="43.8192633" lon="12.444105"><ele>401.0</ele><time>2026-04-04T07:58:43.38Z</time></trkpt><trkpt lat="43.8191433" lon="12.4440117"><ele>401.0</ele><time>2026-04-04T07:58:44.38Z</time></trkpt><trkpt lat="43.8190367" lon="12.4439067"><ele>400.0</ele><time>2026-04-04T07:58:45.38Z</time></trkpt><trkpt lat="43.81894" lon="12.4438"><ele>399.0</ele><time>2026-04-04T07:58:46.381Z</time></trkpt><trkpt lat="43.8188333" lon="12.4437117"><ele>398.0</ele><time>2026-04-04T07:58:47.38Z</time></trkpt><trkpt lat="43.8187167" lon="12.4436483"><ele>397.0</ele><time>2026-04-04T07:58:48.38Z</time></trkpt><trkpt lat="43.818585" lon="12.443615"><ele>393.75</ele><time>2026-04-04T07:58:49.38Z</time></trkpt><trkpt lat="43.8184417" lon="12.4435917"><ele>390.5</ele><time>2026-04-04T07:58:50.38Z</time></trkpt><trkpt lat="43.8183083" lon="12.4435533"><ele>387.25</ele><time>2026-04-04T07:58:51.38Z</time></trkpt><trkpt lat="43.818185" lon="12.4434933"><ele>384.0</ele><time>2026-04-04T07:58:52.381Z</time></trkpt><trkpt lat="43.8180667" lon="12.4434417"><ele>384.0</ele><time>2026-04-04T07:58:53.381Z</time></trkpt><trkpt lat="43.8179417" lon="12.4434067"><ele>384.0</ele><time>2026-04-04T07:58:54.381Z</time></trkpt><trkpt lat="43.8178067" lon="12.4433817"><ele>384.0</ele><time>2026-04-04T07:58:55.381Z</time></trkpt><trkpt lat="43.8176683" lon="12.4433767"><ele>384.0</ele><time>2026-04-04T07:58:56.38Z</time></trkpt><trkpt lat="43.8175233" lon="12.4433817"><ele>383.75</ele><time>2026-04-04T07:58:57.381Z</time></trkpt><trkpt lat="43.817385" lon="12.4434067"><ele>383.5</ele><time>2026-04-04T07:58:58.38Z</time></trkpt><trkpt lat="43.8172467" lon="12.443445"><ele>383.25</ele><time>2026-04-04T07:58:59.38Z</time></trkpt><trkpt lat="43.8171233" lon="12.4435017"><ele>383.0</ele><time>2026-04-04T07:59:00.381Z</time></trkpt><trkpt lat="43.817005" lon="12.4435583"><ele>383.0</ele><time>2026-04-04T07:59:01.381Z</time></trkpt><trkpt lat="43.8168933" lon="12.443605"><ele>383.0</ele><time>2026-04-04T07:59:02.381Z</time></trkpt><trkpt lat="43.8167767" lon="12.443675"><ele>383.0</ele><time>2026-04-04T07:59:03.381Z</time></trkpt><trkpt lat="43.8166783" lon="12.4437733"><ele>383.0</ele><time>2026-04-04T07:59:04.381Z</time></trkpt><trkpt lat="43.8165867" lon="12.44388"><ele>382.5</ele><time>2026-04-04T07:59:05.38Z</time></trkpt><trkpt lat="43.8165" lon="12.4440183"><ele>382.0</ele><time>2026-04-04T07:59:06.381Z</time></trkpt><trkpt lat="43.8164317" lon="12.4441933"><ele>381.5</ele><time>2026-04-04T07:59:07.381Z</time></trkpt><trkpt lat="43.8163683" lon="12.4443667"><ele>381.0</ele><time>2026-04-04T07:59:08.381Z</time></trkpt><trkpt lat="43.816295" lon="12.4445433"><ele>383.75</ele><time>2026-04-04T07:59:09.38Z</time></trkpt><trkpt lat="43.8162217" lon="12.4447017"><ele>386.5</ele><time>2026-04-04T07:59:10.381Z</time></trkpt><trkpt lat="43.8161467" lon="12.4448367"><ele>389.25</ele><time>2026-04-04T07:59:11.381Z</time></trkpt><trkpt lat="43.81605" lon="12.444955"><ele>392.0</ele><time>2026-04-04T07:59:12.38Z</time></trkpt><trkpt lat="43.81594" lon="12.44505"><ele>385.0</ele><time>2026-04-04T07:59:13.38Z</time></trkpt><trkpt lat="43.8158083" lon="12.4451267"><ele>378.0</ele><time>2026-04-04T07:59:14.381Z</time></trkpt><trkpt lat="43.815675" lon="12.4452"><ele>371.0</ele><time>2026-04-04T07:59:15.381Z</time></trkpt><trkpt lat="43.8155433" lon="12.44526"><ele>364.0</ele><time>2026-04-04T07:59:16.381Z</time></trkpt><trkpt lat="43.8154033" lon="12.4453217"><ele>364.0</ele><time>2026-04-04T07:59:17.38Z</time></trkpt><trkpt lat="43.815275" lon="12.4453667"><ele>364.0</ele><time>2026-04-04T07:59:18.38Z</time></trkpt><trkpt lat="43.81515" lon="12.4454117"><ele>364.0</ele><time>2026-04-04T07:59:19.38Z</time></trkpt><trkpt lat="43.8150167" lon="12.4454533"><ele>364.0</ele><time>2026-04-04T07:59:20.38Z</time></trkpt><trkpt lat="43.8149167" lon="12.4454883"><ele>363.8333333333333</ele><time>2026-04-04T07:59:21.381Z</time></trkpt><trkpt lat="43.8148333" lon="12.4455183"><ele>363.66666666666663</ele><time>2026-04-04T07:59:22.381Z</time></trkpt><trkpt lat="43.8147633" lon="12.44555"><ele>363.5</ele><time>2026-04-04T07:59:23.381Z</time></trkpt><trkpt lat="43.8146717" lon="12.4455783"><ele>363.3333333333333</ele><time>2026-04-04T07:59:25.38Z</time></trkpt><trkpt lat="43.81461" lon="12.445555"><ele>363.1666666666667</ele><time>2026-04-04T07:59:27.38Z</time></trkpt><trkpt lat="43.8145533" lon="12.4454967"><ele>363.0</ele><time>2026-04-04T07:59:28.38Z</time></trkpt><trkpt lat="43.81449" lon="12.4453983"><ele>360.5</ele><time>2026-04-04T07:59:29.381Z</time></trkpt><trkpt lat="43.8144083" lon="12.4452817"><ele>358.0</ele><time>2026-04-04T07:59:30.38Z</time></trkpt><trkpt lat="43.8143167" lon="12.4451567"><ele>355.5</ele><time>2026-04-04T07:59:31.381Z</time></trkpt><trkpt lat="43.8142233" lon="12.4450283"><ele>353.0</ele><time>2026-04-04T07:59:32.38Z</time></trkpt><trkpt lat="43.8141283" lon="12.4448967"><ele>351.25</ele><time>2026-04-04T07:59:33.381Z</time></trkpt><trkpt lat="43.8140183" lon="12.4447733"><ele>349.5</ele><time>2026-04-04T07:59:34.381Z</time></trkpt><trkpt lat="43.8139067" lon="12.444655"><ele>347.75</ele><time>2026-04-04T07:59:35.38Z</time></trkpt><trkpt lat="43.8137867" lon="12.4445433"><ele>346.0</ele><time>2026-04-04T07:59:36.38Z</time></trkpt><trkpt lat="43.8136567" lon="12.4444333"><ele>346.0</ele><time>2026-04-04T07:59:37.38Z</time></trkpt><trkpt lat="43.8135167" lon="12.4443317"><ele>346.0</ele><time>2026-04-04T07:59:38.38Z</time></trkpt><trkpt lat="43.8133783" lon="12.4442367"><ele>346.0</ele><time>2026-04-04T07:59:39.38Z</time></trkpt><trkpt lat="43.813235" lon="12.4441383"><ele>344.5</ele><time>2026-04-04T07:59:40.38Z</time></trkpt><trkpt lat="43.813105" lon="12.4440533"><ele>343.0</ele><time>2026-04-04T07:59:41.381Z</time></trkpt><trkpt lat="43.81297" lon="12.4439917"><ele>341.5</ele><time>2026-04-04T07:59:42.38Z</time></trkpt><trkpt lat="43.812835" lon="12.44394"><ele>340.0</ele><time>2026-04-04T07:59:43.381Z</time></trkpt><trkpt lat="43.8127083" lon="12.4439083"><ele>341.25</ele><time>2026-04-04T07:59:44.38Z</time></trkpt><trkpt lat="43.8125867" lon="12.443875"><ele>342.5</ele><time>2026-04-04T07:59:45.38Z</time></trkpt><trkpt lat="43.812455" lon="12.443845"><ele>343.75</ele><time>2026-04-04T07:59:46.381Z</time></trkpt><trkpt lat="43.8123267" lon="12.44382"><ele>345.0</ele><time>2026-04-04T07:59:47.38Z</time></trkpt><trkpt lat="43.8121783" lon="12.4437967"><ele>341.6666666666667</ele><time>2026-04-04T07:59:48.381Z</time></trkpt><trkpt lat="43.8120233" lon="12.4437667"><ele>338.33333333333337</ele><time>2026-04-04T07:59:49.38Z</time></trkpt><trkpt lat="43.8118667" lon="12.4437433"><ele>335.0</ele><time>2026-04-04T07:59:50.38Z</time></trkpt><trkpt lat="43.811715" lon="12.4437233"><ele>335.0</ele><time>2026-04-04T07:59:51.38Z</time></trkpt><trkpt lat="43.811575" lon="12.443695"><ele>335.0</ele><time>2026-04-04T07:59:52.38Z</time></trkpt><trkpt lat="43.8114333" lon="12.4436367"><ele>335.0</ele><time>2026-04-04T07:59:53.38Z</time></trkpt><trkpt lat="43.8112967" lon="12.4435667"><ele>335.0</ele><time>2026-04-04T07:59:54.381Z</time></trkpt><trkpt lat="43.8111517" lon="12.4434983"><ele>335.0</ele><time>2026-04-04T07:59:55.38Z</time></trkpt><trkpt lat="43.810995" lon="12.4434383"><ele>335.0</ele><time>2026-04-04T07:59:56.38Z</time></trkpt><trkpt lat="43.8108417" lon="12.4433833"><ele>335.0</ele><time>2026-04-04T07:59:57.381Z</time></trkpt><trkpt lat="43.8106917" lon="12.4433283"><ele>336.5</ele><time>2026-04-04T07:59:58.38Z</time></trkpt><trkpt lat="43.81055" lon="12.44328"><ele>338.0</ele><time>2026-04-04T07:59:59.381Z</time></trkpt><trkpt lat="43.81041" lon="12.4432417"><ele>339.5</ele><time>2026-04-04T08:00:00.38Z</time></trkpt><trkpt lat="43.8102733" lon="12.4431967"><ele>341.0</ele><time>2026-04-04T08:00:01.38Z</time></trkpt><trkpt lat="43.81014" lon="12.443165"><ele>341.0</ele><time>2026-04-04T08:00:02.38Z</time></trkpt><trkpt lat="43.81001" lon="12.44314"><ele>341.0</ele><time>2026-04-04T08:00:03.38Z</time></trkpt><trkpt lat="43.80988" lon="12.4431217"><ele>341.0</ele><time>2026-04-04T08:00:04.381Z</time></trkpt><trkpt lat="43.80976" lon="12.4431283"><ele>341.0</ele><time>2026-04-04T08:00:05.381Z</time></trkpt><trkpt lat="43.80963" lon="12.4431367"><ele>341.0</ele><time>2026-04-04T08:00:06.38Z</time></trkpt><trkpt lat="43.8095083" lon="12.4431333"><ele>341.0</ele><time>2026-04-04T08:00:07.38Z</time></trkpt><trkpt lat="43.80938" lon="12.4431117"><ele>341.0</ele><time>2026-04-04T08:00:08.38Z</time></trkpt><trkpt lat="43.8092517" lon="12.4430867"><ele>341.0</ele><time>2026-04-04T08:00:09.38Z</time></trkpt><trkpt lat="43.809125" lon="12.4430517"><ele>339.25</ele><time>2026-04-04T08:00:10.38Z</time></trkpt><trkpt lat="43.809" lon="12.44302"><ele>337.5</ele><time>2026-04-04T08:00:11.38Z</time></trkpt><trkpt lat="43.8088667" lon="12.4429983"><ele>335.75</ele><time>2026-04-04T08:00:12.38Z</time></trkpt><trkpt lat="43.8087367" lon="12.442965"><ele>334.0</ele><time>2026-04-04T08:00:13.38Z</time></trkpt><trkpt lat="43.80861" lon="12.4429233"><ele>331.75</ele><time>2026-04-04T08:00:14.38Z</time></trkpt><trkpt lat="43.8084817" lon="12.44288"><ele>329.5</ele><time>2026-04-04T08:00:15.38Z</time></trkpt><trkpt lat="43.80834" lon="12.4428517"><ele>327.25</ele><time>2026-04-04T08:00:16.381Z</time></trkpt><trkpt lat="43.8081917" lon="12.4428367"><ele>325.0</ele><time>2026-04-04T08:00:17.38Z</time></trkpt><trkpt lat="43.8080567" lon="12.4428317"><ele>325.0</ele><time>2026-04-04T08:00:18.381Z</time></trkpt><trkpt lat="43.8079267" lon="12.442825"><ele>325.0</ele><time>2026-04-04T08:00:19.381Z</time></trkpt><trkpt lat="43.8077967" lon="12.442815"><ele>325.0</ele><time>2026-04-04T08:00:20.38Z</time></trkpt><trkpt lat="43.80767" lon="12.4427933"><ele>325.0</ele><time>2026-04-04T08:00:21.38Z</time></trkpt><trkpt lat="43.8075367" lon="12.44278"><ele>324.66666666666663</ele><time>2026-04-04T08:00:22.38Z</time></trkpt><trkpt lat="43.8073883" lon="12.4427733"><ele>324.3333333333333</ele><time>2026-04-04T08:00:23.38Z</time></trkpt><trkpt lat="43.8072417" lon="12.442785"><ele>324.0</ele><time>2026-04-04T08:00:24.381Z</time></trkpt><trkpt lat="43.8070867" lon="12.4428017"><ele>324.0</ele><time>2026-04-04T08:00:25.38Z</time></trkpt><trkpt lat="43.8069217" lon="12.4428117"><ele>324.0</ele><time>2026-04-04T08:00:26.38Z</time></trkpt><trkpt lat="43.8067683" lon="12.44284"><ele>324.0</ele><time>2026-04-04T08:00:27.381Z</time></trkpt><trkpt lat="43.8066217" lon="12.44287"><ele>323.75</ele><time>2026-04-04T08:00:28.381Z</time></trkpt><trkpt lat="43.8064733" lon="12.4428983"><ele>323.5</ele><time>2026-04-04T08:00:29.38Z</time></trkpt><trkpt lat="43.8063317" lon="12.44293"><ele>323.25</ele><time>2026-04-04T08:00:30.38Z</time></trkpt><trkpt lat="43.8061967" lon="12.44297"><ele>323.0</ele><time>2026-04-04T08:00:31.38Z</time></trkpt><trkpt lat="43.8060683" lon="12.44301"><ele>323.25</ele><time>2026-04-04T08:00:32.38Z</time></trkpt><trkpt lat="43.8059467" lon="12.44305"><ele>323.5</ele><time>2026-04-04T08:00:33.38Z</time></trkpt><trkpt lat="43.8058317" lon="12.4430983"><ele>323.75</ele><time>2026-04-04T08:00:34.38Z</time></trkpt><trkpt lat="43.80573" lon="12.4431617"><ele>324.0</ele><time>2026-04-04T08:00:35.38Z</time></trkpt><trkpt lat="43.8056367" lon="12.443235"><ele>324.0</ele><time>2026-04-04T08:00:36.381Z</time></trkpt><trkpt lat="43.80555" lon="12.4433183"><ele>324.0</ele><time>2026-04-04T08:00:37.381Z</time></trkpt><trkpt lat="43.8054683" lon="12.4433933"><ele>324.0</ele><time>2026-04-04T08:00:38.381Z</time></trkpt><trkpt lat="43.805385" lon="12.4434367"><ele>324.0</ele><time>2026-04-04T08:00:39.381Z</time></trkpt><trkpt lat="43.8053033" lon="12.44345"><ele>324.0</ele><time>2026-04-04T08:00:40.38Z</time></trkpt><trkpt lat="43.805215" lon="12.4434183"><ele>324.0</ele><time>2026-04-04T08:00:41.38Z</time></trkpt><trkpt lat="43.8051233" lon="12.443335"><ele>324.0</ele><time>2026-04-04T08:00:42.38Z</time></trkpt><trkpt lat="43.8050333" lon="12.4432083"><ele>324.0</ele><time>2026-04-04T08:00:43.38Z</time></trkpt><trkpt lat="43.8049417" lon="12.4430783"><ele>324.0</ele><time>2026-04-04T08:00:44.38Z</time></trkpt><trkpt lat="43.8048467" lon="12.4429517"><ele>324.0</ele><time>2026-04-04T08:00:45.38Z</time></trkpt><trkpt lat="43.80475" lon="12.4428233"><ele>324.0</ele><time>2026-04-04T08:00:46.38Z</time></trkpt><trkpt lat="43.8046533" lon="12.4427033"><ele>324.0</ele><time>2026-04-04T08:00:47.38Z</time></trkpt><trkpt lat="43.8045633" lon="12.44259"><ele>324.0</ele><time>2026-04-04T08:00:48.381Z</time></trkpt><trkpt lat="43.8044833" lon="12.4424667"><ele>324.0</ele><time>2026-04-04T08:00:49.381Z</time></trkpt><trkpt lat="43.804395" lon="12.442355"><ele>324.0</ele><time>2026-04-04T08:00:50.38Z</time></trkpt><trkpt lat="43.804315" lon="12.44225"><ele>324.0</ele><time>2026-04-04T08:00:51.38Z</time></trkpt><trkpt lat="43.8042333" lon="12.4421483"><ele>324.0</ele><time>2026-04-04T08:00:52.38Z</time></trkpt><trkpt lat="43.8041517" lon="12.442045"><ele>325.25</ele><time>2026-04-04T08:00:53.38Z</time></trkpt><trkpt lat="43.8040633" lon="12.441965"><ele>326.5</ele><time>2026-04-04T08:00:54.38Z</time></trkpt><trkpt lat="43.8039717" lon="12.4418567"><ele>327.75</ele><time>2026-04-04T08:00:55.38Z</time></trkpt><trkpt lat="43.8038933" lon="12.4417383"><ele>329.0</ele><time>2026-04-04T08:00:56.38Z</time></trkpt><trkpt lat="43.8038217" lon="12.4416183"><ele>329.0</ele><time>2026-04-04T08:00:57.38Z</time></trkpt><trkpt lat="43.80374" lon="12.44152"><ele>329.0</ele><time>2026-04-04T08:00:58.38Z</time></trkpt><trkpt lat="43.8036667" lon="12.4414167"><ele>329.0</ele><time>2026-04-04T08:00:59.38Z</time></trkpt><trkpt lat="43.80359" lon="12.44133"><ele>329.0</ele><time>2026-04-04T08:01:00.381Z</time></trkpt><trkpt lat="43.80352" lon="12.441245"><ele>329.0</ele><time>2026-04-04T08:01:01.381Z</time></trkpt><trkpt lat="43.80346" lon="12.44117"><ele>327.83333333333337</ele><time>2026-04-04T08:01:02.381Z</time></trkpt><trkpt lat="43.8033783" lon="12.441085"><ele>326.6666666666667</ele><time>2026-04-04T08:01:04.381Z</time></trkpt><trkpt lat="43.8033367" lon="12.4410067"><ele>325.5</ele><time>2026-04-04T08:01:06.381Z</time></trkpt><trkpt lat="43.80331" lon="12.44087"><ele>324.3333333333333</ele><time>2026-04-04T08:01:08.38Z</time></trkpt><trkpt lat="43.8032933" lon="12.44077"><ele>323.16666666666663</ele><time>2026-04-04T08:01:10.381Z</time></trkpt><trkpt lat="43.8032733" lon="12.44064"><ele>322.0</ele><time>2026-04-04T08:01:13.38Z</time></trkpt><trkpt lat="43.803275" lon="12.4404967"><ele>321.8333333333333</ele><time>2026-04-04T08:01:15.381Z</time></trkpt><trkpt lat="43.8032767" lon="12.440405"><ele>321.66666666666663</ele><time>2026-04-04T08:01:16.38Z</time></trkpt><trkpt lat="43.8032733" lon="12.4403017"><ele>321.5</ele><time>2026-04-04T08:01:17.38Z</time></trkpt><trkpt lat="43.803265" lon="12.4401917"><ele>321.3333333333333</ele><time>2026-04-04T08:01:18.38Z</time></trkpt><trkpt lat="43.80325" lon="12.4400817"><ele>321.1666666666667</ele><time>2026-04-04T08:01:19.38Z</time></trkpt><trkpt lat="43.8032367" lon="12.43997"><ele>321.0</ele><time>2026-04-04T08:01:20.38Z</time></trkpt><trkpt lat="43.80322" lon="12.439855"><ele>321.0</ele><time>2026-04-04T08:01:21.381Z</time></trkpt><trkpt lat="43.803205" lon="12.43974"><ele>321.0</ele><time>2026-04-04T08:01:22.38Z</time></trkpt><trkpt lat="43.803195" lon="12.439625"><ele>321.0</ele><time>2026-04-04T08:01:23.381Z</time></trkpt><trkpt lat="43.8031833" lon="12.4395183"><ele>321.0</ele><time>2026-04-04T08:01:24.381Z</time></trkpt><trkpt lat="43.8031733" lon="12.4394167"><ele>321.0</ele><time>2026-04-04T08:01:25.38Z</time></trkpt><trkpt lat="43.8031683" lon="12.43931"><ele>321.0</ele><time>2026-04-04T08:01:26.38Z</time></trkpt><trkpt lat="43.80316" lon="12.4391883"><ele>321.4</ele><time>2026-04-04T08:01:27.381Z</time></trkpt><trkpt lat="43.8031467" lon="12.4390633"><ele>321.8</ele><time>2026-04-04T08:01:28.38Z</time></trkpt><trkpt lat="43.803125" lon="12.4389433"><ele>322.2</ele><time>2026-04-04T08:01:29.38Z</time></trkpt><trkpt lat="43.803115" lon="12.438815"><ele>322.59999999999997</ele><time>2026-04-04T08:01:30.38Z</time></trkpt><trkpt lat="43.8031" lon="12.4386917"><ele>323.0</ele><time>2026-04-04T08:01:31.38Z</time></trkpt><trkpt lat="43.80309" lon="12.4385667"><ele>323.2</ele><time>2026-04-04T08:01:32.381Z</time></trkpt><trkpt lat="43.803085" lon="12.4384417"><ele>323.4</ele><time>2026-04-04T08:01:33.38Z</time></trkpt><trkpt lat="43.8030783" lon="12.438315"><ele>323.59999999999997</ele><time>2026-04-04T08:01:34.381Z</time></trkpt><trkpt lat="43.8030683" lon="12.4381917"><ele>323.79999999999995</ele><time>2026-04-04T08:01:35.38Z</time></trkpt><trkpt lat="43.8030583" lon="12.4380667"><ele>324.0</ele><time>2026-04-04T08:01:36.38Z</time></trkpt><trkpt lat="43.8030033" lon="12.4378367"><ele>325.0</ele><time>2026-04-04T08:01:37.757Z</time></trkpt><trkpt lat="43.802965" lon="12.437675"><ele>326.0</ele><time>2026-04-04T08:01:39.875Z</time></trkpt><trkpt lat="43.8029517" lon="12.43749"><ele>327.0</ele><time>2026-04-04T08:01:41.375Z</time></trkpt><trkpt lat="43.802945" lon="12.4373767"><ele>328.0</ele><time>2026-04-04T08:01:42.376Z</time></trkpt><trkpt lat="43.8029383" lon="12.4372683"><ele>329.0</ele><time>2026-04-04T08:01:43.375Z</time></trkpt><trkpt lat="43.80294" lon="12.43717"><ele>330.0</ele><time>2026-04-04T08:01:44.375Z</time></trkpt><trkpt lat="43.80292" lon="12.4370283"><ele>331.0</ele><time>2026-04-04T08:01:46.375Z</time></trkpt><trkpt lat="43.8028817" lon="12.4369267"><ele>332.0</ele><time>2026-04-04T08:01:48.376Z</time></trkpt><trkpt lat="43.8028" lon="12.4368"><ele>333.0</ele><time>2026-04-04T08:01:50.375Z</time></trkpt><trkpt lat="43.80273" lon="12.4367183"><ele>334.0</ele><time>2026-04-04T08:01:51.375Z</time></trkpt><trkpt lat="43.80265" lon="12.4366267"><ele>331.3333333333333</ele><time>2026-04-04T08:01:52.375Z</time></trkpt><trkpt lat="43.8025783" lon="12.4365483"><ele>328.66666666666663</ele><time>2026-04-04T08:01:53.375Z</time></trkpt><trkpt lat="43.8025033" lon="12.4364617"><ele>326.0</ele><time>2026-04-04T08:01:54.375Z</time></trkpt><trkpt lat="43.80245" lon="12.4363783"><ele>323.3333333333333</ele><time>2026-04-04T08:01:55.376Z</time></trkpt><trkpt lat="43.80241" lon="12.4362833"><ele>320.6666666666667</ele><time>2026-04-04T08:01:56.375Z</time></trkpt><trkpt lat="43.80239" lon="12.43619"><ele>318.0</ele><time>2026-04-04T08:01:57.375Z</time></trkpt><trkpt lat="43.802345" lon="12.43605"><ele>318.0</ele><time>2026-04-04T08:01:59.375Z</time></trkpt><trkpt lat="43.8022483" lon="12.4360567"><ele>318.0</ele><time>2026-04-04T08:02:01.376Z</time></trkpt><trkpt lat="43.802175" lon="12.436105"><ele>318.0</ele><time>2026-04-04T08:02:02.375Z</time></trkpt><trkpt lat="43.8020917" lon="12.43616"><ele>318.0</ele><time>2026-04-04T08:02:03.376Z</time></trkpt><trkpt lat="43.802005" lon="12.4362167"><ele>318.0</ele><time>2026-04-04T08:02:04.376Z</time></trkpt><trkpt lat="43.8019233" lon="12.4362467"><ele>318.0</ele><time>2026-04-04T08:02:05.375Z</time></trkpt><trkpt lat="43.8018433" lon="12.4362767"><ele>318.0</ele><time>2026-04-04T08:02:06.375Z</time></trkpt><trkpt lat="43.80176" lon="12.43632"><ele>318.0</ele><time>2026-04-04T08:02:07.376Z</time></trkpt><trkpt lat="43.8016867" lon="12.436385"><ele>318.0</ele><time>2026-04-04T08:02:08.375Z</time></trkpt><trkpt lat="43.8015967" lon="12.4364583"><ele>318.0</ele><time>2026-04-04T08:02:09.375Z</time></trkpt><trkpt lat="43.8014967" lon="12.43653"><ele>315.0</ele><time>2026-04-04T08:02:10.375Z</time></trkpt><trkpt lat="43.80139" lon="12.4365983"><ele>312.0</ele><time>2026-04-04T08:02:11.375Z</time></trkpt><trkpt lat="43.8012767" lon="12.43666"><ele>309.0</ele><time>2026-04-04T08:02:12.375Z</time></trkpt><trkpt lat="43.8011633" lon="12.4367117"><ele>306.0</ele><time>2026-04-04T08:02:13.375Z</time></trkpt><trkpt lat="43.801055" lon="12.4367617"><ele>307.25</ele><time>2026-04-04T08:02:14.375Z</time></trkpt><trkpt lat="43.800935" lon="12.4368083"><ele>308.5</ele><time>2026-04-04T08:02:15.375Z</time></trkpt><trkpt lat="43.800825" lon="12.4368667"><ele>309.75</ele><time>2026-04-04T08:02:16.376Z</time></trkpt><trkpt lat="43.8007267" lon="12.4369283"><ele>311.0</ele><time>2026-04-04T08:02:17.375Z</time></trkpt><trkpt lat="43.8006317" lon="12.4369883"><ele>311.0</ele><time>2026-04-04T08:02:18.375Z</time></trkpt><trkpt lat="43.8005433" lon="12.437045"><ele>311.0</ele><time>2026-04-04T08:02:19.376Z</time></trkpt><trkpt lat="43.8004483" lon="12.4371083"><ele>311.0</ele><time>2026-04-04T08:02:20.376Z</time></trkpt><trkpt lat="43.8003567" lon="12.4371667"><ele>311.0</ele><time>2026-04-04T08:02:21.375Z</time></trkpt><trkpt lat="43.8002567" lon="12.4372183"><ele>311.0</ele><time>2026-04-04T08:02:22.376Z</time></trkpt><trkpt lat="43.800165" lon="12.43725"><ele>316.83333333333337</ele><time>2026-04-04T08:02:23.376Z</time></trkpt><trkpt lat="43.80008" lon="12.4372517"><ele>322.6666666666667</ele><time>2026-04-04T08:02:24.375Z</time></trkpt><trkpt lat="43.7999983" lon="12.4372433"><ele>328.5</ele><time>2026-04-04T08:02:25.375Z</time></trkpt><trkpt lat="43.7999183" lon="12.437215"><ele>334.3333333333333</ele><time>2026-04-04T08:02:26.376Z</time></trkpt><trkpt lat="43.7998367" lon="12.4371833"><ele>340.16666666666663</ele><time>2026-04-04T08:02:27.375Z</time></trkpt><trkpt lat="43.799755" lon="12.437165"><ele>346.0</ele><time>2026-04-04T08:02:28.376Z</time></trkpt><trkpt lat="43.799685" lon="12.437165"><ele>346.0</ele><time>2026-04-04T08:02:29.375Z</time></trkpt><trkpt lat="43.7996117" lon="12.437195"><ele>346.0</ele><time>2026-04-04T08:02:30.375Z</time></trkpt><trkpt lat="43.7995317" lon="12.43722"><ele>346.0</ele><time>2026-04-04T08:02:31.376Z</time></trkpt><trkpt lat="43.799455" lon="12.437215"><ele>346.0</ele><time>2026-04-04T08:02:32.375Z</time></trkpt><trkpt lat="43.7993783" lon="12.437175"><ele>346.0</ele><time>2026-04-04T08:02:33.375Z</time></trkpt><trkpt lat="43.7993167" lon="12.43711"><ele>346.0</ele><time>2026-04-04T08:02:34.375Z</time></trkpt><trkpt lat="43.799225" lon="12.4370783"><ele>348.20000000000005</ele><time>2026-04-04T08:02:35.376Z</time></trkpt><trkpt lat="43.7991267" lon="12.437075"><ele>350.40000000000003</ele><time>2026-04-04T08:02:36.375Z</time></trkpt><trkpt lat="43.7990233" lon="12.437095"><ele>352.6</ele><time>2026-04-04T08:02:37.375Z</time></trkpt><trkpt lat="43.79892" lon="12.4371117"><ele>354.8</ele><time>2026-04-04T08:02:38.376Z</time></trkpt><trkpt lat="43.79883" lon="12.43712"><ele>357.0</ele><time>2026-04-04T08:02:39.375Z</time></trkpt><trkpt lat="43.7987483" lon="12.43715"><ele>357.42857142857144</ele><time>2026-04-04T08:02:40.376Z</time></trkpt><trkpt lat="43.7986817" lon="12.4372033"><ele>357.8571428571429</ele><time>2026-04-04T08:02:41.376Z</time></trkpt><trkpt lat="43.7986383" lon="12.4372733"><ele>358.2857142857143</ele><time>2026-04-04T08:02:42.376Z</time></trkpt><trkpt lat="43.7986133" lon="12.437365"><ele>358.7142857142857</ele><time>2026-04-04T08:02:43.376Z</time></trkpt><trkpt lat="43.7985717" lon="12.4374417"><ele>359.14285714285717</ele><time>2026-04-04T08:02:44.375Z</time></trkpt><trkpt lat="43.7985167" lon="12.4374867"><ele>359.57142857142856</ele><time>2026-04-04T08:02:45.375Z</time></trkpt><trkpt lat="43.7984467" lon="12.43751"><ele>360.0</ele><time>2026-04-04T08:02:46.375Z</time></trkpt><trkpt lat="43.7983567" lon="12.4375083"><ele>361.6</ele><time>2026-04-04T08:02:47.376Z</time></trkpt><trkpt lat="43.7982583" lon="12.437485"><ele>363.2</ele><time>2026-04-04T08:02:48.375Z</time></trkpt><trkpt lat="43.7981567" lon="12.4374617"><ele>364.79999999999995</ele><time>2026-04-04T08:02:49.375Z</time></trkpt><trkpt lat="43.7980617" lon="12.43744"><ele>366.4</ele><time>2026-04-04T08:02:50.375Z</time></trkpt><trkpt lat="43.7979717" lon="12.4373983"><ele>368.0</ele><time>2026-04-04T08:02:51.375Z</time></trkpt><trkpt lat="43.79789" lon="12.437345"><ele>368.0</ele><time>2026-04-04T08:02:52.375Z</time></trkpt><trkpt lat="43.7978217" lon="12.437275"><ele>368.0</ele><time>2026-04-04T08:02:53.375Z</time></trkpt><trkpt lat="43.797755" lon="12.4372067"><ele>368.0</ele><time>2026-04-04T08:02:54.375Z</time></trkpt><trkpt lat="43.7976933" lon="12.43715"><ele>368.0</ele><time>2026-04-04T08:02:55.376Z</time></trkpt><trkpt lat="43.79764" lon="12.4370933"><ele>368.0</ele><time>2026-04-04T08:02:56.375Z</time></trkpt><trkpt lat="43.7975883" lon="12.4370433"><ele>368.0</ele><time>2026-04-04T08:02:57.375Z</time></trkpt><trkpt lat="43.7975017" lon="12.4369667"><ele>370.33333333333337</ele><time>2026-04-04T08:02:59.375Z</time></trkpt><trkpt lat="43.7974417" lon="12.4368833"><ele>372.6666666666667</ele><time>2026-04-04T08:03:01.376Z</time></trkpt><trkpt lat="43.79743" lon="12.4367583"><ele>375.0</ele><time>2026-04-04T08:03:03.376Z</time></trkpt><trkpt lat="43.7974817" lon="12.4366067"><ele>377.3333333333333</ele><time>2026-04-04T08:03:05.375Z</time></trkpt><trkpt lat="43.7975317" lon="12.4365333"><ele>379.66666666666663</ele><time>2026-04-04T08:03:06.375Z</time></trkpt><trkpt lat="43.7975817" lon="12.4364767"><ele>382.0</ele><time>2026-04-04T08:03:07.375Z</time></trkpt><trkpt lat="43.7976667" lon="12.436415"><ele>381.0</ele><time>2026-04-04T08:03:09.375Z</time></trkpt><trkpt lat="43.7977667" lon="12.4363717"><ele>380.0</ele><time>2026-04-04T08:03:11.376Z</time></trkpt><trkpt lat="43.7978317" lon="12.4363517"><ele>379.0</ele><time>2026-04-04T08:03:12.376Z</time></trkpt><trkpt lat="43.7979033" lon="12.4363317"><ele>378.0</ele><time>2026-04-04T08:03:13.376Z</time></trkpt><trkpt lat="43.7980017" lon="12.4362967"><ele>377.0</ele><time>2026-04-04T08:03:15.375Z</time></trkpt><trkpt lat="43.7980683" lon="12.4362317"><ele>376.0</ele><time>2026-04-04T08:03:17.375Z</time></trkpt><trkpt lat="43.7981067" lon="12.436155"><ele>376.0</ele><time>2026-04-04T08:03:20.375Z</time></trkpt><trkpt lat="43.7981617" lon="12.4360833"><ele>376.0</ele><time>2026-04-04T08:03:24.376Z</time></trkpt><trkpt lat="43.798105" lon="12.4361667"><ele>376.0</ele><time>2026-04-04T08:03:30.375Z</time></trkpt><trkpt lat="43.79806" lon="12.4362517"><ele>376.0</ele><time>2026-04-04T08:03:32.376Z</time></trkpt><trkpt lat="43.7979967" lon="12.4362983"><ele>376.0</ele><time>2026-04-04T08:03:34.375Z</time></trkpt><trkpt lat="43.7979333" lon="12.4363283"><ele>376.0</ele><time>2026-04-04T08:03:36.375Z</time></trkpt><trkpt lat="43.7978583" lon="12.436365"><ele>376.0</ele><time>2026-04-04T08:03:38.375Z</time></trkpt><trkpt lat="43.7977883" lon="12.4363817"><ele>376.0</ele><time>2026-04-04T08:03:40.376Z</time></trkpt><trkpt lat="43.7977133" lon="12.4364267"><ele>376.0</ele><time>2026-04-04T08:03:43.375Z</time></trkpt><trkpt lat="43.7976417" lon="12.4363867"><ele>376.0</ele><time>2026-04-04T08:03:54.375Z</time></trkpt><trkpt lat="43.7977033" lon="12.4363083"><ele>376.0</ele><time>2026-04-04T08:03:57.376Z</time></trkpt><trkpt lat="43.7977967" lon="12.4362317"><ele>376.0</ele><time>2026-04-04T08:03:59.375Z</time></trkpt><trkpt lat="43.79787" lon="12.436165"><ele>378.16666666666663</ele><time>2026-04-04T08:04:01.375Z</time></trkpt><trkpt lat="43.7979117" lon="12.436065"><ele>380.3333333333333</ele><time>2026-04-04T08:04:04.375Z</time></trkpt><trkpt lat="43.7978517" lon="12.4359933"><ele>382.5</ele><time>2026-04-04T08:04:07.375Z</time></trkpt><trkpt lat="43.7977833" lon="12.43602"><ele>384.66666666666663</ele><time>2026-04-04T08:04:09.375Z</time></trkpt><trkpt lat="43.7977167" lon="12.4360167"><ele>386.8333333333333</ele><time>2026-04-04T08:04:11.375Z</time></trkpt><trkpt lat="43.7977067" lon="12.43593"><ele>389.0</ele><time>2026-04-04T08:04:14.375Z</time></trkpt><trkpt lat="43.7977317" lon="12.4358133"><ele>388.99999999999994</ele><time>2026-04-04T08:04:16.376Z</time></trkpt><trkpt lat="43.7977533" lon="12.4357267"><ele>389.0</ele><time>2026-04-04T08:04:17.375Z</time></trkpt><trkpt lat="43.79778" lon="12.4356283"><ele>389.0</ele><time>2026-04-04T08:04:18.376Z</time></trkpt><trkpt lat="43.797805" lon="12.43552"><ele>389.0</ele><time>2026-04-04T08:04:19.376Z</time></trkpt><trkpt lat="43.79783" lon="12.4354033"><ele>388.99999999999994</ele><time>2026-04-04T08:04:20.375Z</time></trkpt><trkpt lat="43.7978383" lon="12.435305"><ele>389.0</ele><time>2026-04-04T08:04:21.376Z</time></trkpt><trkpt lat="43.7978317" lon="12.4352033"><ele>390.2</ele><time>2026-04-04T08:04:23.376Z</time></trkpt><trkpt lat="43.7976917" lon="12.4350833"><ele>391.4</ele><time>2026-04-04T08:04:31.375Z</time></trkpt><trkpt lat="43.79763" lon="12.4350433"><ele>392.6</ele><time>2026-04-04T08:04:32.376Z</time></trkpt><trkpt lat="43.7975533" lon="12.43501"><ele>393.8</ele><time>2026-04-04T08:04:33.375Z</time></trkpt><trkpt lat="43.79747" lon="12.4349783"><ele>395.0</ele><time>2026-04-04T08:04:34.375Z</time></trkpt><trkpt lat="43.7973817" lon="12.4349517"><ele>397.66666666666663</ele><time>2026-04-04T08:04:35.375Z</time></trkpt><trkpt lat="43.7972883" lon="12.43493"><ele>400.3333333333333</ele><time>2026-04-04T08:04:36.375Z</time></trkpt><trkpt lat="43.7972" lon="12.43492"><ele>403.0</ele><time>2026-04-04T08:04:37.376Z</time></trkpt><trkpt lat="43.7971183" lon="12.4348983"><ele>405.66666666666663</ele><time>2026-04-04T08:04:38.375Z</time></trkpt><trkpt lat="43.7970417" lon="12.4348733"><ele>408.3333333333333</ele><time>2026-04-04T08:04:39.375Z</time></trkpt><trkpt lat="43.796975" lon="12.4348333"><ele>411.0</ele><time>2026-04-04T08:04:40.376Z</time></trkpt><trkpt lat="43.7969033" lon="12.4347967"><ele>413.5</ele><time>2026-04-04T08:04:41.376Z</time></trkpt><trkpt lat="43.7968267" lon="12.4347617"><ele>416.0</ele><time>2026-04-04T08:04:42.375Z</time></trkpt><trkpt lat="43.7967517" lon="12.4347133"><ele>418.5</ele><time>2026-04-04T08:04:43.375Z</time></trkpt><trkpt lat="43.7966717" lon="12.4346717"><ele>421.0</ele><time>2026-04-04T08:04:44.375Z</time></trkpt><trkpt lat="43.796595" lon="12.4346283"><ele>423.5</ele><time>2026-04-04T08:04:45.375Z</time></trkpt><trkpt lat="43.7965283" lon="12.4345867"><ele>426.0</ele><time>2026-04-04T08:04:46.376Z</time></trkpt><trkpt lat="43.7964533" lon="12.434545"><ele>427.0</ele><time>2026-04-04T08:04:47.376Z</time></trkpt><trkpt lat="43.796375" lon="12.4345083"><ele>428.0</ele><time>2026-04-04T08:04:48.375Z</time></trkpt><trkpt lat="43.796295" lon="12.43446"><ele>429.0</ele><time>2026-04-04T08:04:49.375Z</time></trkpt><trkpt lat="43.7962133" lon="12.4344183"><ele>430.0</ele><time>2026-04-04T08:04:50.375Z</time></trkpt><trkpt lat="43.7961417" lon="12.4343783"><ele>431.0</ele><time>2026-04-04T08:04:51.376Z</time></trkpt><trkpt lat="43.7960833" lon="12.43434"><ele>432.0</ele><time>2026-04-04T08:04:52.375Z</time></trkpt><trkpt lat="43.7959867" lon="12.434255"><ele>433.20000000000005</ele><time>2026-04-04T08:04:54.376Z</time></trkpt><trkpt lat="43.79591" lon="12.434165"><ele>434.40000000000003</ele><time>2026-04-04T08:04:56.375Z</time></trkpt><trkpt lat="43.7958183" lon="12.434065"><ele>435.59999999999997</ele><time>2026-04-04T08:04:58.376Z</time></trkpt><trkpt lat="43.7957683" lon="12.434005"><ele>436.79999999999995</ele><time>2026-04-04T08:04:59.376Z</time></trkpt><trkpt lat="43.7957033" lon="12.433885"><ele>438.0</ele><time>2026-04-04T08:05:01.376Z</time></trkpt><trkpt lat="43.7956583" lon="12.4337467"><ele>438.0</ele><time>2026-04-04T08:05:03.376Z</time></trkpt><trkpt lat="43.795625" lon="12.433615"><ele>437.99999999999994</ele><time>2026-04-04T08:05:05.376Z</time></trkpt><trkpt lat="43.7955583" lon="12.433515"><ele>437.99999999999994</ele><time>2026-04-04T08:05:07.375Z</time></trkpt><trkpt lat="43.79547" lon="12.4334167"><ele>438.0</ele><time>2026-04-04T08:05:09.376Z</time></trkpt><trkpt lat="43.7954117" lon="12.4333733"><ele>438.0</ele><time>2026-04-04T08:05:10.375Z</time></trkpt><trkpt lat="43.7953417" lon="12.433335"><ele>438.0</ele><time>2026-04-04T08:05:11.375Z</time></trkpt><trkpt lat="43.7952783" lon="12.4332967"><ele>437.99999999999994</ele><time>2026-04-04T08:05:12.375Z</time></trkpt><trkpt lat="43.7951467" lon="12.4332767"><ele>437.99999999999994</ele><time>2026-04-04T08:05:14.375Z</time></trkpt><trkpt lat="43.79505" lon="12.4333033"><ele>438.0</ele><time>2026-04-04T08:05:16.376Z</time></trkpt><trkpt lat="43.794985" lon="12.4333083"><ele>438.0</ele><time>2026-04-04T08:05:18.375Z</time></trkpt><trkpt lat="43.79487" lon="12.4332967"><ele>441.0</ele><time>2026-04-04T08:05:20.376Z</time></trkpt><trkpt lat="43.79479" lon="12.433305"><ele>444.0</ele><time>2026-04-04T08:05:21.375Z</time></trkpt><trkpt lat="43.7946983" lon="12.433305"><ele>447.0</ele><time>2026-04-04T08:05:22.375Z</time></trkpt><trkpt lat="43.7946183" lon="12.4333167"><ele>450.0</ele><time>2026-04-04T08:05:23.375Z</time></trkpt><trkpt lat="43.7945483" lon="12.4333267"><ele>453.0</ele><time>2026-04-04T08:05:24.375Z</time></trkpt><trkpt lat="43.79443" lon="12.433365"><ele>456.0</ele><time>2026-04-04T08:05:26.375Z</time></trkpt><trkpt lat="43.7943367" lon="12.4334267"><ele>456.0</ele><time>2026-04-04T08:05:28.376Z</time></trkpt><trkpt lat="43.7942683" lon="12.4334733"><ele>456.0</ele><time>2026-04-04T08:05:31.376Z</time></trkpt><trkpt lat="43.7941683" lon="12.4335283"><ele>456.0</ele><time>2026-04-04T08:05:40.375Z</time></trkpt><trkpt lat="43.7940633" lon="12.4335683"><ele>456.0</ele><time>2026-04-04T08:05:42.376Z</time></trkpt><trkpt lat="43.7939383" lon="12.4335783"><ele>456.0</ele><time>2026-04-04T08:05:44.375Z</time></trkpt><trkpt lat="43.7938483" lon="12.433575"><ele>456.0</ele><time>2026-04-04T08:05:46.376Z</time></trkpt><trkpt lat="43.7937717" lon="12.4335383"><ele>456.0</ele><time>2026-04-04T08:05:48.376Z</time></trkpt><trkpt lat="43.7936833" lon="12.43347"><ele>456.0</ele><time>2026-04-04T08:05:50.376Z</time></trkpt><trkpt lat="43.7936033" lon="12.433345"><ele>456.0</ele><time>2026-04-04T08:05:52.376Z</time></trkpt><trkpt lat="43.79353" lon="12.433235"><ele>456.0</ele><time>2026-04-04T08:05:54.375Z</time></trkpt><trkpt lat="43.79348" lon="12.4331733"><ele>457.1666666666667</ele><time>2026-04-04T08:05:56.375Z</time></trkpt><trkpt lat="43.7934183" lon="12.4331267"><ele>458.33333333333337</ele><time>2026-04-04T08:05:58.375Z</time></trkpt><trkpt lat="43.7933283" lon="12.4330867"><ele>459.5</ele><time>2026-04-04T08:06:00.375Z</time></trkpt><trkpt lat="43.793205" lon="12.43305"><ele>460.6666666666667</ele><time>2026-04-04T08:06:02.375Z</time></trkpt><trkpt lat="43.7931333" lon="12.4330267"><ele>461.83333333333337</ele><time>2026-04-04T08:06:03.375Z</time></trkpt><trkpt lat="43.7930567" lon="12.4329983"><ele>463.0</ele><time>2026-04-04T08:06:04.376Z</time></trkpt><trkpt lat="43.7929883" lon="12.432985"><ele>461.79999999999995</ele><time>2026-04-04T08:06:05.375Z</time></trkpt><trkpt lat="43.7929017" lon="12.4329367"><ele>460.59999999999997</ele><time>2026-04-04T08:06:07.376Z</time></trkpt><trkpt lat="43.792825" lon="12.432855"><ele>459.40000000000003</ele><time>2026-04-04T08:06:09.376Z</time></trkpt><trkpt lat="43.792735" lon="12.4327567"><ele>458.20000000000005</ele><time>2026-04-04T08:06:11.375Z</time></trkpt><trkpt lat="43.792635" lon="12.4326833"><ele>457.0</ele><time>2026-04-04T08:06:13.375Z</time></trkpt><trkpt lat="43.7925267" lon="12.4325917"><ele>457.00000000000006</ele><time>2026-04-04T08:06:15.376Z</time></trkpt><trkpt lat="43.792475" lon="12.4325383"><ele>457.0</ele><time>2026-04-04T08:06:16.375Z</time></trkpt><trkpt lat="43.7924167" lon="12.4324533"><ele>457.0</ele><time>2026-04-04T08:06:17.376Z</time></trkpt><trkpt lat="43.7923517" lon="12.4323583"><ele>457.0</ele><time>2026-04-04T08:06:18.375Z</time></trkpt><trkpt lat="43.7922933" lon="12.4322633"><ele>457.00000000000006</ele><time>2026-04-04T08:06:19.375Z</time></trkpt><trkpt lat="43.7922467" lon="12.432185"><ele>457.0</ele><time>2026-04-04T08:06:20.375Z</time></trkpt><trkpt lat="43.7921917" lon="12.4321083"><ele>456.8</ele><time>2026-04-04T08:06:21.375Z</time></trkpt><trkpt lat="43.792125" lon="12.43202"><ele>456.6</ele><time>2026-04-04T08:06:23.376Z</time></trkpt><trkpt lat="43.792015" lon="12.4319667"><ele>456.40000000000003</ele><time>2026-04-04T08:06:31.375Z</time></trkpt><trkpt lat="43.7918983" lon="12.43195"><ele>456.20000000000005</ele><time>2026-04-04T08:06:33.375Z</time></trkpt><trkpt lat="43.791815" lon="12.4319433"><ele>456.0</ele><time>2026-04-04T08:06:34.375Z</time></trkpt><trkpt lat="43.7917217" lon="12.43193"><ele>456.0</ele><time>2026-04-04T08:06:35.375Z</time></trkpt><trkpt lat="43.7916317" lon="12.4319217"><ele>456.0</ele><time>2026-04-04T08:06:36.376Z</time></trkpt><trkpt lat="43.79154" lon="12.4319117"><ele>456.0</ele><time>2026-04-04T08:06:37.376Z</time></trkpt><trkpt lat="43.79145" lon="12.4318983"><ele>456.0</ele><time>2026-04-04T08:06:38.375Z</time></trkpt><trkpt lat="43.7913583" lon="12.4318867"><ele>456.0</ele><time>2026-04-04T08:06:39.375Z</time></trkpt><trkpt lat="43.7912633" lon="12.43187"><ele>456.0</ele><time>2026-04-04T08:06:40.375Z</time></trkpt><trkpt lat="43.79117" lon="12.431855"><ele>456.0</ele><time>2026-04-04T08:06:41.375Z</time></trkpt><trkpt lat="43.7910833" lon="12.431835"><ele>456.0</ele><time>2026-04-04T08:06:42.376Z</time></trkpt><trkpt lat="43.7909967" lon="12.4318133"><ele>456.0</ele><time>2026-04-04T08:06:43.376Z</time></trkpt><trkpt lat="43.7909183" lon="12.43179"><ele>456.0</ele><time>2026-04-04T08:06:44.375Z</time></trkpt><trkpt lat="43.7908467" lon="12.4317633"><ele>456.0</ele><time>2026-04-04T08:06:45.376Z</time></trkpt><trkpt lat="43.7907783" lon="12.43174"><ele>454.6666666666667</ele><time>2026-04-04T08:06:46.375Z</time></trkpt><trkpt lat="43.790705" lon="12.4317033"><ele>453.33333333333337</ele><time>2026-04-04T08:06:47.375Z</time></trkpt><trkpt lat="43.7906233" lon="12.431655"><ele>452.0</ele><time>2026-04-04T08:06:48.376Z</time></trkpt><trkpt lat="43.7905383" lon="12.43161"><ele>450.6666666666667</ele><time>2026-04-04T08:06:49.375Z</time></trkpt><trkpt lat="43.7904483" lon="12.43156"><ele>449.33333333333337</ele><time>2026-04-04T08:06:50.375Z</time></trkpt><trkpt lat="43.790365" lon="12.4315033"><ele>448.0</ele><time>2026-04-04T08:06:51.376Z</time></trkpt><trkpt lat="43.7902867" lon="12.4314517"><ele>448.00000000000006</ele><time>2026-04-04T08:06:52.375Z</time></trkpt><trkpt lat="43.7902083" lon="12.4313983"><ele>448.0</ele><time>2026-04-04T08:06:53.376Z</time></trkpt><trkpt lat="43.79014" lon="12.4313283"><ele>448.0</ele><time>2026-04-04T08:06:54.375Z</time></trkpt><trkpt lat="43.7900733" lon="12.4312617"><ele>448.0</ele><time>2026-04-04T08:06:55.376Z</time></trkpt><trkpt lat="43.790005" lon="12.4311983"><ele>448.00000000000006</ele><time>2026-04-04T08:06:56.376Z</time></trkpt><trkpt lat="43.7899483" lon="12.4311383"><ele>448.0</ele><time>2026-04-04T08:06:57.376Z</time></trkpt><trkpt lat="43.7898333" lon="12.4310667"><ele>447.00000000000006</ele><time>2026-04-04T08:06:59.376Z</time></trkpt><trkpt lat="43.7897617" lon="12.4310417"><ele>446.0</ele><time>2026-04-04T08:07:00.377Z</time></trkpt><trkpt lat="43.78969" lon="12.43103"><ele>445.0</ele><time>2026-04-04T08:07:01.377Z</time></trkpt><trkpt lat="43.789615" lon="12.4310283"><ele>444.0</ele><time>2026-04-04T08:07:02.376Z</time></trkpt><trkpt lat="43.7895383" lon="12.43102"><ele>443.00000000000006</ele><time>2026-04-04T08:07:03.376Z</time></trkpt><trkpt lat="43.78946" lon="12.43102"><ele>442.0</ele><time>2026-04-04T08:07:04.377Z</time></trkpt><trkpt lat="43.789385" lon="12.431035"><ele>442.50000000000006</ele><time>2026-04-04T08:07:05.376Z</time></trkpt><trkpt lat="43.7893067" lon="12.4310683"><ele>443.0</ele><time>2026-04-04T08:07:06.376Z</time></trkpt><trkpt lat="43.7892267" lon="12.43111"><ele>443.5</ele><time>2026-04-04T08:07:07.377Z</time></trkpt><trkpt lat="43.78915" lon="12.4311467"><ele>444.0</ele><time>2026-04-04T08:07:08.376Z</time></trkpt><trkpt lat="43.7890683" lon="12.431185"><ele>444.50000000000006</ele><time>2026-04-04T08:07:09.377Z</time></trkpt><trkpt lat="43.7889883" lon="12.4312067"><ele>445.0</ele><time>2026-04-04T08:07:10.376Z</time></trkpt><trkpt lat="43.788905" lon="12.4312233"><ele>445.00000000000006</ele><time>2026-04-04T08:07:11.376Z</time></trkpt><trkpt lat="43.7888217" lon="12.4312433"><ele>445.0</ele><time>2026-04-04T08:07:12.376Z</time></trkpt><trkpt lat="43.7887333" lon="12.431265"><ele>445.0</ele><time>2026-04-04T08:07:13.377Z</time></trkpt><trkpt lat="43.7886383" lon="12.4312967"><ele>445.0</ele><time>2026-04-04T08:07:14.377Z</time></trkpt><trkpt lat="43.7885533" lon="12.431315"><ele>445.00000000000006</ele><time>2026-04-04T08:07:15.377Z</time></trkpt><trkpt lat="43.788475" lon="12.431325"><ele>445.0</ele><time>2026-04-04T08:07:16.377Z</time></trkpt><trkpt lat="43.788395" lon="12.4313117"><ele>444.6</ele><time>2026-04-04T08:07:17.376Z</time></trkpt><trkpt lat="43.788305" lon="12.431275"><ele>444.2</ele><time>2026-04-04T08:07:18.376Z</time></trkpt><trkpt lat="43.7882167" lon="12.4312383"><ele>443.79999999999995</ele><time>2026-04-04T08:07:19.376Z</time></trkpt><trkpt lat="43.7881267" lon="12.4312067"><ele>443.4</ele><time>2026-04-04T08:07:20.377Z</time></trkpt><trkpt lat="43.78805" lon="12.4311817"><ele>443.0</ele><time>2026-04-04T08:07:21.376Z</time></trkpt><trkpt lat="43.7879583" lon="12.4311467"><ele>442.99999999999994</ele><time>2026-04-04T08:07:23.377Z</time></trkpt><trkpt lat="43.7879" lon="12.43119"><ele>443.0</ele><time>2026-04-04T08:07:28.377Z</time></trkpt><trkpt lat="43.7878833" lon="12.43128"><ele>443.0</ele><time>2026-04-04T08:07:31.376Z</time></trkpt><trkpt lat="43.787935" lon="12.4313867"><ele>443.0</ele><time>2026-04-04T08:07:33.376Z</time></trkpt><trkpt lat="43.7880317" lon="12.4315083"><ele>442.99999999999994</ele><time>2026-04-04T08:07:35.377Z</time></trkpt><trkpt lat="43.7880783" lon="12.4315683"><ele>443.0</ele><time>2026-04-04T08:07:36.377Z</time></trkpt><trkpt lat="43.7881317" lon="12.4316483"><ele>442.99999999999994</ele><time>2026-04-04T08:07:38.376Z</time></trkpt><trkpt lat="43.7880717" lon="12.431545"><ele>443.0</ele><time>2026-04-04T08:07:58.376Z</time></trkpt><trkpt lat="43.78801" lon="12.43148"><ele>443.0</ele><time>2026-04-04T08:07:59.377Z</time></trkpt><trkpt lat="43.7879533" lon="12.4314083"><ele>443.0</ele><time>2026-04-04T08:08:00.376Z</time></trkpt><trkpt lat="43.7878917" lon="12.4312917"><ele>442.99999999999994</ele><time>2026-04-04T08:08:02.376Z</time></trkpt><trkpt lat="43.78786" lon="12.4312067"><ele>443.0</ele><time>2026-04-04T08:08:05.377Z</time></trkpt><trkpt lat="43.78782" lon="12.4311333"><ele>442.99999999999994</ele><time>2026-04-04T08:08:07.377Z</time></trkpt><trkpt lat="43.7877717" lon="12.4310733"><ele>443.0</ele><time>2026-04-04T08:08:09.377Z</time></trkpt><trkpt lat="43.7877017" lon="12.431015"><ele>443.0</ele><time>2026-04-04T08:08:12.377Z</time></trkpt><trkpt lat="43.787625" lon="12.431015"><ele>443.0</ele><time>2026-04-04T08:08:15.377Z</time></trkpt><trkpt lat="43.787605" lon="12.4311467"><ele>442.99999999999994</ele><time>2026-04-04T08:08:53.376Z</time></trkpt><trkpt lat="43.7876867" lon="12.431185"><ele>443.0</ele><time>2026-04-04T08:08:55.376Z</time></trkpt><trkpt lat="43.7877833" lon="12.4311833"><ele>442.99999999999994</ele><time>2026-04-04T08:08:57.376Z</time></trkpt><trkpt lat="43.7878517" lon="12.4312567"><ele>443.0</ele><time>2026-04-04T08:08:59.377Z</time></trkpt><trkpt lat="43.7878933" lon="12.4313267"><ele>443.0</ele><time>2026-04-04T08:09:00.376Z</time></trkpt><trkpt lat="43.7879417" lon="12.4314033"><ele>443.0</ele><time>2026-04-04T08:09:01.376Z</time></trkpt><trkpt lat="43.7879967" lon="12.4314783"><ele>442.99999999999994</ele><time>2026-04-04T08:09:02.376Z</time></trkpt><trkpt lat="43.788055" lon="12.43155"><ele>443.0</ele><time>2026-04-04T08:09:03.377Z</time></trkpt><trkpt lat="43.7881133" lon="12.43162"><ele>445.16666666666663</ele><time>2026-04-04T08:09:04.376Z</time></trkpt><trkpt lat="43.78817" lon="12.4317017"><ele>447.3333333333333</ele><time>2026-04-04T08:09:05.376Z</time></trkpt><trkpt lat="43.78823" lon="12.4317733"><ele>449.5</ele><time>2026-04-04T08:09:06.377Z</time></trkpt><trkpt lat="43.78829" lon="12.43185"><ele>451.66666666666663</ele><time>2026-04-04T08:09:07.376Z</time></trkpt><trkpt lat="43.7883517" lon="12.4319267"><ele>453.8333333333333</ele><time>2026-04-04T08:09:08.376Z</time></trkpt><trkpt lat="43.7884083" lon="12.432005"><ele>456.0</ele><time>2026-04-04T08:09:09.376Z</time></trkpt><trkpt lat="43.78846" lon="12.4320783"><ele>458.57142857142856</ele><time>2026-04-04T08:09:10.377Z</time></trkpt><trkpt lat="43.7885167" lon="12.432155"><ele>461.1428571428571</ele><time>2026-04-04T08:09:11.377Z</time></trkpt><trkpt lat="43.7885683" lon="12.4322183"><ele>463.71428571428567</ele><time>2026-04-04T08:09:12.376Z</time></trkpt><trkpt lat="43.7886167" lon="12.43229"><ele>466.2857142857142</ele><time>2026-04-04T08:09:13.376Z</time></trkpt><trkpt lat="43.7886517" lon="12.43237"><ele>468.85714285714283</ele><time>2026-04-04T08:09:14.376Z</time></trkpt><trkpt lat="43.7886717" lon="12.432465"><ele>471.42857142857133</ele><time>2026-04-04T08:09:15.377Z</time></trkpt><trkpt lat="43.78869" lon="12.4325817"><ele>473.99999999999994</ele><time>2026-04-04T08:09:16.376Z</time></trkpt><trkpt lat="43.788705" lon="12.432695"><ele>474.0</ele><time>2026-04-04T08:09:17.376Z</time></trkpt><trkpt lat="43.788725" lon="12.432795"><ele>474.0</ele><time>2026-04-04T08:09:18.377Z</time></trkpt><trkpt lat="43.7887367" lon="12.432925"><ele>474.0</ele><time>2026-04-04T08:09:20.376Z</time></trkpt><trkpt lat="43.7887583" lon="12.4330383"><ele>474.0</ele><time>2026-04-04T08:09:22.376Z</time></trkpt><trkpt lat="43.7887783" lon="12.4331767"><ele>474.0</ele><time>2026-04-04T08:09:24.377Z</time></trkpt><trkpt lat="43.7888367" lon="12.4333267"><ele>472.5</ele><time>2026-04-04T08:09:26.377Z</time></trkpt><trkpt lat="43.788875" lon="12.43341"><ele>471.0</ele><time>2026-04-04T08:09:27.376Z</time></trkpt><trkpt lat="43.78893" lon="12.433495"><ele>469.5</ele><time>2026-04-04T08:09:28.377Z</time></trkpt><trkpt lat="43.78899" lon="12.43357"><ele>468.0</ele><time>2026-04-04T08:09:29.377Z</time></trkpt><trkpt lat="43.7890417" lon="12.43365"><ele>466.5</ele><time>2026-04-04T08:09:30.376Z</time></trkpt><trkpt lat="43.789095" lon="12.4337367"><ele>465.0</ele><time>2026-04-04T08:09:31.376Z</time></trkpt><trkpt lat="43.789145" lon="12.4338167"><ele>466.4</ele><time>2026-04-04T08:09:32.376Z</time></trkpt><trkpt lat="43.78921" lon="12.433915"><ele>467.8</ele><time>2026-04-04T08:09:33.376Z</time></trkpt><trkpt lat="43.7892683" lon="12.434025"><ele>469.20000000000005</ele><time>2026-04-04T08:09:34.376Z</time></trkpt><trkpt lat="43.7893267" lon="12.4341433"><ele>470.6</ele><time>2026-04-04T08:09:35.377Z</time></trkpt><trkpt lat="43.7893833" lon="12.434255"><ele>472.0</ele><time>2026-04-04T08:09:36.377Z</time></trkpt><trkpt lat="43.789435" lon="12.43436"><ele>472.00000000000006</ele><time>2026-04-04T08:09:37.376Z</time></trkpt><trkpt lat="43.7894767" lon="12.434445"><ele>472.0</ele><time>2026-04-04T08:09:38.376Z</time></trkpt><trkpt lat="43.7895133" lon="12.4345317"><ele>472.0</ele><time>2026-04-04T08:09:39.376Z</time></trkpt><trkpt lat="43.789575" lon="12.4346667"><ele>472.0</ele><time>2026-04-04T08:09:41.376Z</time></trkpt><trkpt lat="43.7896183" lon="12.43477"><ele>472.00000000000006</ele><time>2026-04-04T08:09:43.376Z</time></trkpt><trkpt lat="43.7896033" lon="12.434895"><ele>472.0</ele><time>2026-04-04T08:10:10.376Z</time></trkpt><trkpt lat="43.7895417" lon="12.434815"><ele>472.00000000000006</ele><time>2026-04-04T08:10:12.377Z</time></trkpt><trkpt lat="43.7895033" lon="12.43474"><ele>472.0</ele><time>2026-04-04T08:10:13.376Z</time></trkpt><trkpt lat="43.789455" lon="12.43466"><ele>472.0</ele><time>2026-04-04T08:10:14.377Z</time></trkpt><trkpt lat="43.7893967" lon="12.4345867"><ele>472.0</ele><time>2026-04-04T08:10:15.376Z</time></trkpt><trkpt lat="43.7893317" lon="12.4345067"><ele>472.00000000000006</ele><time>2026-04-04T08:10:16.377Z</time></trkpt><trkpt lat="43.78926" lon="12.4344417"><ele>472.0</ele><time>2026-04-04T08:10:17.377Z</time></trkpt><trkpt lat="43.7891917" lon="12.434355"><ele>465.40000000000003</ele><time>2026-04-04T08:10:18.376Z</time></trkpt><trkpt lat="43.78912" lon="12.4342767"><ele>458.80000000000007</ele><time>2026-04-04T08:10:19.377Z</time></trkpt><trkpt lat="43.789045" lon="12.4342083"><ele>452.2</ele><time>2026-04-04T08:10:20.377Z</time></trkpt><trkpt lat="43.788975" lon="12.4341317"><ele>445.6</ele><time>2026-04-04T08:10:21.377Z</time></trkpt><trkpt lat="43.788895" lon="12.4340567"><ele>439.0</ele><time>2026-04-04T08:10:22.376Z</time></trkpt><trkpt lat="43.7888267" lon="12.4339917"><ele>439.0</ele><time>2026-04-04T08:10:23.377Z</time></trkpt><trkpt lat="43.7887467" lon="12.4339183"><ele>439.0</ele><time>2026-04-04T08:10:24.376Z</time></trkpt><trkpt lat="43.7886717" lon="12.4338433"><ele>439.0</ele><time>2026-04-04T08:10:25.376Z</time></trkpt><trkpt lat="43.7885817" lon="12.4337733"><ele>439.0</ele><time>2026-04-04T08:10:26.377Z</time></trkpt><trkpt lat="43.7884867" lon="12.4337017"><ele>439.0</ele><time>2026-04-04T08:10:27.376Z</time></trkpt><trkpt lat="43.788395" lon="12.4336183"><ele>437.0</ele><time>2026-04-04T08:10:28.377Z</time></trkpt><trkpt lat="43.788315" lon="12.4335417"><ele>435.0</ele><time>2026-04-04T08:10:29.376Z</time></trkpt><trkpt lat="43.788225" lon="12.4334717"><ele>433.0</ele><time>2026-04-04T08:10:30.377Z</time></trkpt><trkpt lat="43.78813" lon="12.433415"><ele>431.0</ele><time>2026-04-04T08:10:31.376Z</time></trkpt><trkpt lat="43.7880317" lon="12.4333617"><ele>429.0</ele><time>2026-04-04T08:10:32.376Z</time></trkpt><trkpt lat="43.7879217" lon="12.4333233"><ele>429.0</ele><time>2026-04-04T08:10:33.376Z</time></trkpt><trkpt lat="43.7878083" lon="12.4332883"><ele>429.0</ele><time>2026-04-04T08:10:34.376Z</time></trkpt><trkpt lat="43.7877" lon="12.43327"><ele>429.0</ele><time>2026-04-04T08:10:35.377Z</time></trkpt><trkpt lat="43.7875983" lon="12.43326"><ele>429.0</ele><time>2026-04-04T08:10:36.376Z</time></trkpt><trkpt lat="43.7875017" lon="12.4332467"><ele>429.0</ele><time>2026-04-04T08:10:37.376Z</time></trkpt><trkpt lat="43.787405" lon="12.4332433"><ele>425.6666666666667</ele><time>2026-04-04T08:10:38.377Z</time></trkpt><trkpt lat="43.7873183" lon="12.43324"><ele>422.33333333333337</ele><time>2026-04-04T08:10:39.376Z</time></trkpt><trkpt lat="43.7872317" lon="12.4332417"><ele>419.0</ele><time>2026-04-04T08:10:40.377Z</time></trkpt><trkpt lat="43.7871467" lon="12.4332317"><ele>415.6666666666667</ele><time>2026-04-04T08:10:41.377Z</time></trkpt><trkpt lat="43.7870617" lon="12.43323"><ele>412.33333333333337</ele><time>2026-04-04T08:10:42.377Z</time></trkpt><trkpt lat="43.7869733" lon="12.433225"><ele>409.0</ele><time>2026-04-04T08:10:43.376Z</time></trkpt><trkpt lat="43.7868833" lon="12.4332167"><ele>406.79999999999995</ele><time>2026-04-04T08:10:44.377Z</time></trkpt><trkpt lat="43.7867967" lon="12.433205"><ele>404.59999999999997</ele><time>2026-04-04T08:10:45.377Z</time></trkpt><trkpt lat="43.7867017" lon="12.4331867"><ele>402.4</ele><time>2026-04-04T08:10:46.376Z</time></trkpt><trkpt lat="43.7866083" lon="12.4331667"><ele>400.2</ele><time>2026-04-04T08:10:47.376Z</time></trkpt><trkpt lat="43.786515" lon="12.43314"><ele>398.0</ele><time>2026-04-04T08:10:48.377Z</time></trkpt><trkpt lat="43.786425" lon="12.43311"><ele>397.99999999999994</ele><time>2026-04-04T08:10:49.377Z</time></trkpt><trkpt lat="43.78635" lon="12.433075"><ele>398.0</ele><time>2026-04-04T08:10:50.376Z</time></trkpt><trkpt lat="43.7862733" lon="12.4330417"><ele>398.0</ele><time>2026-04-04T08:10:51.376Z</time></trkpt><trkpt lat="43.7862067" lon="12.4330233"><ele>398.0</ele><time>2026-04-04T08:10:52.376Z</time></trkpt><trkpt lat="43.7861117" lon="12.4329883"><ele>397.99999999999994</ele><time>2026-04-04T08:10:54.376Z</time></trkpt><trkpt lat="43.786035" lon="12.4329667"><ele>398.0</ele><time>2026-04-04T08:11:13.377Z</time></trkpt><trkpt lat="43.7859567" lon="12.4329233"><ele>397.49999999999994</ele><time>2026-04-04T08:11:15.376Z</time></trkpt><trkpt lat="43.7859" lon="12.432875"><ele>397.0</ele><time>2026-04-04T08:11:16.377Z</time></trkpt><trkpt lat="43.7858333" lon="12.432825"><ele>396.5</ele><time>2026-04-04T08:11:17.376Z</time></trkpt><trkpt lat="43.7857567" lon="12.432765"><ele>396.0</ele><time>2026-04-04T08:11:18.377Z</time></trkpt><trkpt lat="43.78568" lon="12.4327117"><ele>395.49999999999994</ele><time>2026-04-04T08:11:19.377Z</time></trkpt><trkpt lat="43.7856" lon="12.43266"><ele>395.0</ele><time>2026-04-04T08:11:20.376Z</time></trkpt><trkpt lat="43.7855183" lon="12.4326083"><ele>394.99999999999994</ele><time>2026-04-04T08:11:21.377Z</time></trkpt><trkpt lat="43.7854417" lon="12.4325617"><ele>395.0</ele><time>2026-04-04T08:11:22.376Z</time></trkpt><trkpt lat="43.78538" lon="12.4325133"><ele>395.0</ele><time>2026-04-04T08:11:23.376Z</time></trkpt><trkpt lat="43.7853017" lon="12.432445"><ele>395.0</ele><time>2026-04-04T08:11:24.376Z</time></trkpt><trkpt lat="43.7852283" lon="12.43236"><ele>394.99999999999994</ele><time>2026-04-04T08:11:25.376Z</time></trkpt><trkpt lat="43.7851617" lon="12.4322733"><ele>395.0</ele><time>2026-04-04T08:11:26.377Z</time></trkpt><trkpt lat="43.78509" lon="12.432185"><ele>393.0</ele><time>2026-04-04T08:11:27.377Z</time></trkpt><trkpt lat="43.785015" lon="12.432095"><ele>391.0</ele><time>2026-04-04T08:11:28.376Z</time></trkpt><trkpt lat="43.7849383" lon="12.4320033"><ele>389.0</ele><time>2026-04-04T08:11:29.376Z</time></trkpt><trkpt lat="43.7848667" lon="12.4319033"><ele>387.0</ele><time>2026-04-04T08:11:30.376Z</time></trkpt><trkpt lat="43.78481" lon="12.4318033"><ele>385.0</ele><time>2026-04-04T08:11:31.377Z</time></trkpt><trkpt lat="43.7847567" lon="12.431695"><ele>385.0</ele><time>2026-04-04T08:11:32.376Z</time></trkpt><trkpt lat="43.78471" lon="12.4315883"><ele>385.0</ele><time>2026-04-04T08:11:33.376Z</time></trkpt><trkpt lat="43.78467" lon="12.4314667"><ele>385.0</ele><time>2026-04-04T08:11:34.376Z</time></trkpt><trkpt lat="43.7846367" lon="12.4313383"><ele>385.0</ele><time>2026-04-04T08:11:35.376Z</time></trkpt><trkpt lat="43.7846117" lon="12.43122"><ele>385.0</ele><time>2026-04-04T08:11:36.376Z</time></trkpt><trkpt lat="43.7845867" lon="12.4310883"><ele>385.2</ele><time>2026-04-04T08:11:37.376Z</time></trkpt><trkpt lat="43.7845483" lon="12.4309767"><ele>385.4</ele><time>2026-04-04T08:11:38.377Z</time></trkpt><trkpt lat="43.7845117" lon="12.4308517"><ele>385.6</ele><time>2026-04-04T08:11:39.376Z</time></trkpt><trkpt lat="43.7844667" lon="12.4307183"><ele>385.8</ele><time>2026-04-04T08:11:40.377Z</time></trkpt><trkpt lat="43.7844217" lon="12.4305833"><ele>386.0</ele><time>2026-04-04T08:11:41.377Z</time></trkpt><trkpt lat="43.7843817" lon="12.4304467"><ele>381.20000000000005</ele><time>2026-04-04T08:11:42.377Z</time></trkpt><trkpt lat="43.7843367" lon="12.43031"><ele>376.40000000000003</ele><time>2026-04-04T08:11:43.377Z</time></trkpt><trkpt lat="43.7842917" lon="12.43018"><ele>371.6</ele><time>2026-04-04T08:11:44.376Z</time></trkpt><trkpt lat="43.7842467" lon="12.430055"><ele>366.8</ele><time>2026-04-04T08:11:45.376Z</time></trkpt><trkpt lat="43.7842133" lon="12.4299283"><ele>362.0</ele><time>2026-04-04T08:11:46.376Z</time></trkpt><trkpt lat="43.78418" lon="12.4298133"><ele>362.0</ele><time>2026-04-04T08:11:47.376Z</time></trkpt><trkpt lat="43.78414" lon="12.4297"><ele>362.0</ele><time>2026-04-04T08:11:48.376Z</time></trkpt><trkpt lat="43.7840933" lon="12.42959"><ele>362.0</ele><time>2026-04-04T08:11:49.376Z</time></trkpt><trkpt lat="43.7840383" lon="12.4294867"><ele>362.0</ele><time>2026-04-04T08:11:50.376Z</time></trkpt><trkpt lat="43.7839767" lon="12.4294083"><ele>362.0</ele><time>2026-04-04T08:11:51.376Z</time></trkpt><trkpt lat="43.7839267" lon="12.4293433"><ele>362.0</ele><time>2026-04-04T08:11:52.376Z</time></trkpt><trkpt lat="43.7838817" lon="12.42922"><ele>362.40000000000003</ele><time>2026-04-04T08:11:54.376Z</time></trkpt><trkpt lat="43.7839033" lon="12.429035"><ele>362.8</ele><time>2026-04-04T08:11:56.376Z</time></trkpt><trkpt lat="43.7839467" lon="12.4289317"><ele>363.2</ele><time>2026-04-04T08:11:57.376Z</time></trkpt><trkpt lat="43.7840083" lon="12.4288267"><ele>363.6</ele><time>2026-04-04T08:11:58.377Z</time></trkpt><trkpt lat="43.784075" lon="12.42872"><ele>364.0</ele><time>2026-04-04T08:11:59.376Z</time></trkpt><trkpt lat="43.784165" lon="12.4286233"><ele>365.0</ele><time>2026-04-04T08:12:00.376Z</time></trkpt><trkpt lat="43.78426" lon="12.428535"><ele>366.0</ele><time>2026-04-04T08:12:01.377Z</time></trkpt><trkpt lat="43.7843617" lon="12.42846"><ele>367.0</ele><time>2026-04-04T08:12:02.376Z</time></trkpt><trkpt lat="43.78445" lon="12.42839"><ele>368.0</ele><time>2026-04-04T08:12:03.376Z</time></trkpt><trkpt lat="43.78453" lon="12.4283067"><ele>369.0</ele><time>2026-04-04T08:12:04.377Z</time></trkpt><trkpt lat="43.7845983" lon="12.4281917"><ele>369.0</ele><time>2026-04-04T08:12:05.376Z</time></trkpt><trkpt lat="43.7846467" lon="12.4280583"><ele>369.0</ele><time>2026-04-04T08:12:06.376Z</time></trkpt><trkpt lat="43.78469" lon="12.427925"><ele>369.0</ele><time>2026-04-04T08:12:07.376Z</time></trkpt><trkpt lat="43.7847233" lon="12.427785"><ele>369.0</ele><time>2026-04-04T08:12:08.376Z</time></trkpt><trkpt lat="43.7847633" lon="12.4276433"><ele>369.0</ele><time>2026-04-04T08:12:09.377Z</time></trkpt><trkpt lat="43.784805" lon="12.4275217"><ele>366.2857142857143</ele><time>2026-04-04T08:12:10.377Z</time></trkpt><trkpt lat="43.7848317" lon="12.4274"><ele>363.57142857142856</ele><time>2026-04-04T08:12:11.377Z</time></trkpt><trkpt lat="43.784855" lon="12.4272983"><ele>360.8571428571429</ele><time>2026-04-04T08:12:12.376Z</time></trkpt><trkpt lat="43.7848733" lon="12.4272"><ele>358.1428571428571</ele><time>2026-04-04T08:12:13.376Z</time></trkpt><trkpt lat="43.784885" lon="12.4271083"><ele>355.42857142857144</ele><time>2026-04-04T08:12:14.377Z</time></trkpt><trkpt lat="43.7848767" lon="12.4270183"><ele>352.7142857142857</ele><time>2026-04-04T08:12:15.377Z</time></trkpt><trkpt lat="43.7848467" lon="12.426935"><ele>350.0</ele><time>2026-04-04T08:12:16.376Z</time></trkpt><trkpt lat="43.7848033" lon="12.4268517"><ele>348.0</ele><time>2026-04-04T08:12:17.376Z</time></trkpt><trkpt lat="43.784745" lon="12.426785"><ele>346.0</ele><time>2026-04-04T08:12:18.376Z</time></trkpt><trkpt lat="43.7846767" lon="12.4267283"><ele>344.0</ele><time>2026-04-04T08:12:19.376Z</time></trkpt><trkpt lat="43.7845967" lon="12.426675"><ele>342.0</ele><time>2026-04-04T08:12:20.376Z</time></trkpt><trkpt lat="43.7845067" lon="12.4266383"><ele>340.0</ele><time>2026-04-04T08:12:21.377Z</time></trkpt><trkpt lat="43.78442" lon="12.42661"><ele>338.0</ele><time>2026-04-04T08:12:22.376Z</time></trkpt><trkpt lat="43.784345" lon="12.4265917"><ele>337.0</ele><time>2026-04-04T08:12:23.377Z</time></trkpt><trkpt lat="43.784225" lon="12.4265733"><ele>336.0</ele><time>2026-04-04T08:12:25.376Z</time></trkpt><trkpt lat="43.7841383" lon="12.4265617"><ele>335.0</ele><time>2026-04-04T08:12:27.377Z</time></trkpt><trkpt lat="43.784025" lon="12.4265483"><ele>334.0</ele><time>2026-04-04T08:12:29.376Z</time></trkpt><trkpt lat="43.7839533" lon="12.4265417"><ele>333.0</ele><time>2026-04-04T08:12:30.376Z</time></trkpt><trkpt lat="43.783865" lon="12.4265333"><ele>333.0</ele><time>2026-04-04T08:12:31.377Z</time></trkpt><trkpt lat="43.7837633" lon="12.4265317"><ele>333.0</ele><time>2026-04-04T08:12:32.377Z</time></trkpt><trkpt lat="43.7836633" lon="12.42654"><ele>333.0</ele><time>2026-04-04T08:12:33.377Z</time></trkpt><trkpt lat="43.7835583" lon="12.4265333"><ele>333.0</ele><time>2026-04-04T08:12:34.376Z</time></trkpt><trkpt lat="43.7834483" lon="12.4265267"><ele>333.0</ele><time>2026-04-04T08:12:35.376Z</time></trkpt><trkpt lat="43.78334" lon="12.4265117"><ele>333.0</ele><time>2026-04-04T08:12:36.376Z</time></trkpt><trkpt lat="43.7832283" lon="12.4265"><ele>333.0</ele><time>2026-04-04T08:12:37.377Z</time></trkpt><trkpt lat="43.7831167" lon="12.426485"><ele>333.0</ele><time>2026-04-04T08:12:38.377Z</time></trkpt><trkpt lat="43.7830133" lon="12.4265"><ele>333.0</ele><time>2026-04-04T08:12:39.377Z</time></trkpt><trkpt lat="43.7829067" lon="12.426535"><ele>333.0</ele><time>2026-04-04T08:12:40.376Z</time></trkpt><trkpt lat="43.7828017" lon="12.4265883"><ele>333.0</ele><time>2026-04-04T08:12:41.376Z</time></trkpt><trkpt lat="43.7827033" lon="12.42666"><ele>333.0</ele><time>2026-04-04T08:12:42.377Z</time></trkpt><trkpt lat="43.782625" lon="12.42675"><ele>333.0</ele><time>2026-04-04T08:12:43.376Z</time></trkpt><trkpt lat="43.78257" lon="12.4268517"><ele>333.0</ele><time>2026-04-04T08:12:44.376Z</time></trkpt><trkpt lat="43.782525" lon="12.42696"><ele>333.0</ele><time>2026-04-04T08:12:45.376Z</time></trkpt><trkpt lat="43.782475" lon="12.4270417"><ele>334.8333333333333</ele><time>2026-04-04T08:12:46.376Z</time></trkpt><trkpt lat="43.782405" lon="12.4270983"><ele>336.6666666666667</ele><time>2026-04-04T08:12:47.376Z</time></trkpt><trkpt lat="43.782315" lon="12.4270983"><ele>338.5</ele><time>2026-04-04T08:12:48.376Z</time></trkpt><trkpt lat="43.7822317" lon="12.427065"><ele>340.33333333333337</ele><time>2026-04-04T08:12:49.376Z</time></trkpt><trkpt lat="43.7821733" lon="12.4270167"><ele>342.1666666666667</ele><time>2026-04-04T08:12:50.377Z</time></trkpt><trkpt lat="43.7821317" lon="12.42695"><ele>344.0</ele><time>2026-04-04T08:12:51.377Z</time></trkpt><trkpt lat="43.782115" lon="12.4268567"><ele>344.0</ele><time>2026-04-04T08:12:52.376Z</time></trkpt><trkpt lat="43.78212" lon="12.4267617"><ele>344.0</ele><time>2026-04-04T08:12:53.376Z</time></trkpt><trkpt lat="43.7821733" lon="12.4266183"><ele>344.0</ele><time>2026-04-04T08:12:55.376Z</time></trkpt><trkpt lat="43.782255" lon="12.42652"><ele>344.0</ele><time>2026-04-04T08:12:57.377Z</time></trkpt><trkpt lat="43.78232" lon="12.426405"><ele>344.0</ele><time>2026-04-04T08:12:59.377Z</time></trkpt><trkpt lat="43.7823367" lon="12.4262467"><ele>345.4</ele><time>2026-04-04T08:13:01.376Z</time></trkpt><trkpt lat="43.7823233" lon="12.42607"><ele>346.79999999999995</ele><time>2026-04-04T08:13:03.377Z</time></trkpt><trkpt lat="43.7823067" lon="12.4259617"><ele>348.20000000000005</ele><time>2026-04-04T08:13:04.376Z</time></trkpt><trkpt lat="43.7822867" lon="12.4258433"><ele>349.6</ele><time>2026-04-04T08:13:05.376Z</time></trkpt><trkpt lat="43.7822733" lon="12.4257217"><ele>351.0</ele><time>2026-04-04T08:13:06.377Z</time></trkpt><trkpt lat="43.78227" lon="12.425595"><ele>351.1666666666667</ele><time>2026-04-04T08:13:07.376Z</time></trkpt><trkpt lat="43.7822683" lon="12.4254667"><ele>351.3333333333333</ele><time>2026-04-04T08:13:08.377Z</time></trkpt><trkpt lat="43.7822617" lon="12.4253483"><ele>351.5</ele><time>2026-04-04T08:13:09.377Z</time></trkpt><trkpt lat="43.7822533" lon="12.4252283"><ele>351.66666666666663</ele><time>2026-04-04T08:13:10.376Z</time></trkpt><trkpt lat="43.7822517" lon="12.4251133"><ele>351.8333333333333</ele><time>2026-04-04T08:13:11.377Z</time></trkpt><trkpt lat="43.7822467" lon="12.425"><ele>352.0</ele><time>2026-04-04T08:13:12.377Z</time></trkpt><trkpt lat="43.7822367" lon="12.424895"><ele>352.0</ele><time>2026-04-04T08:13:13.377Z</time></trkpt><trkpt lat="43.7822133" lon="12.4248033"><ele>352.0</ele><time>2026-04-04T08:13:14.376Z</time></trkpt><trkpt lat="43.7821883" lon="12.424715"><ele>352.0</ele><time>2026-04-04T08:13:15.376Z</time></trkpt><trkpt lat="43.7821383" lon="12.4246383"><ele>352.0</ele><time>2026-04-04T08:13:16.376Z</time></trkpt><trkpt lat="43.782075" lon="12.424565"><ele>352.0</ele><time>2026-04-04T08:13:17.376Z</time></trkpt><trkpt lat="43.7820033" lon="12.42452"><ele>352.0</ele><time>2026-04-04T08:13:18.376Z</time></trkpt><trkpt lat="43.7819367" lon="12.4244817"><ele>352.0</ele><time>2026-04-04T08:13:19.377Z</time></trkpt><trkpt lat="43.7818717" lon="12.42446"><ele>353.66666666666663</ele><time>2026-04-04T08:13:20.377Z</time></trkpt><trkpt lat="43.7817533" lon="12.424505"><ele>355.3333333333333</ele><time>2026-04-04T08:13:22.377Z</time></trkpt><trkpt lat="43.7817017" lon="12.4245617"><ele>357.0</ele><time>2026-04-04T08:13:23.376Z</time></trkpt><trkpt lat="43.7816683" lon="12.4246417"><ele>358.6666666666667</ele><time>2026-04-04T08:13:24.376Z</time></trkpt><trkpt lat="43.7816383" lon="12.4247317"><ele>360.33333333333337</ele><time>2026-04-04T08:13:25.376Z</time></trkpt><trkpt lat="43.7815683" lon="12.4248333"><ele>362.0</ele><time>2026-04-04T08:13:27.376Z</time></trkpt><trkpt lat="43.7814667" lon="12.4247967"><ele>363.20000000000005</ele><time>2026-04-04T08:13:29.377Z</time></trkpt><trkpt lat="43.7814133" lon="12.424635"><ele>364.4</ele><time>2026-04-04T08:13:31.377Z</time></trkpt><trkpt lat="43.7814033" lon="12.4245267"><ele>365.6</ele><time>2026-04-04T08:13:32.376Z</time></trkpt><trkpt lat="43.7814033" lon="12.42442"><ele>366.79999999999995</ele><time>2026-04-04T08:13:33.376Z</time></trkpt><trkpt lat="43.781385" lon="12.4242667"><ele>368.0</ele><time>2026-04-04T08:13:35.376Z</time></trkpt><trkpt lat="43.7812917" lon="12.4241917"><ele>368.0</ele><time>2026-04-04T08:13:37.377Z</time></trkpt><trkpt lat="43.7811817" lon="12.42419"><ele>368.0</ele><time>2026-04-04T08:13:39.377Z</time></trkpt><trkpt lat="43.7810717" lon="12.4241783"><ele>368.0</ele><time>2026-04-04T08:13:41.376Z</time></trkpt><trkpt lat="43.7809767" lon="12.4240817"><ele>368.0</ele><time>2026-04-04T08:13:43.376Z</time></trkpt><trkpt lat="43.7809567" lon="12.4239983"><ele>368.0</ele><time>2026-04-04T08:13:44.376Z</time></trkpt><trkpt lat="43.7809633" lon="12.4238317"><ele>368.6666666666667</ele><time>2026-04-04T08:13:46.376Z</time></trkpt><trkpt lat="43.7810017" lon="12.4237467"><ele>369.33333333333337</ele><time>2026-04-04T08:13:47.376Z</time></trkpt><trkpt lat="43.781045" lon="12.4236333"><ele>370.0</ele><time>2026-04-04T08:13:48.376Z</time></trkpt><trkpt lat="43.7810933" lon="12.4235283"><ele>370.6666666666667</ele><time>2026-04-04T08:13:49.376Z</time></trkpt><trkpt lat="43.7811217" lon="12.423435"><ele>371.3333333333333</ele><time>2026-04-04T08:13:50.376Z</time></trkpt><trkpt lat="43.7811267" lon="12.4233417"><ele>372.0</ele><time>2026-04-04T08:13:51.376Z</time></trkpt><trkpt lat="43.781105" lon="12.423255"><ele>372.0</ele><time>2026-04-04T08:13:52.376Z</time></trkpt><trkpt lat="43.7810633" lon="12.4231767"><ele>372.0</ele><time>2026-04-04T08:13:53.376Z</time></trkpt><trkpt lat="43.78096" lon="12.4230717"><ele>372.0</ele><time>2026-04-04T08:13:55.377Z</time></trkpt><trkpt lat="43.7808783" lon="12.4230367"><ele>372.0</ele><time>2026-04-04T08:13:56.376Z</time></trkpt><trkpt lat="43.7807983" lon="12.4229967"><ele>372.0</ele><time>2026-04-04T08:13:57.376Z</time></trkpt><trkpt lat="43.7807283" lon="12.4229433"><ele>372.0</ele><time>2026-04-04T08:13:58.377Z</time></trkpt><trkpt lat="43.7806717" lon="12.42287"><ele>374.6666666666667</ele><time>2026-04-04T08:13:59.376Z</time></trkpt><trkpt lat="43.7806267" lon="12.422785"><ele>377.33333333333337</ele><time>2026-04-04T08:14:00.376Z</time></trkpt><trkpt lat="43.7805917" lon="12.422685"><ele>380.0</ele><time>2026-04-04T08:14:01.376Z</time></trkpt><trkpt lat="43.7805633" lon="12.42259"><ele>382.6666666666667</ele><time>2026-04-04T08:14:02.376Z</time></trkpt><trkpt lat="43.7805283" lon="12.4224983"><ele>385.33333333333337</ele><time>2026-04-04T08:14:03.377Z</time></trkpt><trkpt lat="43.7804583" lon="12.4223817"><ele>388.0</ele><time>2026-04-04T08:14:05.376Z</time></trkpt><trkpt lat="43.7804033" lon="12.4223333"><ele>388.0</ele><time>2026-04-04T08:14:06.376Z</time></trkpt><trkpt lat="43.7803417" lon="12.4222783"><ele>388.0</ele><time>2026-04-04T08:14:07.376Z</time></trkpt><trkpt lat="43.780285" lon="12.4222233"><ele>388.0</ele><time>2026-04-04T08:14:08.377Z</time></trkpt><trkpt lat="43.7802317" lon="12.42216"><ele>388.0</ele><time>2026-04-04T08:14:09.376Z</time></trkpt><trkpt lat="43.780175" lon="12.422085"><ele>388.0</ele><time>2026-04-04T08:14:10.377Z</time></trkpt><trkpt lat="43.7801283" lon="12.4220033"><ele>388.0</ele><time>2026-04-04T08:14:11.376Z</time></trkpt><trkpt lat="43.7800901" lon="12.4219304"><ele>388.0</ele><time>2026-04-04T08:14:12.377Z</time></trkpt><trkpt lat="43.7800349" lon="12.4217939"><ele>391.33333333333337</ele><time>2026-04-04T08:14:14.377Z</time></trkpt><trkpt lat="43.7799736" lon="12.4216667"><ele>394.6666666666667</ele><time>2026-04-04T08:14:16.376Z</time></trkpt><trkpt lat="43.7799334" lon="12.4215891"><ele>398.0</ele><time>2026-04-04T08:14:17.377Z</time></trkpt><trkpt lat="43.7798897" lon="12.4215016"><ele>401.33333333333337</ele><time>2026-04-04T08:14:18.377Z</time></trkpt><trkpt lat="43.7798444" lon="12.4214092"><ele>404.6666666666667</ele><time>2026-04-04T08:14:19.377Z</time></trkpt><trkpt lat="43.7797946" lon="12.4213074"><ele>408.0</ele><time>2026-04-04T08:14:20.376Z</time></trkpt><trkpt lat="43.7797416" lon="12.4211983"><ele>408.2</ele><time>2026-04-04T08:14:21.376Z</time></trkpt><trkpt lat="43.7796899" lon="12.421085"><ele>408.4</ele><time>2026-04-04T08:14:22.377Z</time></trkpt><trkpt lat="43.779632" lon="12.4209659"><ele>408.59999999999997</ele><time>2026-04-04T08:14:23.377Z</time></trkpt><trkpt lat="43.7795709" lon="12.4208497"><ele>408.79999999999995</ele><time>2026-04-04T08:14:24.376Z</time></trkpt><trkpt lat="43.7795128" lon="12.4207387"><ele>409.0</ele><time>2026-04-04T08:14:25.377Z</time></trkpt><trkpt lat="43.7794562" lon="12.4206308"><ele>409.00000000000006</ele><time>2026-04-04T08:14:26.377Z</time></trkpt><trkpt lat="43.7794037" lon="12.4205295"><ele>409.0</ele><time>2026-04-04T08:14:27.376Z</time></trkpt><trkpt lat="43.7793544" lon="12.4204291"><ele>409.0</ele><time>2026-04-04T08:14:28.377Z</time></trkpt><trkpt lat="43.7793041" lon="12.4203274"><ele>409.0</ele><time>2026-04-04T08:14:29.377Z</time></trkpt><trkpt lat="43.7792492" lon="12.4202338"><ele>409.00000000000006</ele><time>2026-04-04T08:14:30.376Z</time></trkpt><trkpt lat="43.7791879" lon="12.4201492"><ele>409.0</ele><time>2026-04-04T08:14:31.377Z</time></trkpt><trkpt lat="43.7791188" lon="12.4200793"><ele>412.1666666666667</ele><time>2026-04-04T08:14:32.376Z</time></trkpt><trkpt lat="43.7790462" lon="12.4200166"><ele>415.33333333333337</ele><time>2026-04-04T08:14:33.376Z</time></trkpt><trkpt lat="43.7789649" lon="12.4199576"><ele>418.5</ele><time>2026-04-04T08:14:34.377Z</time></trkpt><trkpt lat="43.7788836" lon="12.4199095"><ele>421.66666666666663</ele><time>2026-04-04T08:14:35.376Z</time></trkpt><trkpt lat="43.7788037" lon="12.4198599"><ele>424.8333333333333</ele><time>2026-04-04T08:14:36.376Z</time></trkpt><trkpt lat="43.7787393" lon="12.4198014"><ele>428.0</ele><time>2026-04-04T08:14:37.377Z</time></trkpt><trkpt lat="43.7786928" lon="12.4197399"><ele>428.00000000000006</ele><time>2026-04-04T08:14:38.377Z</time></trkpt><trkpt lat="43.7786628" lon="12.4196608"><ele>428.0</ele><time>2026-04-04T08:14:39.376Z</time></trkpt><trkpt lat="43.7786506" lon="12.4195636"><ele>428.0</ele><time>2026-04-04T08:14:40.376Z</time></trkpt><trkpt lat="43.7786451" lon="12.4194584"><ele>428.0</ele><time>2026-04-04T08:14:41.376Z</time></trkpt><trkpt lat="43.7786279" lon="12.4193542"><ele>428.0</ele><time>2026-04-04T08:14:42.377Z</time></trkpt><trkpt lat="43.7785948" lon="12.4192714"><ele>428.00000000000006</ele><time>2026-04-04T08:14:43.376Z</time></trkpt><trkpt lat="43.7785434" lon="12.4192056"><ele>428.0</ele><time>2026-04-04T08:14:44.377Z</time></trkpt><trkpt lat="43.778475" lon="12.4191767"><ele>430.99999999999994</ele><time>2026-04-04T08:14:45.377Z</time></trkpt><trkpt lat="43.7784017" lon="12.4191717"><ele>434.0</ele><time>2026-04-04T08:14:46.376Z</time></trkpt><trkpt lat="43.7783283" lon="12.4191933"><ele>437.0</ele><time>2026-04-04T08:14:47.376Z</time></trkpt><trkpt lat="43.778255" lon="12.4192317"><ele>440.0</ele><time>2026-04-04T08:14:48.377Z</time></trkpt><trkpt lat="43.7781767" lon="12.4192783"><ele>442.99999999999994</ele><time>2026-04-04T08:14:49.377Z</time></trkpt><trkpt lat="43.778105" lon="12.4193117"><ele>446.0</ele><time>2026-04-04T08:14:50.376Z</time></trkpt><trkpt lat="43.7780433" lon="12.4193417"><ele>446.0</ele><time>2026-04-04T08:14:51.376Z</time></trkpt><trkpt lat="43.7779417" lon="12.41936"><ele>446.0</ele><time>2026-04-04T08:14:53.376Z</time></trkpt><trkpt lat="43.7778567" lon="12.41931"><ele>446.0</ele><time>2026-04-04T08:14:55.377Z</time></trkpt><trkpt lat="43.777775" lon="12.41922"><ele>446.0</ele><time>2026-04-04T08:14:57.376Z</time></trkpt><trkpt lat="43.7777" lon="12.4191167"><ele>446.0</ele><time>2026-04-04T08:14:59.377Z</time></trkpt><trkpt lat="43.7776267" lon="12.4190733"><ele>447.6</ele><time>2026-04-04T08:15:02.376Z</time></trkpt><trkpt lat="43.77749" lon="12.4190867"><ele>449.20000000000005</ele><time>2026-04-04T08:15:04.376Z</time></trkpt><trkpt lat="43.777405" lon="12.4190917"><ele>450.79999999999995</ele><time>2026-04-04T08:15:05.376Z</time></trkpt><trkpt lat="43.7773217" lon="12.4190967"><ele>452.4</ele><time>2026-04-04T08:15:06.377Z</time></trkpt><trkpt lat="43.7772183" lon="12.4190983"><ele>454.0</ele><time>2026-04-04T08:15:07.376Z</time></trkpt><trkpt lat="43.7771083" lon="12.4190933"><ele>454.0</ele><time>2026-04-04T08:15:08.377Z</time></trkpt><trkpt lat="43.7770033" lon="12.4190967"><ele>454.0</ele><time>2026-04-04T08:15:09.377Z</time></trkpt><trkpt lat="43.7768983" lon="12.4191033"><ele>454.0</ele><time>2026-04-04T08:15:10.377Z</time></trkpt><trkpt lat="43.7767917" lon="12.419105"><ele>454.0</ele><time>2026-04-04T08:15:11.377Z</time></trkpt><trkpt lat="43.7766883" lon="12.4190933"><ele>454.0</ele><time>2026-04-04T08:15:12.377Z</time></trkpt><trkpt lat="43.7765883" lon="12.419075"><ele>455.6</ele><time>2026-04-04T08:15:13.377Z</time></trkpt><trkpt lat="43.7764883" lon="12.419065"><ele>457.2</ele><time>2026-04-04T08:15:14.377Z</time></trkpt><trkpt lat="43.7763933" lon="12.4190617"><ele>458.80000000000007</ele><time>2026-04-04T08:15:15.376Z</time></trkpt><trkpt lat="43.7762867" lon="12.4190567"><ele>460.40000000000003</ele><time>2026-04-04T08:15:16.376Z</time></trkpt><trkpt lat="43.776165" lon="12.4190433"><ele>462.0</ele><time>2026-04-04T08:15:17.377Z</time></trkpt><trkpt lat="43.7760317" lon="12.419035"><ele>462.5</ele><time>2026-04-04T08:15:18.376Z</time></trkpt><trkpt lat="43.7759083" lon="12.4190233"><ele>463.0</ele><time>2026-04-04T08:15:19.376Z</time></trkpt><trkpt lat="43.7757917" lon="12.419005"><ele>463.5</ele><time>2026-04-04T08:15:20.376Z</time></trkpt><trkpt lat="43.775675" lon="12.4189933"><ele>464.0</ele><time>2026-04-04T08:15:21.376Z</time></trkpt><trkpt lat="43.7755683" lon="12.4189733"><ele>464.0</ele><time>2026-04-04T08:15:22.377Z</time></trkpt><trkpt lat="43.77547" lon="12.4189583"><ele>464.0</ele><time>2026-04-04T08:15:23.377Z</time></trkpt><trkpt lat="43.775395" lon="12.4189533"><ele>464.0</ele><time>2026-04-04T08:15:24.377Z</time></trkpt><trkpt lat="43.775285" lon="12.4189983"><ele>464.0</ele><time>2026-04-04T08:15:26.376Z</time></trkpt><trkpt lat="43.7752267" lon="12.4191767"><ele>464.0</ele><time>2026-04-04T08:15:28.377Z</time></trkpt><trkpt lat="43.7752367" lon="12.4193317"><ele>464.0</ele><time>2026-04-04T08:15:29.377Z</time></trkpt><trkpt lat="43.7752483" lon="12.4195083"><ele>464.0</ele><time>2026-04-04T08:15:30.376Z</time></trkpt><trkpt lat="43.7752567" lon="12.4196917"><ele>464.0</ele><time>2026-04-04T08:15:31.376Z</time></trkpt><trkpt lat="43.7752683" lon="12.4198817"><ele>464.0</ele><time>2026-04-04T08:15:32.376Z</time></trkpt><trkpt lat="43.7752717" lon="12.42006"><ele>461.75</ele><time>2026-04-04T08:15:33.377Z</time></trkpt><trkpt lat="43.7752833" lon="12.4202333"><ele>459.5</ele><time>2026-04-04T08:15:34.377Z</time></trkpt><trkpt lat="43.7752967" lon="12.4203967"><ele>457.25</ele><time>2026-04-04T08:15:35.376Z</time></trkpt><trkpt lat="43.7753" lon="12.42056"><ele>455.0</ele><time>2026-04-04T08:15:36.377Z</time></trkpt><trkpt lat="43.7753183" lon="12.420705"><ele>454.8</ele><time>2026-04-04T08:15:37.376Z</time></trkpt><trkpt lat="43.7753383" lon="12.4208483"><ele>454.6</ele><time>2026-04-04T08:15:38.376Z</time></trkpt><trkpt lat="43.7753617" lon="12.4209867"><ele>454.4</ele><time>2026-04-04T08:15:39.376Z</time></trkpt><trkpt lat="43.7753917" lon="12.4211083"><ele>454.2</ele><time>2026-04-04T08:15:40.376Z</time></trkpt><trkpt lat="43.7754183" lon="12.4212117"><ele>454.0</ele><time>2026-04-04T08:15:41.377Z</time></trkpt><trkpt lat="43.7754467" lon="12.4213333"><ele>454.00000000000006</ele><time>2026-04-04T08:15:43.376Z</time></trkpt><trkpt lat="43.7754" lon="12.4214067"><ele>454.0</ele><time>2026-04-04T08:15:46.377Z</time></trkpt><trkpt lat="43.7753217" lon="12.4213367"><ele>454.0</ele><time>2026-04-04T08:15:48.377Z</time></trkpt><trkpt lat="43.7752583" lon="12.4212733"><ele>454.0</ele><time>2026-04-04T08:15:49.376Z</time></trkpt><trkpt lat="43.7751783" lon="12.4211967"><ele>454.00000000000006</ele><time>2026-04-04T08:15:50.376Z</time></trkpt><trkpt lat="43.7750917" lon="12.42112"><ele>454.0</ele><time>2026-04-04T08:15:51.377Z</time></trkpt><trkpt lat="43.7749967" lon="12.42105"><ele>457.0</ele><time>2026-04-04T08:15:52.377Z</time></trkpt><trkpt lat="43.7749033" lon="12.4209867"><ele>460.0</ele><time>2026-04-04T08:15:53.376Z</time></trkpt><trkpt lat="43.7748011" lon="12.4209296"><ele>463.0</ele><time>2026-04-04T08:15:54.377Z</time></trkpt><trkpt lat="43.7747037" lon="12.4208782"><ele>466.0</ele><time>2026-04-04T08:15:55.376Z</time></trkpt><trkpt lat="43.7745986" lon="12.4208431"><ele>469.0</ele><time>2026-04-04T08:15:56.376Z</time></trkpt><trkpt lat="43.7744841" lon="12.4208241"><ele>469.0</ele><time>2026-04-04T08:15:57.377Z</time></trkpt><trkpt lat="43.7743638" lon="12.4208177"><ele>469.0</ele><time>2026-04-04T08:15:58.376Z</time></trkpt><trkpt lat="43.774247" lon="12.4208198"><ele>469.0</ele><time>2026-04-04T08:15:59.376Z</time></trkpt><trkpt lat="43.7741341" lon="12.420832"><ele>469.0</ele><time>2026-04-04T08:16:00.376Z</time></trkpt><trkpt lat="43.7740273" lon="12.4208583"><ele>473.25</ele><time>2026-04-04T08:16:01.376Z</time></trkpt><trkpt lat="43.7739192" lon="12.4208962"><ele>477.5</ele><time>2026-04-04T08:16:02.376Z</time></trkpt><trkpt lat="43.7738069" lon="12.4209359"><ele>481.75</ele><time>2026-04-04T08:16:03.377Z</time></trkpt><trkpt lat="43.7736928" lon="12.4209614"><ele>486.0</ele><time>2026-04-04T08:16:04.376Z</time></trkpt><trkpt lat="43.773578" lon="12.4209707"><ele>489.25</ele><time>2026-04-04T08:16:05.376Z</time></trkpt><trkpt lat="43.7734643" lon="12.4209655"><ele>492.5</ele><time>2026-04-04T08:16:06.376Z</time></trkpt><trkpt lat="43.7733535" lon="12.4209533"><ele>495.75</ele><time>2026-04-04T08:16:07.376Z</time></trkpt><trkpt lat="43.7732324" lon="12.4209319"><ele>499.0</ele><time>2026-04-04T08:16:08.376Z</time></trkpt><trkpt lat="43.7731078" lon="12.4209046"><ele>499.0</ele><time>2026-04-04T08:16:09.377Z</time></trkpt><trkpt lat="43.7729808" lon="12.4208848"><ele>499.0</ele><time>2026-04-04T08:16:10.376Z</time></trkpt><trkpt lat="43.7728531" lon="12.4208736"><ele>499.0</ele><time>2026-04-04T08:16:11.377Z</time></trkpt><trkpt lat="43.7727324" lon="12.4208615"><ele>499.0</ele><time>2026-04-04T08:16:12.377Z</time></trkpt><trkpt lat="43.7726266" lon="12.4208386"><ele>501.0</ele><time>2026-04-04T08:16:13.376Z</time></trkpt><trkpt lat="43.7725252" lon="12.4208068"><ele>503.0</ele><time>2026-04-04T08:16:14.376Z</time></trkpt><trkpt lat="43.7724232" lon="12.4207602"><ele>505.0</ele><time>2026-04-04T08:16:15.377Z</time></trkpt><trkpt lat="43.7723122" lon="12.4207025"><ele>507.0</ele><time>2026-04-04T08:16:16.376Z</time></trkpt><trkpt lat="43.7721989" lon="12.420648"><ele>507.0</ele><time>2026-04-04T08:16:17.377Z</time></trkpt><trkpt lat="43.7720988" lon="12.4206045"><ele>507.0</ele><time>2026-04-04T08:16:18.376Z</time></trkpt><trkpt lat="43.7720073" lon="12.4205743"><ele>507.0</ele><time>2026-04-04T08:16:19.376Z</time></trkpt><trkpt lat="43.7719277" lon="12.4205623"><ele>507.0</ele><time>2026-04-04T08:16:20.376Z</time></trkpt><trkpt lat="43.7718582" lon="12.4205645"><ele>507.0</ele><time>2026-04-04T08:16:21.377Z</time></trkpt><trkpt lat="43.7717906" lon="12.4205822"><ele>507.0</ele><time>2026-04-04T08:16:22.376Z</time></trkpt><trkpt lat="43.7717177" lon="12.420614"><ele>508.8333333333333</ele><time>2026-04-04T08:16:23.377Z</time></trkpt><trkpt lat="43.7716458" lon="12.4206676"><ele>510.66666666666663</ele><time>2026-04-04T08:16:24.377Z</time></trkpt><trkpt lat="43.7715846" lon="12.420714"><ele>512.5</ele><time>2026-04-04T08:16:25.376Z</time></trkpt><trkpt lat="43.7714833" lon="12.4207733"><ele>514.3333333333333</ele><time>2026-04-04T08:16:27.376Z</time></trkpt><trkpt lat="43.7714" lon="12.4207983"><ele>516.1666666666666</ele><time>2026-04-04T08:16:29.376Z</time></trkpt><trkpt lat="43.7713283" lon="12.420845"><ele>518.0</ele><time>2026-04-04T08:16:57.376Z</time></trkpt><trkpt lat="43.7712217" lon="12.4208917"><ele>518.0</ele><time>2026-04-04T08:16:59.377Z</time></trkpt><trkpt lat="43.7711033" lon="12.42093"><ele>518.0</ele><time>2026-04-04T08:17:01.376Z</time></trkpt><trkpt lat="43.77099" lon="12.4209767"><ele>518.0</ele><time>2026-04-04T08:17:03.376Z</time></trkpt><trkpt lat="43.7708833" lon="12.42101"><ele>518.0</ele><time>2026-04-04T08:17:05.376Z</time></trkpt><trkpt lat="43.7707717" lon="12.4210367"><ele>520.4</ele><time>2026-04-04T08:17:07.377Z</time></trkpt><trkpt lat="43.77065" lon="12.4210617"><ele>522.8</ele><time>2026-04-04T08:17:09.376Z</time></trkpt><trkpt lat="43.770565" lon="12.4210817"><ele>525.2</ele><time>2026-04-04T08:17:11.376Z</time></trkpt><trkpt lat="43.77048" lon="12.42109"><ele>527.6</ele><time>2026-04-04T08:17:13.377Z</time></trkpt><trkpt lat="43.7703583" lon="12.4211067"><ele>530.0</ele><time>2026-04-04T08:17:16.377Z</time></trkpt><trkpt lat="43.7702367" lon="12.4211133"><ele>534.0</ele><time>2026-04-04T08:17:19.376Z</time></trkpt><trkpt lat="43.7701417" lon="12.4211067"><ele>538.0</ele><time>2026-04-04T08:17:21.376Z</time></trkpt><trkpt lat="43.7700383" lon="12.4210867"><ele>542.0</ele><time>2026-04-04T08:17:23.376Z</time></trkpt><trkpt lat="43.7699367" lon="12.421055"><ele>546.0</ele><time>2026-04-04T08:17:25.376Z</time></trkpt><trkpt lat="43.7698533" lon="12.4210217"><ele>550.0</ele><time>2026-04-04T08:17:27.376Z</time></trkpt><trkpt lat="43.769765" lon="12.4209833"><ele>550.0</ele><time>2026-04-04T08:17:29.376Z</time></trkpt><trkpt lat="43.7696833" lon="12.4209517"><ele>550.0</ele><time>2026-04-04T08:17:31.376Z</time></trkpt><trkpt lat="43.7695867" lon="12.4209067"><ele>550.0</ele><time>2026-04-04T08:17:33.376Z</time></trkpt><trkpt lat="43.7694967" lon="12.42088"><ele>550.0</ele><time>2026-04-04T08:17:35.376Z</time></trkpt><trkpt lat="43.7694183" lon="12.4208467"><ele>550.0</ele><time>2026-04-04T08:17:37.377Z</time></trkpt><trkpt lat="43.7693183" lon="12.4208083"><ele>553.6666666666667</ele><time>2026-04-04T08:17:39.377Z</time></trkpt><trkpt lat="43.7692383" lon="12.4207867"><ele>557.3333333333334</ele><time>2026-04-04T08:17:41.376Z</time></trkpt><trkpt lat="43.7691656" lon="12.4207638"><ele>561.0</ele><time>2026-04-04T08:17:49.425Z</time></trkpt><trkpt lat="43.7690947" lon="12.4207389"><ele>564.6666666666666</ele><time>2026-04-04T08:17:53.449Z</time></trkpt><trkpt lat="43.7690233" lon="12.42074"><ele>568.3333333333333</ele><time>2026-04-04T08:18:39.377Z</time></trkpt><trkpt lat="43.76893" lon="12.420705"><ele>572.0</ele><time>2026-04-04T08:18:54.376Z</time></trkpt><trkpt lat="43.76885" lon="12.420735"><ele>572.0</ele><time>2026-04-04T08:20:09.376Z</time></trkpt><trkpt lat="43.7687817" lon="12.420805"><ele>572.0</ele><time>2026-04-04T08:20:12.376Z</time></trkpt><trkpt lat="43.7687233" lon="12.420855"><ele>572.0</ele><time>2026-04-04T08:20:14.377Z</time></trkpt><trkpt lat="43.768665" lon="12.420925"><ele>572.0</ele><time>2026-04-04T08:20:16.377Z</time></trkpt><trkpt lat="43.7685633" lon="12.421055"><ele>572.0</ele><time>2026-04-04T08:20:18.376Z</time></trkpt><trkpt lat="43.7685033" lon="12.4211283"><ele>572.0</ele><time>2026-04-04T08:20:19.376Z</time></trkpt><trkpt lat="43.7684583" lon="12.42119"><ele>574.0</ele><time>2026-04-04T08:20:20.376Z</time></trkpt><trkpt lat="43.7684052" lon="12.4213114"><ele>576.0</ele><time>2026-04-04T08:20:22.376Z</time></trkpt><trkpt lat="43.7683654" lon="12.4214284"><ele>578.0</ele><time>2026-04-04T08:20:24.376Z</time></trkpt><trkpt lat="43.7683216" lon="12.4216639"><ele>580.0</ele><time>2026-04-04T08:20:44.377Z</time></trkpt><trkpt lat="43.7682933" lon="12.421815"><ele>580.0</ele><time>2026-04-04T08:20:46.377Z</time></trkpt><trkpt lat="43.7682833" lon="12.42194"><ele>580.0</ele><time>2026-04-04T08:20:48.377Z</time></trkpt><trkpt lat="43.7682833" lon="12.4220533"><ele>580.0</ele><time>2026-04-04T08:20:51.377Z</time></trkpt><trkpt lat="43.76824" lon="12.422145"><ele>580.0</ele><time>2026-04-04T08:20:54.377Z</time></trkpt><trkpt lat="43.7681867" lon="12.422245"><ele>580.0</ele><time>2026-04-04T08:20:56.377Z</time></trkpt><trkpt lat="43.7681333" lon="12.42235"><ele>580.0</ele><time>2026-04-04T08:20:58.376Z</time></trkpt><trkpt lat="43.76806" lon="12.4224417"><ele>581.6</ele><time>2026-04-04T08:21:00.377Z</time></trkpt><trkpt lat="43.7679867" lon="12.4225533"><ele>583.2</ele><time>2026-04-04T08:21:02.377Z</time></trkpt><trkpt lat="43.767925" lon="12.4226383"><ele>584.8</ele><time>2026-04-04T08:21:04.377Z</time></trkpt><trkpt lat="43.767835" lon="12.4227633"><ele>586.4</ele><time>2026-04-04T08:21:15.377Z</time></trkpt><trkpt lat="43.7677883" lon="12.422825"><ele>588.0</ele><time>2026-04-04T08:21:16.376Z</time></trkpt><trkpt lat="43.7677083" lon="12.4229367"><ele>585.4</ele><time>2026-04-04T08:21:18.376Z</time></trkpt><trkpt lat="43.76762" lon="12.4230617"><ele>582.8</ele><time>2026-04-04T08:21:20.376Z</time></trkpt><trkpt lat="43.7675733" lon="12.4231383"><ele>580.2</ele><time>2026-04-04T08:21:21.376Z</time></trkpt><trkpt lat="43.76753" lon="12.4232167"><ele>577.6</ele><time>2026-04-04T08:21:22.376Z</time></trkpt><trkpt lat="43.7674583" lon="12.4233633"><ele>575.0</ele><time>2026-04-04T08:21:24.377Z</time></trkpt><trkpt lat="43.767425" lon="12.4234383"><ele>575.0</ele><time>2026-04-04T08:21:25.377Z</time></trkpt><trkpt lat="43.7673983" lon="12.4235233"><ele>575.0</ele><time>2026-04-04T08:21:26.377Z</time></trkpt><trkpt lat="43.7673717" lon="12.4236033"><ele>575.0</ele><time>2026-04-04T08:21:27.376Z</time></trkpt><trkpt lat="43.76735" lon="12.4236967"><ele>575.0</ele><time>2026-04-04T08:21:28.377Z</time></trkpt><trkpt lat="43.767335" lon="12.423785"><ele>575.0</ele><time>2026-04-04T08:21:29.376Z</time></trkpt><trkpt lat="43.76733" lon="12.4239517"><ele>575.0</ele><time>2026-04-04T08:21:31.376Z</time></trkpt><trkpt lat="43.7673267" lon="12.42411"><ele>575.3333333333333</ele><time>2026-04-04T08:21:33.376Z</time></trkpt><trkpt lat="43.767335" lon="12.4242317"><ele>575.6666666666666</ele><time>2026-04-04T08:21:35.376Z</time></trkpt><trkpt lat="43.76736" lon="12.4243267"><ele>576.0</ele><time>2026-04-04T08:21:41.377Z</time></trkpt><trkpt lat="43.7673867" lon="12.4244333"><ele>576.3333333333334</ele><time>2026-04-04T08:21:43.376Z</time></trkpt><trkpt lat="43.767415" lon="12.424565"><ele>576.6666666666667</ele><time>2026-04-04T08:21:45.376Z</time></trkpt><trkpt lat="43.76744" lon="12.42469"><ele>577.0</ele><time>2026-04-04T08:21:47.376Z</time></trkpt><trkpt lat="43.7674917" lon="12.42483"><ele>577.0</ele><time>2026-04-04T08:21:49.376Z</time></trkpt><trkpt lat="43.767525" lon="12.4249083"><ele>577.0</ele><time>2026-04-04T08:21:50.376Z</time></trkpt><trkpt lat="43.7675633" lon="12.42498"><ele>577.0</ele><time>2026-04-04T08:21:51.376Z</time></trkpt><trkpt lat="43.7676133" lon="12.4251133"><ele>577.0</ele><time>2026-04-04T08:21:53.377Z</time></trkpt><trkpt lat="43.7676217" lon="12.4252417"><ele>577.0</ele><time>2026-04-04T08:21:55.377Z</time></trkpt><trkpt lat="43.7675965" lon="12.4253845"><ele>577.0</ele><time>2026-04-04T08:21:57.376Z</time></trkpt><trkpt lat="43.7675652" lon="12.4255139"><ele>577.0</ele><time>2026-04-04T08:21:59.377Z</time></trkpt><trkpt lat="43.7675317" lon="12.42562"><ele>577.0</ele><time>2026-04-04T08:22:01.377Z</time></trkpt><trkpt lat="43.7675117" lon="12.4257567"><ele>577.0</ele><time>2026-04-04T08:22:03.376Z</time></trkpt><trkpt lat="43.7674705" lon="12.4258784"><ele>577.0</ele><time>2026-04-04T08:22:05.376Z</time></trkpt><trkpt lat="43.7673999" lon="12.4260256"><ele>577.0</ele><time>2026-04-04T08:22:07.377Z</time></trkpt><trkpt lat="43.7673601" lon="12.4261036"><ele>577.0</ele><time>2026-04-04T08:22:08.376Z</time></trkpt><trkpt lat="43.7673294" lon="12.4261887"><ele>577.0</ele><time>2026-04-04T08:22:09.376Z</time></trkpt><trkpt lat="43.7673041" lon="12.4262799"><ele>577.0</ele><time>2026-04-04T08:22:10.377Z</time></trkpt><trkpt lat="43.7672849" lon="12.4263674"><ele>577.0</ele><time>2026-04-04T08:22:11.377Z</time></trkpt><trkpt lat="43.7672734" lon="12.4265468"><ele>577.0</ele><time>2026-04-04T08:22:13.376Z</time></trkpt><trkpt lat="43.7672732" lon="12.4266363"><ele>577.0</ele><time>2026-04-04T08:22:14.377Z</time></trkpt><trkpt lat="43.7672735" lon="12.4267241"><ele>577.5</ele><time>2026-04-04T08:22:15.376Z</time></trkpt><trkpt lat="43.7672731" lon="12.426888"><ele>578.0</ele><time>2026-04-04T08:22:17.376Z</time></trkpt><trkpt lat="43.7672797" lon="12.427057"><ele>578.5</ele><time>2026-04-04T08:22:19.377Z</time></trkpt><trkpt lat="43.7672784" lon="12.4272313"><ele>579.0</ele><time>2026-04-04T08:22:21.376Z</time></trkpt><trkpt lat="43.7672731" lon="12.4273743"><ele>578.2</ele><time>2026-04-04T08:22:23.376Z</time></trkpt><trkpt lat="43.7672522" lon="12.427493"><ele>577.4</ele><time>2026-04-04T08:22:25.376Z</time></trkpt><trkpt lat="43.7672299" lon="12.4276218"><ele>576.6</ele><time>2026-04-04T08:22:27.376Z</time></trkpt><trkpt lat="43.7671953" lon="12.4277561"><ele>575.8</ele><time>2026-04-04T08:22:29.376Z</time></trkpt><trkpt lat="43.7671565" lon="12.4279028"><ele>575.0</ele><time>2026-04-04T08:22:31.376Z</time></trkpt><trkpt lat="43.7671236" lon="12.4280213"><ele>573.3333333333333</ele><time>2026-04-04T08:22:33.377Z</time></trkpt><trkpt lat="43.7671003" lon="12.4281194"><ele>571.6666666666666</ele><time>2026-04-04T08:22:36.405Z</time></trkpt><trkpt lat="43.7670615" lon="12.4282239"><ele>570.0</ele><time>2026-04-04T08:22:38.417Z</time></trkpt><trkpt lat="43.766972" lon="12.4283045"><ele>568.3333333333334</ele><time>2026-04-04T08:22:40.376Z</time></trkpt><trkpt lat="43.7669177" lon="12.4283542"><ele>566.6666666666667</ele><time>2026-04-04T08:22:41.377Z</time></trkpt><trkpt lat="43.7668252" lon="12.4284423"><ele>565.0</ele><time>2026-04-04T08:22:43.376Z</time></trkpt><trkpt lat="43.7667581" lon="12.4285039"><ele>565.0</ele><time>2026-04-04T08:22:45.376Z</time></trkpt><trkpt lat="43.7666671" lon="12.4285362"><ele>565.0</ele><time>2026-04-04T08:22:48.376Z</time></trkpt><trkpt lat="43.7665665" lon="12.4285493"><ele>565.0</ele><time>2026-04-04T08:23:02.376Z</time></trkpt><trkpt lat="43.7665062" lon="12.4285238"><ele>565.0</ele><time>2026-04-04T08:23:04.376Z</time></trkpt><trkpt lat="43.7664356" lon="12.4284578"><ele>565.0</ele><time>2026-04-04T08:23:07.376Z</time></trkpt><trkpt lat="43.7663732" lon="12.4283618"><ele>565.0</ele><time>2026-04-04T08:23:10.376Z</time></trkpt><trkpt lat="43.7663292" lon="12.4282773"><ele>565.0</ele><time>2026-04-04T08:23:12.377Z</time></trkpt><trkpt lat="43.7662469" lon="12.4281776"><ele>565.0</ele><time>2026-04-04T08:23:16.445Z</time></trkpt><trkpt lat="43.7661865" lon="12.4281005"><ele>565.0</ele><time>2026-04-04T08:23:18.39Z</time></trkpt><trkpt lat="43.7662236" lon="12.4279299"><ele>565.0</ele><time>2026-04-04T08:23:20.403Z</time></trkpt><trkpt lat="43.7661915" lon="12.4278038"><ele>565.0</ele><time>2026-04-04T08:23:22.414Z</time></trkpt><trkpt lat="43.7662025" lon="12.4276996"><ele>564.3333333333334</ele><time>2026-04-04T08:23:25.434Z</time></trkpt><trkpt lat="43.7661272" lon="12.4276329"><ele>563.6666666666667</ele><time>2026-04-04T08:23:28.452Z</time></trkpt><trkpt lat="43.7660587" lon="12.427649"><ele>563.0</ele><time>2026-04-04T08:23:30.464Z</time></trkpt><trkpt lat="43.7659907" lon="12.4277082"><ele>562.3333333333334</ele><time>2026-04-04T08:23:32.381Z</time></trkpt><trkpt lat="43.7658983" lon="12.4277467"><ele>561.6666666666666</ele><time>2026-04-04T08:23:34.377Z</time></trkpt><trkpt lat="43.7658117" lon="12.42779"><ele>561.0</ele><time>2026-04-04T08:23:36.376Z</time></trkpt><trkpt lat="43.7657233" lon="12.4278317"><ele>558.2857142857142</ele><time>2026-04-04T08:23:38.376Z</time></trkpt><trkpt lat="43.7656422" lon="12.427855"><ele>555.5714285714286</ele><time>2026-04-04T08:23:40.409Z</time></trkpt><trkpt lat="43.7655662" lon="12.4278508"><ele>552.8571428571429</ele><time>2026-04-04T08:23:42.421Z</time></trkpt><trkpt lat="43.7655132" lon="12.4278015"><ele>550.1428571428571</ele><time>2026-04-04T08:23:45.441Z</time></trkpt><trkpt lat="43.7654476" lon="12.4277891"><ele>547.4285714285714</ele><time>2026-04-04T08:23:47.452Z</time></trkpt><trkpt lat="43.7653882" lon="12.427741"><ele>544.7142857142857</ele><time>2026-04-04T08:23:49.464Z</time></trkpt><trkpt lat="43.7653356" lon="12.4276539"><ele>542.0</ele><time>2026-04-04T08:23:51.311Z</time></trkpt><trkpt lat="43.7652825" lon="12.4275451"><ele>539.3333333333333</ele><time>2026-04-04T08:23:53.35Z</time></trkpt><trkpt lat="43.7651933" lon="12.4274617"><ele>536.6666666666666</ele><time>2026-04-04T08:23:55.376Z</time></trkpt><trkpt lat="43.76513" lon="12.4274017"><ele>534.0</ele><time>2026-04-04T08:23:57.377Z</time></trkpt><trkpt lat="43.7650617" lon="12.4273583"><ele>531.3333333333334</ele><time>2026-04-04T08:23:59.376Z</time></trkpt><trkpt lat="43.7649883" lon="12.4273033"><ele>528.6666666666667</ele><time>2026-04-04T08:24:01.376Z</time></trkpt><trkpt lat="43.7649183" lon="12.4272567"><ele>526.0</ele><time>2026-04-04T08:24:03.376Z</time></trkpt><trkpt lat="43.7648583" lon="12.4271983"><ele>526.0</ele><time>2026-04-04T08:24:05.376Z</time></trkpt><trkpt lat="43.7647917" lon="12.4271467"><ele>526.0</ele><time>2026-04-04T08:24:07.377Z</time></trkpt><trkpt lat="43.76472" lon="12.427105"><ele>526.0</ele><time>2026-04-04T08:24:09.377Z</time></trkpt><trkpt lat="43.7646583" lon="12.427075"><ele>526.0</ele><time>2026-04-04T08:24:11.376Z</time></trkpt><trkpt lat="43.7645633" lon="12.4270517"><ele>526.0</ele><time>2026-04-04T08:24:14.376Z</time></trkpt><trkpt lat="43.7644917" lon="12.427045"><ele>526.0</ele><time>2026-04-04T08:24:16.376Z</time></trkpt><trkpt lat="43.76443" lon="12.4270233"><ele>522.8571428571429</ele><time>2026-04-04T08:24:18.376Z</time></trkpt><trkpt lat="43.7643583" lon="12.4270083"><ele>519.7142857142857</ele><time>2026-04-04T08:24:20.376Z</time></trkpt><trkpt lat="43.764285" lon="12.426995"><ele>516.5714285714286</ele><time>2026-04-04T08:24:22.376Z</time></trkpt><trkpt lat="43.7642083" lon="12.426985"><ele>513.4285714285714</ele><time>2026-04-04T08:24:24.377Z</time></trkpt><trkpt lat="43.764145" lon="12.4269767"><ele>510.2857142857143</ele><time>2026-04-04T08:24:26.377Z</time></trkpt><trkpt lat="43.7640767" lon="12.426975"><ele>507.1428571428571</ele><time>2026-04-04T08:24:28.376Z</time></trkpt><trkpt lat="43.7639867" lon="12.426975"><ele>504.0</ele><time>2026-04-04T08:24:31.377Z</time></trkpt><trkpt lat="43.763905" lon="12.4269933"><ele>504.0</ele><time>2026-04-04T08:24:34.376Z</time></trkpt><trkpt lat="43.7638317" lon="12.427"><ele>504.0</ele><time>2026-04-04T08:24:36.377Z</time></trkpt><trkpt lat="43.76376" lon="12.42699"><ele>504.0</ele><time>2026-04-04T08:24:38.376Z</time></trkpt><trkpt lat="43.7636848" lon="12.4269772"><ele>504.0</ele><time>2026-04-04T08:24:40.376Z</time></trkpt><trkpt lat="43.7635925" lon="12.4269982"><ele>504.0</ele><time>2026-04-04T08:24:42.376Z</time></trkpt><trkpt lat="43.7635216" lon="12.4270269"><ele>504.0</ele><time>2026-04-04T08:24:44.388Z</time></trkpt><trkpt lat="43.7634562" lon="12.426972"><ele>504.0</ele><time>2026-04-04T08:24:47.408Z</time></trkpt><trkpt lat="43.7634248" lon="12.4268812"><ele>504.0</ele><time>2026-04-04T08:24:51.432Z</time></trkpt><trkpt lat="43.7634617" lon="12.4268098"><ele>504.0</ele><time>2026-04-04T08:24:53.444Z</time></trkpt><trkpt lat="43.7635229" lon="12.4267368"><ele>504.0</ele><time>2026-04-04T08:24:56.464Z</time></trkpt><trkpt lat="43.763566" lon="12.4266404"><ele>504.0</ele><time>2026-04-04T08:24:59.379Z</time></trkpt><trkpt lat="43.763597" lon="12.4265483"><ele>504.0</ele><time>2026-04-04T08:25:02.398Z</time></trkpt><trkpt lat="43.7635917" lon="12.4264483"><ele>504.0</ele><time>2026-04-04T08:25:05.376Z</time></trkpt><trkpt lat="43.7636133" lon="12.42634"><ele>502.6666666666667</ele><time>2026-04-04T08:25:08.376Z</time></trkpt><trkpt lat="43.7636283" lon="12.426225"><ele>501.33333333333337</ele><time>2026-04-04T08:25:10.377Z</time></trkpt><trkpt lat="43.7636383" lon="12.4261117"><ele>500.0</ele><time>2026-04-04T08:25:12.376Z</time></trkpt><trkpt lat="43.7636183" lon="12.426015"><ele>498.6666666666667</ele><time>2026-04-04T08:25:14.376Z</time></trkpt><trkpt lat="43.763565" lon="12.4259283"><ele>497.33333333333337</ele><time>2026-04-04T08:25:17.376Z</time></trkpt><trkpt lat="43.76348" lon="12.4259317"><ele>496.0</ele><time>2026-04-04T08:25:20.376Z</time></trkpt><trkpt lat="43.7633733" lon="12.4259533"><ele>493.8</ele><time>2026-04-04T08:25:22.376Z</time></trkpt><trkpt lat="43.76331" lon="12.425945"><ele>491.6</ele><time>2026-04-04T08:25:23.376Z</time></trkpt><trkpt lat="43.7632" lon="12.4259233"><ele>489.4</ele><time>2026-04-04T08:25:25.376Z</time></trkpt><trkpt lat="43.7631067" lon="12.4258933"><ele>487.2</ele><time>2026-04-04T08:25:27.376Z</time></trkpt><trkpt lat="43.7630267" lon="12.4258233"><ele>485.0</ele><time>2026-04-04T08:25:29.376Z</time></trkpt><trkpt lat="43.7629317" lon="12.425725"><ele>484.99999999999994</ele><time>2026-04-04T08:25:31.376Z</time></trkpt><trkpt lat="43.762845" lon="12.4256833"><ele>485.0</ele><time>2026-04-04T08:25:33.377Z</time></trkpt><trkpt lat="43.7627333" lon="12.4257067"><ele>485.0</ele><time>2026-04-04T08:25:35.377Z</time></trkpt><trkpt lat="43.7626683" lon="12.4257367"><ele>485.0</ele><time>2026-04-04T08:25:36.376Z</time></trkpt><trkpt lat="43.7626" lon="12.425775"><ele>484.99999999999994</ele><time>2026-04-04T08:25:37.377Z</time></trkpt><trkpt lat="43.7625383" lon="12.4258017"><ele>485.0</ele><time>2026-04-04T08:25:38.376Z</time></trkpt><trkpt lat="43.7624417" lon="12.425835"><ele>483.49999999999994</ele><time>2026-04-04T08:25:40.376Z</time></trkpt><trkpt lat="43.76237" lon="12.42587"><ele>482.0</ele><time>2026-04-04T08:25:42.376Z</time></trkpt><trkpt lat="43.7623417" lon="12.42596"><ele>480.5</ele><time>2026-04-04T08:25:44.376Z</time></trkpt><trkpt lat="43.7623217" lon="12.4260833"><ele>479.0</ele><time>2026-04-04T08:25:46.377Z</time></trkpt><trkpt lat="43.7623083" lon="12.426185"><ele>477.49999999999994</ele><time>2026-04-04T08:25:48.376Z</time></trkpt><trkpt lat="43.7622817" lon="12.42627"><ele>476.0</ele><time>2026-04-04T08:25:50.376Z</time></trkpt><trkpt lat="43.7622283" lon="12.4263367"><ele>474.3333333333333</ele><time>2026-04-04T08:25:52.376Z</time></trkpt><trkpt lat="43.7621583" lon="12.4263933"><ele>472.66666666666663</ele><time>2026-04-04T08:25:54.377Z</time></trkpt><trkpt lat="43.7620933" lon="12.4264433"><ele>471.0</ele><time>2026-04-04T08:25:56.377Z</time></trkpt><trkpt lat="43.762035" lon="12.426495"><ele>469.33333333333337</ele><time>2026-04-04T08:25:58.377Z</time></trkpt><trkpt lat="43.7619717" lon="12.42656"><ele>467.6666666666667</ele><time>2026-04-04T08:26:00.377Z</time></trkpt><trkpt lat="43.7618956" lon="12.4266502"><ele>466.0</ele><time>2026-04-04T08:26:03.437Z</time></trkpt><trkpt lat="43.7618155" lon="12.4266977"><ele>463.83333333333337</ele><time>2026-04-04T08:26:05.449Z</time></trkpt><trkpt lat="43.761741" lon="12.4267382"><ele>461.6666666666667</ele><time>2026-04-04T08:26:07.377Z</time></trkpt><trkpt lat="43.761665" lon="12.4267841"><ele>459.5</ele><time>2026-04-04T08:26:09.389Z</time></trkpt><trkpt lat="43.7615871" lon="12.4268558"><ele>457.33333333333337</ele><time>2026-04-04T08:26:11.386Z</time></trkpt><trkpt lat="43.761514" lon="12.4268962"><ele>455.1666666666667</ele><time>2026-04-04T08:26:13.397Z</time></trkpt><trkpt lat="43.7614542" lon="12.4269349"><ele>453.0</ele><time>2026-04-04T08:26:15.41Z</time></trkpt><trkpt lat="43.7613833" lon="12.42696"><ele>452.99999999999994</ele><time>2026-04-04T08:26:18.377Z</time></trkpt><trkpt lat="43.7613117" lon="12.42696"><ele>453.0</ele><time>2026-04-04T08:26:20.376Z</time></trkpt><trkpt lat="43.7612484" lon="12.4269288"><ele>452.99999999999994</ele><time>2026-04-04T08:26:22.453Z</time></trkpt><trkpt lat="43.7612239" lon="12.4268265"><ele>452.99999999999994</ele><time>2026-04-04T08:26:24.465Z</time></trkpt><trkpt lat="43.7612266" lon="12.4267274"><ele>453.0</ele><time>2026-04-04T08:26:26.378Z</time></trkpt><trkpt lat="43.7611644" lon="12.4266721"><ele>452.99999999999994</ele><time>2026-04-04T08:26:29.32Z</time></trkpt><trkpt lat="43.7610854" lon="12.4267146"><ele>452.99999999999994</ele><time>2026-04-04T08:26:31.408Z</time></trkpt><trkpt lat="43.7610233" lon="12.4267767"><ele>451.6666666666667</ele><time>2026-04-04T08:26:32.376Z</time></trkpt><trkpt lat="43.7609317" lon="12.42686"><ele>450.33333333333337</ele><time>2026-04-04T08:26:34.376Z</time></trkpt><trkpt lat="43.7608441" lon="12.4268997"><ele>449.0</ele><time>2026-04-04T08:26:37.399Z</time></trkpt><trkpt lat="43.7608138" lon="12.4270017"><ele>447.6666666666667</ele><time>2026-04-04T08:26:40.417Z</time></trkpt><trkpt lat="43.7607467" lon="12.4270365"><ele>446.33333333333337</ele><time>2026-04-04T08:26:42.356Z</time></trkpt><trkpt lat="43.760665" lon="12.4270883"><ele>445.0</ele><time>2026-04-04T08:26:45.376Z</time></trkpt><trkpt lat="43.7606117" lon="12.4272117"><ele>443.1666666666667</ele><time>2026-04-04T08:26:47.376Z</time></trkpt><trkpt lat="43.76056" lon="12.4273367"><ele>441.33333333333337</ele><time>2026-04-04T08:26:49.377Z</time></trkpt><trkpt lat="43.7605267" lon="12.4274317"><ele>439.5</ele><time>2026-04-04T08:26:51.377Z</time></trkpt><trkpt lat="43.76047" lon="12.4275017"><ele>437.66666666666663</ele><time>2026-04-04T08:26:53.376Z</time></trkpt><trkpt lat="43.7604" lon="12.42755"><ele>435.8333333333333</ele><time>2026-04-04T08:26:55.376Z</time></trkpt><trkpt lat="43.7603533" lon="12.4276667"><ele>434.0</ele><time>2026-04-04T08:26:58.376Z</time></trkpt><trkpt lat="43.7603467" lon="12.4278067"><ele>434.0</ele><time>2026-04-04T08:27:00.376Z</time></trkpt><trkpt lat="43.7603333" lon="12.42793"><ele>434.0</ele><time>2026-04-04T08:27:02.377Z</time></trkpt><trkpt lat="43.76031" lon="12.42802"><ele>434.0</ele><time>2026-04-04T08:27:04.376Z</time></trkpt><trkpt lat="43.7602567" lon="12.428175"><ele>434.0</ele><time>2026-04-04T08:27:42.377Z</time></trkpt><trkpt lat="43.76022" lon="12.42826"><ele>434.0</ele><time>2026-04-04T08:27:45.376Z</time></trkpt><trkpt lat="43.7601767" lon="12.428385"><ele>432.66666666666663</ele><time>2026-04-04T08:27:48.376Z</time></trkpt><trkpt lat="43.760125" lon="12.4284717"><ele>431.3333333333333</ele><time>2026-04-04T08:27:50.376Z</time></trkpt><trkpt lat="43.7600567" lon="12.4285433"><ele>430.0</ele><time>2026-04-04T08:27:52.376Z</time></trkpt><trkpt lat="43.7600017" lon="12.428605"><ele>428.66666666666663</ele><time>2026-04-04T08:27:54.377Z</time></trkpt><trkpt lat="43.75992" lon="12.428635"><ele>427.3333333333333</ele><time>2026-04-04T08:27:56.376Z</time></trkpt><trkpt lat="43.7598467" lon="12.4286483"><ele>426.0</ele><time>2026-04-04T08:27:58.376Z</time></trkpt><trkpt lat="43.7597667" lon="12.4287017"><ele>423.8</ele><time>2026-04-04T08:28:08.377Z</time></trkpt><trkpt lat="43.7597583" lon="12.4288117"><ele>421.6</ele><time>2026-04-04T08:28:11.377Z</time></trkpt><trkpt lat="43.7598383" lon="12.428945"><ele>419.4</ele><time>2026-04-04T08:43:48.669Z</time></trkpt><trkpt lat="43.7596983" lon="12.4288467"><ele>417.2</ele><time>2026-04-04T08:43:53.377Z</time></trkpt><trkpt lat="43.7597083" lon="12.4289633"><ele>415.0</ele><time>2026-04-04T08:44:02.378Z</time></trkpt><trkpt lat="43.7597517" lon="12.4288667"><ele>415.00000000000006</ele><time>2026-04-04T08:44:19.377Z</time></trkpt><trkpt lat="43.7597483" lon="12.4287717"><ele>415.0</ele><time>2026-04-04T09:43:29.373Z</time></trkpt><trkpt lat="43.7597783" lon="12.4286933"><ele>415.0</ele><time>2026-04-04T09:43:32.374Z</time></trkpt><trkpt lat="43.759745" lon="12.42888"><ele>415.0</ele><time>2026-04-04T09:52:30.372Z</time></trkpt><trkpt lat="43.7597383" lon="12.4289717"><ele>415.00000000000006</ele><time>2026-04-04T09:52:32.372Z</time></trkpt><trkpt lat="43.7597233" lon="12.429115"><ele>415.0</ele><time>2026-04-04T09:52:34.372Z</time></trkpt><trkpt lat="43.7597033" lon="12.4292183"><ele>415.0</ele><time>2026-04-04T09:52:37.373Z</time></trkpt><trkpt lat="43.7596817" lon="12.429315"><ele>415.0</ele><time>2026-04-04T09:52:40.373Z</time></trkpt><trkpt lat="43.7597" lon="12.42942"><ele>415.0</ele><time>2026-04-04T09:52:46.372Z</time></trkpt><trkpt lat="43.7596983" lon="12.4295183"><ele>415.0</ele><time>2026-04-04T09:52:49.373Z</time></trkpt><trkpt lat="43.7596633" lon="12.4294417"><ele>415.0</ele><time>2026-04-04T09:53:23.372Z</time></trkpt><trkpt lat="43.7596617" lon="12.42934"><ele>415.0</ele><time>2026-04-04T09:53:26.372Z</time></trkpt><trkpt lat="43.7596817" lon="12.4292283"><ele>415.0</ele><time>2026-04-04T09:53:29.373Z</time></trkpt><trkpt lat="43.759695" lon="12.4291417"><ele>415.00000000000006</ele><time>2026-04-04T09:53:31.372Z</time></trkpt><trkpt lat="43.7597017" lon="12.4290317"><ele>415.0</ele><time>2026-04-04T09:53:33.372Z</time></trkpt><trkpt lat="43.7597283" lon="12.428905"><ele>415.0</ele><time>2026-04-04T09:53:35.373Z</time></trkpt><trkpt lat="43.759755" lon="12.4287867"><ele>415.0</ele><time>2026-04-04T09:53:37.373Z</time></trkpt><trkpt lat="43.7597333" lon="12.4286983"><ele>415.00000000000006</ele><time>2026-04-04T09:53:40.373Z</time></trkpt><trkpt lat="43.7596683" lon="12.4287317"><ele>415.0</ele><time>2026-04-04T09:53:43.372Z</time></trkpt><trkpt lat="43.7596083" lon="12.4287983"><ele>415.00000000000006</ele><time>2026-04-04T09:53:45.372Z</time></trkpt><trkpt lat="43.7595433" lon="12.4288417"><ele>415.0</ele><time>2026-04-04T09:53:47.373Z</time></trkpt><trkpt lat="43.7594683" lon="12.42885"><ele>415.0</ele><time>2026-04-04T09:53:49.371Z</time></trkpt><trkpt lat="43.759395" lon="12.4288717"><ele>415.0</ele><time>2026-04-04T09:53:51.371Z</time></trkpt><trkpt lat="43.7593317" lon="12.42895"><ele>415.00000000000006</ele><time>2026-04-04T09:53:54.372Z</time></trkpt><trkpt lat="43.7593117" lon="12.4290567"><ele>415.0</ele><time>2026-04-04T09:53:56.371Z</time></trkpt><trkpt lat="43.7592617" lon="12.4291467"><ele>417.2</ele><time>2026-04-04T09:53:58.371Z</time></trkpt><trkpt lat="43.75918" lon="12.429225"><ele>419.4</ele><time>2026-04-04T09:54:00.372Z</time></trkpt><trkpt lat="43.7591117" lon="12.4292833"><ele>421.6</ele><time>2026-04-04T09:54:02.371Z</time></trkpt><trkpt lat="43.7590399" lon="12.4293182"><ele>423.8</ele><time>2026-04-04T09:54:04.372Z</time></trkpt><trkpt lat="43.7589366" lon="12.429389"><ele>426.0</ele><time>2026-04-04T09:54:06.383Z</time></trkpt><trkpt lat="43.758805" lon="12.4294683"><ele>426.0</ele><time>2026-04-04T09:54:08.372Z</time></trkpt><trkpt lat="43.758685" lon="12.429525"><ele>426.0</ele><time>2026-04-04T09:54:10.372Z</time></trkpt><trkpt lat="43.7586267" lon="12.4295633"><ele>426.0</ele><time>2026-04-04T09:54:11.371Z</time></trkpt><trkpt lat="43.7585267" lon="12.4296467"><ele>426.0</ele><time>2026-04-04T09:54:13.372Z</time></trkpt><trkpt lat="43.758435" lon="12.4297233"><ele>426.0</ele><time>2026-04-04T09:54:15.372Z</time></trkpt><trkpt lat="43.7583433" lon="12.4298"><ele>429.20000000000005</ele><time>2026-04-04T09:54:17.372Z</time></trkpt><trkpt lat="43.7582567" lon="12.4298717"><ele>432.40000000000003</ele><time>2026-04-04T09:54:19.372Z</time></trkpt><trkpt lat="43.7581717" lon="12.42997"><ele>435.6</ele><time>2026-04-04T09:54:21.371Z</time></trkpt><trkpt lat="43.7580717" lon="12.430055"><ele>438.8</ele><time>2026-04-04T09:54:23.371Z</time></trkpt><trkpt lat="43.7579733" lon="12.43014"><ele>442.0</ele><time>2026-04-04T09:54:25.371Z</time></trkpt><trkpt lat="43.7578667" lon="12.4302267"><ele>442.0</ele><time>2026-04-04T09:54:27.371Z</time></trkpt><trkpt lat="43.7577633" lon="12.4303033"><ele>442.00000000000006</ele><time>2026-04-04T09:54:29.371Z</time></trkpt><trkpt lat="43.757675" lon="12.4303633"><ele>442.00000000000006</ele><time>2026-04-04T09:54:31.371Z</time></trkpt><trkpt lat="43.7575683" lon="12.430375"><ele>442.0</ele><time>2026-04-04T09:54:33.371Z</time></trkpt><trkpt lat="43.7574517" lon="12.43036"><ele>442.0</ele><time>2026-04-04T09:54:35.372Z</time></trkpt><trkpt lat="43.75732" lon="12.43033"><ele>445.00000000000006</ele><time>2026-04-04T09:54:37.372Z</time></trkpt><trkpt lat="43.757245" lon="12.4303"><ele>448.0</ele><time>2026-04-04T09:54:38.371Z</time></trkpt><trkpt lat="43.757165" lon="12.4302667"><ele>451.0</ele><time>2026-04-04T09:54:39.372Z</time></trkpt><trkpt lat="43.7570833" lon="12.4302333"><ele>454.0</ele><time>2026-04-04T09:54:40.371Z</time></trkpt><trkpt lat="43.75701" lon="12.4302033"><ele>457.00000000000006</ele><time>2026-04-04T09:54:41.372Z</time></trkpt><trkpt lat="43.75691" lon="12.4301667"><ele>460.0</ele><time>2026-04-04T09:54:43.372Z</time></trkpt><trkpt lat="43.756845" lon="12.430125"><ele>462.00000000000006</ele><time>2026-04-04T09:54:54.371Z</time></trkpt><trkpt lat="43.7567867" lon="12.43008"><ele>464.0</ele><time>2026-04-04T09:54:55.371Z</time></trkpt><trkpt lat="43.756715" lon="12.4300283"><ele>466.0</ele><time>2026-04-04T09:54:56.372Z</time></trkpt><trkpt lat="43.7566483" lon="12.4299567"><ele>468.0</ele><time>2026-04-04T09:54:57.371Z</time></trkpt><trkpt lat="43.75658" lon="12.42987"><ele>470.00000000000006</ele><time>2026-04-04T09:54:58.372Z</time></trkpt><trkpt lat="43.756495" lon="12.42979"><ele>472.0</ele><time>2026-04-04T09:54:59.372Z</time></trkpt><trkpt lat="43.7564017" lon="12.4297033"><ele>473.75</ele><time>2026-04-04T09:55:00.371Z</time></trkpt><trkpt lat="43.7563067" lon="12.4296167"><ele>475.5</ele><time>2026-04-04T09:55:01.371Z</time></trkpt><trkpt lat="43.756205" lon="12.42954"><ele>477.25</ele><time>2026-04-04T09:55:02.371Z</time></trkpt><trkpt lat="43.7561017" lon="12.4294683"><ele>479.0</ele><time>2026-04-04T09:55:03.371Z</time></trkpt><trkpt lat="43.755995" lon="12.4293967"><ele>482.4</ele><time>2026-04-04T09:55:04.371Z</time></trkpt><trkpt lat="43.7558883" lon="12.429325"><ele>485.79999999999995</ele><time>2026-04-04T09:55:05.371Z</time></trkpt><trkpt lat="43.75578" lon="12.4292533"><ele>489.20000000000005</ele><time>2026-04-04T09:55:06.372Z</time></trkpt><trkpt lat="43.755685" lon="12.4291867"><ele>492.6</ele><time>2026-04-04T09:55:07.371Z</time></trkpt><trkpt lat="43.7555967" lon="12.4291333"><ele>496.0</ele><time>2026-04-04T09:55:08.371Z</time></trkpt><trkpt lat="43.7555283" lon="12.4291"><ele>496.0</ele><time>2026-04-04T09:55:09.371Z</time></trkpt><trkpt lat="43.755435" lon="12.4290417"><ele>496.0</ele><time>2026-04-04T09:55:11.371Z</time></trkpt><trkpt lat="43.755335" lon="12.4290017"><ele>496.0</ele><time>2026-04-04T09:55:13.371Z</time></trkpt><trkpt lat="43.7552217" lon="12.4289733"><ele>496.0</ele><time>2026-04-04T09:55:15.371Z</time></trkpt><trkpt lat="43.7551117" lon="12.42892"><ele>496.0</ele><time>2026-04-04T09:55:17.372Z</time></trkpt><trkpt lat="43.75505" lon="12.4288767"><ele>497.50000000000006</ele><time>2026-04-04T09:55:18.372Z</time></trkpt><trkpt lat="43.7549817" lon="12.4288267"><ele>499.0</ele><time>2026-04-04T09:55:19.372Z</time></trkpt><trkpt lat="43.75492" lon="12.4287683"><ele>500.5</ele><time>2026-04-04T09:55:20.371Z</time></trkpt><trkpt lat="43.7548617" lon="12.4287"><ele>502.0</ele><time>2026-04-04T09:55:21.371Z</time></trkpt><trkpt lat="43.75477" lon="12.428595"><ele>503.50000000000006</ele><time>2026-04-04T09:55:23.371Z</time></trkpt><trkpt lat="43.7547083" lon="12.4285383"><ele>505.0</ele><time>2026-04-04T09:55:24.372Z</time></trkpt><trkpt lat="43.7546233" lon="12.4284667"><ele>506.2</ele><time>2026-04-04T09:55:25.371Z</time></trkpt><trkpt lat="43.7545383" lon="12.42839"><ele>507.4</ele><time>2026-04-04T09:55:26.372Z</time></trkpt><trkpt lat="43.7544517" lon="12.4283017"><ele>508.6</ele><time>2026-04-04T09:55:27.371Z</time></trkpt><trkpt lat="43.754365" lon="12.42821"><ele>509.8</ele><time>2026-04-04T09:55:28.371Z</time></trkpt><trkpt lat="43.754275" lon="12.428125"><ele>511.0</ele><time>2026-04-04T09:55:29.372Z</time></trkpt><trkpt lat="43.7541917" lon="12.4280317"><ele>515.8</ele><time>2026-04-04T09:55:30.371Z</time></trkpt><trkpt lat="43.7541183" lon="12.4279417"><ele>520.6</ele><time>2026-04-04T09:55:31.371Z</time></trkpt><trkpt lat="43.7540417" lon="12.42786"><ele>525.4</ele><time>2026-04-04T09:55:32.372Z</time></trkpt><trkpt lat="43.7539783" lon="12.4277883"><ele>530.2</ele><time>2026-04-04T09:55:33.371Z</time></trkpt><trkpt lat="43.7539267" lon="12.427725"><ele>535.0</ele><time>2026-04-04T09:55:34.371Z</time></trkpt><trkpt lat="43.753835" lon="12.4276333"><ele>535.0</ele><time>2026-04-04T09:55:36.371Z</time></trkpt><trkpt lat="43.7537333" lon="12.4276133"><ele>535.0</ele><time>2026-04-04T09:55:38.372Z</time></trkpt><trkpt lat="43.75366" lon="12.4276333"><ele>535.0</ele><time>2026-04-04T09:55:39.372Z</time></trkpt><trkpt lat="43.7535683" lon="12.42767"><ele>535.0</ele><time>2026-04-04T09:55:40.371Z</time></trkpt><trkpt lat="43.7534683" lon="12.4277067"><ele>535.0</ele><time>2026-04-04T09:55:41.372Z</time></trkpt><trkpt lat="43.7533817" lon="12.427745"><ele>538.0</ele><time>2026-04-04T09:55:42.372Z</time></trkpt><trkpt lat="43.7533" lon="12.4277867"><ele>541.0</ele><time>2026-04-04T09:55:43.371Z</time></trkpt><trkpt lat="43.7532183" lon="12.4278383"><ele>544.0</ele><time>2026-04-04T09:55:44.372Z</time></trkpt><trkpt lat="43.753125" lon="12.4278833"><ele>547.0</ele><time>2026-04-04T09:55:45.371Z</time></trkpt><trkpt lat="43.7530367" lon="12.4279183"><ele>550.0</ele><time>2026-04-04T09:55:46.371Z</time></trkpt><trkpt lat="43.7529617" lon="12.4279417"><ele>553.0</ele><time>2026-04-04T09:55:47.372Z</time></trkpt><trkpt lat="43.7528983" lon="12.4279567"><ele>553.0</ele><time>2026-04-04T09:55:48.372Z</time></trkpt><trkpt lat="43.752805" lon="12.4279417"><ele>553.0</ele><time>2026-04-04T09:55:50.371Z</time></trkpt><trkpt lat="43.7527567" lon="12.427855"><ele>553.0</ele><time>2026-04-04T09:55:53.371Z</time></trkpt><trkpt lat="43.7527733" lon="12.4277317"><ele>553.0</ele><time>2026-04-04T09:55:55.372Z</time></trkpt><trkpt lat="43.7528083" lon="12.42763"><ele>553.0</ele><time>2026-04-04T09:55:56.372Z</time></trkpt><trkpt lat="43.75287" lon="12.4275017"><ele>553.0</ele><time>2026-04-04T09:55:57.371Z</time></trkpt><trkpt lat="43.7529267" lon="12.4273517"><ele>553.0</ele><time>2026-04-04T09:55:58.371Z</time></trkpt><trkpt lat="43.7529683" lon="12.4271917"><ele>553.0</ele><time>2026-04-04T09:55:59.371Z</time></trkpt><trkpt lat="43.7530017" lon="12.4270483"><ele>553.0</ele><time>2026-04-04T09:56:00.371Z</time></trkpt><trkpt lat="43.7530333" lon="12.4269483"><ele>553.0</ele><time>2026-04-04T09:56:01.372Z</time></trkpt><trkpt lat="43.75306" lon="12.42684"><ele>553.0</ele><time>2026-04-04T09:56:03.371Z</time></trkpt><trkpt lat="43.7530833" lon="12.4267283"><ele>553.0</ele><time>2026-04-04T09:56:06.372Z</time></trkpt><trkpt lat="43.7530167" lon="12.4268467"><ele>553.0</ele><time>2026-04-04T09:56:13.371Z</time></trkpt><trkpt lat="43.7529883" lon="12.42695"><ele>553.0</ele><time>2026-04-04T09:56:14.371Z</time></trkpt><trkpt lat="43.7529633" lon="12.427075"><ele>553.0</ele><time>2026-04-04T09:56:15.371Z</time></trkpt><trkpt lat="43.7529367" lon="12.427215"><ele>553.0</ele><time>2026-04-04T09:56:16.371Z</time></trkpt><trkpt lat="43.7528983" lon="12.42737"><ele>553.0</ele><time>2026-04-04T09:56:17.372Z</time></trkpt><trkpt lat="43.75285" lon="12.4275317"><ele>553.0</ele><time>2026-04-04T09:56:18.372Z</time></trkpt><trkpt lat="43.75279" lon="12.4276817"><ele>553.0</ele><time>2026-04-04T09:56:19.371Z</time></trkpt><trkpt lat="43.752715" lon="12.4278183"><ele>548.25</ele><time>2026-04-04T09:56:20.372Z</time></trkpt><trkpt lat="43.75263" lon="12.4279417"><ele>543.5</ele><time>2026-04-04T09:56:21.371Z</time></trkpt><trkpt lat="43.7525417" lon="12.42805"><ele>538.75</ele><time>2026-04-04T09:56:22.371Z</time></trkpt><trkpt lat="43.7524517" lon="12.4281583"><ele>534.0</ele><time>2026-04-04T09:56:23.372Z</time></trkpt><trkpt lat="43.752355" lon="12.42827"><ele>534.0</ele><time>2026-04-04T09:56:24.372Z</time></trkpt><trkpt lat="43.7522633" lon="12.4283933"><ele>534.0</ele><time>2026-04-04T09:56:25.371Z</time></trkpt><trkpt lat="43.7521683" lon="12.42853"><ele>534.0</ele><time>2026-04-04T09:56:26.371Z</time></trkpt><trkpt lat="43.752075" lon="12.42868"><ele>534.0</ele><time>2026-04-04T09:56:27.371Z</time></trkpt><trkpt lat="43.7519767" lon="12.4288417"><ele>532.0</ele><time>2026-04-04T09:56:28.372Z</time></trkpt><trkpt lat="43.75188" lon="12.4290017"><ele>530.0</ele><time>2026-04-04T09:56:29.371Z</time></trkpt><trkpt lat="43.751775" lon="12.4291567"><ele>528.0</ele><time>2026-04-04T09:56:30.371Z</time></trkpt><trkpt lat="43.7516567" lon="12.4292917"><ele>528.0</ele><time>2026-04-04T09:56:31.371Z</time></trkpt><trkpt lat="43.75154" lon="12.4294017"><ele>528.0</ele><time>2026-04-04T09:56:32.371Z</time></trkpt><trkpt lat="43.751435" lon="12.4294883"><ele>528.0</ele><time>2026-04-04T09:56:33.371Z</time></trkpt><trkpt lat="43.7513383" lon="12.4295517"><ele>528.0</ele><time>2026-04-04T09:56:34.371Z</time></trkpt><trkpt lat="43.751235" lon="12.4295983"><ele>528.0</ele><time>2026-04-04T09:56:35.372Z</time></trkpt><trkpt lat="43.7511317" lon="12.4296317"><ele>528.0</ele><time>2026-04-04T09:56:36.371Z</time></trkpt><trkpt lat="43.7510283" lon="12.4296533"><ele>528.0</ele><time>2026-04-04T09:56:37.371Z</time></trkpt><trkpt lat="43.7509333" lon="12.4296633"><ele>528.0</ele><time>2026-04-04T09:56:38.371Z</time></trkpt><trkpt lat="43.7508367" lon="12.4296667"><ele>528.0</ele><time>2026-04-04T09:56:39.371Z</time></trkpt><trkpt lat="43.750745" lon="12.4296533"><ele>530.25</ele><time>2026-04-04T09:56:40.372Z</time></trkpt><trkpt lat="43.75065" lon="12.4296467"><ele>532.5</ele><time>2026-04-04T09:56:41.371Z</time></trkpt><trkpt lat="43.750545" lon="12.4296633"><ele>534.75</ele><time>2026-04-04T09:56:42.371Z</time></trkpt><trkpt lat="43.7504167" lon="12.4296933"><ele>537.0</ele><time>2026-04-04T09:56:43.371Z</time></trkpt><trkpt lat="43.7502933" lon="12.429745"><ele>534.5</ele><time>2026-04-04T09:56:44.371Z</time></trkpt><trkpt lat="43.750165" lon="12.4298017"><ele>532.0</ele><time>2026-04-04T09:56:45.372Z</time></trkpt><trkpt lat="43.750045" lon="12.4298683"><ele>529.5</ele><time>2026-04-04T09:56:46.372Z</time></trkpt><trkpt lat="43.7499183" lon="12.4299217"><ele>527.0</ele><time>2026-04-04T09:56:47.371Z</time></trkpt><trkpt lat="43.7497833" lon="12.429975"><ele>527.0</ele><time>2026-04-04T09:56:48.371Z</time></trkpt><trkpt lat="43.7496567" lon="12.4300267"><ele>527.0</ele><time>2026-04-04T09:56:49.372Z</time></trkpt><trkpt lat="43.749525" lon="12.4300883"><ele>527.0</ele><time>2026-04-04T09:56:50.372Z</time></trkpt><trkpt lat="43.7494" lon="12.4301517"><ele>527.0</ele><time>2026-04-04T09:56:51.371Z</time></trkpt><trkpt lat="43.7492817" lon="12.43021"><ele>522.25</ele><time>2026-04-04T09:56:52.371Z</time></trkpt><trkpt lat="43.749165" lon="12.4302583"><ele>517.5</ele><time>2026-04-04T09:56:53.371Z</time></trkpt><trkpt lat="43.7490433" lon="12.4302883"><ele>512.75</ele><time>2026-04-04T09:56:54.372Z</time></trkpt><trkpt lat="43.7489233" lon="12.4303217"><ele>508.0</ele><time>2026-04-04T09:56:55.372Z</time></trkpt><trkpt lat="43.7488017" lon="12.4303483"><ele>508.0</ele><time>2026-04-04T09:56:56.372Z</time></trkpt><trkpt lat="43.7487033" lon="12.43037"><ele>507.99999999999994</ele><time>2026-04-04T09:56:57.371Z</time></trkpt><trkpt lat="43.748605" lon="12.4304067"><ele>507.99999999999994</ele><time>2026-04-04T09:56:58.371Z</time></trkpt><trkpt lat="43.7484867" lon="12.4304467"><ele>508.0</ele><time>2026-04-04T09:56:59.372Z</time></trkpt><trkpt lat="43.7483683" lon="12.4304983"><ele>508.0</ele><time>2026-04-04T09:57:00.372Z</time></trkpt><trkpt lat="43.74824" lon="12.4305567"><ele>510.0</ele><time>2026-04-04T09:57:01.371Z</time></trkpt><trkpt lat="43.7481017" lon="12.4306167"><ele>512.0</ele><time>2026-04-04T09:57:02.372Z</time></trkpt><trkpt lat="43.7479617" lon="12.4306583"><ele>514.0</ele><time>2026-04-04T09:57:03.371Z</time></trkpt><trkpt lat="43.7478317" lon="12.4306783"><ele>516.0</ele><time>2026-04-04T09:57:04.371Z</time></trkpt><trkpt lat="43.747705" lon="12.4306783"><ele>511.5</ele><time>2026-04-04T09:57:05.372Z</time></trkpt><trkpt lat="43.747575" lon="12.4306833"><ele>507.0</ele><time>2026-04-04T09:57:06.371Z</time></trkpt><trkpt lat="43.74744" lon="12.4306983"><ele>502.5</ele><time>2026-04-04T09:57:07.372Z</time></trkpt><trkpt lat="43.74729" lon="12.430715"><ele>498.0</ele><time>2026-04-04T09:57:08.371Z</time></trkpt><trkpt lat="43.74714" lon="12.430735"><ele>498.0</ele><time>2026-04-04T09:57:09.372Z</time></trkpt><trkpt lat="43.7470067" lon="12.4307433"><ele>498.0</ele><time>2026-04-04T09:57:10.372Z</time></trkpt><trkpt lat="43.7468683" lon="12.4307417"><ele>498.0</ele><time>2026-04-04T09:57:11.372Z</time></trkpt><trkpt lat="43.7467233" lon="12.4307183"><ele>498.0</ele><time>2026-04-04T09:57:12.372Z</time></trkpt><trkpt lat="43.74657" lon="12.43068"><ele>493.33333333333337</ele><time>2026-04-04T09:57:13.372Z</time></trkpt><trkpt lat="43.7464183" lon="12.430625"><ele>488.6666666666667</ele><time>2026-04-04T09:57:14.371Z</time></trkpt><trkpt lat="43.74626" lon="12.4305517"><ele>484.0</ele><time>2026-04-04T09:57:15.371Z</time></trkpt><trkpt lat="43.746095" lon="12.4304783"><ele>482.33333333333337</ele><time>2026-04-04T09:57:16.372Z</time></trkpt><trkpt lat="43.7459183" lon="12.4304083"><ele>480.66666666666663</ele><time>2026-04-04T09:57:17.372Z</time></trkpt><trkpt lat="43.745745" lon="12.4303417"><ele>479.0</ele><time>2026-04-04T09:57:18.371Z</time></trkpt><trkpt lat="43.7456033" lon="12.4302767"><ele>478.99999999999994</ele><time>2026-04-04T09:57:19.371Z</time></trkpt><trkpt lat="43.745485" lon="12.4302167"><ele>479.0</ele><time>2026-04-04T09:57:20.371Z</time></trkpt><trkpt lat="43.7454" lon="12.4301583"><ele>479.0</ele><time>2026-04-04T09:57:21.372Z</time></trkpt><trkpt lat="43.74533" lon="12.430125"><ele>479.0</ele><time>2026-04-04T09:57:22.371Z</time></trkpt><trkpt lat="43.7452633" lon="12.4301183"><ele>478.99999999999994</ele><time>2026-04-04T09:57:23.372Z</time></trkpt><trkpt lat="43.7452" lon="12.4301317"><ele>479.0</ele><time>2026-04-04T09:57:24.372Z</time></trkpt><trkpt lat="43.7451367" lon="12.430175"><ele>479.0</ele><time>2026-04-04T09:57:25.372Z</time></trkpt><trkpt lat="43.7450733" lon="12.4302333"><ele>479.0</ele><time>2026-04-04T09:57:26.371Z</time></trkpt><trkpt lat="43.7450017" lon="12.4302983"><ele>479.0</ele><time>2026-04-04T09:57:27.371Z</time></trkpt><trkpt lat="43.7449083" lon="12.430375"><ele>479.0</ele><time>2026-04-04T09:57:28.372Z</time></trkpt><trkpt lat="43.7448017" lon="12.430455"><ele>479.0</ele><time>2026-04-04T09:57:29.371Z</time></trkpt><trkpt lat="43.744695" lon="12.4305417"><ele>478.75</ele><time>2026-04-04T09:57:30.372Z</time></trkpt><trkpt lat="43.7445933" lon="12.430625"><ele>478.5</ele><time>2026-04-04T09:57:31.372Z</time></trkpt><trkpt lat="43.7444917" lon="12.43072"><ele>478.25</ele><time>2026-04-04T09:57:32.371Z</time></trkpt><trkpt lat="43.7444" lon="12.4308233"><ele>478.0</ele><time>2026-04-04T09:57:33.371Z</time></trkpt><trkpt lat="43.7443" lon="12.430945"><ele>474.59999999999997</ele><time>2026-04-04T09:57:34.371Z</time></trkpt><trkpt lat="43.7442133" lon="12.4310633"><ele>471.19999999999993</ele><time>2026-04-04T09:57:35.372Z</time></trkpt><trkpt lat="43.7441367" lon="12.4311817"><ele>467.8</ele><time>2026-04-04T09:57:36.371Z</time></trkpt><trkpt lat="43.74408" lon="12.43128"><ele>464.4</ele><time>2026-04-04T09:57:37.371Z</time></trkpt><trkpt lat="43.7440383" lon="12.4313783"><ele>461.0</ele><time>2026-04-04T09:57:38.372Z</time></trkpt><trkpt lat="43.7440083" lon="12.4314733"><ele>460.3333333333333</ele><time>2026-04-04T09:57:39.372Z</time></trkpt><trkpt lat="43.7440083" lon="12.43157"><ele>459.66666666666663</ele><time>2026-04-04T09:57:40.371Z</time></trkpt><trkpt lat="43.74404" lon="12.4316767"><ele>459.0</ele><time>2026-04-04T09:57:41.372Z</time></trkpt><trkpt lat="43.7440767" lon="12.4317783"><ele>458.33333333333337</ele><time>2026-04-04T09:57:42.371Z</time></trkpt><trkpt lat="43.744105" lon="12.431885"><ele>457.6666666666667</ele><time>2026-04-04T09:57:43.371Z</time></trkpt><trkpt lat="43.7441083" lon="12.4319983"><ele>457.0</ele><time>2026-04-04T09:57:44.372Z</time></trkpt><trkpt lat="43.7440833" lon="12.4321167"><ele>455.75</ele><time>2026-04-04T09:57:45.371Z</time></trkpt><trkpt lat="43.7440317" lon="12.4322383"><ele>454.5</ele><time>2026-04-04T09:57:46.372Z</time></trkpt><trkpt lat="43.7439633" lon="12.4323633"><ele>453.25</ele><time>2026-04-04T09:57:47.371Z</time></trkpt><trkpt lat="43.7438783" lon="12.43249"><ele>452.0</ele><time>2026-04-04T09:57:48.371Z</time></trkpt><trkpt lat="43.7437817" lon="12.4326117"><ele>452.0</ele><time>2026-04-04T09:57:49.371Z</time></trkpt><trkpt lat="43.7436917" lon="12.4327233"><ele>452.0</ele><time>2026-04-04T09:57:50.371Z</time></trkpt><trkpt lat="43.7436033" lon="12.4328383"><ele>452.0</ele><time>2026-04-04T09:57:51.371Z</time></trkpt><trkpt lat="43.7435167" lon="12.4329617"><ele>452.0</ele><time>2026-04-04T09:57:52.371Z</time></trkpt><trkpt lat="43.7434417" lon="12.433085"><ele>449.8</ele><time>2026-04-04T09:57:53.372Z</time></trkpt><trkpt lat="43.74337" lon="12.43321"><ele>447.6</ele><time>2026-04-04T09:57:54.371Z</time></trkpt><trkpt lat="43.7432983" lon="12.4333367"><ele>445.40000000000003</ele><time>2026-04-04T09:57:55.371Z</time></trkpt><trkpt lat="43.7432317" lon="12.4334583"><ele>443.20000000000005</ele><time>2026-04-04T09:57:56.371Z</time></trkpt><trkpt lat="43.7431717" lon="12.43358"><ele>441.0</ele><time>2026-04-04T09:57:57.371Z</time></trkpt><trkpt lat="43.7430967" lon="12.4336933"><ele>441.0</ele><time>2026-04-04T09:57:58.371Z</time></trkpt><trkpt lat="43.743015" lon="12.4337917"><ele>441.0</ele><time>2026-04-04T09:57:59.371Z</time></trkpt><trkpt lat="43.742925" lon="12.4338733"><ele>441.0</ele><time>2026-04-04T09:58:00.371Z</time></trkpt><trkpt lat="43.742815" lon="12.433945"><ele>441.0</ele><time>2026-04-04T09:58:01.372Z</time></trkpt><trkpt lat="43.7427133" lon="12.4340067"><ele>441.0</ele><time>2026-04-04T09:58:02.372Z</time></trkpt><trkpt lat="43.7426167" lon="12.43408"><ele>439.0</ele><time>2026-04-04T09:58:03.372Z</time></trkpt><trkpt lat="43.7425183" lon="12.434135"><ele>437.0</ele><time>2026-04-04T09:58:04.371Z</time></trkpt><trkpt lat="43.7424117" lon="12.4341883"><ele>435.0</ele><time>2026-04-04T09:58:05.371Z</time></trkpt><trkpt lat="43.7422933" lon="12.4342233"><ele>433.0</ele><time>2026-04-04T09:58:06.371Z</time></trkpt><trkpt lat="43.7421833" lon="12.4342417"><ele>433.0</ele><time>2026-04-04T09:58:07.372Z</time></trkpt><trkpt lat="43.74208" lon="12.434265"><ele>432.99999999999994</ele><time>2026-04-04T09:58:08.372Z</time></trkpt><trkpt lat="43.741985" lon="12.4343117"><ele>432.99999999999994</ele><time>2026-04-04T09:58:09.372Z</time></trkpt><trkpt lat="43.7419033" lon="12.4343767"><ele>433.0</ele><time>2026-04-04T09:58:10.371Z</time></trkpt><trkpt lat="43.74184" lon="12.43447"><ele>433.0</ele><time>2026-04-04T09:58:11.372Z</time></trkpt><trkpt lat="43.7417833" lon="12.4346017"><ele>430.5</ele><time>2026-04-04T09:58:12.371Z</time></trkpt><trkpt lat="43.7417267" lon="12.4347583"><ele>428.0</ele><time>2026-04-04T09:58:13.371Z</time></trkpt><trkpt lat="43.7416817" lon="12.4349"><ele>425.5</ele><time>2026-04-04T09:58:14.371Z</time></trkpt><trkpt lat="43.7416333" lon="12.43503"><ele>423.0</ele><time>2026-04-04T09:58:15.371Z</time></trkpt><trkpt lat="43.7415633" lon="12.4351567"><ele>423.0</ele><time>2026-04-04T09:58:16.372Z</time></trkpt><trkpt lat="43.74148" lon="12.43526"><ele>423.0</ele><time>2026-04-04T09:58:17.371Z</time></trkpt><trkpt lat="43.741375" lon="12.4353483"><ele>423.0</ele><time>2026-04-04T09:58:18.371Z</time></trkpt><trkpt lat="43.7412633" lon="12.435425"><ele>423.0</ele><time>2026-04-04T09:58:19.372Z</time></trkpt><trkpt lat="43.7411467" lon="12.4355"><ele>423.5</ele><time>2026-04-04T09:58:20.371Z</time></trkpt><trkpt lat="43.7410333" lon="12.4355683"><ele>424.0</ele><time>2026-04-04T09:58:21.372Z</time></trkpt><trkpt lat="43.7409133" lon="12.435625"><ele>424.5</ele><time>2026-04-04T09:58:22.372Z</time></trkpt><trkpt lat="43.74079" lon="12.4356617"><ele>425.0</ele><time>2026-04-04T09:58:23.371Z</time></trkpt><trkpt lat="43.7406683" lon="12.4356933"><ele>425.0</ele><time>2026-04-04T09:58:24.371Z</time></trkpt><trkpt lat="43.7405383" lon="12.4357233"><ele>425.0</ele><time>2026-04-04T09:58:25.371Z</time></trkpt><trkpt lat="43.740435" lon="12.4357517"><ele>425.0</ele><time>2026-04-04T09:58:26.372Z</time></trkpt><trkpt lat="43.740335" lon="12.4357817"><ele>425.0</ele><time>2026-04-04T09:58:27.371Z</time></trkpt><trkpt lat="43.7402633" lon="12.4358017"><ele>425.0</ele><time>2026-04-04T09:58:28.371Z</time></trkpt><trkpt lat="43.7401783" lon="12.43582"><ele>426.4</ele><time>2026-04-04T09:58:30.372Z</time></trkpt><trkpt lat="43.7400833" lon="12.4358367"><ele>427.8</ele><time>2026-04-04T09:58:38.371Z</time></trkpt><trkpt lat="43.739995" lon="12.4358317"><ele>429.20000000000005</ele><time>2026-04-04T09:58:40.371Z</time></trkpt><trkpt lat="43.7399233" lon="12.4358367"><ele>430.6</ele><time>2026-04-04T09:58:42.372Z</time></trkpt><trkpt lat="43.74003" lon="12.43586"><ele>432.0</ele><time>2026-04-04T09:58:49.371Z</time></trkpt><trkpt lat="43.740115" lon="12.4358417"><ele>432.0</ele><time>2026-04-04T09:58:50.372Z</time></trkpt><trkpt lat="43.7401967" lon="12.4358267"><ele>432.0</ele><time>2026-04-04T09:58:51.371Z</time></trkpt><trkpt lat="43.7402833" lon="12.4357983"><ele>432.0</ele><time>2026-04-04T09:58:52.371Z</time></trkpt><trkpt lat="43.7403683" lon="12.43577"><ele>432.0</ele><time>2026-04-04T09:58:53.371Z</time></trkpt><trkpt lat="43.7404567" lon="12.435745"><ele>432.0</ele><time>2026-04-04T09:58:54.371Z</time></trkpt><trkpt lat="43.7405417" lon="12.435725"><ele>432.0</ele><time>2026-04-04T09:58:55.371Z</time></trkpt><trkpt lat="43.7406283" lon="12.435695"><ele>430.8333333333333</ele><time>2026-04-04T09:58:56.371Z</time></trkpt><trkpt lat="43.7407167" lon="12.4356767"><ele>429.66666666666663</ele><time>2026-04-04T09:58:57.372Z</time></trkpt><trkpt lat="43.740805" lon="12.43566"><ele>428.5</ele><time>2026-04-04T09:58:58.372Z</time></trkpt><trkpt lat="43.740895" lon="12.4356333"><ele>427.3333333333333</ele><time>2026-04-04T09:58:59.372Z</time></trkpt><trkpt lat="43.74098" lon="12.4356"><ele>426.16666666666663</ele><time>2026-04-04T09:59:00.371Z</time></trkpt><trkpt lat="43.741065" lon="12.4355617"><ele>425.0</ele><time>2026-04-04T09:59:01.372Z</time></trkpt><trkpt lat="43.7411333" lon="12.435525"><ele>424.7142857142857</ele><time>2026-04-04T09:59:02.371Z</time></trkpt><trkpt lat="43.7411917" lon="12.4354833"><ele>424.42857142857144</ele><time>2026-04-04T09:59:03.372Z</time></trkpt><trkpt lat="43.741255" lon="12.4354417"><ele>424.1428571428571</ele><time>2026-04-04T09:59:04.371Z</time></trkpt><trkpt lat="43.7413217" lon="12.4353883"><ele>423.8571428571429</ele><time>2026-04-04T09:59:05.372Z</time></trkpt><trkpt lat="43.7413983" lon="12.4353367"><ele>423.5714285714286</ele><time>2026-04-04T09:59:06.371Z</time></trkpt><trkpt lat="43.7414617" lon="12.435285"><ele>423.2857142857143</ele><time>2026-04-04T09:59:07.371Z</time></trkpt><trkpt lat="43.741515" lon="12.4352317"><ele>423.0</ele><time>2026-04-04T09:59:08.372Z</time></trkpt><trkpt lat="43.74157" lon="12.4351617"><ele>423.0</ele><time>2026-04-04T09:59:09.372Z</time></trkpt><trkpt lat="43.7416283" lon="12.43507"><ele>423.0</ele><time>2026-04-04T09:59:10.372Z</time></trkpt><trkpt lat="43.741675" lon="12.4349633"><ele>423.0</ele><time>2026-04-04T09:59:11.372Z</time></trkpt><trkpt lat="43.7417083" lon="12.4348467"><ele>423.0</ele><time>2026-04-04T09:59:12.371Z</time></trkpt><trkpt lat="43.7417333" lon="12.434735"><ele>423.0</ele><time>2026-04-04T09:59:13.372Z</time></trkpt><trkpt lat="43.7417617" lon="12.434635"><ele>423.0</ele><time>2026-04-04T09:59:14.372Z</time></trkpt><trkpt lat="43.741795" lon="12.4345517"><ele>422.2</ele><time>2026-04-04T09:59:15.372Z</time></trkpt><trkpt lat="43.7418683" lon="12.4344233"><ele>421.4</ele><time>2026-04-04T09:59:17.372Z</time></trkpt><trkpt lat="43.7419583" lon="12.43434"><ele>420.59999999999997</ele><time>2026-04-04T09:59:19.372Z</time></trkpt><trkpt lat="43.7420267" lon="12.4343033"><ele>419.79999999999995</ele><time>2026-04-04T09:59:21.371Z</time></trkpt><trkpt lat="43.74201" lon="12.4341733"><ele>419.0</ele><time>2026-04-04T09:59:26.372Z</time></trkpt><trkpt lat="43.7419667" lon="12.4340467"><ele>419.0</ele><time>2026-04-04T09:59:28.371Z</time></trkpt><trkpt lat="43.7419067" lon="12.43392"><ele>419.0</ele><time>2026-04-04T09:59:30.372Z</time></trkpt><trkpt lat="43.7418367" lon="12.4338167"><ele>419.0</ele><time>2026-04-04T09:59:32.372Z</time></trkpt><trkpt lat="43.741765" lon="12.4337267"><ele>419.0</ele><time>2026-04-04T09:59:34.372Z</time></trkpt><trkpt lat="43.7416867" lon="12.43362"><ele>419.0</ele><time>2026-04-04T09:59:36.372Z</time></trkpt><trkpt lat="43.741605" lon="12.43348"><ele>417.3333333333333</ele><time>2026-04-04T09:59:38.371Z</time></trkpt><trkpt lat="43.7415583" lon="12.4334083"><ele>415.66666666666663</ele><time>2026-04-04T09:59:39.371Z</time></trkpt><trkpt lat="43.7415117" lon="12.43333"><ele>414.0</ele><time>2026-04-04T09:59:40.371Z</time></trkpt><trkpt lat="43.741465" lon="12.4332483"><ele>412.33333333333337</ele><time>2026-04-04T09:59:41.372Z</time></trkpt><trkpt lat="43.7414183" lon="12.4331717"><ele>410.6666666666667</ele><time>2026-04-04T09:59:42.372Z</time></trkpt><trkpt lat="43.7413667" lon="12.433085"><ele>409.0</ele><time>2026-04-04T09:59:43.371Z</time></trkpt><trkpt lat="43.7413133" lon="12.4330017"><ele>406.6</ele><time>2026-04-04T09:59:44.372Z</time></trkpt><trkpt lat="43.7412583" lon="12.4329067"><ele>404.2</ele><time>2026-04-04T09:59:45.371Z</time></trkpt><trkpt lat="43.7412017" lon="12.4328083"><ele>401.8</ele><time>2026-04-04T09:59:46.372Z</time></trkpt><trkpt lat="43.7411417" lon="12.43271"><ele>399.40000000000003</ele><time>2026-04-04T09:59:47.371Z</time></trkpt><trkpt lat="43.7410783" lon="12.4326067"><ele>397.0</ele><time>2026-04-04T09:59:48.371Z</time></trkpt><trkpt lat="43.7410133" lon="12.432505"><ele>396.20000000000005</ele><time>2026-04-04T09:59:49.371Z</time></trkpt><trkpt lat="43.7409517" lon="12.4324067"><ele>395.4</ele><time>2026-04-04T09:59:50.372Z</time></trkpt><trkpt lat="43.740885" lon="12.4323083"><ele>394.6</ele><time>2026-04-04T09:59:51.372Z</time></trkpt><trkpt lat="43.74082" lon="12.4322033"><ele>393.79999999999995</ele><time>2026-04-04T09:59:52.371Z</time></trkpt><trkpt lat="43.7407567" lon="12.4321"><ele>393.0</ele><time>2026-04-04T09:59:53.371Z</time></trkpt><trkpt lat="43.74071" lon="12.432"><ele>392.1666666666667</ele><time>2026-04-04T09:59:54.371Z</time></trkpt><trkpt lat="43.7406667" lon="12.4318967"><ele>391.33333333333337</ele><time>2026-04-04T09:59:55.371Z</time></trkpt><trkpt lat="43.7406333" lon="12.4318083"><ele>390.5</ele><time>2026-04-04T09:59:56.371Z</time></trkpt><trkpt lat="43.7406" lon="12.4317017"><ele>389.6666666666667</ele><time>2026-04-04T09:59:58.371Z</time></trkpt><trkpt lat="43.740575" lon="12.4316217"><ele>388.83333333333337</ele><time>2026-04-04T10:00:00.371Z</time></trkpt><trkpt lat="43.740545" lon="12.4315283"><ele>388.0</ele><time>2026-04-04T10:00:02.371Z</time></trkpt><trkpt lat="43.740495" lon="12.4314317"><ele>388.00000000000006</ele><time>2026-04-04T10:00:04.371Z</time></trkpt><trkpt lat="43.7404317" lon="12.4313383"><ele>388.0</ele><time>2026-04-04T10:00:06.371Z</time></trkpt><trkpt lat="43.7403583" lon="12.4312467"><ele>388.0</ele><time>2026-04-04T10:00:08.371Z</time></trkpt><trkpt lat="43.7403" lon="12.4311617"><ele>388.0</ele><time>2026-04-04T10:00:10.372Z</time></trkpt><trkpt lat="43.7402867" lon="12.4310717"><ele>388.00000000000006</ele><time>2026-04-04T10:00:12.372Z</time></trkpt><trkpt lat="43.7403083" lon="12.430945"><ele>388.0</ele><time>2026-04-04T10:00:14.371Z</time></trkpt><trkpt lat="43.740305" lon="12.4307917"><ele>386.50000000000006</ele><time>2026-04-04T10:00:16.371Z</time></trkpt><trkpt lat="43.7402738" lon="12.4306514"><ele>385.0</ele><time>2026-04-04T10:00:18.371Z</time></trkpt><trkpt lat="43.7402185" lon="12.4305697"><ele>383.5</ele><time>2026-04-04T10:00:20.371Z</time></trkpt><trkpt lat="43.7401469" lon="12.4305276"><ele>382.0</ele><time>2026-04-04T10:00:22.371Z</time></trkpt><trkpt lat="43.740061" lon="12.4305216"><ele>380.5</ele><time>2026-04-04T10:00:24.371Z</time></trkpt><trkpt lat="43.7399985" lon="12.4304667"><ele>379.0</ele><time>2026-04-04T10:00:26.371Z</time></trkpt><trkpt lat="43.7399934" lon="12.4303607"><ele>377.8333333333333</ele><time>2026-04-04T10:00:28.371Z</time></trkpt><trkpt lat="43.7400117" lon="12.4302475"><ele>376.66666666666663</ele><time>2026-04-04T10:00:30.372Z</time></trkpt><trkpt lat="43.740036" lon="12.430146"><ele>375.5</ele><time>2026-04-04T10:00:32.372Z</time></trkpt><trkpt lat="43.7400739" lon="12.4300372"><ele>374.3333333333333</ele><time>2026-04-04T10:00:34.372Z</time></trkpt><trkpt lat="43.7400924" lon="12.4299145"><ele>373.1666666666667</ele><time>2026-04-04T10:00:36.372Z</time></trkpt><trkpt lat="43.7400792" lon="12.4298057"><ele>372.0</ele><time>2026-04-04T10:00:38.372Z</time></trkpt><trkpt lat="43.7400608" lon="12.4297215"><ele>370.8333333333333</ele><time>2026-04-04T10:00:40.371Z</time></trkpt><trkpt lat="43.7400694" lon="12.429629"><ele>369.6666666666667</ele><time>2026-04-04T10:00:43.371Z</time></trkpt><trkpt lat="43.7401577" lon="12.4295734"><ele>368.5</ele><time>2026-04-04T10:00:47.422Z</time></trkpt><trkpt lat="43.74022" lon="12.4295483"><ele>367.33333333333337</ele><time>2026-04-04T10:00:49.372Z</time></trkpt><trkpt lat="43.7402767" lon="12.4294867"><ele>366.1666666666667</ele><time>2026-04-04T10:00:52.371Z</time></trkpt><trkpt lat="43.7402217" lon="12.42937"><ele>365.0</ele><time>2026-04-04T10:00:55.371Z</time></trkpt><trkpt lat="43.740155" lon="12.4293183"><ele>364.83333333333337</ele><time>2026-04-04T10:00:56.371Z</time></trkpt><trkpt lat="43.7400933" lon="12.4292533"><ele>364.6666666666667</ele><time>2026-04-04T10:00:57.371Z</time></trkpt><trkpt lat="43.7400383" lon="12.429155"><ele>364.5</ele><time>2026-04-04T10:00:58.372Z</time></trkpt><trkpt lat="43.7399983" lon="12.429045"><ele>364.3333333333333</ele><time>2026-04-04T10:00:59.372Z</time></trkpt><trkpt lat="43.7399567" lon="12.4289383"><ele>364.16666666666663</ele><time>2026-04-04T10:01:00.371Z</time></trkpt><trkpt lat="43.73991" lon="12.4288417"><ele>364.0</ele><time>2026-04-04T10:01:01.372Z</time></trkpt><trkpt lat="43.739865" lon="12.4287533"><ele>363.3333333333333</ele><time>2026-04-04T10:01:02.371Z</time></trkpt><trkpt lat="43.7398033" lon="12.428655"><ele>362.66666666666663</ele><time>2026-04-04T10:01:03.372Z</time></trkpt><trkpt lat="43.7397333" lon="12.4285733"><ele>362.0</ele><time>2026-04-04T10:01:04.371Z</time></trkpt><trkpt lat="43.739675" lon="12.42849"><ele>361.3333333333333</ele><time>2026-04-04T10:01:05.371Z</time></trkpt><trkpt lat="43.7396233" lon="12.4284067"><ele>360.6666666666667</ele><time>2026-04-04T10:01:06.371Z</time></trkpt><trkpt lat="43.7395833" lon="12.4283267"><ele>360.0</ele><time>2026-04-04T10:01:07.372Z</time></trkpt><trkpt lat="43.739545" lon="12.4282367"><ele>360.0</ele><time>2026-04-04T10:01:08.371Z</time></trkpt><trkpt lat="43.7395183" lon="12.4281467"><ele>360.0</ele><time>2026-04-04T10:01:09.371Z</time></trkpt><trkpt lat="43.7394783" lon="12.4280533"><ele>360.0</ele><time>2026-04-04T10:01:10.371Z</time></trkpt><trkpt lat="43.73943" lon="12.427965"><ele>360.0</ele><time>2026-04-04T10:01:11.372Z</time></trkpt><trkpt lat="43.73938" lon="12.42788"><ele>360.0</ele><time>2026-04-04T10:01:12.371Z</time></trkpt><trkpt lat="43.7393283" lon="12.4278"><ele>360.0</ele><time>2026-04-04T10:01:13.372Z</time></trkpt><trkpt lat="43.7392567" lon="12.42773"><ele>356.0</ele><time>2026-04-04T10:01:14.371Z</time></trkpt><trkpt lat="43.7391917" lon="12.4276767"><ele>352.0</ele><time>2026-04-04T10:01:15.372Z</time></trkpt><trkpt lat="43.7391083" lon="12.4276283"><ele>348.0</ele><time>2026-04-04T10:01:17.372Z</time></trkpt><trkpt lat="43.7390283" lon="12.427605"><ele>344.0</ele><time>2026-04-04T10:01:20.372Z</time></trkpt><trkpt lat="43.73893" lon="12.4276633"><ele>340.0</ele><time>2026-04-04T10:01:22.371Z</time></trkpt><trkpt lat="43.7388717" lon="12.427725"><ele>336.0</ele><time>2026-04-04T10:01:23.372Z</time></trkpt><trkpt lat="43.738815" lon="12.4277917"><ele>336.0</ele><time>2026-04-04T10:01:24.372Z</time></trkpt><trkpt lat="43.738755" lon="12.4278717"><ele>336.0</ele><time>2026-04-04T10:01:25.372Z</time></trkpt><trkpt lat="43.7387" lon="12.4279517"><ele>336.0</ele><time>2026-04-04T10:01:26.371Z</time></trkpt><trkpt lat="43.7386467" lon="12.42802"><ele>336.0</ele><time>2026-04-04T10:01:27.371Z</time></trkpt><trkpt lat="43.738595" lon="12.4280967"><ele>336.0</ele><time>2026-04-04T10:01:28.371Z</time></trkpt><trkpt lat="43.7385333" lon="12.42819"><ele>336.0</ele><time>2026-04-04T10:01:29.372Z</time></trkpt><trkpt lat="43.7384767" lon="12.4282867"><ele>335.8333333333333</ele><time>2026-04-04T10:01:30.371Z</time></trkpt><trkpt lat="43.738425" lon="12.4283783"><ele>335.6666666666667</ele><time>2026-04-04T10:01:31.371Z</time></trkpt><trkpt lat="43.738375" lon="12.4284617"><ele>335.5</ele><time>2026-04-04T10:01:32.371Z</time></trkpt><trkpt lat="43.7383267" lon="12.42854"><ele>335.33333333333337</ele><time>2026-04-04T10:01:33.371Z</time></trkpt><trkpt lat="43.73828" lon="12.4286133"><ele>335.1666666666667</ele><time>2026-04-04T10:01:34.371Z</time></trkpt><trkpt lat="43.738235" lon="12.4286867"><ele>335.0</ele><time>2026-04-04T10:01:35.372Z</time></trkpt><trkpt lat="43.7381733" lon="12.4287467"><ele>335.0</ele><time>2026-04-04T10:01:36.372Z</time></trkpt><trkpt lat="43.738115" lon="12.4288"><ele>335.0</ele><time>2026-04-04T10:01:37.372Z</time></trkpt><trkpt lat="43.738055" lon="12.4288517"><ele>335.0</ele><time>2026-04-04T10:01:38.372Z</time></trkpt><trkpt lat="43.7379633" lon="12.4289283"><ele>335.0</ele><time>2026-04-04T10:01:40.371Z</time></trkpt><trkpt lat="43.7378733" lon="12.428965"><ele>335.0</ele><time>2026-04-04T10:01:42.372Z</time></trkpt><trkpt lat="43.7377617" lon="12.4288783"><ele>332.83333333333337</ele><time>2026-04-04T10:01:44.372Z</time></trkpt><trkpt lat="43.7377" lon="12.42879"><ele>330.6666666666667</ele><time>2026-04-04T10:01:45.371Z</time></trkpt><trkpt lat="43.737645" lon="12.4287133"><ele>328.5</ele><time>2026-04-04T10:01:46.372Z</time></trkpt><trkpt lat="43.7375933" lon="12.428655"><ele>326.3333333333333</ele><time>2026-04-04T10:01:47.371Z</time></trkpt><trkpt lat="43.73751" lon="12.4285683"><ele>324.16666666666663</ele><time>2026-04-04T10:01:49.371Z</time></trkpt><trkpt lat="43.7374383" lon="12.4285183"><ele>322.0</ele><time>2026-04-04T10:01:56.371Z</time></trkpt><trkpt lat="43.73736" lon="12.4285417"><ele>322.0</ele><time>2026-04-04T10:01:57.371Z</time></trkpt><trkpt lat="43.73727" lon="12.4285933"><ele>322.0</ele><time>2026-04-04T10:01:58.372Z</time></trkpt><trkpt lat="43.7371617" lon="12.42866"><ele>322.0</ele><time>2026-04-04T10:01:59.371Z</time></trkpt><trkpt lat="43.7370483" lon="12.42874"><ele>322.0</ele><time>2026-04-04T10:02:00.372Z</time></trkpt><trkpt lat="43.7369267" lon="12.42882"><ele>321.66666666666663</ele><time>2026-04-04T10:02:01.371Z</time></trkpt><trkpt lat="43.73679" lon="12.4289183"><ele>321.3333333333333</ele><time>2026-04-04T10:02:02.372Z</time></trkpt><trkpt lat="43.7366483" lon="12.4290183"><ele>321.0</ele><time>2026-04-04T10:02:03.371Z</time></trkpt><trkpt lat="43.7365" lon="12.4291183"><ele>321.0</ele><time>2026-04-04T10:02:04.372Z</time></trkpt><trkpt lat="43.7363433" lon="12.4292283"><ele>321.0</ele><time>2026-04-04T10:02:05.371Z</time></trkpt><trkpt lat="43.7361917" lon="12.4293367"><ele>321.0</ele><time>2026-04-04T10:02:06.371Z</time></trkpt><trkpt lat="43.73603" lon="12.4294433"><ele>322.3333333333333</ele><time>2026-04-04T10:02:07.371Z</time></trkpt><trkpt lat="43.7358667" lon="12.4295567"><ele>323.66666666666663</ele><time>2026-04-04T10:02:08.372Z</time></trkpt><trkpt lat="43.73571" lon="12.4296683"><ele>325.0</ele><time>2026-04-04T10:02:09.372Z</time></trkpt><trkpt lat="43.7355567" lon="12.4297733"><ele>325.0</ele><time>2026-04-04T10:02:10.372Z</time></trkpt><trkpt lat="43.7353933" lon="12.4298867"><ele>325.0</ele><time>2026-04-04T10:02:11.371Z</time></trkpt><trkpt lat="43.7352383" lon="12.4299833"><ele>325.0</ele><time>2026-04-04T10:02:12.371Z</time></trkpt><trkpt lat="43.7350767" lon="12.4300683"><ele>321.66666666666663</ele><time>2026-04-04T10:02:13.372Z</time></trkpt><trkpt lat="43.734915" lon="12.4301433"><ele>318.3333333333333</ele><time>2026-04-04T10:02:14.371Z</time></trkpt><trkpt lat="43.7347433" lon="12.4302167"><ele>315.0</ele><time>2026-04-04T10:02:15.371Z</time></trkpt><trkpt lat="43.73457" lon="12.4303017"><ele>315.0</ele><time>2026-04-04T10:02:16.372Z</time></trkpt><trkpt lat="43.7344033" lon="12.4303783"><ele>315.0</ele><time>2026-04-04T10:02:17.372Z</time></trkpt><trkpt lat="43.7342283" lon="12.4304583"><ele>315.0</ele><time>2026-04-04T10:02:18.372Z</time></trkpt><trkpt lat="43.7340517" lon="12.430545"><ele>316.0</ele><time>2026-04-04T10:02:19.371Z</time></trkpt><trkpt lat="43.7338717" lon="12.4306267"><ele>317.0</ele><time>2026-04-04T10:02:20.371Z</time></trkpt><trkpt lat="43.7336883" lon="12.4307117"><ele>318.0</ele><time>2026-04-04T10:02:21.371Z</time></trkpt><trkpt lat="43.7335117" lon="12.4307967"><ele>314.6666666666667</ele><time>2026-04-04T10:02:22.372Z</time></trkpt><trkpt lat="43.733335" lon="12.43088"><ele>311.33333333333337</ele><time>2026-04-04T10:02:23.371Z</time></trkpt><trkpt lat="43.733155" lon="12.4309633"><ele>308.0</ele><time>2026-04-04T10:02:24.371Z</time></trkpt><trkpt lat="43.7329667" lon="12.4310467"><ele>308.0</ele><time>2026-04-04T10:02:25.371Z</time></trkpt><trkpt lat="43.7327817" lon="12.43113"><ele>308.0</ele><time>2026-04-04T10:02:26.372Z</time></trkpt><trkpt lat="43.7326233" lon="12.4312217"><ele>308.0</ele><time>2026-04-04T10:02:27.371Z</time></trkpt><trkpt lat="43.7324533" lon="12.431295"><ele>311.33333333333337</ele><time>2026-04-04T10:02:28.372Z</time></trkpt><trkpt lat="43.7322867" lon="12.4313733"><ele>314.6666666666667</ele><time>2026-04-04T10:02:29.372Z</time></trkpt><trkpt lat="43.7321267" lon="12.431445"><ele>318.0</ele><time>2026-04-04T10:02:30.371Z</time></trkpt><trkpt lat="43.73197" lon="12.4315133"><ele>315.0</ele><time>2026-04-04T10:02:31.372Z</time></trkpt><trkpt lat="43.7318083" lon="12.431585"><ele>312.0</ele><time>2026-04-04T10:02:32.371Z</time></trkpt><trkpt lat="43.731635" lon="12.4316683"><ele>309.0</ele><time>2026-04-04T10:02:33.371Z</time></trkpt><trkpt lat="43.73147" lon="12.4317283"><ele>309.0</ele><time>2026-04-04T10:02:34.372Z</time></trkpt><trkpt lat="43.73131" lon="12.431775"><ele>309.0</ele><time>2026-04-04T10:02:35.371Z</time></trkpt><trkpt lat="43.7311467" lon="12.4318183"><ele>309.0</ele><time>2026-04-04T10:02:36.372Z</time></trkpt><trkpt lat="43.7309833" lon="12.431845"><ele>305.3333333333333</ele><time>2026-04-04T10:02:37.371Z</time></trkpt><trkpt lat="43.730815" lon="12.43187"><ele>301.66666666666663</ele><time>2026-04-04T10:02:38.372Z</time></trkpt><trkpt lat="43.73067" lon="12.431885"><ele>298.0</ele><time>2026-04-04T10:02:39.372Z</time></trkpt><trkpt lat="43.7305283" lon="12.4319017"><ele>298.0</ele><time>2026-04-04T10:02:40.371Z</time></trkpt><trkpt lat="43.730405" lon="12.43191"><ele>298.0</ele><time>2026-04-04T10:02:41.371Z</time></trkpt><trkpt lat="43.7303217" lon="12.4319117"><ele>298.0</ele><time>2026-04-04T10:02:42.371Z</time></trkpt><trkpt lat="43.730225" lon="12.4318683"><ele>298.0</ele><time>2026-04-04T10:02:44.372Z</time></trkpt><trkpt lat="43.7301717" lon="12.4318217"><ele>298.0</ele><time>2026-04-04T10:02:46.372Z</time></trkpt><trkpt lat="43.7301017" lon="12.4316717"><ele>297.16666666666663</ele><time>2026-04-04T10:02:48.372Z</time></trkpt><trkpt lat="43.7300717" lon="12.4315767"><ele>296.3333333333333</ele><time>2026-04-04T10:02:49.371Z</time></trkpt><trkpt lat="43.730035" lon="12.4314833"><ele>295.5</ele><time>2026-04-04T10:02:50.372Z</time></trkpt><trkpt lat="43.7299817" lon="12.4314233"><ele>294.6666666666667</ele><time>2026-04-04T10:02:51.371Z</time></trkpt><trkpt lat="43.7299133" lon="12.4313883"><ele>293.83333333333337</ele><time>2026-04-04T10:02:52.371Z</time></trkpt><trkpt lat="43.729825" lon="12.43139"><ele>293.0</ele><time>2026-04-04T10:02:53.372Z</time></trkpt><trkpt lat="43.7297233" lon="12.4314"><ele>293.0</ele><time>2026-04-04T10:02:54.371Z</time></trkpt><trkpt lat="43.729615" lon="12.4314183"><ele>293.0</ele><time>2026-04-04T10:02:55.371Z</time></trkpt><trkpt lat="43.7295133" lon="12.431425"><ele>293.0</ele><time>2026-04-04T10:02:56.371Z</time></trkpt><trkpt lat="43.72942" lon="12.431435"><ele>293.0</ele><time>2026-04-04T10:02:57.371Z</time></trkpt><trkpt lat="43.7293367" lon="12.4314433"><ele>293.0</ele><time>2026-04-04T10:02:58.371Z</time></trkpt><trkpt lat="43.7292617" lon="12.4314533"><ele>292.0</ele><time>2026-04-04T10:02:59.371Z</time></trkpt><trkpt lat="43.7291633" lon="12.43146"><ele>292.0</ele><time>2026-04-04T10:03:01.372Z</time></trkpt></trkseg></trk></gpx>